<?xml version='1.0' encoding='UTF-8'?><gpx version="1.1" creator="JPX - https://github.com/jenetics/jpx" xmlns="http://www.topografix.com/GPX/1/1"><trk><trkseg><trkpt lat="45.61661" lon="11.3148583"><ele>228.0</ele><time>2026-04-19T12:29:17.71Z</time></trkpt><trkpt lat="45.6166717" lon="11.3147917"><ele>228.0</ele><time>2026-04-19T12:29:20.21Z</time></trkpt><trkpt lat="45.6167383" lon="11.3147283"><ele>228.0</ele><time>2026-04-19T12:29:31.71Z</time></trkpt><trkpt lat="45.616835" lon="11.314675"><ele>228.0</ele><time>2026-04-19T12:29:36.71Z</time></trkpt><trkpt lat="45.616915" lon="11.31468"><ele>228.0</ele><time>2026-04-19T12:29:38.71Z</time></trkpt><trkpt lat="45.6169767" lon="11.3147417"><ele>228.0</ele><time>2026-04-19T12:29:39.709Z</time></trkpt><trkpt lat="45.6170383" lon="11.314825"><ele>227.2</ele><time>2026-04-19T12:29:40.709Z</time></trkpt><trkpt lat="45.6170933" lon="11.314925"><ele>226.4</ele><time>2026-04-19T12:29:41.71Z</time></trkpt><trkpt lat="45.61715" lon="11.31503"><ele>225.59999999999997</ele><time>2026-04-19T12:29:42.71Z</time></trkpt><trkpt lat="45.61721" lon="11.3151333"><ele>224.79999999999998</ele><time>2026-04-19T12:29:43.71Z</time></trkpt><trkpt lat="45.61727" lon="11.3152333"><ele>224.0</ele><time>2026-04-19T12:29:44.709Z</time></trkpt><trkpt lat="45.6173217" lon="11.3153283"><ele>224.00000000000003</ele><time>2026-04-19T12:29:45.71Z</time></trkpt><trkpt lat="45.61737" lon="11.3154217"><ele>224.0</ele><time>2026-04-19T12:29:46.71Z</time></trkpt><trkpt lat="45.6174133" lon="11.3155"><ele>224.0</ele><time>2026-04-19T12:29:47.709Z</time></trkpt><trkpt lat="45.617505" lon="11.315615"><ele>224.0</ele><time>2026-04-19T12:29:49.71Z</time></trkpt><trkpt lat="45.61761" lon="11.3155917"><ele>224.00000000000003</ele><time>2026-04-19T12:29:51.709Z</time></trkpt><trkpt lat="45.61767" lon="11.3155433"><ele>224.0</ele><time>2026-04-19T12:29:52.709Z</time></trkpt><trkpt lat="45.617725" lon="11.3154917"><ele>223.39999999999998</ele><time>2026-04-19T12:29:53.709Z</time></trkpt><trkpt lat="45.61783" lon="11.31543"><ele>222.79999999999998</ele><time>2026-04-19T12:29:55.71Z</time></trkpt><trkpt lat="45.61794" lon="11.3154667"><ele>222.20000000000002</ele><time>2026-04-19T12:29:57.71Z</time></trkpt><trkpt lat="45.6180117" lon="11.3155517"><ele>221.60000000000002</ele><time>2026-04-19T12:29:58.71Z</time></trkpt><trkpt lat="45.6180817" lon="11.3156583"><ele>221.0</ele><time>2026-04-19T12:29:59.71Z</time></trkpt><trkpt lat="45.6181533" lon="11.3157767"><ele>220.8</ele><time>2026-04-19T12:30:00.71Z</time></trkpt><trkpt lat="45.61823" lon="11.3158783"><ele>220.60000000000002</ele><time>2026-04-19T12:30:01.709Z</time></trkpt><trkpt lat="45.6183017" lon="11.3159683"><ele>220.4</ele><time>2026-04-19T12:30:02.709Z</time></trkpt><trkpt lat="45.6183733" lon="11.316055"><ele>220.2</ele><time>2026-04-19T12:30:03.71Z</time></trkpt><trkpt lat="45.6184317" lon="11.3161583"><ele>220.0</ele><time>2026-04-19T12:30:04.71Z</time></trkpt><trkpt lat="45.618465" lon="11.3162867"><ele>220.0</ele><time>2026-04-19T12:30:05.71Z</time></trkpt><trkpt lat="45.61848" lon="11.3164333"><ele>220.0</ele><time>2026-04-19T12:30:06.709Z</time></trkpt><trkpt lat="45.6185" lon="11.3165833"><ele>220.0</ele><time>2026-04-19T12:30:07.709Z</time></trkpt><trkpt lat="45.6185383" lon="11.3167317"><ele>220.0</ele><time>2026-04-19T12:30:08.71Z</time></trkpt><trkpt lat="45.6185733" lon="11.3168767"><ele>220.0</ele><time>2026-04-19T12:30:09.71Z</time></trkpt><trkpt lat="45.6185817" lon="11.3170267"><ele>220.0</ele><time>2026-04-19T12:30:10.71Z</time></trkpt><trkpt lat="45.6185633" lon="11.317175"><ele>220.0</ele><time>2026-04-19T12:30:11.709Z</time></trkpt><trkpt lat="45.6185267" lon="11.3173167"><ele>220.0</ele><time>2026-04-19T12:30:12.709Z</time></trkpt><trkpt lat="45.6184933" lon="11.317475"><ele>220.0</ele><time>2026-04-19T12:30:13.709Z</time></trkpt><trkpt lat="45.6184583" lon="11.3176367"><ele>220.0</ele><time>2026-04-19T12:30:14.71Z</time></trkpt><trkpt lat="45.618425" lon="11.317815"><ele>219.25</ele><time>2026-04-19T12:30:15.71Z</time></trkpt><trkpt lat="45.618385" lon="11.31801"><ele>218.5</ele><time>2026-04-19T12:30:16.71Z</time></trkpt><trkpt lat="45.61835" lon="11.3182117"><ele>217.75</ele><time>2026-04-19T12:30:17.709Z</time></trkpt><trkpt lat="45.6183117" lon="11.31841"><ele>217.0</ele><time>2026-04-19T12:30:18.71Z</time></trkpt><trkpt lat="45.6182683" lon="11.3186083"><ele>215.33333333333331</ele><time>2026-04-19T12:30:19.71Z</time></trkpt><trkpt lat="45.6182233" lon="11.318825"><ele>213.66666666666669</ele><time>2026-04-19T12:30:20.71Z</time></trkpt><trkpt lat="45.6181767" lon="11.3190383"><ele>212.0</ele><time>2026-04-19T12:30:21.71Z</time></trkpt><trkpt lat="45.61813" lon="11.3192583"><ele>210.66666666666669</ele><time>2026-04-19T12:30:22.709Z</time></trkpt><trkpt lat="45.6180717" lon="11.319475"><ele>209.33333333333331</ele><time>2026-04-19T12:30:23.709Z</time></trkpt><trkpt lat="45.6180083" lon="11.319685"><ele>208.0</ele><time>2026-04-19T12:30:24.71Z</time></trkpt><trkpt lat="45.6179367" lon="11.3198933"><ele>208.0</ele><time>2026-04-19T12:30:25.709Z</time></trkpt><trkpt lat="45.6178533" lon="11.3200833"><ele>208.0</ele><time>2026-04-19T12:30:26.709Z</time></trkpt><trkpt lat="45.6177567" lon="11.32027"><ele>208.0</ele><time>2026-04-19T12:30:27.709Z</time></trkpt><trkpt lat="45.61765" lon="11.3204533"><ele>207.33333333333331</ele><time>2026-04-19T12:30:28.709Z</time></trkpt><trkpt lat="45.6175333" lon="11.3206417"><ele>206.66666666666669</ele><time>2026-04-19T12:30:29.709Z</time></trkpt><trkpt lat="45.61741" lon="11.32081"><ele>206.0</ele><time>2026-04-19T12:30:30.709Z</time></trkpt><trkpt lat="45.6172917" lon="11.3209717"><ele>206.0</ele><time>2026-04-19T12:30:31.709Z</time></trkpt><trkpt lat="45.61718" lon="11.32113"><ele>206.0</ele><time>2026-04-19T12:30:32.709Z</time></trkpt><trkpt lat="45.6170717" lon="11.3212817"><ele>206.0</ele><time>2026-04-19T12:30:33.71Z</time></trkpt><trkpt lat="45.6169633" lon="11.3214283"><ele>206.0</ele><time>2026-04-19T12:30:34.71Z</time></trkpt><trkpt lat="45.6168567" lon="11.3215717"><ele>206.0</ele><time>2026-04-19T12:30:35.71Z</time></trkpt><trkpt lat="45.6167533" lon="11.3217183"><ele>206.0</ele><time>2026-04-19T12:30:36.709Z</time></trkpt><trkpt lat="45.6166483" lon="11.3218667"><ele>206.0</ele><time>2026-04-19T12:30:37.71Z</time></trkpt><trkpt lat="45.6165417" lon="11.32201"><ele>206.0</ele><time>2026-04-19T12:30:38.71Z</time></trkpt><trkpt lat="45.616435" lon="11.3221533"><ele>206.0</ele><time>2026-04-19T12:30:39.71Z</time></trkpt><trkpt lat="45.6163333" lon="11.3223067"><ele>206.0</ele><time>2026-04-19T12:30:40.709Z</time></trkpt><trkpt lat="45.6162333" lon="11.32245"><ele>206.0</ele><time>2026-04-19T12:30:41.71Z</time></trkpt><trkpt lat="45.6161233" lon="11.3225983"><ele>206.25</ele><time>2026-04-19T12:30:42.709Z</time></trkpt><trkpt lat="45.6160267" lon="11.3227433"><ele>206.5</ele><time>2026-04-19T12:30:43.71Z</time></trkpt><trkpt lat="45.6159267" lon="11.3228933"><ele>206.75</ele><time>2026-04-19T12:30:44.71Z</time></trkpt><trkpt lat="45.61584" lon="11.3230483"><ele>207.0</ele><time>2026-04-19T12:30:45.709Z</time></trkpt><trkpt lat="45.6157433" lon="11.3232083"><ele>206.33333333333331</ele><time>2026-04-19T12:30:46.71Z</time></trkpt><trkpt lat="45.6156567" lon="11.3233817"><ele>205.66666666666666</ele><time>2026-04-19T12:30:47.71Z</time></trkpt><trkpt lat="45.6155683" lon="11.3235533"><ele>205.0</ele><time>2026-04-19T12:30:48.709Z</time></trkpt><trkpt lat="45.6154817" lon="11.323735"><ele>204.66666666666666</ele><time>2026-04-19T12:30:49.71Z</time></trkpt><trkpt lat="45.6154" lon="11.3239233"><ele>204.33333333333331</ele><time>2026-04-19T12:30:50.71Z</time></trkpt><trkpt lat="45.615315" lon="11.32411"><ele>204.0</ele><time>2026-04-19T12:30:51.709Z</time></trkpt><trkpt lat="45.6152317" lon="11.3243"><ele>206.0</ele><time>2026-04-19T12:30:52.71Z</time></trkpt><trkpt lat="45.6151517" lon="11.3244883"><ele>208.0</ele><time>2026-04-19T12:30:53.71Z</time></trkpt><trkpt lat="45.6150733" lon="11.3246833"><ele>210.0</ele><time>2026-04-19T12:30:54.71Z</time></trkpt><trkpt lat="45.6149883" lon="11.3248833"><ele>210.0</ele><time>2026-04-19T12:30:55.709Z</time></trkpt><trkpt lat="45.6149" lon="11.3251017"><ele>210.0</ele><time>2026-04-19T12:30:56.709Z</time></trkpt><trkpt lat="45.61481" lon="11.3253133"><ele>210.0</ele><time>2026-04-19T12:30:57.709Z</time></trkpt><trkpt lat="45.6147167" lon="11.3255483"><ele>208.33333333333331</ele><time>2026-04-19T12:30:58.71Z</time></trkpt><trkpt lat="45.6146117" lon="11.3257867"><ele>206.66666666666666</ele><time>2026-04-19T12:30:59.709Z</time></trkpt><trkpt lat="45.6145017" lon="11.326015"><ele>205.0</ele><time>2026-04-19T12:31:00.71Z</time></trkpt><trkpt lat="45.6143883" lon="11.3262583"><ele>205.33333333333331</ele><time>2026-04-19T12:31:01.709Z</time></trkpt><trkpt lat="45.6142933" lon="11.3265033"><ele>205.66666666666669</ele><time>2026-04-19T12:31:02.71Z</time></trkpt><trkpt lat="45.6142017" lon="11.32673"><ele>206.0</ele><time>2026-04-19T12:31:03.71Z</time></trkpt><trkpt lat="45.6141067" lon="11.326935"><ele>206.0</ele><time>2026-04-19T12:31:04.71Z</time></trkpt><trkpt lat="45.61402" lon="11.3271283"><ele>206.0</ele><time>2026-04-19T12:31:05.71Z</time></trkpt><trkpt lat="45.6139417" lon="11.327315"><ele>206.0</ele><time>2026-04-19T12:31:06.709Z</time></trkpt><trkpt lat="45.6138717" lon="11.3274867"><ele>205.25</ele><time>2026-04-19T12:31:07.709Z</time></trkpt><trkpt lat="45.6138" lon="11.3276533"><ele>204.5</ele><time>2026-04-19T12:31:08.71Z</time></trkpt><trkpt lat="45.6137267" lon="11.32781"><ele>203.75</ele><time>2026-04-19T12:31:09.709Z</time></trkpt><trkpt lat="45.6136483" lon="11.3279483"><ele>203.0</ele><time>2026-04-19T12:31:10.71Z</time></trkpt><trkpt lat="45.6135633" lon="11.3280783"><ele>202.25</ele><time>2026-04-19T12:31:11.709Z</time></trkpt><trkpt lat="45.613465" lon="11.3281983"><ele>201.5</ele><time>2026-04-19T12:31:12.71Z</time></trkpt><trkpt lat="45.6133567" lon="11.3282983"><ele>200.75</ele><time>2026-04-19T12:31:13.709Z</time></trkpt><trkpt lat="45.613255" lon="11.3283783"><ele>200.0</ele><time>2026-04-19T12:31:14.71Z</time></trkpt><trkpt lat="45.613155" lon="11.328445"><ele>200.0</ele><time>2026-04-19T12:31:15.71Z</time></trkpt><trkpt lat="45.6130733" lon="11.3285183"><ele>200.0</ele><time>2026-04-19T12:31:16.71Z</time></trkpt><trkpt lat="45.613005" lon="11.32862"><ele>200.0</ele><time>2026-04-19T12:31:17.71Z</time></trkpt><trkpt lat="45.6129583" lon="11.3287417"><ele>200.0</ele><time>2026-04-19T12:31:18.709Z</time></trkpt><trkpt lat="45.61294" lon="11.3288767"><ele>200.0</ele><time>2026-04-19T12:31:19.71Z</time></trkpt><trkpt lat="45.612945" lon="11.3290267"><ele>199.75</ele><time>2026-04-19T12:31:20.71Z</time></trkpt><trkpt lat="45.612975" lon="11.329165"><ele>199.5</ele><time>2026-04-19T12:31:21.709Z</time></trkpt><trkpt lat="45.6129933" lon="11.329325"><ele>199.25</ele><time>2026-04-19T12:31:22.709Z</time></trkpt><trkpt lat="45.6129783" lon="11.329495"><ele>199.0</ele><time>2026-04-19T12:31:23.709Z</time></trkpt><trkpt lat="45.61295" lon="11.3296767"><ele>198.66666666666666</ele><time>2026-04-19T12:31:24.709Z</time></trkpt><trkpt lat="45.6128867" lon="11.3298533"><ele>198.33333333333331</ele><time>2026-04-19T12:31:25.71Z</time></trkpt><trkpt lat="45.6127967" lon="11.3300367"><ele>198.0</ele><time>2026-04-19T12:31:26.71Z</time></trkpt><trkpt lat="45.6127117" lon="11.330235"><ele>198.0</ele><time>2026-04-19T12:31:27.71Z</time></trkpt><trkpt lat="45.6126183" lon="11.330445"><ele>198.0</ele><time>2026-04-19T12:31:28.71Z</time></trkpt><trkpt lat="45.6125333" lon="11.330675"><ele>198.0</ele><time>2026-04-19T12:31:29.71Z</time></trkpt><trkpt lat="45.6124433" lon="11.33092"><ele>197.0</ele><time>2026-04-19T12:31:30.71Z</time></trkpt><trkpt lat="45.6123533" lon="11.3311567"><ele>196.0</ele><time>2026-04-19T12:31:31.71Z</time></trkpt><trkpt lat="45.6122667" lon="11.331415"><ele>195.0</ele><time>2026-04-19T12:31:32.71Z</time></trkpt><trkpt lat="45.6121783" lon="11.3316783"><ele>194.66666666666669</ele><time>2026-04-19T12:31:33.709Z</time></trkpt><trkpt lat="45.6120933" lon="11.3319433"><ele>194.33333333333334</ele><time>2026-04-19T12:31:34.71Z</time></trkpt><trkpt lat="45.6119933" lon="11.3322067"><ele>194.0</ele><time>2026-04-19T12:31:35.71Z</time></trkpt><trkpt lat="45.6118767" lon="11.3324633"><ele>193.66666666666669</ele><time>2026-04-19T12:31:36.709Z</time></trkpt><trkpt lat="45.6117733" lon="11.332745"><ele>193.33333333333331</ele><time>2026-04-19T12:31:37.71Z</time></trkpt><trkpt lat="45.6116817" lon="11.3329983"><ele>193.0</ele><time>2026-04-19T12:31:38.71Z</time></trkpt><trkpt lat="45.6115833" lon="11.3332367"><ele>192.33333333333331</ele><time>2026-04-19T12:31:39.71Z</time></trkpt><trkpt lat="45.6114883" lon="11.3334517"><ele>191.66666666666666</ele><time>2026-04-19T12:31:40.709Z</time></trkpt><trkpt lat="45.611395" lon="11.3336517"><ele>191.0</ele><time>2026-04-19T12:31:41.71Z</time></trkpt><trkpt lat="45.611305" lon="11.33385"><ele>191.0</ele><time>2026-04-19T12:31:42.71Z</time></trkpt><trkpt lat="45.611215" lon="11.3340433"><ele>191.0</ele><time>2026-04-19T12:31:43.709Z</time></trkpt><trkpt lat="45.6111333" lon="11.334235"><ele>191.0</ele><time>2026-04-19T12:31:44.709Z</time></trkpt><trkpt lat="45.611045" lon="11.334415"><ele>190.66666666666666</ele><time>2026-04-19T12:31:45.71Z</time></trkpt><trkpt lat="45.6109533" lon="11.3345967"><ele>190.33333333333334</ele><time>2026-04-19T12:31:46.71Z</time></trkpt><trkpt lat="45.6108683" lon="11.3347767"><ele>190.0</ele><time>2026-04-19T12:31:47.709Z</time></trkpt><trkpt lat="45.6107883" lon="11.3349617"><ele>190.0</ele><time>2026-04-19T12:31:48.709Z</time></trkpt><trkpt lat="45.6107067" lon="11.3351517"><ele>190.0</ele><time>2026-04-19T12:31:49.709Z</time></trkpt><trkpt lat="45.6106283" lon="11.3353383"><ele>190.0</ele><time>2026-04-19T12:31:50.709Z</time></trkpt><trkpt lat="45.610545" lon="11.3355233"><ele>189.66666666666669</ele><time>2026-04-19T12:31:51.709Z</time></trkpt><trkpt lat="45.6104617" lon="11.335715"><ele>189.33333333333334</ele><time>2026-04-19T12:31:52.71Z</time></trkpt><trkpt lat="45.6103767" lon="11.3358967"><ele>189.0</ele><time>2026-04-19T12:31:53.71Z</time></trkpt><trkpt lat="45.6103017" lon="11.3360917"><ele>189.0</ele><time>2026-04-19T12:31:54.709Z</time></trkpt><trkpt lat="45.6102233" lon="11.336275"><ele>189.0</ele><time>2026-04-19T12:31:55.709Z</time></trkpt><trkpt lat="45.6101533" lon="11.3364567"><ele>189.0</ele><time>2026-04-19T12:31:56.709Z</time></trkpt><trkpt lat="45.6100833" lon="11.336635"><ele>189.0</ele><time>2026-04-19T12:31:57.71Z</time></trkpt><trkpt lat="45.610005" lon="11.3368083"><ele>188.25</ele><time>2026-04-19T12:31:58.71Z</time></trkpt><trkpt lat="45.609935" lon="11.3369867"><ele>187.5</ele><time>2026-04-19T12:31:59.709Z</time></trkpt><trkpt lat="45.609865" lon="11.3371583"><ele>186.75</ele><time>2026-04-19T12:32:00.71Z</time></trkpt><trkpt lat="45.609795" lon="11.33733"><ele>186.0</ele><time>2026-04-19T12:32:01.71Z</time></trkpt><trkpt lat="45.6097333" lon="11.3374983"><ele>186.0</ele><time>2026-04-19T12:32:02.709Z</time></trkpt><trkpt lat="45.6096733" lon="11.33766"><ele>186.0</ele><time>2026-04-19T12:32:03.709Z</time></trkpt><trkpt lat="45.6096083" lon="11.3378217"><ele>186.0</ele><time>2026-04-19T12:32:04.71Z</time></trkpt><trkpt lat="45.6095446" lon="11.3379816"><ele>186.0</ele><time>2026-04-19T12:32:05.71Z</time></trkpt><trkpt lat="45.6094798" lon="11.3381366"><ele>186.5</ele><time>2026-04-19T12:32:06.71Z</time></trkpt><trkpt lat="45.6094188" lon="11.3382881"><ele>187.0</ele><time>2026-04-19T12:32:07.709Z</time></trkpt><trkpt lat="45.6093626" lon="11.3384366"><ele>187.5</ele><time>2026-04-19T12:32:08.709Z</time></trkpt><trkpt lat="45.6093018" lon="11.3385738"><ele>188.0</ele><time>2026-04-19T12:32:09.71Z</time></trkpt><trkpt lat="45.6092465" lon="11.3387014"><ele>188.0</ele><time>2026-04-19T12:32:10.71Z</time></trkpt><trkpt lat="45.6091967" lon="11.3388347"><ele>188.0</ele><time>2026-04-19T12:32:11.709Z</time></trkpt><trkpt lat="45.6091452" lon="11.3389676"><ele>188.0</ele><time>2026-04-19T12:32:12.71Z</time></trkpt><trkpt lat="45.6090932" lon="11.3390993"><ele>188.0</ele><time>2026-04-19T12:32:13.709Z</time></trkpt><trkpt lat="45.609042" lon="11.3392285"><ele>188.0</ele><time>2026-04-19T12:32:14.709Z</time></trkpt><trkpt lat="45.608991" lon="11.3393573"><ele>188.0</ele><time>2026-04-19T12:32:15.71Z</time></trkpt><trkpt lat="45.6089455" lon="11.3394736"><ele>188.0</ele><time>2026-04-19T12:32:16.709Z</time></trkpt><trkpt lat="45.6089057" lon="11.3395743"><ele>188.0</ele><time>2026-04-19T12:32:17.709Z</time></trkpt><trkpt lat="45.6088655" lon="11.3396607"><ele>188.0</ele><time>2026-04-19T12:32:18.709Z</time></trkpt><trkpt lat="45.6088267" lon="11.3397378"><ele>188.0</ele><time>2026-04-19T12:32:19.71Z</time></trkpt><trkpt lat="45.6087817" lon="11.3398222"><ele>188.0</ele><time>2026-04-19T12:32:20.71Z</time></trkpt><trkpt lat="45.6087284" lon="11.3399164"><ele>188.0</ele><time>2026-04-19T12:32:21.71Z</time></trkpt><trkpt lat="45.6086724" lon="11.3400183"><ele>188.0</ele><time>2026-04-19T12:32:22.709Z</time></trkpt><trkpt lat="45.6086062" lon="11.3401191"><ele>188.0</ele><time>2026-04-19T12:32:23.71Z</time></trkpt><trkpt lat="45.6085333" lon="11.3402164"><ele>188.0</ele><time>2026-04-19T12:32:24.71Z</time></trkpt><trkpt lat="45.6084546" lon="11.3403201"><ele>188.0</ele><time>2026-04-19T12:32:25.709Z</time></trkpt><trkpt lat="45.6083682" lon="11.3404262"><ele>188.2</ele><time>2026-04-19T12:32:26.709Z</time></trkpt><trkpt lat="45.6082784" lon="11.3405251"><ele>188.4</ele><time>2026-04-19T12:32:27.709Z</time></trkpt><trkpt lat="45.6081781" lon="11.3405938"><ele>188.6</ele><time>2026-04-19T12:32:28.71Z</time></trkpt><trkpt lat="45.6080848" lon="11.3406399"><ele>188.79999999999998</ele><time>2026-04-19T12:32:29.709Z</time></trkpt><trkpt lat="45.6079945" lon="11.3406729"><ele>189.0</ele><time>2026-04-19T12:32:30.71Z</time></trkpt><trkpt lat="45.6079144" lon="11.3406954"><ele>189.0</ele><time>2026-04-19T12:32:31.71Z</time></trkpt><trkpt lat="45.6078484" lon="11.3406929"><ele>189.0</ele><time>2026-04-19T12:32:32.709Z</time></trkpt><trkpt lat="45.6077613" lon="11.3406079"><ele>189.0</ele><time>2026-04-19T12:32:34.71Z</time></trkpt><trkpt lat="45.6077553" lon="11.3404468"><ele>189.0</ele><time>2026-04-19T12:32:36.71Z</time></trkpt><trkpt lat="45.60779" lon="11.3403711"><ele>189.0</ele><time>2026-04-19T12:32:37.709Z</time></trkpt><trkpt lat="45.6078411" lon="11.340302"><ele>189.0</ele><time>2026-04-19T12:32:38.709Z</time></trkpt><trkpt lat="45.6079135" lon="11.3402346"><ele>189.0</ele><time>2026-04-19T12:32:39.71Z</time></trkpt><trkpt lat="45.6079981" lon="11.3401601"><ele>189.0</ele><time>2026-04-19T12:32:40.71Z</time></trkpt><trkpt lat="45.6080838" lon="11.3400719"><ele>189.0</ele><time>2026-04-19T12:32:41.71Z</time></trkpt><trkpt lat="45.6081661" lon="11.3399885"><ele>189.0</ele><time>2026-04-19T12:32:42.71Z</time></trkpt><trkpt lat="45.6082359" lon="11.3399107"><ele>189.0</ele><time>2026-04-19T12:32:43.709Z</time></trkpt><trkpt lat="45.6082917" lon="11.3398225"><ele>189.16666666666666</ele><time>2026-04-19T12:32:44.709Z</time></trkpt><trkpt lat="45.6083294" lon="11.3397093"><ele>189.33333333333334</ele><time>2026-04-19T12:32:45.71Z</time></trkpt><trkpt lat="45.608344" lon="11.3395937"><ele>189.5</ele><time>2026-04-19T12:32:46.709Z</time></trkpt><trkpt lat="45.6083282" lon="11.3394836"><ele>189.66666666666669</ele><time>2026-04-19T12:32:47.71Z</time></trkpt><trkpt lat="45.6082841" lon="11.3393703"><ele>189.83333333333334</ele><time>2026-04-19T12:32:48.709Z</time></trkpt><trkpt lat="45.6082132" lon="11.3392572"><ele>190.0</ele><time>2026-04-19T12:32:49.71Z</time></trkpt><trkpt lat="45.6081364" lon="11.3391292"><ele>190.0</ele><time>2026-04-19T12:32:50.71Z</time></trkpt><trkpt lat="45.6080545" lon="11.3389796"><ele>190.0</ele><time>2026-04-19T12:32:51.71Z</time></trkpt><trkpt lat="45.6079777" lon="11.3388258"><ele>190.0</ele><time>2026-04-19T12:32:52.71Z</time></trkpt><trkpt lat="45.607903" lon="11.3386762"><ele>190.0</ele><time>2026-04-19T12:32:53.71Z</time></trkpt><trkpt lat="45.6078278" lon="11.3385292"><ele>191.0</ele><time>2026-04-19T12:32:54.709Z</time></trkpt><trkpt lat="45.6077604" lon="11.3383865"><ele>192.0</ele><time>2026-04-19T12:32:55.709Z</time></trkpt><trkpt lat="45.6076923" lon="11.3382467"><ele>193.0</ele><time>2026-04-19T12:32:56.71Z</time></trkpt><trkpt lat="45.607628" lon="11.3381053"><ele>194.0</ele><time>2026-04-19T12:32:57.71Z</time></trkpt><trkpt lat="45.6075544" lon="11.3379531"><ele>194.75</ele><time>2026-04-19T12:32:58.71Z</time></trkpt><trkpt lat="45.6074742" lon="11.3377969"><ele>195.5</ele><time>2026-04-19T12:32:59.71Z</time></trkpt><trkpt lat="45.6073915" lon="11.3376356"><ele>196.25</ele><time>2026-04-19T12:33:00.71Z</time></trkpt><trkpt lat="45.6073156" lon="11.3374756"><ele>197.0</ele><time>2026-04-19T12:33:01.71Z</time></trkpt><trkpt lat="45.6072385" lon="11.3373119"><ele>196.75</ele><time>2026-04-19T12:33:02.71Z</time></trkpt><trkpt lat="45.6071619" lon="11.3371555"><ele>196.5</ele><time>2026-04-19T12:33:03.71Z</time></trkpt><trkpt lat="45.6070873" lon="11.3369926"><ele>196.25</ele><time>2026-04-19T12:33:04.709Z</time></trkpt><trkpt lat="45.6070097" lon="11.3368286"><ele>196.0</ele><time>2026-04-19T12:33:05.709Z</time></trkpt><trkpt lat="45.6069317" lon="11.3366695"><ele>197.25</ele><time>2026-04-19T12:33:06.709Z</time></trkpt><trkpt lat="45.6068454" lon="11.3365371"><ele>198.5</ele><time>2026-04-19T12:33:07.71Z</time></trkpt><trkpt lat="45.6067406" lon="11.3364348"><ele>199.75</ele><time>2026-04-19T12:33:08.709Z</time></trkpt><trkpt lat="45.6066307" lon="11.3363449"><ele>201.0</ele><time>2026-04-19T12:33:09.709Z</time></trkpt><trkpt lat="45.6065274" lon="11.3362637"><ele>201.0</ele><time>2026-04-19T12:33:10.71Z</time></trkpt><trkpt lat="45.6064326" lon="11.3361892"><ele>201.0</ele><time>2026-04-19T12:33:11.709Z</time></trkpt><trkpt lat="45.6063482" lon="11.336117"><ele>201.0</ele><time>2026-04-19T12:33:12.71Z</time></trkpt><trkpt lat="45.6062804" lon="11.3360538"><ele>201.0</ele><time>2026-04-19T12:33:13.71Z</time></trkpt><trkpt lat="45.6062198" lon="11.3359927"><ele>201.0</ele><time>2026-04-19T12:33:14.709Z</time></trkpt><trkpt lat="45.6061651" lon="11.3359414"><ele>201.0</ele><time>2026-04-19T12:33:15.71Z</time></trkpt><trkpt lat="45.606066" lon="11.3358607"><ele>201.0</ele><time>2026-04-19T12:33:17.709Z</time></trkpt><trkpt lat="45.6059962" lon="11.3358024"><ele>201.0</ele><time>2026-04-19T12:33:19.71Z</time></trkpt><trkpt lat="45.6060241" lon="11.3359029"><ele>201.0</ele><time>2026-04-19T12:33:25.71Z</time></trkpt><trkpt lat="45.6060853" lon="11.3359401"><ele>201.0</ele><time>2026-04-19T12:33:27.71Z</time></trkpt><trkpt lat="45.6061879" lon="11.3360254"><ele>201.0</ele><time>2026-04-19T12:33:29.709Z</time></trkpt><trkpt lat="45.6062461" lon="11.3360834"><ele>201.0</ele><time>2026-04-19T12:33:30.71Z</time></trkpt><trkpt lat="45.6063036" lon="11.3361339"><ele>201.0</ele><time>2026-04-19T12:33:31.71Z</time></trkpt><trkpt lat="45.6063924" lon="11.3361965"><ele>201.0</ele><time>2026-04-19T12:33:33.709Z</time></trkpt><trkpt lat="45.6064577" lon="11.3361722"><ele>201.0</ele><time>2026-04-19T12:33:35.709Z</time></trkpt><trkpt lat="45.6065035" lon="11.3360496"><ele>201.0</ele><time>2026-04-19T12:33:37.709Z</time></trkpt><trkpt lat="45.6065374" lon="11.3359111"><ele>201.0</ele><time>2026-04-19T12:33:39.709Z</time></trkpt><trkpt lat="45.606525" lon="11.3357569"><ele>201.0</ele><time>2026-04-19T12:33:41.71Z</time></trkpt><trkpt lat="45.6064965" lon="11.3356674"><ele>201.0</ele><time>2026-04-19T12:33:42.71Z</time></trkpt><trkpt lat="45.6064501" lon="11.3355621"><ele>201.0</ele><time>2026-04-19T12:33:43.709Z</time></trkpt><trkpt lat="45.6063821" lon="11.3354577"><ele>201.0</ele><time>2026-04-19T12:33:44.71Z</time></trkpt><trkpt lat="45.6062993" lon="11.3353405"><ele>201.0</ele><time>2026-04-19T12:33:45.71Z</time></trkpt><trkpt lat="45.6062121" lon="11.3352128"><ele>203.5</ele><time>2026-04-19T12:33:46.71Z</time></trkpt><trkpt lat="45.6061327" lon="11.3350786"><ele>206.0</ele><time>2026-04-19T12:33:47.71Z</time></trkpt><trkpt lat="45.6060518" lon="11.3349505"><ele>208.5</ele><time>2026-04-19T12:33:48.71Z</time></trkpt><trkpt lat="45.6059839" lon="11.3348255"><ele>211.0</ele><time>2026-04-19T12:33:49.709Z</time></trkpt><trkpt lat="45.6059239" lon="11.3346928"><ele>211.4</ele><time>2026-04-19T12:33:50.71Z</time></trkpt><trkpt lat="45.6058665" lon="11.3345644"><ele>211.8</ele><time>2026-04-19T12:33:51.709Z</time></trkpt><trkpt lat="45.6058177" lon="11.3344425"><ele>212.20000000000002</ele><time>2026-04-19T12:33:52.71Z</time></trkpt><trkpt lat="45.6057828" lon="11.3343223"><ele>212.60000000000002</ele><time>2026-04-19T12:33:53.709Z</time></trkpt><trkpt lat="45.6057657" lon="11.3342019"><ele>213.0</ele><time>2026-04-19T12:33:54.71Z</time></trkpt><trkpt lat="45.6057778" lon="11.3340661"><ele>213.0</ele><time>2026-04-19T12:33:55.709Z</time></trkpt><trkpt lat="45.6058154" lon="11.3339237"><ele>213.0</ele><time>2026-04-19T12:33:56.71Z</time></trkpt><trkpt lat="45.6058587" lon="11.3337806"><ele>213.0</ele><time>2026-04-19T12:33:57.71Z</time></trkpt><trkpt lat="45.605901" lon="11.3336346"><ele>213.0</ele><time>2026-04-19T12:33:58.709Z</time></trkpt><trkpt lat="45.6059421" lon="11.3334807"><ele>213.0</ele><time>2026-04-19T12:33:59.709Z</time></trkpt><trkpt lat="45.6059914" lon="11.3333246"><ele>214.2</ele><time>2026-04-19T12:34:00.709Z</time></trkpt><trkpt lat="45.6060389" lon="11.3331683"><ele>215.4</ele><time>2026-04-19T12:34:01.71Z</time></trkpt><trkpt lat="45.6060809" lon="11.3330131"><ele>216.59999999999997</ele><time>2026-04-19T12:34:02.71Z</time></trkpt><trkpt lat="45.6061182" lon="11.3328714"><ele>217.79999999999998</ele><time>2026-04-19T12:34:03.71Z</time></trkpt><trkpt lat="45.6061557" lon="11.3327485"><ele>219.0</ele><time>2026-04-19T12:34:04.71Z</time></trkpt><trkpt lat="45.6062059" lon="11.332645"><ele>220.83333333333334</ele><time>2026-04-19T12:34:05.71Z</time></trkpt><trkpt lat="45.6062678" lon="11.3325638"><ele>222.66666666666669</ele><time>2026-04-19T12:34:06.709Z</time></trkpt><trkpt lat="45.606335" lon="11.3325052"><ele>224.5</ele><time>2026-04-19T12:34:07.709Z</time></trkpt><trkpt lat="45.6064058" lon="11.3324837"><ele>226.33333333333334</ele><time>2026-04-19T12:34:08.71Z</time></trkpt><trkpt lat="45.606482" lon="11.3325033"><ele>228.16666666666669</ele><time>2026-04-19T12:34:09.71Z</time></trkpt><trkpt lat="45.6065639" lon="11.3325473"><ele>230.0</ele><time>2026-04-19T12:34:10.71Z</time></trkpt><trkpt lat="45.6066383" lon="11.3325867"><ele>230.0</ele><time>2026-04-19T12:34:11.71Z</time></trkpt><trkpt lat="45.6067083" lon="11.3326033"><ele>230.0</ele><time>2026-04-19T12:34:12.71Z</time></trkpt><trkpt lat="45.606805" lon="11.3325533"><ele>230.0</ele><time>2026-04-19T12:34:14.71Z</time></trkpt><trkpt lat="45.6068567" lon="11.332425"><ele>230.0</ele><time>2026-04-19T12:34:16.709Z</time></trkpt><trkpt lat="45.606855" lon="11.3322567"><ele>230.0</ele><time>2026-04-19T12:34:18.71Z</time></trkpt><trkpt lat="45.6068117" lon="11.3321567"><ele>232.8</ele><time>2026-04-19T12:34:19.709Z</time></trkpt><trkpt lat="45.6067633" lon="11.3320367"><ele>235.6</ele><time>2026-04-19T12:34:20.71Z</time></trkpt><trkpt lat="45.606705" lon="11.331905"><ele>238.39999999999998</ele><time>2026-04-19T12:34:21.709Z</time></trkpt><trkpt lat="45.606635" lon="11.33178"><ele>241.2</ele><time>2026-04-19T12:34:22.71Z</time></trkpt><trkpt lat="45.6065517" lon="11.3316633"><ele>244.0</ele><time>2026-04-19T12:34:23.709Z</time></trkpt><trkpt lat="45.6064617" lon="11.3315567"><ele>244.0</ele><time>2026-04-19T12:34:24.71Z</time></trkpt><trkpt lat="45.6063817" lon="11.33143"><ele>244.0</ele><time>2026-04-19T12:34:25.71Z</time></trkpt><trkpt lat="45.6063" lon="11.3313017"><ele>244.0</ele><time>2026-04-19T12:34:26.709Z</time></trkpt><trkpt lat="45.60622" lon="11.331175"><ele>244.0</ele><time>2026-04-19T12:34:27.709Z</time></trkpt><trkpt lat="45.60613" lon="11.3310317"><ele>248.75</ele><time>2026-04-19T12:34:28.71Z</time></trkpt><trkpt lat="45.6060383" lon="11.3308967"><ele>253.5</ele><time>2026-04-19T12:34:29.709Z</time></trkpt><trkpt lat="45.6059483" lon="11.3307833"><ele>258.25</ele><time>2026-04-19T12:34:30.709Z</time></trkpt><trkpt lat="45.605865" lon="11.3306817"><ele>263.0</ele><time>2026-04-19T12:34:31.709Z</time></trkpt><trkpt lat="45.6058017" lon="11.3305817"><ele>267.33333333333337</ele><time>2026-04-19T12:34:32.71Z</time></trkpt><trkpt lat="45.6057383" lon="11.3305"><ele>271.6666666666667</ele><time>2026-04-19T12:34:33.709Z</time></trkpt><trkpt lat="45.6056683" lon="11.330445"><ele>276.0</ele><time>2026-04-19T12:34:34.71Z</time></trkpt><trkpt lat="45.6055883" lon="11.3304017"><ele>280.3333333333333</ele><time>2026-04-19T12:34:35.709Z</time></trkpt><trkpt lat="45.6055133" lon="11.3303667"><ele>284.66666666666663</ele><time>2026-04-19T12:34:36.709Z</time></trkpt><trkpt lat="45.60543" lon="11.3303383"><ele>289.0</ele><time>2026-04-19T12:34:37.709Z</time></trkpt><trkpt lat="45.6053583" lon="11.3303"><ele>289.16666666666663</ele><time>2026-04-19T12:34:38.71Z</time></trkpt><trkpt lat="45.6052933" lon="11.330245"><ele>289.3333333333333</ele><time>2026-04-19T12:34:39.71Z</time></trkpt><trkpt lat="45.6052433" lon="11.3301617"><ele>289.5</ele><time>2026-04-19T12:34:40.71Z</time></trkpt><trkpt lat="45.6052083" lon="11.33005"><ele>289.6666666666667</ele><time>2026-04-19T12:34:41.709Z</time></trkpt><trkpt lat="45.605185" lon="11.3299283"><ele>289.83333333333337</ele><time>2026-04-19T12:34:42.71Z</time></trkpt><trkpt lat="45.6051783" lon="11.3298117"><ele>290.0</ele><time>2026-04-19T12:34:43.709Z</time></trkpt><trkpt lat="45.605175" lon="11.32972"><ele>290.0</ele><time>2026-04-19T12:34:44.709Z</time></trkpt><trkpt lat="45.6051919" lon="11.3295837"><ele>290.0</ele><time>2026-04-19T12:34:46.71Z</time></trkpt><trkpt lat="45.6052735" lon="11.3295451"><ele>290.0</ele><time>2026-04-19T12:34:48.708Z</time></trkpt><trkpt lat="45.6053366" lon="11.3295731"><ele>290.0</ele><time>2026-04-19T12:34:49.708Z</time></trkpt><trkpt lat="45.6054" lon="11.329624"><ele>290.0</ele><time>2026-04-19T12:34:50.709Z</time></trkpt><trkpt lat="45.6054599" lon="11.3296679"><ele>290.0</ele><time>2026-04-19T12:34:51.708Z</time></trkpt><trkpt lat="45.605572" lon="11.3296844"><ele>293.5</ele><time>2026-04-19T12:34:53.708Z</time></trkpt><trkpt lat="45.6056289" lon="11.329645"><ele>297.0</ele><time>2026-04-19T12:34:54.709Z</time></trkpt><trkpt lat="45.60569" lon="11.329599"><ele>300.5</ele><time>2026-04-19T12:34:55.708Z</time></trkpt><trkpt lat="45.6057598" lon="11.329558"><ele>304.0</ele><time>2026-04-19T12:34:56.708Z</time></trkpt><trkpt lat="45.6058221" lon="11.3294516"><ele>307.5</ele><time>2026-04-19T12:34:58.709Z</time></trkpt><trkpt lat="45.6057569" lon="11.3293578"><ele>311.0</ele><time>2026-04-19T12:35:00.709Z</time></trkpt><trkpt lat="45.6056895" lon="11.3293188"><ele>311.0</ele><time>2026-04-19T12:35:01.708Z</time></trkpt><trkpt lat="45.6056157" lon="11.3292583"><ele>311.0</ele><time>2026-04-19T12:35:02.708Z</time></trkpt><trkpt lat="45.6055397" lon="11.3291697"><ele>311.0</ele><time>2026-04-19T12:35:03.709Z</time></trkpt><trkpt lat="45.6054683" lon="11.3290658"><ele>311.0</ele><time>2026-04-19T12:35:04.708Z</time></trkpt><trkpt lat="45.6054046" lon="11.3289509"><ele>311.0</ele><time>2026-04-19T12:35:05.709Z</time></trkpt><trkpt lat="45.6053484" lon="11.328827"><ele>310.0</ele><time>2026-04-19T12:35:06.708Z</time></trkpt><trkpt lat="45.6053002" lon="11.3286923"><ele>309.0</ele><time>2026-04-19T12:35:07.708Z</time></trkpt><trkpt lat="45.6052606" lon="11.3285453"><ele>308.0</ele><time>2026-04-19T12:35:08.709Z</time></trkpt><trkpt lat="45.6052182" lon="11.3283966"><ele>307.0</ele><time>2026-04-19T12:35:09.708Z</time></trkpt><trkpt lat="45.6051812" lon="11.328249"><ele>306.0</ele><time>2026-04-19T12:35:10.708Z</time></trkpt><trkpt lat="45.6051489" lon="11.3280966"><ele>309.5</ele><time>2026-04-19T12:35:11.708Z</time></trkpt><trkpt lat="45.6051198" lon="11.3279374"><ele>313.0</ele><time>2026-04-19T12:35:12.708Z</time></trkpt><trkpt lat="45.6050889" lon="11.3277765"><ele>316.5</ele><time>2026-04-19T12:35:13.709Z</time></trkpt><trkpt lat="45.6050676" lon="11.3276181"><ele>320.0</ele><time>2026-04-19T12:35:14.709Z</time></trkpt><trkpt lat="45.6050554" lon="11.3274685"><ele>320.0</ele><time>2026-04-19T12:35:15.708Z</time></trkpt><trkpt lat="45.6050649" lon="11.3273303"><ele>320.0</ele><time>2026-04-19T12:35:16.709Z</time></trkpt><trkpt lat="45.6050914" lon="11.3272023"><ele>320.0</ele><time>2026-04-19T12:35:17.709Z</time></trkpt><trkpt lat="45.6051467" lon="11.3270933"><ele>320.0</ele><time>2026-04-19T12:35:18.708Z</time></trkpt><trkpt lat="45.6052117" lon="11.3269967"><ele>320.0</ele><time>2026-04-19T12:35:19.709Z</time></trkpt><trkpt lat="45.6052883" lon="11.3269167"><ele>324.2</ele><time>2026-04-19T12:35:20.708Z</time></trkpt><trkpt lat="45.6053667" lon="11.3268317"><ele>328.4</ele><time>2026-04-19T12:35:21.709Z</time></trkpt><trkpt lat="45.6054517" lon="11.3267433"><ele>332.6</ele><time>2026-04-19T12:35:22.708Z</time></trkpt><trkpt lat="45.6055267" lon="11.3266567"><ele>336.8</ele><time>2026-04-19T12:35:23.709Z</time></trkpt><trkpt lat="45.60559" lon="11.3265733"><ele>341.0</ele><time>2026-04-19T12:35:24.709Z</time></trkpt><trkpt lat="45.6056567" lon="11.3264983"><ele>341.0</ele><time>2026-04-19T12:35:25.709Z</time></trkpt><trkpt lat="45.6057133" lon="11.3264333"><ele>341.0</ele><time>2026-04-19T12:35:26.708Z</time></trkpt><trkpt lat="45.6057667" lon="11.326355"><ele>341.0</ele><time>2026-04-19T12:35:27.709Z</time></trkpt><trkpt lat="45.6058117" lon="11.3262683"><ele>341.0</ele><time>2026-04-19T12:35:28.709Z</time></trkpt><trkpt lat="45.6058617" lon="11.3261783"><ele>341.0</ele><time>2026-04-19T12:35:29.709Z</time></trkpt><trkpt lat="45.605915" lon="11.3260917"><ele>341.0</ele><time>2026-04-19T12:35:30.708Z</time></trkpt><trkpt lat="45.6059667" lon="11.3259967"><ele>341.0</ele><time>2026-04-19T12:35:31.708Z</time></trkpt><trkpt lat="45.6060117" lon="11.3258933"><ele>341.0</ele><time>2026-04-19T12:35:32.709Z</time></trkpt><trkpt lat="45.6060617" lon="11.3257883"><ele>341.0</ele><time>2026-04-19T12:35:33.709Z</time></trkpt><trkpt lat="45.60612" lon="11.32568"><ele>341.0</ele><time>2026-04-19T12:35:34.709Z</time></trkpt><trkpt lat="45.606175" lon="11.325565"><ele>341.0</ele><time>2026-04-19T12:35:35.709Z</time></trkpt><trkpt lat="45.606225" lon="11.3254483"><ele>341.20000000000005</ele><time>2026-04-19T12:35:36.709Z</time></trkpt><trkpt lat="45.6062833" lon="11.325325"><ele>341.40000000000003</ele><time>2026-04-19T12:35:37.708Z</time></trkpt><trkpt lat="45.6063433" lon="11.3251867"><ele>341.6</ele><time>2026-04-19T12:35:38.708Z</time></trkpt><trkpt lat="45.6063767" lon="11.3250417"><ele>341.8</ele><time>2026-04-19T12:35:39.708Z</time></trkpt><trkpt lat="45.6063933" lon="11.324885"><ele>342.0</ele><time>2026-04-19T12:35:40.708Z</time></trkpt><trkpt lat="45.606405" lon="11.3247283"><ele>345.25</ele><time>2026-04-19T12:35:41.708Z</time></trkpt><trkpt lat="45.6064133" lon="11.3245617"><ele>348.5</ele><time>2026-04-19T12:35:42.708Z</time></trkpt><trkpt lat="45.6064167" lon="11.3243933"><ele>351.75</ele><time>2026-04-19T12:35:43.709Z</time></trkpt><trkpt lat="45.606435" lon="11.3242317"><ele>355.0</ele><time>2026-04-19T12:35:44.709Z</time></trkpt><trkpt lat="45.60646" lon="11.3240733"><ele>355.0</ele><time>2026-04-19T12:35:45.708Z</time></trkpt><trkpt lat="45.6064867" lon="11.323905"><ele>355.0</ele><time>2026-04-19T12:35:46.709Z</time></trkpt><trkpt lat="45.6065333" lon="11.3237367"><ele>355.0</ele><time>2026-04-19T12:35:47.708Z</time></trkpt><trkpt lat="45.60659" lon="11.3235767"><ele>355.0</ele><time>2026-04-19T12:35:48.708Z</time></trkpt><trkpt lat="45.6066467" lon="11.32343"><ele>357.4</ele><time>2026-04-19T12:35:49.708Z</time></trkpt><trkpt lat="45.6067017" lon="11.3233083"><ele>359.8</ele><time>2026-04-19T12:35:50.709Z</time></trkpt><trkpt lat="45.606775" lon="11.3232117"><ele>362.20000000000005</ele><time>2026-04-19T12:35:51.709Z</time></trkpt><trkpt lat="45.6068567" lon="11.3231467"><ele>364.6</ele><time>2026-04-19T12:35:52.708Z</time></trkpt><trkpt lat="45.6069445" lon="11.3230948"><ele>367.0</ele><time>2026-04-19T12:35:53.708Z</time></trkpt><trkpt lat="45.6070214" lon="11.3230467"><ele>368.8333333333333</ele><time>2026-04-19T12:35:54.709Z</time></trkpt><trkpt lat="45.6070835" lon="11.3229775"><ele>370.66666666666663</ele><time>2026-04-19T12:35:55.708Z</time></trkpt><trkpt lat="45.6071232" lon="11.3228743"><ele>372.5</ele><time>2026-04-19T12:35:56.708Z</time></trkpt><trkpt lat="45.6071481" lon="11.3227468"><ele>374.3333333333333</ele><time>2026-04-19T12:35:57.709Z</time></trkpt><trkpt lat="45.6071816" lon="11.3226174"><ele>376.1666666666667</ele><time>2026-04-19T12:35:58.709Z</time></trkpt><trkpt lat="45.6072341" lon="11.3225107"><ele>378.0</ele><time>2026-04-19T12:35:59.709Z</time></trkpt><trkpt lat="45.6072994" lon="11.3224393"><ele>378.0</ele><time>2026-04-19T12:36:00.709Z</time></trkpt><trkpt lat="45.6073697" lon="11.3224125"><ele>378.0</ele><time>2026-04-19T12:36:01.709Z</time></trkpt><trkpt lat="45.607452" lon="11.3224109"><ele>378.0</ele><time>2026-04-19T12:36:02.708Z</time></trkpt><trkpt lat="45.6075373" lon="11.3224058"><ele>378.0</ele><time>2026-04-19T12:36:03.708Z</time></trkpt><trkpt lat="45.607621" lon="11.3223827"><ele>378.0</ele><time>2026-04-19T12:36:04.709Z</time></trkpt><trkpt lat="45.6076802" lon="11.3223515"><ele>378.0</ele><time>2026-04-19T12:36:05.708Z</time></trkpt><trkpt lat="45.6077602" lon="11.3222994"><ele>380.2</ele><time>2026-04-19T12:36:07.708Z</time></trkpt><trkpt lat="45.6078155" lon="11.3222079"><ele>382.4</ele><time>2026-04-19T12:36:09.709Z</time></trkpt><trkpt lat="45.607805" lon="11.3220506"><ele>384.59999999999997</ele><time>2026-04-19T12:36:11.708Z</time></trkpt><trkpt lat="45.6077722" lon="11.3219481"><ele>386.79999999999995</ele><time>2026-04-19T12:36:12.708Z</time></trkpt><trkpt lat="45.607735" lon="11.3218319"><ele>389.0</ele><time>2026-04-19T12:36:13.708Z</time></trkpt><trkpt lat="45.6076984" lon="11.3217035"><ele>389.0</ele><time>2026-04-19T12:36:14.709Z</time></trkpt><trkpt lat="45.607656" lon="11.3215795"><ele>389.0</ele><time>2026-04-19T12:36:15.708Z</time></trkpt><trkpt lat="45.6076162" lon="11.3214475"><ele>389.0</ele><time>2026-04-19T12:36:16.708Z</time></trkpt><trkpt lat="45.6075812" lon="11.3213047"><ele>389.0</ele><time>2026-04-19T12:36:17.709Z</time></trkpt><trkpt lat="45.6075499" lon="11.3211526"><ele>389.0</ele><time>2026-04-19T12:36:18.708Z</time></trkpt><trkpt lat="45.607527" lon="11.3209859"><ele>391.0</ele><time>2026-04-19T12:36:19.709Z</time></trkpt><trkpt lat="45.6075197" lon="11.3208148"><ele>393.0</ele><time>2026-04-19T12:36:20.709Z</time></trkpt><trkpt lat="45.6075255" lon="11.3206392"><ele>395.0</ele><time>2026-04-19T12:36:21.708Z</time></trkpt><trkpt lat="45.6075451" lon="11.3204568"><ele>397.0</ele><time>2026-04-19T12:36:22.709Z</time></trkpt><trkpt lat="45.607566" lon="11.3202743"><ele>399.5</ele><time>2026-04-19T12:36:23.708Z</time></trkpt><trkpt lat="45.6075817" lon="11.3200992"><ele>402.0</ele><time>2026-04-19T12:36:24.708Z</time></trkpt><trkpt lat="45.6075971" lon="11.319937"><ele>404.5</ele><time>2026-04-19T12:36:25.709Z</time></trkpt><trkpt lat="45.6076097" lon="11.3197777"><ele>407.0</ele><time>2026-04-19T12:36:26.709Z</time></trkpt><trkpt lat="45.607608" lon="11.3196201"><ele>409.0</ele><time>2026-04-19T12:36:27.709Z</time></trkpt><trkpt lat="45.6075939" lon="11.3194566"><ele>411.0</ele><time>2026-04-19T12:36:28.709Z</time></trkpt><trkpt lat="45.6075771" lon="11.3192757"><ele>413.0</ele><time>2026-04-19T12:36:29.709Z</time></trkpt><trkpt lat="45.6075645" lon="11.319083"><ele>415.0</ele><time>2026-04-19T12:36:30.709Z</time></trkpt><trkpt lat="45.6075553" lon="11.3188808"><ele>416.8</ele><time>2026-04-19T12:36:31.709Z</time></trkpt><trkpt lat="45.6075294" lon="11.3186968"><ele>418.6</ele><time>2026-04-19T12:36:32.709Z</time></trkpt><trkpt lat="45.6074867" lon="11.3185533"><ele>420.4</ele><time>2026-04-19T12:36:33.708Z</time></trkpt><trkpt lat="45.6074667" lon="11.3184333"><ele>422.2</ele><time>2026-04-19T12:36:34.708Z</time></trkpt><trkpt lat="45.6074967" lon="11.31828"><ele>424.0</ele><time>2026-04-19T12:36:36.708Z</time></trkpt><trkpt lat="45.6075533" lon="11.318155"><ele>423.1666666666667</ele><time>2026-04-19T12:36:38.708Z</time></trkpt><trkpt lat="45.6075883" lon="11.3180317"><ele>422.33333333333337</ele><time>2026-04-19T12:36:40.709Z</time></trkpt><trkpt lat="45.6076317" lon="11.3179333"><ele>421.5</ele><time>2026-04-19T12:36:42.708Z</time></trkpt><trkpt lat="45.6076883" lon="11.3178017"><ele>420.66666666666663</ele><time>2026-04-19T12:36:44.708Z</time></trkpt><trkpt lat="45.60773" lon="11.3177133"><ele>419.8333333333333</ele><time>2026-04-19T12:36:45.708Z</time></trkpt><trkpt lat="45.6077833" lon="11.3176183"><ele>419.0</ele><time>2026-04-19T12:36:46.709Z</time></trkpt><trkpt lat="45.6078533" lon="11.317555"><ele>418.99999999999994</ele><time>2026-04-19T12:36:47.709Z</time></trkpt><trkpt lat="45.60791" lon="11.317515"><ele>419.0</ele><time>2026-04-19T12:36:48.708Z</time></trkpt><trkpt lat="45.6079867" lon="11.31742"><ele>419.0</ele><time>2026-04-19T12:36:50.708Z</time></trkpt><trkpt lat="45.6080733" lon="11.3173483"><ele>419.0</ele><time>2026-04-19T12:36:52.709Z</time></trkpt><trkpt lat="45.6081433" lon="11.317295"><ele>418.99999999999994</ele><time>2026-04-19T12:36:54.708Z</time></trkpt><trkpt lat="45.6080667" lon="11.317355"><ele>419.0</ele><time>2026-04-19T12:37:07.708Z</time></trkpt><trkpt lat="45.6079667" lon="11.3174683"><ele>418.99999999999994</ele><time>2026-04-19T12:37:09.708Z</time></trkpt><trkpt lat="45.6078633" lon="11.31757"><ele>419.0</ele><time>2026-04-19T12:37:11.708Z</time></trkpt><trkpt lat="45.6078067" lon="11.317625"><ele>419.0</ele><time>2026-04-19T12:37:12.709Z</time></trkpt><trkpt lat="45.6077517" lon="11.3176883"><ele>419.0</ele><time>2026-04-19T12:37:13.709Z</time></trkpt><trkpt lat="45.6076983" lon="11.3177683"><ele>418.99999999999994</ele><time>2026-04-19T12:37:14.708Z</time></trkpt><trkpt lat="45.60766" lon="11.3178567"><ele>419.0</ele><time>2026-04-19T12:37:15.708Z</time></trkpt><trkpt lat="45.6076017" lon="11.3179867"><ele>420.99999999999994</ele><time>2026-04-19T12:37:17.709Z</time></trkpt><trkpt lat="45.6075317" lon="11.3179967"><ele>423.0</ele><time>2026-04-19T12:37:20.708Z</time></trkpt><trkpt lat="45.60746" lon="11.3179183"><ele>425.0</ele><time>2026-04-19T12:37:22.708Z</time></trkpt><trkpt lat="45.6073967" lon="11.3178417"><ele>427.0</ele><time>2026-04-19T12:37:24.709Z</time></trkpt><trkpt lat="45.6073317" lon="11.3177767"><ele>428.99999999999994</ele><time>2026-04-19T12:37:26.709Z</time></trkpt><trkpt lat="45.6073033" lon="11.317665"><ele>431.0</ele><time>2026-04-19T12:37:28.708Z</time></trkpt><trkpt lat="45.60729" lon="11.3175333"><ele>431.0</ele><time>2026-04-19T12:37:30.709Z</time></trkpt><trkpt lat="45.6072817" lon="11.317395"><ele>431.0</ele><time>2026-04-19T12:37:32.709Z</time></trkpt><trkpt lat="45.607275" lon="11.3172433"><ele>431.0</ele><time>2026-04-19T12:37:34.709Z</time></trkpt><trkpt lat="45.6072533" lon="11.3170817"><ele>431.0</ele><time>2026-04-19T12:37:36.709Z</time></trkpt><trkpt lat="45.6072233" lon="11.3169217"><ele>431.0</ele><time>2026-04-19T12:37:38.709Z</time></trkpt><trkpt lat="45.607185" lon="11.3167583"><ele>431.8</ele><time>2026-04-19T12:37:40.708Z</time></trkpt><trkpt lat="45.60715" lon="11.316595"><ele>432.6</ele><time>2026-04-19T12:37:42.709Z</time></trkpt><trkpt lat="45.60713" lon="11.3164483"><ele>433.4</ele><time>2026-04-19T12:37:44.709Z</time></trkpt><trkpt lat="45.60711" lon="11.3162917"><ele>434.2</ele><time>2026-04-19T12:37:46.708Z</time></trkpt><trkpt lat="45.6071133" lon="11.3161417"><ele>435.0</ele><time>2026-04-19T12:37:48.709Z</time></trkpt><trkpt lat="45.6071167" lon="11.3159817"><ele>437.0</ele><time>2026-04-19T12:37:50.708Z</time></trkpt><trkpt lat="45.607125" lon="11.315835"><ele>439.0</ele><time>2026-04-19T12:37:52.709Z</time></trkpt><trkpt lat="45.60712" lon="11.315725"><ele>441.0</ele><time>2026-04-19T12:37:55.709Z</time></trkpt><trkpt lat="45.6070617" lon="11.3156433"><ele>443.0</ele><time>2026-04-19T12:37:58.709Z</time></trkpt><trkpt lat="45.607" lon="11.315595"><ele>445.0</ele><time>2026-04-19T12:38:00.709Z</time></trkpt><trkpt lat="45.6069367" lon="11.3155483"><ele>447.0</ele><time>2026-04-19T12:38:02.709Z</time></trkpt><trkpt lat="45.6068667" lon="11.3155267"><ele>451.8333333333333</ele><time>2026-04-19T12:38:05.708Z</time></trkpt><trkpt lat="45.6067867" lon="11.3156067"><ele>456.66666666666663</ele><time>2026-04-19T12:38:08.708Z</time></trkpt><trkpt lat="45.60675" lon="11.31568"><ele>461.5</ele><time>2026-04-19T12:38:10.708Z</time></trkpt><trkpt lat="45.6066983" lon="11.3157317"><ele>466.3333333333333</ele><time>2026-04-19T12:38:20.708Z</time></trkpt><trkpt lat="45.606675" lon="11.3158233"><ele>471.16666666666663</ele><time>2026-04-19T12:38:33.709Z</time></trkpt><trkpt lat="45.6066417" lon="11.3159367"><ele>476.0</ele><time>2026-04-19T12:38:58.709Z</time></trkpt><trkpt lat="45.606595" lon="11.31602"><ele>475.99999999999994</ele><time>2026-04-19T12:39:03.708Z</time></trkpt><trkpt lat="45.6066717" lon="11.3159383"><ele>476.0</ele><time>2026-04-19T12:42:20.708Z</time></trkpt><trkpt lat="45.6066733" lon="11.3158133"><ele>476.0</ele><time>2026-04-19T12:42:43.708Z</time></trkpt><trkpt lat="45.6067283" lon="11.3157267"><ele>476.0</ele><time>2026-04-19T12:42:51.708Z</time></trkpt><trkpt lat="45.60679" lon="11.3156417"><ele>475.99999999999994</ele><time>2026-04-19T12:42:55.709Z</time></trkpt><trkpt lat="45.60684" lon="11.3155633"><ele>476.0</ele><time>2026-04-19T12:42:58.709Z</time></trkpt><trkpt lat="45.6068933" lon="11.315495"><ele>476.0</ele><time>2026-04-19T12:43:01.708Z</time></trkpt><trkpt lat="45.606965" lon="11.3155"><ele>476.0</ele><time>2026-04-19T12:43:05.708Z</time></trkpt><trkpt lat="45.6070283" lon="11.3155233"><ele>476.0</ele><time>2026-04-19T12:43:09.709Z</time></trkpt><trkpt lat="45.6071033" lon="11.315555"><ele>476.0</ele><time>2026-04-19T12:43:12.709Z</time></trkpt><trkpt lat="45.6071433" lon="11.3156517"><ele>476.0</ele><time>2026-04-19T12:43:16.709Z</time></trkpt><trkpt lat="45.6071483" lon="11.3157667"><ele>476.0</ele><time>2026-04-19T12:43:19.708Z</time></trkpt><trkpt lat="45.6071333" lon="11.31586"><ele>476.0</ele><time>2026-04-19T12:43:21.709Z</time></trkpt><trkpt lat="45.6071267" lon="11.3159933"><ele>471.16666666666663</ele><time>2026-04-19T12:43:24.709Z</time></trkpt><trkpt lat="45.6071217" lon="11.3161083"><ele>466.3333333333333</ele><time>2026-04-19T12:43:27.708Z</time></trkpt><trkpt lat="45.607105" lon="11.3162033"><ele>461.5</ele><time>2026-04-19T12:43:29.709Z</time></trkpt><trkpt lat="45.60711" lon="11.3163033"><ele>456.66666666666663</ele><time>2026-04-19T12:43:31.709Z</time></trkpt><trkpt lat="45.6071217" lon="11.3164133"><ele>451.8333333333333</ele><time>2026-04-19T12:43:33.708Z</time></trkpt><trkpt lat="45.6071317" lon="11.3165283"><ele>447.0</ele><time>2026-04-19T12:43:35.708Z</time></trkpt><trkpt lat="45.60716" lon="11.316645"><ele>444.6</ele><time>2026-04-19T12:43:37.709Z</time></trkpt><trkpt lat="45.6071983" lon="11.3167733"><ele>442.20000000000005</ele><time>2026-04-19T12:43:39.709Z</time></trkpt><trkpt lat="45.6072117" lon="11.316905"><ele>439.8</ele><time>2026-04-19T12:43:41.709Z</time></trkpt><trkpt lat="45.6072333" lon="11.317035"><ele>437.4</ele><time>2026-04-19T12:43:43.709Z</time></trkpt><trkpt lat="45.6072317" lon="11.31719"><ele>435.0</ele><time>2026-04-19T12:43:45.708Z</time></trkpt><trkpt lat="45.6072233" lon="11.31733"><ele>434.3333333333333</ele><time>2026-04-19T12:43:47.708Z</time></trkpt><trkpt lat="45.60723" lon="11.31745"><ele>433.66666666666663</ele><time>2026-04-19T12:43:49.709Z</time></trkpt><trkpt lat="45.6072467" lon="11.31757"><ele>433.0</ele><time>2026-04-19T12:43:51.709Z</time></trkpt><trkpt lat="45.6072867" lon="11.31767"><ele>432.3333333333333</ele><time>2026-04-19T12:43:53.708Z</time></trkpt><trkpt lat="45.60733" lon="11.31775"><ele>431.66666666666663</ele><time>2026-04-19T12:43:55.709Z</time></trkpt><trkpt lat="45.6073883" lon="11.31784"><ele>431.0</ele><time>2026-04-19T12:43:57.709Z</time></trkpt><trkpt lat="45.607455" lon="11.3179033"><ele>431.0</ele><time>2026-04-19T12:43:59.709Z</time></trkpt><trkpt lat="45.6075183" lon="11.3179567"><ele>431.0</ele><time>2026-04-19T12:44:01.709Z</time></trkpt><trkpt lat="45.60757" lon="11.318025"><ele>431.0</ele><time>2026-04-19T12:44:04.709Z</time></trkpt><trkpt lat="45.6076433" lon="11.31797"><ele>431.0</ele><time>2026-04-19T12:44:52.708Z</time></trkpt><trkpt lat="45.6077217" lon="11.31775"><ele>431.0</ele><time>2026-04-19T12:44:55.708Z</time></trkpt><trkpt lat="45.6077633" lon="11.3176667"><ele>428.99999999999994</ele><time>2026-04-19T12:44:56.709Z</time></trkpt><trkpt lat="45.6078417" lon="11.3176017"><ele>427.0</ele><time>2026-04-19T12:44:57.708Z</time></trkpt><trkpt lat="45.60791" lon="11.3175433"><ele>425.0</ele><time>2026-04-19T12:44:58.708Z</time></trkpt><trkpt lat="45.6079683" lon="11.31748"><ele>423.0</ele><time>2026-04-19T12:44:59.707Z</time></trkpt><trkpt lat="45.608025" lon="11.317415"><ele>420.99999999999994</ele><time>2026-04-19T12:45:00.707Z</time></trkpt><trkpt lat="45.60809" lon="11.31735"><ele>419.0</ele><time>2026-04-19T12:45:01.708Z</time></trkpt><trkpt lat="45.60816" lon="11.3172817"><ele>420.3333333333333</ele><time>2026-04-19T12:45:02.708Z</time></trkpt><trkpt lat="45.6082317" lon="11.317215"><ele>421.66666666666663</ele><time>2026-04-19T12:45:03.708Z</time></trkpt><trkpt lat="45.6083083" lon="11.31716"><ele>423.0</ele><time>2026-04-19T12:45:04.708Z</time></trkpt><trkpt lat="45.60838" lon="11.3171067"><ele>424.33333333333337</ele><time>2026-04-19T12:45:05.708Z</time></trkpt><trkpt lat="45.6084433" lon="11.31706"><ele>425.6666666666667</ele><time>2026-04-19T12:45:06.708Z</time></trkpt><trkpt lat="45.6085017" lon="11.3170133"><ele>427.0</ele><time>2026-04-19T12:45:07.708Z</time></trkpt><trkpt lat="45.6085617" lon="11.316965"><ele>427.0</ele><time>2026-04-19T12:45:08.708Z</time></trkpt><trkpt lat="45.6086183" lon="11.316915"><ele>427.00000000000006</ele><time>2026-04-19T12:45:09.708Z</time></trkpt><trkpt lat="45.6087167" lon="11.316825"><ele>427.00000000000006</ele><time>2026-04-19T12:45:11.708Z</time></trkpt><trkpt lat="45.608795" lon="11.31673"><ele>427.0</ele><time>2026-04-19T12:45:13.708Z</time></trkpt><trkpt lat="45.60883" lon="11.3165717"><ele>427.0</ele><time>2026-04-19T12:45:15.708Z</time></trkpt><trkpt lat="45.60884" lon="11.3164333"><ele>424.0</ele><time>2026-04-19T12:45:17.707Z</time></trkpt><trkpt lat="45.60886" lon="11.3162767"><ele>421.00000000000006</ele><time>2026-04-19T12:46:09.708Z</time></trkpt><trkpt lat="45.608885" lon="11.3161833"><ele>418.0</ele><time>2026-04-19T12:46:11.708Z</time></trkpt><trkpt lat="45.6088983" lon="11.316055"><ele>415.0</ele><time>2026-04-19T12:46:13.708Z</time></trkpt><trkpt lat="45.60891" lon="11.3158867"><ele>412.0</ele><time>2026-04-19T12:46:15.708Z</time></trkpt><trkpt lat="45.608925" lon="11.31574"><ele>412.0</ele><time>2026-04-19T12:46:17.707Z</time></trkpt><trkpt lat="45.6089033" lon="11.3155883"><ele>412.0</ele><time>2026-04-19T12:46:19.707Z</time></trkpt><trkpt lat="45.60889" lon="11.315435"><ele>412.0</ele><time>2026-04-19T12:46:21.707Z</time></trkpt><trkpt lat="45.6088683" lon="11.3153067"><ele>412.0</ele><time>2026-04-19T12:46:23.708Z</time></trkpt><trkpt lat="45.6088367" lon="11.3151883"><ele>412.0</ele><time>2026-04-19T12:46:25.708Z</time></trkpt><trkpt lat="45.60881" lon="11.315095"><ele>413.1666666666667</ele><time>2026-04-19T12:46:27.708Z</time></trkpt><trkpt lat="45.608805" lon="11.314995"><ele>414.33333333333337</ele><time>2026-04-19T12:46:29.707Z</time></trkpt><trkpt lat="45.6088283" lon="11.3148917"><ele>415.5</ele><time>2026-04-19T12:46:31.708Z</time></trkpt><trkpt lat="45.60887" lon="11.3147633"><ele>416.66666666666663</ele><time>2026-04-19T12:46:33.708Z</time></trkpt><trkpt lat="45.6088917" lon="11.3146417"><ele>417.8333333333333</ele><time>2026-04-19T12:46:35.708Z</time></trkpt><trkpt lat="45.6089088" lon="11.3145209"><ele>419.0</ele><time>2026-04-19T12:46:37.779Z</time></trkpt><trkpt lat="45.6089592" lon="11.3143908"><ele>421.2</ele><time>2026-04-19T12:46:39.737Z</time></trkpt><trkpt lat="45.6090383" lon="11.3142617"><ele>423.4</ele><time>2026-04-19T12:46:41.707Z</time></trkpt><trkpt lat="45.6090733" lon="11.3141467"><ele>425.6</ele><time>2026-04-19T12:46:43.708Z</time></trkpt><trkpt lat="45.6091133" lon="11.31403"><ele>427.8</ele><time>2026-04-19T12:46:45.708Z</time></trkpt><trkpt lat="45.6091333" lon="11.31393"><ele>430.0</ele><time>2026-04-19T12:46:46.708Z</time></trkpt><trkpt lat="45.6091533" lon="11.31381"><ele>430.6666666666667</ele><time>2026-04-19T12:46:47.707Z</time></trkpt><trkpt lat="45.6091733" lon="11.31369"><ele>431.33333333333337</ele><time>2026-04-19T12:46:48.708Z</time></trkpt><trkpt lat="45.609195" lon="11.313595"><ele>432.0</ele><time>2026-04-19T12:46:49.708Z</time></trkpt><trkpt lat="45.609215" lon="11.3135083"><ele>432.66666666666663</ele><time>2026-04-19T12:46:50.708Z</time></trkpt><trkpt lat="45.6092467" lon="11.31336"><ele>433.3333333333333</ele><time>2026-04-19T12:46:52.708Z</time></trkpt><trkpt lat="45.6092417" lon="11.3132633"><ele>434.0</ele><time>2026-04-19T12:46:54.708Z</time></trkpt><trkpt lat="45.6091917" lon="11.3132033"><ele>434.0</ele><time>2026-04-19T12:46:56.707Z</time></trkpt><trkpt lat="45.6091233" lon="11.31316"><ele>434.0</ele><time>2026-04-19T12:46:58.707Z</time></trkpt><trkpt lat="45.6090617" lon="11.3131833"><ele>434.0</ele><time>2026-04-19T12:47:00.708Z</time></trkpt><trkpt lat="45.609" lon="11.3132067"><ele>434.0</ele><time>2026-04-19T12:47:02.707Z</time></trkpt><trkpt lat="45.6089333" lon="11.3131917"><ele>434.0</ele><time>2026-04-19T12:47:04.708Z</time></trkpt><trkpt lat="45.6088733" lon="11.313135"><ele>434.0</ele><time>2026-04-19T12:47:06.707Z</time></trkpt><trkpt lat="45.6087833" lon="11.3130817"><ele>434.0</ele><time>2026-04-19T12:47:08.708Z</time></trkpt><trkpt lat="45.6086783" lon="11.31306"><ele>436.79999999999995</ele><time>2026-04-19T12:47:10.708Z</time></trkpt><trkpt lat="45.6085767" lon="11.3130367"><ele>439.59999999999997</ele><time>2026-04-19T12:47:12.707Z</time></trkpt><trkpt lat="45.6084867" lon="11.3129717"><ele>442.4</ele><time>2026-04-19T12:47:14.708Z</time></trkpt><trkpt lat="45.6083783" lon="11.3129467"><ele>445.2</ele><time>2026-04-19T12:47:16.708Z</time></trkpt><trkpt lat="45.6082733" lon="11.3129633"><ele>448.0</ele><time>2026-04-19T12:47:18.708Z</time></trkpt><trkpt lat="45.60818" lon="11.3130167"><ele>448.0</ele><time>2026-04-19T12:47:20.707Z</time></trkpt><trkpt lat="45.6080917" lon="11.3130817"><ele>447.99999999999994</ele><time>2026-04-19T12:47:22.708Z</time></trkpt><trkpt lat="45.6080417" lon="11.31298"><ele>447.99999999999994</ele><time>2026-04-19T12:47:46.707Z</time></trkpt><trkpt lat="45.6079767" lon="11.3129033"><ele>448.0</ele><time>2026-04-19T12:47:48.708Z</time></trkpt><trkpt lat="45.607885" lon="11.3128283"><ele>448.0</ele><time>2026-04-19T12:47:50.707Z</time></trkpt><trkpt lat="45.6077817" lon="11.3127717"><ele>451.0</ele><time>2026-04-19T12:47:52.708Z</time></trkpt><trkpt lat="45.6076817" lon="11.3127517"><ele>454.0</ele><time>2026-04-19T12:47:54.708Z</time></trkpt><trkpt lat="45.607585" lon="11.3127367"><ele>457.0</ele><time>2026-04-19T12:47:56.708Z</time></trkpt><trkpt lat="45.6074567" lon="11.3127333"><ele>460.0</ele><time>2026-04-19T12:47:58.708Z</time></trkpt><trkpt lat="45.6073333" lon="11.3127283"><ele>460.00000000000006</ele><time>2026-04-19T12:48:00.707Z</time></trkpt><trkpt lat="45.60723" lon="11.3126967"><ele>460.0</ele><time>2026-04-19T12:48:02.707Z</time></trkpt><trkpt lat="45.607155" lon="11.312685"><ele>460.0</ele><time>2026-04-19T12:48:04.708Z</time></trkpt><trkpt lat="45.6070617" lon="11.3126833"><ele>460.0</ele><time>2026-04-19T12:48:07.707Z</time></trkpt><trkpt lat="45.607025" lon="11.3125883"><ele>460.00000000000006</ele><time>2026-04-19T12:48:10.707Z</time></trkpt><trkpt lat="45.6070017" lon="11.31246"><ele>460.0</ele><time>2026-04-19T12:48:13.708Z</time></trkpt><trkpt lat="45.60692" lon="11.3124683"><ele>462.2857142857142</ele><time>2026-04-19T12:48:17.708Z</time></trkpt><trkpt lat="45.60689" lon="11.3125483"><ele>464.57142857142856</ele><time>2026-04-19T12:48:19.707Z</time></trkpt><trkpt lat="45.6068433" lon="11.3126183"><ele>466.85714285714283</ele><time>2026-04-19T12:48:21.708Z</time></trkpt><trkpt lat="45.6067667" lon="11.312685"><ele>469.1428571428571</ele><time>2026-04-19T12:48:24.707Z</time></trkpt><trkpt lat="45.6066983" lon="11.3126817"><ele>471.42857142857144</ele><time>2026-04-19T12:48:26.708Z</time></trkpt><trkpt lat="45.6066533" lon="11.3126167"><ele>473.7142857142857</ele><time>2026-04-19T12:48:28.707Z</time></trkpt><trkpt lat="45.606595" lon="11.31252"><ele>476.0</ele><time>2026-04-19T12:48:31.707Z</time></trkpt><trkpt lat="45.6065267" lon="11.3125367"><ele>475.99999999999994</ele><time>2026-04-19T12:48:34.707Z</time></trkpt><trkpt lat="45.606505" lon="11.3126683"><ele>476.0</ele><time>2026-04-19T12:48:37.707Z</time></trkpt><trkpt lat="45.6064983" lon="11.3127767"><ele>476.0</ele><time>2026-04-19T12:48:39.708Z</time></trkpt><trkpt lat="45.6064867" lon="11.31288"><ele>476.0</ele><time>2026-04-19T12:48:41.707Z</time></trkpt><trkpt lat="45.60645" lon="11.3129967"><ele>475.99999999999994</ele><time>2026-04-19T12:48:43.708Z</time></trkpt><trkpt lat="45.6064083" lon="11.3131167"><ele>476.0</ele><time>2026-04-19T12:48:45.707Z</time></trkpt><trkpt lat="45.60636" lon="11.313205"><ele>477.0</ele><time>2026-04-19T12:48:47.708Z</time></trkpt><trkpt lat="45.606315" lon="11.31328"><ele>478.0</ele><time>2026-04-19T12:48:49.707Z</time></trkpt><trkpt lat="45.6062667" lon="11.3133383"><ele>479.0</ele><time>2026-04-19T12:48:51.707Z</time></trkpt><trkpt lat="45.6062183" lon="11.3133983"><ele>480.0</ele><time>2026-04-19T12:48:54.707Z</time></trkpt><trkpt lat="45.6061595" lon="11.3134706"><ele>481.0</ele><time>2026-04-19T12:48:58.622Z</time></trkpt><trkpt lat="45.6061" lon="11.3135933"><ele>482.0</ele><time>2026-04-19T12:52:02.708Z</time></trkpt><trkpt lat="45.6061033" lon="11.31369"><ele>483.0</ele><time>2026-04-19T12:52:31.707Z</time></trkpt><trkpt lat="45.6060567" lon="11.313765"><ele>487.3333333333333</ele><time>2026-04-19T12:52:35.708Z</time></trkpt><trkpt lat="45.60602" lon="11.3138667"><ele>491.66666666666663</ele><time>2026-04-19T12:52:45.708Z</time></trkpt><trkpt lat="45.605985" lon="11.313965"><ele>496.0</ele><time>2026-04-19T12:52:49.708Z</time></trkpt><trkpt lat="45.6059183" lon="11.31393"><ele>500.3333333333333</ele><time>2026-04-19T12:52:55.707Z</time></trkpt><trkpt lat="45.6058633" lon="11.313875"><ele>504.66666666666663</ele><time>2026-04-19T12:52:59.707Z</time></trkpt><trkpt lat="45.60577" lon="11.3138667"><ele>509.0</ele><time>2026-04-19T12:53:02.708Z</time></trkpt><trkpt lat="45.60568" lon="11.313875"><ele>508.99999999999994</ele><time>2026-04-19T12:53:04.708Z</time></trkpt><trkpt lat="45.605615" lon="11.3138717"><ele>509.0</ele><time>2026-04-19T12:53:06.708Z</time></trkpt><trkpt lat="45.6055483" lon="11.3139183"><ele>509.0</ele><time>2026-04-19T12:53:09.707Z</time></trkpt><trkpt lat="45.6055267" lon="11.3140417"><ele>509.0</ele><time>2026-04-19T12:53:12.707Z</time></trkpt><trkpt lat="45.6055067" lon="11.3141783"><ele>508.99999999999994</ele><time>2026-04-19T12:53:15.708Z</time></trkpt><trkpt lat="45.6054583" lon="11.3142983"><ele>509.0</ele><time>2026-04-19T12:53:18.708Z</time></trkpt><trkpt lat="45.6054067" lon="11.3144017"><ele>510.2</ele><time>2026-04-19T12:53:20.708Z</time></trkpt><trkpt lat="45.6053417" lon="11.31449"><ele>511.4</ele><time>2026-04-19T12:53:22.708Z</time></trkpt><trkpt lat="45.6052683" lon="11.3145567"><ele>512.6</ele><time>2026-04-19T12:53:24.708Z</time></trkpt><trkpt lat="45.6051617" lon="11.3146333"><ele>513.8</ele><time>2026-04-19T12:53:26.708Z</time></trkpt><trkpt lat="45.6050767" lon="11.3146867"><ele>515.0</ele><time>2026-04-19T12:53:28.708Z</time></trkpt><trkpt lat="45.6050083" lon="11.3147333"><ele>517.8333333333333</ele><time>2026-04-19T12:53:31.707Z</time></trkpt><trkpt lat="45.6049533" lon="11.3147783"><ele>520.6666666666666</ele><time>2026-04-19T12:53:39.707Z</time></trkpt><trkpt lat="45.6048767" lon="11.314785"><ele>523.5</ele><time>2026-04-19T12:53:48.707Z</time></trkpt><trkpt lat="45.604795" lon="11.314775"><ele>526.3333333333334</ele><time>2026-04-19T12:53:51.708Z</time></trkpt><trkpt lat="45.604705" lon="11.3147633"><ele>529.1666666666667</ele><time>2026-04-19T12:53:53.707Z</time></trkpt><trkpt lat="45.6045983" lon="11.3147433"><ele>532.0</ele><time>2026-04-19T12:53:55.708Z</time></trkpt><trkpt lat="45.6045217" lon="11.3147033"><ele>534.1666666666667</ele><time>2026-04-19T12:53:57.708Z</time></trkpt><trkpt lat="45.6044567" lon="11.3146583"><ele>536.3333333333334</ele><time>2026-04-19T12:53:59.708Z</time></trkpt><trkpt lat="45.604395" lon="11.3146017"><ele>538.5</ele><time>2026-04-19T12:54:01.708Z</time></trkpt><trkpt lat="45.6043267" lon="11.3145433"><ele>540.6666666666666</ele><time>2026-04-19T12:54:03.708Z</time></trkpt><trkpt lat="45.6042167" lon="11.31449"><ele>542.8333333333333</ele><time>2026-04-19T12:54:05.708Z</time></trkpt><trkpt lat="45.60414" lon="11.31447"><ele>545.0</ele><time>2026-04-19T12:54:06.707Z</time></trkpt><trkpt lat="45.6040633" lon="11.3144617"><ele>545.0</ele><time>2026-04-19T12:54:07.707Z</time></trkpt><trkpt lat="45.6039967" lon="11.31445"><ele>545.0</ele><time>2026-04-19T12:54:08.708Z</time></trkpt><trkpt lat="45.603915" lon="11.314435"><ele>545.0</ele><time>2026-04-19T12:54:10.707Z</time></trkpt><trkpt lat="45.6038467" lon="11.3144133"><ele>545.0</ele><time>2026-04-19T12:54:12.707Z</time></trkpt><trkpt lat="45.6037667" lon="11.314405"><ele>545.0</ele><time>2026-04-19T12:54:14.708Z</time></trkpt><trkpt lat="45.6036767" lon="11.3144067"><ele>545.0</ele><time>2026-04-19T12:54:16.707Z</time></trkpt><trkpt lat="45.6035967" lon="11.31437"><ele>544.6</ele><time>2026-04-19T12:54:18.707Z</time></trkpt><trkpt lat="45.6035033" lon="11.3142917"><ele>544.2</ele><time>2026-04-19T12:54:20.708Z</time></trkpt><trkpt lat="45.6034133" lon="11.3141733"><ele>543.8</ele><time>2026-04-19T12:54:22.708Z</time></trkpt><trkpt lat="45.603365" lon="11.3141033"><ele>543.4</ele><time>2026-04-19T12:54:23.707Z</time></trkpt><trkpt lat="45.6032967" lon="11.3140233"><ele>543.0</ele><time>2026-04-19T12:54:24.708Z</time></trkpt><trkpt lat="45.6032317" lon="11.31396"><ele>542.8333333333334</ele><time>2026-04-19T12:54:25.708Z</time></trkpt><trkpt lat="45.603165" lon="11.3138883"><ele>542.6666666666666</ele><time>2026-04-19T12:54:26.707Z</time></trkpt><trkpt lat="45.6031033" lon="11.313835"><ele>542.5</ele><time>2026-04-19T12:54:27.707Z</time></trkpt><trkpt lat="45.6030467" lon="11.3137733"><ele>542.3333333333333</ele><time>2026-04-19T12:54:28.708Z</time></trkpt><trkpt lat="45.602985" lon="11.3137217"><ele>542.1666666666666</ele><time>2026-04-19T12:54:29.707Z</time></trkpt><trkpt lat="45.6029267" lon="11.3136767"><ele>542.0</ele><time>2026-04-19T12:54:30.708Z</time></trkpt><trkpt lat="45.6028267" lon="11.3136167"><ele>542.0</ele><time>2026-04-19T12:54:32.708Z</time></trkpt><trkpt lat="45.6027333" lon="11.3135467"><ele>542.0</ele><time>2026-04-19T12:54:34.707Z</time></trkpt><trkpt lat="45.6026683" lon="11.313435"><ele>542.0</ele><time>2026-04-19T12:54:36.707Z</time></trkpt><trkpt lat="45.602625" lon="11.31331"><ele>542.0</ele><time>2026-04-19T12:54:38.707Z</time></trkpt><trkpt lat="45.6025783" lon="11.313215"><ele>542.0</ele><time>2026-04-19T12:54:40.708Z</time></trkpt><trkpt lat="45.6025683" lon="11.3131217"><ele>540.75</ele><time>2026-04-19T12:54:42.707Z</time></trkpt><trkpt lat="45.6025633" lon="11.31298"><ele>539.5</ele><time>2026-04-19T12:54:44.707Z</time></trkpt><trkpt lat="45.6025117" lon="11.3128283"><ele>538.25</ele><time>2026-04-19T12:54:46.708Z</time></trkpt><trkpt lat="45.602425" lon="11.3126617"><ele>537.0</ele><time>2026-04-19T12:54:48.708Z</time></trkpt><trkpt lat="45.6023633" lon="11.3125683"><ele>537.0</ele><time>2026-04-19T12:54:49.707Z</time></trkpt><trkpt lat="45.602305" lon="11.312475"><ele>537.0</ele><time>2026-04-19T12:54:50.707Z</time></trkpt><trkpt lat="45.602255" lon="11.3123983"><ele>537.0</ele><time>2026-04-19T12:54:51.708Z</time></trkpt><trkpt lat="45.6021633" lon="11.3122717"><ele>537.0</ele><time>2026-04-19T12:54:53.708Z</time></trkpt><trkpt lat="45.6021133" lon="11.3122117"><ele>537.0</ele><time>2026-04-19T12:54:54.708Z</time></trkpt><trkpt lat="45.602055" lon="11.312155"><ele>537.0</ele><time>2026-04-19T12:54:55.708Z</time></trkpt><trkpt lat="45.6019433" lon="11.312075"><ele>537.3333333333334</ele><time>2026-04-19T12:54:57.707Z</time></trkpt><trkpt lat="45.60189" lon="11.312025"><ele>537.6666666666666</ele><time>2026-04-19T12:54:58.707Z</time></trkpt><trkpt lat="45.6018133" lon="11.311935"><ele>538.0</ele><time>2026-04-19T12:55:00.707Z</time></trkpt><trkpt lat="45.601715" lon="11.3118717"><ele>538.3333333333333</ele><time>2026-04-19T12:55:02.707Z</time></trkpt><trkpt lat="45.6016467" lon="11.3118367"><ele>538.6666666666666</ele><time>2026-04-19T12:55:03.708Z</time></trkpt><trkpt lat="45.6015867" lon="11.3118083"><ele>539.0</ele><time>2026-04-19T12:55:04.707Z</time></trkpt><trkpt lat="45.601505" lon="11.3117867"><ele>539.0</ele><time>2026-04-19T12:55:06.708Z</time></trkpt><trkpt lat="45.601465" lon="11.3116667"><ele>539.0</ele><time>2026-04-19T12:55:52.707Z</time></trkpt><trkpt lat="45.60148" lon="11.311475"><ele>539.0</ele><time>2026-04-19T12:55:54.708Z</time></trkpt><trkpt lat="45.6014833" lon="11.3113617"><ele>539.0</ele><time>2026-04-19T12:55:55.708Z</time></trkpt><trkpt lat="45.6014783" lon="11.3112467"><ele>539.0</ele><time>2026-04-19T12:55:56.708Z</time></trkpt><trkpt lat="45.6014733" lon="11.3111267"><ele>538.5</ele><time>2026-04-19T12:55:57.708Z</time></trkpt><trkpt lat="45.6014633" lon="11.311015"><ele>538.0</ele><time>2026-04-19T12:55:58.708Z</time></trkpt><trkpt lat="45.6014433" lon="11.31091"><ele>537.5</ele><time>2026-04-19T12:55:59.708Z</time></trkpt><trkpt lat="45.601425" lon="11.3108083"><ele>537.0</ele><time>2026-04-19T12:56:00.707Z</time></trkpt><trkpt lat="45.6014" lon="11.31069"><ele>536.5</ele><time>2026-04-19T12:56:01.708Z</time></trkpt><trkpt lat="45.601385" lon="11.3105683"><ele>536.0</ele><time>2026-04-19T12:56:02.708Z</time></trkpt><trkpt lat="45.601365" lon="11.3104383"><ele>536.0</ele><time>2026-04-19T12:56:03.708Z</time></trkpt><trkpt lat="45.6013417" lon="11.31032"><ele>536.0</ele><time>2026-04-19T12:56:04.708Z</time></trkpt><trkpt lat="45.6013133" lon="11.3101983"><ele>536.0</ele><time>2026-04-19T12:56:05.708Z</time></trkpt><trkpt lat="45.6012883" lon="11.3100762"><ele>536.0</ele><time>2026-04-19T12:56:06.708Z</time></trkpt><trkpt lat="45.6012598" lon="11.3099654"><ele>536.0</ele><time>2026-04-19T12:56:07.707Z</time></trkpt><trkpt lat="45.6012461" lon="11.309861"><ele>536.0</ele><time>2026-04-19T12:56:08.707Z</time></trkpt><trkpt lat="45.601237" lon="11.3097596"><ele>533.8333333333333</ele><time>2026-04-19T12:56:09.708Z</time></trkpt><trkpt lat="45.6012319" lon="11.3096621"><ele>531.6666666666666</ele><time>2026-04-19T12:56:10.707Z</time></trkpt><trkpt lat="45.6012319" lon="11.3095591"><ele>529.5</ele><time>2026-04-19T12:56:11.708Z</time></trkpt><trkpt lat="45.6012377" lon="11.3094474"><ele>527.3333333333334</ele><time>2026-04-19T12:56:12.707Z</time></trkpt><trkpt lat="45.6012486" lon="11.3093321"><ele>525.1666666666667</ele><time>2026-04-19T12:56:13.707Z</time></trkpt><trkpt lat="45.6012644" lon="11.3092161"><ele>523.0</ele><time>2026-04-19T12:56:14.708Z</time></trkpt><trkpt lat="45.6012825" lon="11.3090967"><ele>523.0</ele><time>2026-04-19T12:56:15.707Z</time></trkpt><trkpt lat="45.6013045" lon="11.3089777"><ele>523.0</ele><time>2026-04-19T12:56:16.708Z</time></trkpt><trkpt lat="45.6013247" lon="11.3088485"><ele>523.0</ele><time>2026-04-19T12:56:17.708Z</time></trkpt><trkpt lat="45.6013436" lon="11.3087157"><ele>523.0</ele><time>2026-04-19T12:56:18.707Z</time></trkpt><trkpt lat="45.6013662" lon="11.3085881"><ele>523.0</ele><time>2026-04-19T12:56:19.707Z</time></trkpt><trkpt lat="45.6013946" lon="11.3084741"><ele>521.6666666666667</ele><time>2026-04-19T12:56:20.707Z</time></trkpt><trkpt lat="45.601427" lon="11.3083654"><ele>520.3333333333334</ele><time>2026-04-19T12:56:21.708Z</time></trkpt><trkpt lat="45.6014682" lon="11.3082641"><ele>519.0</ele><time>2026-04-19T12:56:22.708Z</time></trkpt><trkpt lat="45.6015147" lon="11.3081679"><ele>517.6666666666666</ele><time>2026-04-19T12:56:23.708Z</time></trkpt><trkpt lat="45.6015597" lon="11.308071"><ele>516.3333333333333</ele><time>2026-04-19T12:56:24.708Z</time></trkpt><trkpt lat="45.6015933" lon="11.3079755"><ele>515.0</ele><time>2026-04-19T12:56:25.707Z</time></trkpt><trkpt lat="45.6016221" lon="11.307873"><ele>514.8333333333333</ele><time>2026-04-19T12:56:26.708Z</time></trkpt><trkpt lat="45.6016506" lon="11.3077613"><ele>514.6666666666666</ele><time>2026-04-19T12:56:27.707Z</time></trkpt><trkpt lat="45.6016798" lon="11.3076531"><ele>514.5</ele><time>2026-04-19T12:56:28.707Z</time></trkpt><trkpt lat="45.6017096" lon="11.3075489"><ele>514.3333333333334</ele><time>2026-04-19T12:56:29.708Z</time></trkpt><trkpt lat="45.6017359" lon="11.3074561"><ele>514.1666666666667</ele><time>2026-04-19T12:56:30.708Z</time></trkpt><trkpt lat="45.6017598" lon="11.3073571"><ele>514.0</ele><time>2026-04-19T12:56:31.707Z</time></trkpt><trkpt lat="45.6017767" lon="11.3072546"><ele>513.6666666666667</ele><time>2026-04-19T12:56:32.708Z</time></trkpt><trkpt lat="45.6017879" lon="11.3071507"><ele>513.3333333333334</ele><time>2026-04-19T12:56:33.708Z</time></trkpt><trkpt lat="45.6017968" lon="11.3069913"><ele>513.0</ele><time>2026-04-19T12:56:35.707Z</time></trkpt><trkpt lat="45.6018056" lon="11.3068717"><ele>512.6666666666666</ele><time>2026-04-19T12:56:37.708Z</time></trkpt><trkpt lat="45.6018014" lon="11.3067638"><ele>512.3333333333333</ele><time>2026-04-19T12:56:40.707Z</time></trkpt><trkpt lat="45.6017028" lon="11.3067307"><ele>512.0</ele><time>2026-04-19T12:56:43.708Z</time></trkpt><trkpt lat="45.60164" lon="11.3067383"><ele>511.99999999999994</ele><time>2026-04-19T12:56:44.707Z</time></trkpt><trkpt lat="45.6015767" lon="11.306735"><ele>512.0</ele><time>2026-04-19T12:56:45.708Z</time></trkpt><trkpt lat="45.601515" lon="11.3067083"><ele>512.0</ele><time>2026-04-19T12:56:46.708Z</time></trkpt><trkpt lat="45.60144" lon="11.3066633"><ele>512.0</ele><time>2026-04-19T12:56:47.707Z</time></trkpt><trkpt lat="45.6013667" lon="11.306605"><ele>511.99999999999994</ele><time>2026-04-19T12:56:48.707Z</time></trkpt><trkpt lat="45.6012817" lon="11.306535"><ele>512.0</ele><time>2026-04-19T12:56:49.708Z</time></trkpt><trkpt lat="45.6012083" lon="11.3064583"><ele>514.4</ele><time>2026-04-19T12:56:50.707Z</time></trkpt><trkpt lat="45.6011267" lon="11.306385"><ele>516.8000000000001</ele><time>2026-04-19T12:56:51.708Z</time></trkpt><trkpt lat="45.601045" lon="11.3063167"><ele>519.2</ele><time>2026-04-19T12:56:52.707Z</time></trkpt><trkpt lat="45.600965" lon="11.3062733"><ele>521.6</ele><time>2026-04-19T12:56:53.708Z</time></trkpt><trkpt lat="45.6008783" lon="11.30623"><ele>524.0</ele><time>2026-04-19T12:56:54.708Z</time></trkpt><trkpt lat="45.6008017" lon="11.3061817"><ele>524.0</ele><time>2026-04-19T12:56:55.708Z</time></trkpt><trkpt lat="45.6007283" lon="11.306125"><ele>524.0</ele><time>2026-04-19T12:56:56.708Z</time></trkpt><trkpt lat="45.6006583" lon="11.3060783"><ele>524.0</ele><time>2026-04-19T12:56:57.707Z</time></trkpt><trkpt lat="45.60059" lon="11.3060367"><ele>524.0</ele><time>2026-04-19T12:56:58.708Z</time></trkpt><trkpt lat="45.6005217" lon="11.305995"><ele>524.0</ele><time>2026-04-19T12:56:59.707Z</time></trkpt><trkpt lat="45.6004467" lon="11.3059483"><ele>524.0</ele><time>2026-04-19T12:57:00.708Z</time></trkpt><trkpt lat="45.600375" lon="11.30589"><ele>524.5714285714286</ele><time>2026-04-19T12:57:01.708Z</time></trkpt><trkpt lat="45.600305" lon="11.3058383"><ele>525.1428571428572</ele><time>2026-04-19T12:57:02.708Z</time></trkpt><trkpt lat="45.600245" lon="11.3057833"><ele>525.7142857142858</ele><time>2026-04-19T12:57:03.707Z</time></trkpt><trkpt lat="45.60018" lon="11.305735"><ele>526.2857142857143</ele><time>2026-04-19T12:57:04.708Z</time></trkpt><trkpt lat="45.6001233" lon="11.305675"><ele>526.8571428571429</ele><time>2026-04-19T12:57:05.707Z</time></trkpt><trkpt lat="45.6000733" lon="11.305595"><ele>527.4285714285714</ele><time>2026-04-19T12:57:06.707Z</time></trkpt><trkpt lat="45.6000333" lon="11.3055033"><ele>528.0</ele><time>2026-04-19T12:57:07.708Z</time></trkpt><trkpt lat="45.59999" lon="11.3054017"><ele>528.0</ele><time>2026-04-19T12:57:08.707Z</time></trkpt><trkpt lat="45.5999367" lon="11.3053067"><ele>528.0</ele><time>2026-04-19T12:57:09.707Z</time></trkpt><trkpt lat="45.599895" lon="11.305215"><ele>528.0</ele><time>2026-04-19T12:57:10.707Z</time></trkpt><trkpt lat="45.59986" lon="11.3051167"><ele>528.0</ele><time>2026-04-19T12:57:11.708Z</time></trkpt><trkpt lat="45.5998267" lon="11.305015"><ele>528.0</ele><time>2026-04-19T12:57:12.707Z</time></trkpt><trkpt lat="45.59981" lon="11.3049133"><ele>528.0</ele><time>2026-04-19T12:57:13.707Z</time></trkpt><trkpt lat="45.5998067" lon="11.3048017"><ele>528.1666666666666</ele><time>2026-04-19T12:57:14.708Z</time></trkpt><trkpt lat="45.599825" lon="11.3046967"><ele>528.3333333333334</ele><time>2026-04-19T12:57:15.708Z</time></trkpt><trkpt lat="45.5998583" lon="11.304595"><ele>528.5</ele><time>2026-04-19T12:57:16.708Z</time></trkpt><trkpt lat="45.5999083" lon="11.3044917"><ele>528.6666666666667</ele><time>2026-04-19T12:57:17.708Z</time></trkpt><trkpt lat="45.5999467" lon="11.3044"><ele>528.8333333333334</ele><time>2026-04-19T12:57:18.708Z</time></trkpt><trkpt lat="45.5999883" lon="11.3042667"><ele>529.0</ele><time>2026-04-19T12:57:20.707Z</time></trkpt><trkpt lat="45.5999867" lon="11.304145"><ele>529.0</ele><time>2026-04-19T12:57:22.707Z</time></trkpt><trkpt lat="45.5999417" lon="11.3040317"><ele>529.0</ele><time>2026-04-19T12:57:24.708Z</time></trkpt><trkpt lat="45.599875" lon="11.303885"><ele>529.0</ele><time>2026-04-19T12:57:26.707Z</time></trkpt><trkpt lat="45.59985" lon="11.303745"><ele>529.0</ele><time>2026-04-19T12:57:28.708Z</time></trkpt><trkpt lat="45.599925" lon="11.3036417"><ele>529.0</ele><time>2026-04-19T12:57:30.707Z</time></trkpt><trkpt lat="45.599975" lon="11.3035683"><ele>530.1666666666667</ele><time>2026-04-19T12:57:31.707Z</time></trkpt><trkpt lat="45.6000217" lon="11.3034767"><ele>531.3333333333334</ele><time>2026-04-19T12:57:32.707Z</time></trkpt><trkpt lat="45.600065" lon="11.303355"><ele>532.5</ele><time>2026-04-19T12:57:33.707Z</time></trkpt><trkpt lat="45.6001117" lon="11.303235"><ele>533.6666666666666</ele><time>2026-04-19T12:57:34.707Z</time></trkpt><trkpt lat="45.6001617" lon="11.3031333"><ele>534.8333333333333</ele><time>2026-04-19T12:57:35.707Z</time></trkpt><trkpt lat="45.600205" lon="11.3030483"><ele>536.0</ele><time>2026-04-19T12:57:36.708Z</time></trkpt><trkpt lat="45.6002417" lon="11.3029633"><ele>537.3333333333333</ele><time>2026-04-19T12:57:37.708Z</time></trkpt><trkpt lat="45.600265" lon="11.302875"><ele>538.6666666666666</ele><time>2026-04-19T12:57:38.707Z</time></trkpt><trkpt lat="45.600275" lon="11.302775"><ele>540.0</ele><time>2026-04-19T12:57:39.708Z</time></trkpt><trkpt lat="45.6002783" lon="11.3026583"><ele>541.3333333333334</ele><time>2026-04-19T12:57:40.707Z</time></trkpt><trkpt lat="45.600275" lon="11.3025017"><ele>542.6666666666667</ele><time>2026-04-19T12:57:41.708Z</time></trkpt><trkpt lat="45.60027" lon="11.3023283"><ele>544.0</ele><time>2026-04-19T12:57:42.708Z</time></trkpt><trkpt lat="45.6002617" lon="11.3021833"><ele>543.0</ele><time>2026-04-19T12:57:43.708Z</time></trkpt><trkpt lat="45.6002633" lon="11.3020617"><ele>542.0</ele><time>2026-04-19T12:57:44.708Z</time></trkpt><trkpt lat="45.60029" lon="11.3019083"><ele>541.0</ele><time>2026-04-19T12:57:46.707Z</time></trkpt><trkpt lat="45.6003667" lon="11.3018233"><ele>540.0</ele><time>2026-04-19T12:57:48.707Z</time></trkpt><trkpt lat="45.6004517" lon="11.3018333"><ele>539.0</ele><time>2026-04-19T12:57:49.707Z</time></trkpt><trkpt lat="45.6005483" lon="11.3018417"><ele>539.0</ele><time>2026-04-19T12:57:50.708Z</time></trkpt><trkpt lat="45.6006533" lon="11.3018417"><ele>539.0</ele><time>2026-04-19T12:57:51.708Z</time></trkpt><trkpt lat="45.6007667" lon="11.3018267"><ele>539.0</ele><time>2026-04-19T12:57:52.708Z</time></trkpt><trkpt lat="45.6008767" lon="11.3018183"><ele>539.0</ele><time>2026-04-19T12:57:53.707Z</time></trkpt><trkpt lat="45.6009767" lon="11.3018133"><ele>539.0</ele><time>2026-04-19T12:57:54.707Z</time></trkpt><trkpt lat="45.601065" lon="11.3018"><ele>539.0</ele><time>2026-04-19T12:57:55.708Z</time></trkpt><trkpt lat="45.6011483" lon="11.301795"><ele>539.0</ele><time>2026-04-19T12:57:56.708Z</time></trkpt><trkpt lat="45.60123" lon="11.301785"><ele>539.0</ele><time>2026-04-19T12:57:57.708Z</time></trkpt><trkpt lat="45.6013033" lon="11.3017617"><ele>539.0</ele><time>2026-04-19T12:57:58.708Z</time></trkpt><trkpt lat="45.6013633" lon="11.3017133"><ele>539.0</ele><time>2026-04-19T12:57:59.708Z</time></trkpt><trkpt lat="45.60142" lon="11.3016467"><ele>539.0</ele><time>2026-04-19T12:58:00.707Z</time></trkpt><trkpt lat="45.6014633" lon="11.3015683"><ele>538.4</ele><time>2026-04-19T12:58:01.708Z</time></trkpt><trkpt lat="45.6015233" lon="11.3014433"><ele>537.8</ele><time>2026-04-19T12:58:03.707Z</time></trkpt><trkpt lat="45.6015317" lon="11.3013317"><ele>537.2</ele><time>2026-04-19T12:58:07.708Z</time></trkpt><trkpt lat="45.6014567" lon="11.3012733"><ele>536.6</ele><time>2026-04-19T12:58:09.707Z</time></trkpt><trkpt lat="45.601335" lon="11.301225"><ele>536.0</ele><time>2026-04-19T12:58:11.708Z</time></trkpt><trkpt lat="45.6012667" lon="11.3012133"><ele>537.4</ele><time>2026-04-19T12:58:12.708Z</time></trkpt><trkpt lat="45.6011783" lon="11.3011783"><ele>538.8</ele><time>2026-04-19T12:58:14.708Z</time></trkpt><trkpt lat="45.6011533" lon="11.30106"><ele>540.1999999999999</ele><time>2026-04-19T12:58:17.707Z</time></trkpt><trkpt lat="45.6011583" lon="11.3008867"><ele>541.6</ele><time>2026-04-19T12:58:19.707Z</time></trkpt><trkpt lat="45.6011467" lon="11.30078"><ele>543.0</ele><time>2026-04-19T12:58:20.708Z</time></trkpt><trkpt lat="45.601135" lon="11.3006733"><ele>545.4285714285714</ele><time>2026-04-19T12:58:21.707Z</time></trkpt><trkpt lat="45.6011233" lon="11.3005733"><ele>547.8571428571429</ele><time>2026-04-19T12:58:22.708Z</time></trkpt><trkpt lat="45.6011117" lon="11.300475"><ele>550.2857142857142</ele><time>2026-04-19T12:58:23.708Z</time></trkpt><trkpt lat="45.6011067" lon="11.3003833"><ele>552.7142857142858</ele><time>2026-04-19T12:58:24.707Z</time></trkpt><trkpt lat="45.6010983" lon="11.3002833"><ele>555.1428571428571</ele><time>2026-04-19T12:58:25.708Z</time></trkpt><trkpt lat="45.6010917" lon="11.3001883"><ele>557.5714285714286</ele><time>2026-04-19T12:58:26.707Z</time></trkpt><trkpt lat="45.6010867" lon="11.3000867"><ele>560.0</ele><time>2026-04-19T12:58:27.708Z</time></trkpt><trkpt lat="45.6010783" lon="11.29999"><ele>560.0</ele><time>2026-04-19T12:58:28.708Z</time></trkpt><trkpt lat="45.6010233" lon="11.2998567"><ele>560.0</ele><time>2026-04-19T12:58:30.708Z</time></trkpt><trkpt lat="45.600925" lon="11.2997517"><ele>560.0</ele><time>2026-04-19T12:58:32.708Z</time></trkpt><trkpt lat="45.6008367" lon="11.2996333"><ele>560.0</ele><time>2026-04-19T12:58:34.708Z</time></trkpt><trkpt lat="45.60079" lon="11.2995617"><ele>560.0</ele><time>2026-04-19T12:58:35.707Z</time></trkpt><trkpt lat="45.6007467" lon="11.2994917"><ele>562.0</ele><time>2026-04-19T12:58:36.708Z</time></trkpt><trkpt lat="45.6007017" lon="11.2994267"><ele>564.0</ele><time>2026-04-19T12:58:37.708Z</time></trkpt><trkpt lat="45.6006567" lon="11.2993583"><ele>566.0</ele><time>2026-04-19T12:58:38.707Z</time></trkpt><trkpt lat="45.6005767" lon="11.29923"><ele>568.0</ele><time>2026-04-19T12:58:40.707Z</time></trkpt><trkpt lat="45.6005017" lon="11.2991"><ele>570.0</ele><time>2026-04-19T12:58:42.708Z</time></trkpt><trkpt lat="45.6004583" lon="11.29898"><ele>571.6666666666666</ele><time>2026-04-19T12:58:44.708Z</time></trkpt><trkpt lat="45.60045" lon="11.298885"><ele>573.3333333333334</ele><time>2026-04-19T12:58:46.707Z</time></trkpt><trkpt lat="45.6005283" lon="11.298815"><ele>575.0</ele><time>2026-04-19T12:58:49.707Z</time></trkpt><trkpt lat="45.6006" lon="11.2988367"><ele>576.6666666666667</ele><time>2026-04-19T12:58:51.708Z</time></trkpt><trkpt lat="45.60066" lon="11.2987983"><ele>578.3333333333334</ele><time>2026-04-19T12:58:53.708Z</time></trkpt><trkpt lat="45.6006867" lon="11.29869"><ele>580.0</ele><time>2026-04-19T12:58:55.707Z</time></trkpt><trkpt lat="45.600715" lon="11.2985733"><ele>580.0</ele><time>2026-04-19T12:58:57.708Z</time></trkpt><trkpt lat="45.6007783" lon="11.29849"><ele>580.0</ele><time>2026-04-19T12:58:59.708Z</time></trkpt><trkpt lat="45.6008483" lon="11.2984217"><ele>580.0</ele><time>2026-04-19T12:59:01.707Z</time></trkpt><trkpt lat="45.6009233" lon="11.298355"><ele>580.0</ele><time>2026-04-19T12:59:03.707Z</time></trkpt><trkpt lat="45.6009983" lon="11.2982933"><ele>580.0</ele><time>2026-04-19T12:59:05.708Z</time></trkpt><trkpt lat="45.6010583" lon="11.2981817"><ele>580.0</ele><time>2026-04-19T12:59:07.707Z</time></trkpt><trkpt lat="45.6011267" lon="11.2980183"><ele>581.0</ele><time>2026-04-19T12:59:09.708Z</time></trkpt><trkpt lat="45.601155" lon="11.2979233"><ele>582.0</ele><time>2026-04-19T12:59:10.707Z</time></trkpt><trkpt lat="45.6011883" lon="11.29777"><ele>583.0</ele><time>2026-04-19T12:59:12.708Z</time></trkpt><trkpt lat="45.601205" lon="11.2976083"><ele>584.0</ele><time>2026-04-19T12:59:14.708Z</time></trkpt><trkpt lat="45.6011917" lon="11.29745"><ele>585.0</ele><time>2026-04-19T12:59:16.707Z</time></trkpt><trkpt lat="45.6011667" lon="11.2973633"><ele>585.0</ele><time>2026-04-19T12:59:17.707Z</time></trkpt><trkpt lat="45.6011317" lon="11.2972867"><ele>585.0</ele><time>2026-04-19T12:59:18.707Z</time></trkpt><trkpt lat="45.60107" lon="11.2971417"><ele>585.0</ele><time>2026-04-19T12:59:20.707Z</time></trkpt><trkpt lat="45.6009967" lon="11.297055"><ele>585.0</ele><time>2026-04-19T12:59:22.708Z</time></trkpt><trkpt lat="45.6009383" lon="11.2970117"><ele>585.0</ele><time>2026-04-19T12:59:23.708Z</time></trkpt><trkpt lat="45.6008767" lon="11.2969783"><ele>585.0</ele><time>2026-04-19T12:59:24.707Z</time></trkpt><trkpt lat="45.6007617" lon="11.2969167"><ele>585.1666666666666</ele><time>2026-04-19T12:59:26.707Z</time></trkpt><trkpt lat="45.6007083" lon="11.2968633"><ele>585.3333333333334</ele><time>2026-04-19T12:59:27.707Z</time></trkpt><trkpt lat="45.6006083" lon="11.29685"><ele>585.5</ele><time>2026-04-19T12:59:29.708Z</time></trkpt><trkpt lat="45.6005167" lon="11.296915"><ele>585.6666666666667</ele><time>2026-04-19T12:59:31.707Z</time></trkpt><trkpt lat="45.6004267" lon="11.29686"><ele>585.8333333333334</ele><time>2026-04-19T12:59:33.708Z</time></trkpt><trkpt lat="45.60039" lon="11.2967867"><ele>586.0</ele><time>2026-04-19T12:59:34.708Z</time></trkpt><trkpt lat="45.6003533" lon="11.2966967"><ele>587.8333333333334</ele><time>2026-04-19T12:59:35.708Z</time></trkpt><trkpt lat="45.60031" lon="11.2966133"><ele>589.6666666666667</ele><time>2026-04-19T12:59:36.707Z</time></trkpt><trkpt lat="45.60026" lon="11.2965417"><ele>591.5</ele><time>2026-04-19T12:59:37.707Z</time></trkpt><trkpt lat="45.6002067" lon="11.29648"><ele>593.3333333333334</ele><time>2026-04-19T12:59:38.707Z</time></trkpt><trkpt lat="45.6001133" lon="11.2963883"><ele>595.1666666666666</ele><time>2026-04-19T12:59:40.707Z</time></trkpt><trkpt lat="45.6000567" lon="11.2962567"><ele>597.0</ele><time>2026-04-19T12:59:42.708Z</time></trkpt><trkpt lat="45.5999783" lon="11.2961317"><ele>598.2</ele><time>2026-04-19T12:59:44.708Z</time></trkpt><trkpt lat="45.5999017" lon="11.2960233"><ele>599.4000000000001</ele><time>2026-04-19T12:59:46.707Z</time></trkpt><trkpt lat="45.59982" lon="11.2958883"><ele>600.5999999999999</ele><time>2026-04-19T12:59:48.708Z</time></trkpt><trkpt lat="45.599785" lon="11.29581"><ele>601.8</ele><time>2026-04-19T12:59:49.708Z</time></trkpt><trkpt lat="45.5997117" lon="11.2956917"><ele>603.0</ele><time>2026-04-19T12:59:51.707Z</time></trkpt><trkpt lat="45.599635" lon="11.295585"><ele>603.0</ele><time>2026-04-19T12:59:53.707Z</time></trkpt><trkpt lat="45.5995417" lon="11.295465"><ele>603.0</ele><time>2026-04-19T12:59:55.708Z</time></trkpt><trkpt lat="45.599445" lon="11.2953567"><ele>603.0</ele><time>2026-04-19T12:59:57.708Z</time></trkpt><trkpt lat="45.59935" lon="11.2952567"><ele>603.0</ele><time>2026-04-19T12:59:59.707Z</time></trkpt><trkpt lat="45.5992617" lon="11.2951617"><ele>605.6</ele><time>2026-04-19T13:00:01.707Z</time></trkpt><trkpt lat="45.5991717" lon="11.295075"><ele>608.1999999999999</ele><time>2026-04-19T13:00:03.707Z</time></trkpt><trkpt lat="45.5990767" lon="11.29498"><ele>610.8</ele><time>2026-04-19T13:00:05.708Z</time></trkpt><trkpt lat="45.5989833" lon="11.29487"><ele>613.4</ele><time>2026-04-19T13:00:07.708Z</time></trkpt><trkpt lat="45.5989333" lon="11.2948083"><ele>616.0</ele><time>2026-04-19T13:00:08.707Z</time></trkpt><trkpt lat="45.59888" lon="11.2947433"><ele>616.4285714285714</ele><time>2026-04-19T13:00:09.707Z</time></trkpt><trkpt lat="45.5988233" lon="11.29467"><ele>616.8571428571429</ele><time>2026-04-19T13:00:10.708Z</time></trkpt><trkpt lat="45.59877" lon="11.2946033"><ele>617.2857142857142</ele><time>2026-04-19T13:00:11.707Z</time></trkpt><trkpt lat="45.59871" lon="11.2945433"><ele>617.7142857142858</ele><time>2026-04-19T13:00:12.708Z</time></trkpt><trkpt lat="45.5986467" lon="11.2944817"><ele>618.1428571428571</ele><time>2026-04-19T13:00:13.708Z</time></trkpt><trkpt lat="45.5985867" lon="11.29442"><ele>618.5714285714286</ele><time>2026-04-19T13:00:14.707Z</time></trkpt><trkpt lat="45.5985283" lon="11.29436"><ele>619.0</ele><time>2026-04-19T13:00:15.708Z</time></trkpt><trkpt lat="45.5984733" lon="11.2943033"><ele>619.2</ele><time>2026-04-19T13:00:16.707Z</time></trkpt><trkpt lat="45.5983867" lon="11.2942067"><ele>619.4</ele><time>2026-04-19T13:00:18.708Z</time></trkpt><trkpt lat="45.5983283" lon="11.2941"><ele>619.6</ele><time>2026-04-19T13:00:20.708Z</time></trkpt><trkpt lat="45.598315" lon="11.2939717"><ele>619.8</ele><time>2026-04-19T13:00:22.708Z</time></trkpt><trkpt lat="45.5983167" lon="11.2938033"><ele>620.0</ele><time>2026-04-19T13:00:24.708Z</time></trkpt><trkpt lat="45.5983217" lon="11.293705"><ele>621.6</ele><time>2026-04-19T13:00:25.707Z</time></trkpt><trkpt lat="45.5983333" lon="11.2935383"><ele>623.2</ele><time>2026-04-19T13:00:27.708Z</time></trkpt><trkpt lat="45.598365" lon="11.2933817"><ele>624.8</ele><time>2026-04-19T13:00:29.707Z</time></trkpt><trkpt lat="45.59842" lon="11.2932383"><ele>626.4</ele><time>2026-04-19T13:00:31.707Z</time></trkpt><trkpt lat="45.5984633" lon="11.2931417"><ele>628.0</ele><time>2026-04-19T13:00:33.708Z</time></trkpt><trkpt lat="45.5984867" lon="11.293025"><ele>628.6</ele><time>2026-04-19T13:00:35.708Z</time></trkpt><trkpt lat="45.5984483" lon="11.2929067"><ele>629.1999999999999</ele><time>2026-04-19T13:00:37.708Z</time></trkpt><trkpt lat="45.598355" lon="11.2928333"><ele>629.8</ele><time>2026-04-19T13:00:39.708Z</time></trkpt><trkpt lat="45.5982567" lon="11.2927617"><ele>630.4</ele><time>2026-04-19T13:00:41.707Z</time></trkpt><trkpt lat="45.59818" lon="11.2926767"><ele>631.0</ele><time>2026-04-19T13:00:43.708Z</time></trkpt><trkpt lat="45.5981033" lon="11.2925967"><ele>631.0</ele><time>2026-04-19T13:00:45.708Z</time></trkpt><trkpt lat="45.59804" lon="11.2924983"><ele>631.0</ele><time>2026-04-19T13:00:47.707Z</time></trkpt><trkpt lat="45.5979817" lon="11.2924167"><ele>631.0</ele><time>2026-04-19T13:00:49.707Z</time></trkpt><trkpt lat="45.59795" lon="11.292315"><ele>631.0</ele><time>2026-04-19T13:00:52.708Z</time></trkpt><trkpt lat="45.5979543" lon="11.2921982"><ele>631.0</ele><time>2026-04-19T13:00:57.726Z</time></trkpt><trkpt lat="45.5978737" lon="11.2921183"><ele>631.0</ele><time>2026-04-19T13:00:59.708Z</time></trkpt><trkpt lat="45.5977799" lon="11.2920084"><ele>633.5</ele><time>2026-04-19T13:01:01.707Z</time></trkpt><trkpt lat="45.5976769" lon="11.2919521"><ele>636.0</ele><time>2026-04-19T13:01:03.708Z</time></trkpt><trkpt lat="45.5975733" lon="11.291875"><ele>638.5</ele><time>2026-04-19T13:01:05.707Z</time></trkpt><trkpt lat="45.59748" lon="11.291715"><ele>641.0</ele><time>2026-04-19T13:01:07.707Z</time></trkpt><trkpt lat="45.5974283" lon="11.2916067"><ele>641.0</ele><time>2026-04-19T13:01:08.707Z</time></trkpt><trkpt lat="45.5973917" lon="11.29152"><ele>641.0</ele><time>2026-04-19T13:01:09.707Z</time></trkpt><trkpt lat="45.597315" lon="11.29141"><ele>641.0</ele><time>2026-04-19T13:01:11.707Z</time></trkpt><trkpt lat="45.5971917" lon="11.2913733"><ele>641.0</ele><time>2026-04-19T13:01:13.707Z</time></trkpt><trkpt lat="45.5971217" lon="11.2913917"><ele>641.0</ele><time>2026-04-19T13:01:14.708Z</time></trkpt><trkpt lat="45.5970517" lon="11.2914383"><ele>641.8333333333333</ele><time>2026-04-19T13:01:15.707Z</time></trkpt><trkpt lat="45.59698" lon="11.2914783"><ele>642.6666666666666</ele><time>2026-04-19T13:01:16.708Z</time></trkpt><trkpt lat="45.5969083" lon="11.2915067"><ele>643.5</ele><time>2026-04-19T13:01:17.708Z</time></trkpt><trkpt lat="45.596805" lon="11.2915133"><ele>644.3333333333334</ele><time>2026-04-19T13:01:19.708Z</time></trkpt><trkpt lat="45.596765" lon="11.29142"><ele>645.1666666666667</ele><time>2026-04-19T13:01:22.707Z</time></trkpt><trkpt lat="45.596825" lon="11.2913417"><ele>646.0</ele><time>2026-04-19T13:01:24.708Z</time></trkpt><trkpt lat="45.59691" lon="11.2912283"><ele>646.4</ele><time>2026-04-19T13:01:26.707Z</time></trkpt><trkpt lat="45.5969617" lon="11.2911267"><ele>646.8</ele><time>2026-04-19T13:01:27.707Z</time></trkpt><trkpt lat="45.5970117" lon="11.29102"><ele>647.1999999999999</ele><time>2026-04-19T13:01:28.707Z</time></trkpt><trkpt lat="45.5970567" lon="11.290925"><ele>647.5999999999999</ele><time>2026-04-19T13:01:29.708Z</time></trkpt><trkpt lat="45.5971083" lon="11.29076"><ele>648.0</ele><time>2026-04-19T13:01:31.708Z</time></trkpt><trkpt lat="45.597105" lon="11.2905983"><ele>650.4</ele><time>2026-04-19T13:01:33.708Z</time></trkpt><trkpt lat="45.5970417" lon="11.2904533"><ele>652.8</ele><time>2026-04-19T13:01:35.707Z</time></trkpt><trkpt lat="45.5969867" lon="11.29035"><ele>655.2</ele><time>2026-04-19T13:01:37.707Z</time></trkpt><trkpt lat="45.596985" lon="11.2902267"><ele>657.6</ele><time>2026-04-19T13:01:39.707Z</time></trkpt><trkpt lat="45.5970467" lon="11.29005"><ele>660.0</ele><time>2026-04-19T13:01:41.707Z</time></trkpt><trkpt lat="45.5970833" lon="11.289945"><ele>660.0</ele><time>2026-04-19T13:01:42.707Z</time></trkpt><trkpt lat="45.597115" lon="11.2898467"><ele>660.0</ele><time>2026-04-19T13:01:43.707Z</time></trkpt><trkpt lat="45.5971217" lon="11.2897117"><ele>660.0</ele><time>2026-04-19T13:01:45.708Z</time></trkpt><trkpt lat="45.59713" lon="11.28961"><ele>660.0</ele><time>2026-04-19T13:01:46.707Z</time></trkpt><trkpt lat="45.5971" lon="11.2894083"><ele>660.0</ele><time>2026-04-19T13:01:48.707Z</time></trkpt><trkpt lat="45.597085" lon="11.2893083"><ele>661.7142857142858</ele><time>2026-04-19T13:01:49.708Z</time></trkpt><trkpt lat="45.5970667" lon="11.2892083"><ele>663.4285714285714</ele><time>2026-04-19T13:01:50.707Z</time></trkpt><trkpt lat="45.5970483" lon="11.2891133"><ele>665.1428571428571</ele><time>2026-04-19T13:01:51.707Z</time></trkpt><trkpt lat="45.5970367" lon="11.28902"><ele>666.8571428571429</ele><time>2026-04-19T13:01:52.708Z</time></trkpt><trkpt lat="45.597025" lon="11.2889167"><ele>668.5714285714286</ele><time>2026-04-19T13:01:53.708Z</time></trkpt><trkpt lat="45.5970183" lon="11.2888267"><ele>670.2857142857143</ele><time>2026-04-19T13:01:54.708Z</time></trkpt><trkpt lat="45.5970017" lon="11.288705"><ele>672.0</ele><time>2026-04-19T13:01:56.708Z</time></trkpt><trkpt lat="45.5970183" lon="11.2885717"><ele>673.8</ele><time>2026-04-19T13:01:58.707Z</time></trkpt><trkpt lat="45.59702" lon="11.2884083"><ele>675.6</ele><time>2026-04-19T13:02:00.708Z</time></trkpt><trkpt lat="45.5969917" lon="11.2882433"><ele>677.4</ele><time>2026-04-19T13:02:02.708Z</time></trkpt><trkpt lat="45.5969517" lon="11.2880917"><ele>679.1999999999999</ele><time>2026-04-19T13:02:04.707Z</time></trkpt><trkpt lat="45.596925" lon="11.2879983"><ele>681.0</ele><time>2026-04-19T13:02:05.707Z</time></trkpt><trkpt lat="45.5968933" lon="11.2879067"><ele>681.5999999999999</ele><time>2026-04-19T13:02:06.707Z</time></trkpt><trkpt lat="45.59684" lon="11.28777"><ele>682.2</ele><time>2026-04-19T13:02:08.707Z</time></trkpt><trkpt lat="45.5968633" lon="11.287645"><ele>682.8</ele><time>2026-04-19T13:02:10.707Z</time></trkpt><trkpt lat="45.5969583" lon="11.2875283"><ele>683.4000000000001</ele><time>2026-04-19T13:02:12.708Z</time></trkpt><trkpt lat="45.59702" lon="11.2874683"><ele>684.0</ele><time>2026-04-19T13:02:13.707Z</time></trkpt><trkpt lat="45.5970683" lon="11.287405"><ele>684.0</ele><time>2026-04-19T13:02:14.708Z</time></trkpt><trkpt lat="45.5971133" lon="11.2872633"><ele>684.0</ele><time>2026-04-19T13:02:16.707Z</time></trkpt><trkpt lat="45.5971217" lon="11.2870983"><ele>684.0</ele><time>2026-04-19T13:02:18.707Z</time></trkpt><trkpt lat="45.597125" lon="11.2869533"><ele>684.0</ele><time>2026-04-19T13:02:20.707Z</time></trkpt><trkpt lat="45.5971833" lon="11.286845"><ele>684.0</ele><time>2026-04-19T13:02:22.708Z</time></trkpt><trkpt lat="45.5972383" lon="11.286725"><ele>685.3333333333334</ele><time>2026-04-19T13:02:24.708Z</time></trkpt><trkpt lat="45.5972867" lon="11.2866217"><ele>686.6666666666666</ele><time>2026-04-19T13:02:26.707Z</time></trkpt><trkpt lat="45.5973" lon="11.28651"><ele>688.0</ele><time>2026-04-19T13:02:28.708Z</time></trkpt><trkpt lat="45.5972883" lon="11.2863917"><ele>689.3333333333333</ele><time>2026-04-19T13:02:30.708Z</time></trkpt><trkpt lat="45.5972817" lon="11.2862867"><ele>690.6666666666666</ele><time>2026-04-19T13:02:32.707Z</time></trkpt><trkpt lat="45.59727" lon="11.2861633"><ele>692.0</ele><time>2026-04-19T13:02:35.707Z</time></trkpt><trkpt lat="45.59729" lon="11.28605"><ele>693.1666666666666</ele><time>2026-04-19T13:02:37.708Z</time></trkpt><trkpt lat="45.5973117" lon="11.2859167"><ele>694.3333333333333</ele><time>2026-04-19T13:02:39.707Z</time></trkpt><trkpt lat="45.59732" lon="11.28578"><ele>695.5</ele><time>2026-04-19T13:02:41.707Z</time></trkpt><trkpt lat="45.59734" lon="11.285675"><ele>696.6666666666666</ele><time>2026-04-19T13:02:43.707Z</time></trkpt><trkpt lat="45.59735" lon="11.2855367"><ele>697.8333333333334</ele><time>2026-04-19T13:02:46.707Z</time></trkpt><trkpt lat="45.59737" lon="11.2854417"><ele>699.0</ele><time>2026-04-19T13:02:48.707Z</time></trkpt><trkpt lat="45.597395" lon="11.2853383"><ele>700.6666666666666</ele><time>2026-04-19T13:02:50.707Z</time></trkpt><trkpt lat="45.5974117" lon="11.285215"><ele>702.3333333333334</ele><time>2026-04-19T13:02:52.707Z</time></trkpt><trkpt lat="45.5974283" lon="11.2850833"><ele>704.0</ele><time>2026-04-19T13:02:54.707Z</time></trkpt><trkpt lat="45.5974683" lon="11.284965"><ele>705.6666666666667</ele><time>2026-04-19T13:02:56.707Z</time></trkpt><trkpt lat="45.597505" lon="11.284875"><ele>707.3333333333334</ele><time>2026-04-19T13:02:58.708Z</time></trkpt><trkpt lat="45.5975133" lon="11.284775"><ele>709.0</ele><time>2026-04-19T13:03:00.708Z</time></trkpt><trkpt lat="45.5975283" lon="11.2846433"><ele>710.8333333333334</ele><time>2026-04-19T13:03:02.708Z</time></trkpt><trkpt lat="45.59753" lon="11.28454"><ele>712.6666666666667</ele><time>2026-04-19T13:03:04.707Z</time></trkpt><trkpt lat="45.5975283" lon="11.2844417"><ele>714.5</ele><time>2026-04-19T13:03:06.707Z</time></trkpt><trkpt lat="45.5975217" lon="11.2843283"><ele>716.3333333333334</ele><time>2026-04-19T13:03:09.708Z</time></trkpt><trkpt lat="45.597558" lon="11.2842532"><ele>718.1666666666666</ele><time>2026-04-19T13:03:12.792Z</time></trkpt><trkpt lat="45.5976054" lon="11.2841516"><ele>720.0</ele><time>2026-04-19T13:03:38.708Z</time></trkpt><trkpt lat="45.59769" lon="11.2840233"><ele>720.0</ele><time>2026-04-19T13:04:47.707Z</time></trkpt><trkpt lat="45.59775" lon="11.28394"><ele>720.0</ele><time>2026-04-19T13:04:51.708Z</time></trkpt><trkpt lat="45.597815" lon="11.283935"><ele>720.0</ele><time>2026-04-19T13:06:30.707Z</time></trkpt><trkpt lat="45.5978683" lon="11.28383"><ele>720.0</ele><time>2026-04-19T13:06:32.707Z</time></trkpt><trkpt lat="45.5979217" lon="11.2837433"><ele>720.0</ele><time>2026-04-19T13:06:34.708Z</time></trkpt><trkpt lat="45.5979733" lon="11.2836533"><ele>720.0</ele><time>2026-04-19T13:06:36.708Z</time></trkpt><trkpt lat="45.5980183" lon="11.283575"><ele>721.5</ele><time>2026-04-19T13:06:38.707Z</time></trkpt><trkpt lat="45.5980772" lon="11.2835339"><ele>723.0</ele><time>2026-04-19T13:06:41.769Z</time></trkpt><trkpt lat="45.5981153" lon="11.2834387"><ele>724.5</ele><time>2026-04-19T13:06:43.785Z</time></trkpt><trkpt lat="45.59816" lon="11.2833522"><ele>726.0</ele><time>2026-04-19T13:06:45.789Z</time></trkpt><trkpt lat="45.5982226" lon="11.283291"><ele>727.5</ele><time>2026-04-19T13:06:48.774Z</time></trkpt><trkpt lat="45.59826" lon="11.2831933"><ele>729.0</ele><time>2026-04-19T13:06:52.707Z</time></trkpt><trkpt lat="45.5983083" lon="11.2830933"><ele>730.8333333333334</ele><time>2026-04-19T13:06:54.707Z</time></trkpt><trkpt lat="45.5983483" lon="11.2829983"><ele>732.6666666666666</ele><time>2026-04-19T13:06:56.707Z</time></trkpt><trkpt lat="45.5984033" lon="11.2829033"><ele>734.5</ele><time>2026-04-19T13:06:58.708Z</time></trkpt><trkpt lat="45.5984567" lon="11.2828367"><ele>736.3333333333333</ele><time>2026-04-19T13:07:00.707Z</time></trkpt><trkpt lat="45.5985317" lon="11.282805"><ele>738.1666666666666</ele><time>2026-04-19T13:07:03.708Z</time></trkpt><trkpt lat="45.5986183" lon="11.2828617"><ele>740.0</ele><time>2026-04-19T13:07:06.708Z</time></trkpt><trkpt lat="45.5986833" lon="11.2828933"><ele>740.0</ele><time>2026-04-19T13:07:08.707Z</time></trkpt><trkpt lat="45.5987467" lon="11.2829167"><ele>740.0</ele><time>2026-04-19T13:07:10.707Z</time></trkpt><trkpt lat="45.5988283" lon="11.282925"><ele>740.0</ele><time>2026-04-19T13:07:12.707Z</time></trkpt><trkpt lat="45.5988917" lon="11.2828967"><ele>740.0</ele><time>2026-04-19T13:07:14.708Z</time></trkpt><trkpt lat="45.5989517" lon="11.2828117"><ele>740.0</ele><time>2026-04-19T13:07:16.708Z</time></trkpt><trkpt lat="45.5990083" lon="11.2827367"><ele>740.0</ele><time>2026-04-19T13:07:18.707Z</time></trkpt><trkpt lat="45.5990967" lon="11.2826683"><ele>740.0</ele><time>2026-04-19T13:07:20.707Z</time></trkpt><trkpt lat="45.5991633" lon="11.2825933"><ele>740.0</ele><time>2026-04-19T13:07:22.707Z</time></trkpt><trkpt lat="45.599235" lon="11.2824533"><ele>740.0</ele><time>2026-04-19T13:07:24.707Z</time></trkpt><trkpt lat="45.5992917" lon="11.2823433"><ele>740.0</ele><time>2026-04-19T13:07:25.708Z</time></trkpt><trkpt lat="45.5993333" lon="11.282235"><ele>740.0</ele><time>2026-04-19T13:07:26.708Z</time></trkpt><trkpt lat="45.599365" lon="11.2821417"><ele>740.5</ele><time>2026-04-19T13:07:27.707Z</time></trkpt><trkpt lat="45.5994067" lon="11.282045"><ele>741.0</ele><time>2026-04-19T13:07:29.708Z</time></trkpt><trkpt lat="45.5994783" lon="11.2819483"><ele>741.5</ele><time>2026-04-19T13:07:45.707Z</time></trkpt><trkpt lat="45.5995483" lon="11.2819533"><ele>742.0</ele><time>2026-04-19T13:07:47.708Z</time></trkpt><trkpt lat="45.599625" lon="11.2819583"><ele>742.5</ele><time>2026-04-19T13:07:49.708Z</time></trkpt><trkpt lat="45.5997333" lon="11.28195"><ele>743.0</ele><time>2026-04-19T13:07:51.707Z</time></trkpt><trkpt lat="45.5998" lon="11.28195"><ele>743.1666666666666</ele><time>2026-04-19T13:07:52.708Z</time></trkpt><trkpt lat="45.5998683" lon="11.2819567"><ele>743.3333333333333</ele><time>2026-04-19T13:07:53.708Z</time></trkpt><trkpt lat="45.5999883" lon="11.2819767"><ele>743.5</ele><time>2026-04-19T13:07:55.708Z</time></trkpt><trkpt lat="45.600055" lon="11.281995"><ele>743.6666666666666</ele><time>2026-04-19T13:07:56.707Z</time></trkpt><trkpt lat="45.60012" lon="11.282015"><ele>743.8333333333334</ele><time>2026-04-19T13:07:57.707Z</time></trkpt><trkpt lat="45.6002283" lon="11.282055"><ele>744.0</ele><time>2026-04-19T13:07:59.707Z</time></trkpt><trkpt lat="45.60029" lon="11.282095"><ele>744.8333333333334</ele><time>2026-04-19T13:08:00.708Z</time></trkpt><trkpt lat="45.6003567" lon="11.2821567"><ele>745.6666666666666</ele><time>2026-04-19T13:08:01.708Z</time></trkpt><trkpt lat="45.6004183" lon="11.2822083"><ele>746.5</ele><time>2026-04-19T13:08:02.707Z</time></trkpt><trkpt lat="45.6005233" lon="11.282315"><ele>747.3333333333333</ele><time>2026-04-19T13:08:04.708Z</time></trkpt><trkpt lat="45.60058" lon="11.28236"><ele>748.1666666666666</ele><time>2026-04-19T13:08:05.707Z</time></trkpt><trkpt lat="45.60064" lon="11.2824267"><ele>749.0</ele><time>2026-04-19T13:08:06.707Z</time></trkpt><trkpt lat="45.6007083" lon="11.28251"><ele>750.0</ele><time>2026-04-19T13:08:07.708Z</time></trkpt><trkpt lat="45.60078" lon="11.2825817"><ele>751.0</ele><time>2026-04-19T13:08:08.708Z</time></trkpt><trkpt lat="45.6008533" lon="11.28264"><ele>752.0</ele><time>2026-04-19T13:08:09.708Z</time></trkpt><trkpt lat="45.6009267" lon="11.2826833"><ele>753.0</ele><time>2026-04-19T13:08:10.708Z</time></trkpt><trkpt lat="45.6010067" lon="11.2827183"><ele>754.0</ele><time>2026-04-19T13:08:11.707Z</time></trkpt><trkpt lat="45.6010883" lon="11.2827517"><ele>755.0</ele><time>2026-04-19T13:08:12.707Z</time></trkpt><trkpt lat="45.6011717" lon="11.2827683"><ele>756.6</ele><time>2026-04-19T13:08:13.707Z</time></trkpt><trkpt lat="45.601255" lon="11.2827717"><ele>758.2</ele><time>2026-04-19T13:08:14.707Z</time></trkpt><trkpt lat="45.6013367" lon="11.28277"><ele>759.8</ele><time>2026-04-19T13:08:15.707Z</time></trkpt><trkpt lat="45.601415" lon="11.2827667"><ele>761.4</ele><time>2026-04-19T13:08:16.707Z</time></trkpt><trkpt lat="45.601495" lon="11.2827483"><ele>763.0</ele><time>2026-04-19T13:08:17.708Z</time></trkpt><trkpt lat="45.60162" lon="11.2827583"><ele>763.0</ele><time>2026-04-19T13:08:19.708Z</time></trkpt><trkpt lat="45.6016883" lon="11.2827617"><ele>763.0</ele><time>2026-04-19T13:08:20.707Z</time></trkpt><trkpt lat="45.601755" lon="11.28277"><ele>763.0</ele><time>2026-04-19T13:08:21.707Z</time></trkpt><trkpt lat="45.6018767" lon="11.2827733"><ele>763.0</ele><time>2026-04-19T13:08:23.708Z</time></trkpt><trkpt lat="45.6019417" lon="11.2827533"><ele>763.0</ele><time>2026-04-19T13:08:24.708Z</time></trkpt><trkpt lat="45.6020067" lon="11.2827333"><ele>763.0</ele><time>2026-04-19T13:08:25.708Z</time></trkpt><trkpt lat="45.602075" lon="11.2827233"><ele>765.3333333333334</ele><time>2026-04-19T13:08:26.707Z</time></trkpt><trkpt lat="45.60214" lon="11.2827217"><ele>767.6666666666667</ele><time>2026-04-19T13:08:27.707Z</time></trkpt><trkpt lat="45.602255" lon="11.282745"><ele>770.0</ele><time>2026-04-19T13:08:29.707Z</time></trkpt><trkpt lat="45.6023217" lon="11.2827633"><ele>772.3333333333334</ele><time>2026-04-19T13:08:30.706Z</time></trkpt><trkpt lat="45.602385" lon="11.2827833"><ele>774.6666666666666</ele><time>2026-04-19T13:08:31.707Z</time></trkpt><trkpt lat="45.6025167" lon="11.2827817"><ele>777.0</ele><time>2026-04-19T13:08:33.707Z</time></trkpt><trkpt lat="45.6025883" lon="11.2827633"><ele>777.0</ele><time>2026-04-19T13:08:34.707Z</time></trkpt><trkpt lat="45.6026617" lon="11.2827183"><ele>777.0</ele><time>2026-04-19T13:08:35.706Z</time></trkpt><trkpt lat="45.6027367" lon="11.2826567"><ele>777.0</ele><time>2026-04-19T13:08:36.706Z</time></trkpt><trkpt lat="45.6028117" lon="11.2825933"><ele>777.0</ele><time>2026-04-19T13:08:37.707Z</time></trkpt><trkpt lat="45.60288" lon="11.2825417"><ele>777.0</ele><time>2026-04-19T13:08:38.707Z</time></trkpt><trkpt lat="45.6029317" lon="11.28249"><ele>777.0</ele><time>2026-04-19T13:08:39.707Z</time></trkpt><trkpt lat="45.60302" lon="11.2824483"><ele>778.8333333333334</ele><time>2026-04-19T13:08:41.706Z</time></trkpt><trkpt lat="45.6031033" lon="11.2824233"><ele>780.6666666666667</ele><time>2026-04-19T13:08:43.707Z</time></trkpt><trkpt lat="45.6032017" lon="11.2823467"><ele>782.5</ele><time>2026-04-19T13:08:45.706Z</time></trkpt><trkpt lat="45.603265" lon="11.2823017"><ele>784.3333333333334</ele><time>2026-04-19T13:08:46.706Z</time></trkpt><trkpt lat="45.60334" lon="11.28227"><ele>786.1666666666667</ele><time>2026-04-19T13:08:47.706Z</time></trkpt><trkpt lat="45.6034183" lon="11.28224"><ele>788.0</ele><time>2026-04-19T13:08:48.706Z</time></trkpt><trkpt lat="45.6034933" lon="11.2822117"><ele>788.7142857142858</ele><time>2026-04-19T13:08:49.706Z</time></trkpt><trkpt lat="45.603565" lon="11.28219"><ele>789.4285714285714</ele><time>2026-04-19T13:08:50.706Z</time></trkpt><trkpt lat="45.6036383" lon="11.2821733"><ele>790.1428571428571</ele><time>2026-04-19T13:08:51.706Z</time></trkpt><trkpt lat="45.6037117" lon="11.2821517"><ele>790.8571428571429</ele><time>2026-04-19T13:08:52.707Z</time></trkpt><trkpt lat="45.6037833" lon="11.2821367"><ele>791.5714285714286</ele><time>2026-04-19T13:08:53.707Z</time></trkpt><trkpt lat="45.60385" lon="11.2821183"><ele>792.2857142857143</ele><time>2026-04-19T13:08:54.707Z</time></trkpt><trkpt lat="45.6039217" lon="11.2821033"><ele>793.0</ele><time>2026-04-19T13:08:55.706Z</time></trkpt><trkpt lat="45.603985" lon="11.282085"><ele>793.1666666666666</ele><time>2026-04-19T13:08:56.707Z</time></trkpt><trkpt lat="45.6040483" lon="11.2820467"><ele>793.3333333333333</ele><time>2026-04-19T13:08:57.706Z</time></trkpt><trkpt lat="45.6041133" lon="11.2820017"><ele>793.5</ele><time>2026-04-19T13:08:58.707Z</time></trkpt><trkpt lat="45.60419" lon="11.28195"><ele>793.6666666666667</ele><time>2026-04-19T13:08:59.707Z</time></trkpt><trkpt lat="45.604255" lon="11.28189"><ele>793.8333333333334</ele><time>2026-04-19T13:09:00.706Z</time></trkpt><trkpt lat="45.6043117" lon="11.2818283"><ele>794.0</ele><time>2026-04-19T13:09:01.707Z</time></trkpt><trkpt lat="45.6043833" lon="11.28176"><ele>794.0000000000001</ele><time>2026-04-19T13:09:02.706Z</time></trkpt><trkpt lat="45.60445" lon="11.281695"><ele>794.0</ele><time>2026-04-19T13:09:03.706Z</time></trkpt><trkpt lat="45.60451" lon="11.2816267"><ele>794.0</ele><time>2026-04-19T13:09:04.707Z</time></trkpt><trkpt lat="45.6045633" lon="11.28156"><ele>794.0</ele><time>2026-04-19T13:09:05.706Z</time></trkpt><trkpt lat="45.6046183" lon="11.2814967"><ele>794.0000000000001</ele><time>2026-04-19T13:09:06.706Z</time></trkpt><trkpt lat="45.604715" lon="11.2814083"><ele>794.0</ele><time>2026-04-19T13:09:08.706Z</time></trkpt><trkpt lat="45.604795" lon="11.28134"><ele>794.3333333333334</ele><time>2026-04-19T13:09:10.707Z</time></trkpt><trkpt lat="45.6049033" lon="11.2812867"><ele>794.6666666666667</ele><time>2026-04-19T13:09:24.707Z</time></trkpt><trkpt lat="45.6049617" lon="11.28133"><ele>795.0</ele><time>2026-04-19T13:09:26.707Z</time></trkpt><trkpt lat="45.6049967" lon="11.2814167"><ele>795.3333333333333</ele><time>2026-04-19T13:09:28.707Z</time></trkpt><trkpt lat="45.605005" lon="11.2815333"><ele>795.6666666666666</ele><time>2026-04-19T13:09:31.707Z</time></trkpt><trkpt lat="45.6050783" lon="11.2816233"><ele>796.0</ele><time>2026-04-19T13:09:34.707Z</time></trkpt><trkpt lat="45.605125" lon="11.2817"><ele>795.9999999999999</ele><time>2026-04-19T13:09:36.706Z</time></trkpt><trkpt lat="45.605165" lon="11.2817817"><ele>796.0</ele><time>2026-04-19T13:09:38.707Z</time></trkpt><trkpt lat="45.6052" lon="11.2818683"><ele>796.0</ele><time>2026-04-19T13:09:40.707Z</time></trkpt><trkpt lat="45.6052624" lon="11.2819537"><ele>796.0</ele><time>2026-04-19T13:09:43.758Z</time></trkpt><trkpt lat="45.6053469" lon="11.2820054"><ele>795.9999999999999</ele><time>2026-04-19T13:09:45.774Z</time></trkpt><trkpt lat="45.6054234" lon="11.2820467"><ele>796.0</ele><time>2026-04-19T13:09:48.745Z</time></trkpt><trkpt lat="45.6054938" lon="11.2820887"><ele>795.3333333333333</ele><time>2026-04-19T13:09:53.733Z</time></trkpt><trkpt lat="45.6055697" lon="11.282004"><ele>794.6666666666666</ele><time>2026-04-19T13:09:56.706Z</time></trkpt><trkpt lat="45.6056368" lon="11.2819548"><ele>794.0</ele><time>2026-04-19T13:09:58.721Z</time></trkpt><trkpt lat="45.6057031" lon="11.2819233"><ele>793.3333333333333</ele><time>2026-04-19T13:10:00.729Z</time></trkpt><trkpt lat="45.60563" lon="11.281845"><ele>792.6666666666666</ele><time>2026-04-19T13:10:09.707Z</time></trkpt><trkpt lat="45.6055633" lon="11.2818117"><ele>792.0</ele><time>2026-04-19T13:10:11.707Z</time></trkpt><trkpt lat="45.6055017" lon="11.2817783"><ele>792.0</ele><time>2026-04-19T13:10:13.706Z</time></trkpt><trkpt lat="45.6054333" lon="11.281685"><ele>792.0</ele><time>2026-04-19T13:10:15.707Z</time></trkpt><trkpt lat="45.60537" lon="11.2815383"><ele>792.0</ele><time>2026-04-19T13:10:17.706Z</time></trkpt><trkpt lat="45.6053317" lon="11.281445"><ele>792.0</ele><time>2026-04-19T13:10:19.706Z</time></trkpt><trkpt lat="45.6052683" lon="11.28138"><ele>792.0</ele><time>2026-04-19T13:10:22.706Z</time></trkpt><trkpt lat="45.6052267" lon="11.2812767"><ele>791.3333333333334</ele><time>2026-04-19T13:10:25.706Z</time></trkpt><trkpt lat="45.6052067" lon="11.2811733"><ele>790.6666666666667</ele><time>2026-04-19T13:10:27.707Z</time></trkpt><trkpt lat="45.6051983" lon="11.2810833"><ele>790.0</ele><time>2026-04-19T13:10:29.707Z</time></trkpt><trkpt lat="45.6052083" lon="11.2809833"><ele>789.3333333333334</ele><time>2026-04-19T13:10:32.706Z</time></trkpt><trkpt lat="45.6051483" lon="11.280925"><ele>788.6666666666667</ele><time>2026-04-19T13:10:35.707Z</time></trkpt><trkpt lat="45.6050617" lon="11.2809783"><ele>788.0</ele><time>2026-04-19T13:10:37.707Z</time></trkpt><trkpt lat="45.6049983" lon="11.2810567"><ele>788.0</ele><time>2026-04-19T13:10:39.707Z</time></trkpt><trkpt lat="45.604995" lon="11.2811483"><ele>788.0</ele><time>2026-04-19T13:13:36.707Z</time></trkpt><trkpt lat="45.6050467" lon="11.281215"><ele>788.0</ele><time>2026-04-19T13:13:43.707Z</time></trkpt><trkpt lat="45.605015" lon="11.2811317"><ele>788.0</ele><time>2026-04-19T13:15:09.706Z</time></trkpt><trkpt lat="45.6049567" lon="11.2811767"><ele>788.0</ele><time>2026-04-19T13:17:32.706Z</time></trkpt><trkpt lat="45.6049117" lon="11.2812683"><ele>788.0</ele><time>2026-04-19T13:17:37.707Z</time></trkpt><trkpt lat="45.604875" lon="11.2813517"><ele>788.0</ele><time>2026-04-19T13:17:41.707Z</time></trkpt><trkpt lat="45.6048333" lon="11.28142"><ele>788.0</ele><time>2026-04-19T13:17:45.706Z</time></trkpt><trkpt lat="45.6048083" lon="11.281515"><ele>788.0</ele><time>2026-04-19T13:17:51.706Z</time></trkpt><trkpt lat="45.604795" lon="11.281605"><ele>788.0</ele><time>2026-04-19T13:18:00.707Z</time></trkpt><trkpt lat="45.6048283" lon="11.281525"><ele>788.0</ele><time>2026-04-19T13:18:17.707Z</time></trkpt><trkpt lat="45.6048683" lon="11.2814333"><ele>788.0</ele><time>2026-04-19T13:19:35.707Z</time></trkpt><trkpt lat="45.6049303" lon="11.2813923"><ele>788.0</ele><time>2026-04-19T13:19:42.771Z</time></trkpt><trkpt lat="45.6049661" lon="11.2813071"><ele>788.0</ele><time>2026-04-19T13:19:46.802Z</time></trkpt><trkpt lat="45.6049469" lon="11.2812176"><ele>788.0000000000001</ele><time>2026-04-19T13:20:00.81Z</time></trkpt><trkpt lat="45.6049611" lon="11.2811285"><ele>788.0</ele><time>2026-04-19T13:20:08.768Z</time></trkpt><trkpt lat="45.605022" lon="11.2811762"><ele>788.0</ele><time>2026-04-19T13:20:34.766Z</time></trkpt><trkpt lat="45.6049201" lon="11.2813157"><ele>788.0</ele><time>2026-04-19T13:30:25.708Z</time></trkpt><trkpt lat="45.6049156" lon="11.2814127"><ele>788.0000000000001</ele><time>2026-04-19T13:30:26.707Z</time></trkpt><trkpt lat="45.6049446" lon="11.281531"><ele>788.0</ele><time>2026-04-19T13:30:28.707Z</time></trkpt><trkpt lat="45.6050157" lon="11.2815964"><ele>788.6666666666667</ele><time>2026-04-19T13:30:30.708Z</time></trkpt><trkpt lat="45.6050708" lon="11.2816575"><ele>789.3333333333334</ele><time>2026-04-19T13:30:32.707Z</time></trkpt><trkpt lat="45.6051317" lon="11.2817533"><ele>790.0</ele><time>2026-04-19T13:30:34.707Z</time></trkpt><trkpt lat="45.6051967" lon="11.28185"><ele>790.6666666666667</ele><time>2026-04-19T13:30:36.708Z</time></trkpt><trkpt lat="45.605245" lon="11.2819217"><ele>791.3333333333334</ele><time>2026-04-19T13:30:38.708Z</time></trkpt><trkpt lat="45.6053017" lon="11.2819783"><ele>792.0</ele><time>2026-04-19T13:30:40.708Z</time></trkpt><trkpt lat="45.6053717" lon="11.2820133"><ele>792.0</ele><time>2026-04-19T13:30:42.708Z</time></trkpt><trkpt lat="45.6054567" lon="11.28204"><ele>792.0</ele><time>2026-04-19T13:30:45.707Z</time></trkpt><trkpt lat="45.605525" lon="11.2820483"><ele>792.0</ele><time>2026-04-19T13:30:48.708Z</time></trkpt><trkpt lat="45.6055783" lon="11.28197"><ele>792.0</ele><time>2026-04-19T13:30:51.707Z</time></trkpt><trkpt lat="45.605685" lon="11.2819317"><ele>792.0</ele><time>2026-04-19T13:31:10.707Z</time></trkpt><trkpt lat="45.6057467" lon="11.2819833"><ele>792.0</ele><time>2026-04-19T13:31:13.708Z</time></trkpt><trkpt lat="45.6058083" lon="11.282015"><ele>792.0</ele><time>2026-04-19T13:31:15.708Z</time></trkpt><trkpt lat="45.605875" lon="11.282065"><ele>792.0</ele><time>2026-04-19T13:31:18.707Z</time></trkpt><trkpt lat="45.6059383" lon="11.282055"><ele>792.0</ele><time>2026-04-19T13:31:20.707Z</time></trkpt><trkpt lat="45.6059983" lon="11.2819817"><ele>792.0</ele><time>2026-04-19T13:31:23.708Z</time></trkpt><trkpt lat="45.6060483" lon="11.2818967"><ele>792.0</ele><time>2026-04-19T13:31:25.708Z</time></trkpt><trkpt lat="45.6061" lon="11.2817933"><ele>792.0</ele><time>2026-04-19T13:31:27.707Z</time></trkpt><trkpt lat="45.606135" lon="11.2817017"><ele>792.0</ele><time>2026-04-19T13:31:29.707Z</time></trkpt><trkpt lat="45.6062033" lon="11.281705"><ele>792.0</ele><time>2026-04-19T13:31:34.707Z</time></trkpt><trkpt lat="45.6061333" lon="11.2818067"><ele>792.0</ele><time>2026-04-19T13:31:38.708Z</time></trkpt><trkpt lat="45.6060217" lon="11.2818"><ele>792.0</ele><time>2026-04-19T13:31:40.707Z</time></trkpt><trkpt lat="45.6059467" lon="11.2818233"><ele>792.0</ele><time>2026-04-19T13:31:42.707Z</time></trkpt><trkpt lat="45.60597" lon="11.2819383"><ele>792.0</ele><time>2026-04-19T13:31:45.708Z</time></trkpt><trkpt lat="45.6060517" lon="11.2819883"><ele>792.0</ele><time>2026-04-19T13:31:47.707Z</time></trkpt><trkpt lat="45.6061433" lon="11.2820567"><ele>792.0</ele><time>2026-04-19T13:31:49.708Z</time></trkpt><trkpt lat="45.6062017" lon="11.2821033"><ele>792.0</ele><time>2026-04-19T13:31:51.708Z</time></trkpt><trkpt lat="45.6062817" lon="11.2821117"><ele>792.0</ele><time>2026-04-19T13:31:54.707Z</time></trkpt><trkpt lat="45.60635" lon="11.2820817"><ele>792.0</ele><time>2026-04-19T13:31:56.708Z</time></trkpt><trkpt lat="45.606425" lon="11.2819983"><ele>792.0</ele><time>2026-04-19T13:31:58.708Z</time></trkpt><trkpt lat="45.606475" lon="11.2819333"><ele>792.5</ele><time>2026-04-19T13:31:59.708Z</time></trkpt><trkpt lat="45.6065133" lon="11.2818583"><ele>793.0</ele><time>2026-04-19T13:32:00.708Z</time></trkpt><trkpt lat="45.606575" lon="11.2817167"><ele>793.5</ele><time>2026-04-19T13:32:02.707Z</time></trkpt><trkpt lat="45.6066067" lon="11.2816283"><ele>794.0</ele><time>2026-04-19T13:32:03.707Z</time></trkpt><trkpt lat="45.6066433" lon="11.2815333"><ele>794.5</ele><time>2026-04-19T13:32:04.707Z</time></trkpt><trkpt lat="45.6066867" lon="11.2814267"><ele>795.0</ele><time>2026-04-19T13:32:05.707Z</time></trkpt><trkpt lat="45.6067417" lon="11.281315"><ele>795.0</ele><time>2026-04-19T13:32:06.708Z</time></trkpt><trkpt lat="45.6067783" lon="11.2812117"><ele>795.0</ele><time>2026-04-19T13:32:07.707Z</time></trkpt><trkpt lat="45.6068333" lon="11.28111"><ele>795.0</ele><time>2026-04-19T13:32:08.707Z</time></trkpt><trkpt lat="45.606885" lon="11.281015"><ele>795.0</ele><time>2026-04-19T13:32:09.708Z</time></trkpt><trkpt lat="45.60693" lon="11.2809283"><ele>795.0</ele><time>2026-04-19T13:32:10.708Z</time></trkpt><trkpt lat="45.606975" lon="11.28085"><ele>795.0</ele><time>2026-04-19T13:32:11.707Z</time></trkpt><trkpt lat="45.60704" lon="11.2807133"><ele>793.8333333333334</ele><time>2026-04-19T13:32:13.708Z</time></trkpt><trkpt lat="45.607085" lon="11.2806117"><ele>792.6666666666667</ele><time>2026-04-19T13:32:15.708Z</time></trkpt><trkpt lat="45.6071433" lon="11.2805767"><ele>791.5</ele><time>2026-04-19T13:32:17.707Z</time></trkpt><trkpt lat="45.60726" lon="11.28055"><ele>790.3333333333334</ele><time>2026-04-19T13:32:19.707Z</time></trkpt><trkpt lat="45.60736" lon="11.28053"><ele>789.1666666666667</ele><time>2026-04-19T13:32:21.708Z</time></trkpt><trkpt lat="45.60744" lon="11.2805217"><ele>788.0</ele><time>2026-04-19T13:32:23.707Z</time></trkpt><trkpt lat="45.607515" lon="11.2805167"><ele>788.0</ele><time>2026-04-19T13:32:25.707Z</time></trkpt><trkpt lat="45.6075917" lon="11.28052"><ele>788.0</ele><time>2026-04-19T13:32:27.708Z</time></trkpt><trkpt lat="45.6077183" lon="11.2804983"><ele>788.0</ele><time>2026-04-19T13:32:29.707Z</time></trkpt><trkpt lat="45.607815" lon="11.2804517"><ele>788.0</ele><time>2026-04-19T13:32:31.707Z</time></trkpt><trkpt lat="45.6078867" lon="11.2804117"><ele>788.0</ele><time>2026-04-19T13:32:33.708Z</time></trkpt><trkpt lat="45.60795" lon="11.280365"><ele>786.3333333333334</ele><time>2026-04-19T13:32:36.708Z</time></trkpt><trkpt lat="45.6078933" lon="11.280295"><ele>784.6666666666667</ele><time>2026-04-19T13:32:40.708Z</time></trkpt><trkpt lat="45.607855" lon="11.28037"><ele>783.0</ele><time>2026-04-19T13:32:44.708Z</time></trkpt><trkpt lat="45.607925" lon="11.2804"><ele>781.3333333333333</ele><time>2026-04-19T13:32:56.707Z</time></trkpt><trkpt lat="45.60801" lon="11.2804083"><ele>779.6666666666666</ele><time>2026-04-19T13:32:59.707Z</time></trkpt><trkpt lat="45.608125" lon="11.2803667"><ele>778.0</ele><time>2026-04-19T13:33:01.708Z</time></trkpt><trkpt lat="45.6081933" lon="11.280345"><ele>778.0</ele><time>2026-04-19T13:33:02.707Z</time></trkpt><trkpt lat="45.60826" lon="11.2803267"><ele>778.0</ele><time>2026-04-19T13:33:03.708Z</time></trkpt><trkpt lat="45.6083217" lon="11.2803"><ele>778.0</ele><time>2026-04-19T13:33:04.707Z</time></trkpt><trkpt lat="45.608435" lon="11.2802567"><ele>778.0</ele><time>2026-04-19T13:33:06.707Z</time></trkpt><trkpt lat="45.6085583" lon="11.2802167"><ele>778.0</ele><time>2026-04-19T13:33:08.707Z</time></trkpt><trkpt lat="45.6086633" lon="11.280165"><ele>776.6666666666666</ele><time>2026-04-19T13:33:10.708Z</time></trkpt><trkpt lat="45.6087717" lon="11.28012"><ele>775.3333333333333</ele><time>2026-04-19T13:33:12.708Z</time></trkpt><trkpt lat="45.6088867" lon="11.2800917"><ele>774.0</ele><time>2026-04-19T13:33:14.708Z</time></trkpt><trkpt lat="45.6089517" lon="11.2800567"><ele>772.6666666666667</ele><time>2026-04-19T13:33:15.708Z</time></trkpt><trkpt lat="45.6090083" lon="11.28001"><ele>771.3333333333334</ele><time>2026-04-19T13:33:16.707Z</time></trkpt><trkpt lat="45.609055" lon="11.2799467"><ele>770.0</ele><time>2026-04-19T13:33:17.708Z</time></trkpt><trkpt lat="45.60911" lon="11.2797917"><ele>770.5000000000001</ele><time>2026-04-19T13:33:19.708Z</time></trkpt><trkpt lat="45.6091367" lon="11.2796367"><ele>771.0</ele><time>2026-04-19T13:33:21.708Z</time></trkpt><trkpt lat="45.60913" lon="11.2795383"><ele>771.5</ele><time>2026-04-19T13:33:22.707Z</time></trkpt><trkpt lat="45.609115" lon="11.2794483"><ele>772.0</ele><time>2026-04-19T13:33:23.708Z</time></trkpt><trkpt lat="45.6090983" lon="11.279345"><ele>772.5000000000001</ele><time>2026-04-19T13:33:24.707Z</time></trkpt><trkpt lat="45.6090817" lon="11.27923"><ele>773.0</ele><time>2026-04-19T13:33:25.708Z</time></trkpt><trkpt lat="45.6090717" lon="11.279115"><ele>773.0000000000001</ele><time>2026-04-19T13:33:26.708Z</time></trkpt><trkpt lat="45.6090783" lon="11.27901"><ele>773.0</ele><time>2026-04-19T13:33:27.708Z</time></trkpt><trkpt lat="45.609095" lon="11.278905"><ele>773.0</ele><time>2026-04-19T13:33:28.707Z</time></trkpt><trkpt lat="45.60912" lon="11.2787983"><ele>773.0</ele><time>2026-04-19T13:33:29.707Z</time></trkpt><trkpt lat="45.6091433" lon="11.2786817"><ele>773.0000000000001</ele><time>2026-04-19T13:33:30.708Z</time></trkpt><trkpt lat="45.6091867" lon="11.2785767"><ele>773.0</ele><time>2026-04-19T13:33:31.707Z</time></trkpt><trkpt lat="45.6092383" lon="11.27847"><ele>773.0</ele><time>2026-04-19T13:33:32.707Z</time></trkpt><trkpt lat="45.609345" lon="11.278345"><ele>773.0</ele><time>2026-04-19T13:33:33.707Z</time></trkpt><trkpt lat="45.6094333" lon="11.27824"><ele>773.0</ele><time>2026-04-19T13:33:34.707Z</time></trkpt><trkpt lat="45.6095033" lon="11.2781533"><ele>773.0</ele><time>2026-04-19T13:33:35.708Z</time></trkpt><trkpt lat="45.6095633" lon="11.2780733"><ele>773.0</ele><time>2026-04-19T13:33:36.708Z</time></trkpt><trkpt lat="45.609645" lon="11.2779867"><ele>773.75</ele><time>2026-04-19T13:33:37.708Z</time></trkpt><trkpt lat="45.609735" lon="11.2779033"><ele>774.5</ele><time>2026-04-19T13:33:38.707Z</time></trkpt><trkpt lat="45.6098383" lon="11.2778067"><ele>775.25</ele><time>2026-04-19T13:33:39.707Z</time></trkpt><trkpt lat="45.6099433" lon="11.2777117"><ele>776.0</ele><time>2026-04-19T13:33:40.707Z</time></trkpt><trkpt lat="45.61004" lon="11.2776033"><ele>776.0</ele><time>2026-04-19T13:33:41.708Z</time></trkpt><trkpt lat="45.61014" lon="11.277495"><ele>776.0</ele><time>2026-04-19T13:33:42.708Z</time></trkpt><trkpt lat="45.6102283" lon="11.2773667"><ele>776.0</ele><time>2026-04-19T13:33:43.708Z</time></trkpt><trkpt lat="45.6103033" lon="11.27723"><ele>776.0</ele><time>2026-04-19T13:33:44.707Z</time></trkpt><trkpt lat="45.6103667" lon="11.2770917"><ele>774.8333333333334</ele><time>2026-04-19T13:33:45.708Z</time></trkpt><trkpt lat="45.61041" lon="11.276945"><ele>773.6666666666667</ele><time>2026-04-19T13:33:46.707Z</time></trkpt><trkpt lat="45.6104567" lon="11.2768167"><ele>772.5</ele><time>2026-04-19T13:33:47.707Z</time></trkpt><trkpt lat="45.6105" lon="11.2767183"><ele>771.3333333333333</ele><time>2026-04-19T13:33:48.708Z</time></trkpt><trkpt lat="45.6105317" lon="11.276625"><ele>770.1666666666666</ele><time>2026-04-19T13:33:49.707Z</time></trkpt><trkpt lat="45.6105833" lon="11.2765433"><ele>769.0</ele><time>2026-04-19T13:33:50.708Z</time></trkpt><trkpt lat="45.61063" lon="11.27647"><ele>772.2</ele><time>2026-04-19T13:33:51.708Z</time></trkpt><trkpt lat="45.6106917" lon="11.2763867"><ele>775.4000000000001</ele><time>2026-04-19T13:33:52.708Z</time></trkpt><trkpt lat="45.61075" lon="11.27629"><ele>778.6</ele><time>2026-04-19T13:33:53.707Z</time></trkpt><trkpt lat="45.6107833" lon="11.27617"><ele>781.8</ele><time>2026-04-19T13:33:54.708Z</time></trkpt><trkpt lat="45.6108233" lon="11.2760433"><ele>785.0</ele><time>2026-04-19T13:33:55.708Z</time></trkpt><trkpt lat="45.61087" lon="11.2759133"><ele>785.0</ele><time>2026-04-19T13:33:56.708Z</time></trkpt><trkpt lat="45.6109117" lon="11.2758"><ele>785.0</ele><time>2026-04-19T13:33:57.708Z</time></trkpt><trkpt lat="45.6109867" lon="11.275685"><ele>785.0</ele><time>2026-04-19T13:33:58.707Z</time></trkpt><trkpt lat="45.6110467" lon="11.2755733"><ele>785.0</ele><time>2026-04-19T13:33:59.708Z</time></trkpt><trkpt lat="45.6110967" lon="11.275465"><ele>785.0</ele><time>2026-04-19T13:34:00.708Z</time></trkpt><trkpt lat="45.6111467" lon="11.2753567"><ele>783.2</ele><time>2026-04-19T13:34:01.707Z</time></trkpt><trkpt lat="45.6112033" lon="11.27526"><ele>781.4</ele><time>2026-04-19T13:34:02.708Z</time></trkpt><trkpt lat="45.6112717" lon="11.275175"><ele>779.5999999999999</ele><time>2026-04-19T13:34:03.707Z</time></trkpt><trkpt lat="45.6113533" lon="11.2750983"><ele>777.8</ele><time>2026-04-19T13:34:04.708Z</time></trkpt><trkpt lat="45.6114333" lon="11.2750183"><ele>776.0</ele><time>2026-04-19T13:34:05.707Z</time></trkpt><trkpt lat="45.6115" lon="11.274935"><ele>776.0</ele><time>2026-04-19T13:34:06.708Z</time></trkpt><trkpt lat="45.6115633" lon="11.2748517"><ele>776.0</ele><time>2026-04-19T13:34:07.708Z</time></trkpt><trkpt lat="45.6116033" lon="11.274765"><ele>776.0</ele><time>2026-04-19T13:34:08.708Z</time></trkpt><trkpt lat="45.6116433" lon="11.27469"><ele>776.0</ele><time>2026-04-19T13:34:09.707Z</time></trkpt><trkpt lat="45.6116883" lon="11.2746167"><ele>776.0</ele><time>2026-04-19T13:34:11.707Z</time></trkpt><trkpt lat="45.6117483" lon="11.27455"><ele>776.0</ele><time>2026-04-19T13:34:14.708Z</time></trkpt><trkpt lat="45.6118233" lon="11.2745233"><ele>776.0</ele><time>2026-04-19T13:34:16.707Z</time></trkpt><trkpt lat="45.611935" lon="11.2745033"><ele>773.6666666666667</ele><time>2026-04-19T13:34:18.708Z</time></trkpt><trkpt lat="45.6119983" lon="11.27448"><ele>771.3333333333334</ele><time>2026-04-19T13:34:19.708Z</time></trkpt><trkpt lat="45.6121033" lon="11.2743867"><ele>769.0</ele><time>2026-04-19T13:34:21.708Z</time></trkpt><trkpt lat="45.6121533" lon="11.2743317"><ele>766.6666666666667</ele><time>2026-04-19T13:34:22.708Z</time></trkpt><trkpt lat="45.6122283" lon="11.27422"><ele>764.3333333333334</ele><time>2026-04-19T13:34:24.708Z</time></trkpt><trkpt lat="45.6122667" lon="11.274115"><ele>762.0</ele><time>2026-04-19T13:34:26.708Z</time></trkpt><trkpt lat="45.61231" lon="11.2739917"><ele>763.2</ele><time>2026-04-19T13:34:28.707Z</time></trkpt><trkpt lat="45.6123583" lon="11.2738533"><ele>764.4000000000001</ele><time>2026-04-19T13:34:30.707Z</time></trkpt><trkpt lat="45.6123983" lon="11.2737833"><ele>765.5999999999999</ele><time>2026-04-19T13:34:31.708Z</time></trkpt><trkpt lat="45.612465" lon="11.2736467"><ele>766.8</ele><time>2026-04-19T13:34:33.708Z</time></trkpt><trkpt lat="45.6125117" lon="11.2735817"><ele>768.0</ele><time>2026-04-19T13:34:34.707Z</time></trkpt><trkpt lat="45.6125933" lon="11.2734567"><ele>768.0</ele><time>2026-04-19T13:34:36.708Z</time></trkpt><trkpt lat="45.6126433" lon="11.2732983"><ele>768.0</ele><time>2026-04-19T13:34:38.708Z</time></trkpt><trkpt lat="45.6126483" lon="11.2732083"><ele>768.0</ele><time>2026-04-19T13:34:39.707Z</time></trkpt><trkpt lat="45.612685" lon="11.2730483"><ele>768.0</ele><time>2026-04-19T13:34:41.708Z</time></trkpt><trkpt lat="45.6127067" lon="11.2729633"><ele>768.0</ele><time>2026-04-19T13:34:42.707Z</time></trkpt><trkpt lat="45.6127317" lon="11.2728767"><ele>768.0</ele><time>2026-04-19T13:34:43.708Z</time></trkpt><trkpt lat="45.612755" lon="11.27271"><ele>769.6666666666666</ele><time>2026-04-19T13:34:45.708Z</time></trkpt><trkpt lat="45.612725" lon="11.2726217"><ele>771.3333333333333</ele><time>2026-04-19T13:34:46.708Z</time></trkpt><trkpt lat="45.6127267" lon="11.2725233"><ele>773.0</ele><time>2026-04-19T13:34:47.708Z</time></trkpt><trkpt lat="45.612705" lon="11.2724133"><ele>774.6666666666666</ele><time>2026-04-19T13:34:48.708Z</time></trkpt><trkpt lat="45.6126783" lon="11.2722983"><ele>776.3333333333333</ele><time>2026-04-19T13:34:49.707Z</time></trkpt><trkpt lat="45.6126433" lon="11.2722033"><ele>778.0</ele><time>2026-04-19T13:34:50.708Z</time></trkpt><trkpt lat="45.6126283" lon="11.2720983"><ele>778.4999999999999</ele><time>2026-04-19T13:34:51.708Z</time></trkpt><trkpt lat="45.6126233" lon="11.271985"><ele>779.0</ele><time>2026-04-19T13:34:52.707Z</time></trkpt><trkpt lat="45.6126333" lon="11.2718783"><ele>779.5</ele><time>2026-04-19T13:34:53.708Z</time></trkpt><trkpt lat="45.612645" lon="11.2717667"><ele>780.0</ele><time>2026-04-19T13:34:54.707Z</time></trkpt><trkpt lat="45.6126567" lon="11.27165"><ele>780.4999999999999</ele><time>2026-04-19T13:34:55.708Z</time></trkpt><trkpt lat="45.61267" lon="11.2715333"><ele>781.0</ele><time>2026-04-19T13:34:56.708Z</time></trkpt><trkpt lat="45.6127017" lon="11.2714117"><ele>780.9999999999999</ele><time>2026-04-19T13:34:57.708Z</time></trkpt><trkpt lat="45.6127033" lon="11.2713133"><ele>781.0</ele><time>2026-04-19T13:34:58.708Z</time></trkpt><trkpt lat="45.6127633" lon="11.2712083"><ele>781.0</ele><time>2026-04-19T13:34:59.708Z</time></trkpt><trkpt lat="45.6127983" lon="11.2711217"><ele>781.0</ele><time>2026-04-19T13:35:00.707Z</time></trkpt><trkpt lat="45.6128817" lon="11.27098"><ele>780.9999999999999</ele><time>2026-04-19T13:35:02.708Z</time></trkpt><trkpt lat="45.6129433" lon="11.2709033"><ele>781.0</ele><time>2026-04-19T13:35:03.707Z</time></trkpt><trkpt lat="45.6130267" lon="11.2707883"><ele>771.5</ele><time>2026-04-19T13:35:04.708Z</time></trkpt><trkpt lat="45.6131217" lon="11.2707083"><ele>762.0</ele><time>2026-04-19T13:35:05.708Z</time></trkpt><trkpt lat="45.6132483" lon="11.27069"><ele>752.5</ele><time>2026-04-19T13:35:06.708Z</time></trkpt><trkpt lat="45.61338" lon="11.2706833"><ele>743.0</ele><time>2026-04-19T13:35:07.707Z</time></trkpt><trkpt lat="45.6135183" lon="11.2706933"><ele>743.0</ele><time>2026-04-19T13:35:08.708Z</time></trkpt><trkpt lat="45.6136517" lon="11.27071"><ele>743.0</ele><time>2026-04-19T13:35:09.708Z</time></trkpt><trkpt lat="45.6137633" lon="11.27074"><ele>743.0</ele><time>2026-04-19T13:35:10.707Z</time></trkpt><trkpt lat="45.6138667" lon="11.2707917"><ele>743.0</ele><time>2026-04-19T13:35:11.708Z</time></trkpt><trkpt lat="45.6139517" lon="11.2708533"><ele>741.8333333333333</ele><time>2026-04-19T13:35:12.708Z</time></trkpt><trkpt lat="45.6140283" lon="11.2709117"><ele>740.6666666666666</ele><time>2026-04-19T13:35:13.707Z</time></trkpt><trkpt lat="45.6141017" lon="11.2709717"><ele>739.5</ele><time>2026-04-19T13:35:14.707Z</time></trkpt><trkpt lat="45.6141567" lon="11.2710317"><ele>738.3333333333334</ele><time>2026-04-19T13:35:15.707Z</time></trkpt><trkpt lat="45.6142167" lon="11.27109"><ele>737.1666666666667</ele><time>2026-04-19T13:35:16.707Z</time></trkpt><trkpt lat="45.6142733" lon="11.2711333"><ele>736.0</ele><time>2026-04-19T13:35:17.708Z</time></trkpt><trkpt lat="45.6143467" lon="11.2711933"><ele>736.0</ele><time>2026-04-19T13:35:18.708Z</time></trkpt><trkpt lat="45.614415" lon="11.271255"><ele>736.0</ele><time>2026-04-19T13:35:19.708Z</time></trkpt><trkpt lat="45.6144817" lon="11.2713233"><ele>736.0</ele><time>2026-04-19T13:35:20.708Z</time></trkpt><trkpt lat="45.6145367" lon="11.2713833"><ele>736.0</ele><time>2026-04-19T13:35:21.708Z</time></trkpt><trkpt lat="45.6145933" lon="11.27143"><ele>736.0</ele><time>2026-04-19T13:35:22.708Z</time></trkpt><trkpt lat="45.614715" lon="11.2714917"><ele>736.0</ele><time>2026-04-19T13:35:24.708Z</time></trkpt><trkpt lat="45.6147767" lon="11.2715233"><ele>733.0</ele><time>2026-04-19T13:35:25.707Z</time></trkpt><trkpt lat="45.6148333" lon="11.271565"><ele>730.0</ele><time>2026-04-19T13:35:26.708Z</time></trkpt><trkpt lat="45.6149083" lon="11.2716533"><ele>727.0</ele><time>2026-04-19T13:35:28.708Z</time></trkpt><trkpt lat="45.6149467" lon="11.271745"><ele>724.0</ele><time>2026-04-19T13:35:30.707Z</time></trkpt><trkpt lat="45.6149483" lon="11.2718517"><ele>721.0</ele><time>2026-04-19T13:35:33.708Z</time></trkpt><trkpt lat="45.6149867" lon="11.27195"><ele>718.0</ele><time>2026-04-19T13:38:04.707Z</time></trkpt><trkpt lat="45.614975" lon="11.2718467"><ele>718.0</ele><time>2026-04-19T13:38:07.708Z</time></trkpt><trkpt lat="45.6149433" lon="11.2717533"><ele>718.0</ele><time>2026-04-19T13:38:10.708Z</time></trkpt><trkpt lat="45.6149117" lon="11.27165"><ele>718.0</ele><time>2026-04-19T13:38:13.708Z</time></trkpt><trkpt lat="45.6148417" lon="11.2715667"><ele>718.0</ele><time>2026-04-19T13:38:16.707Z</time></trkpt><trkpt lat="45.6147683" lon="11.2715267"><ele>718.0</ele><time>2026-04-19T13:38:18.708Z</time></trkpt><trkpt lat="45.6147" lon="11.2714883"><ele>718.0</ele><time>2026-04-19T13:38:20.708Z</time></trkpt><trkpt lat="45.6146267" lon="11.271455"><ele>719.2857142857143</ele><time>2026-04-19T13:38:22.707Z</time></trkpt><trkpt lat="45.61456" lon="11.2714167"><ele>720.5714285714287</ele><time>2026-04-19T13:38:24.708Z</time></trkpt><trkpt lat="45.6145017" lon="11.2713567"><ele>721.8571428571429</ele><time>2026-04-19T13:38:26.707Z</time></trkpt><trkpt lat="45.6144183" lon="11.2713383"><ele>723.1428571428571</ele><time>2026-04-19T13:39:01.708Z</time></trkpt><trkpt lat="45.6143667" lon="11.2712833"><ele>724.4285714285714</ele><time>2026-04-19T13:39:02.708Z</time></trkpt><trkpt lat="45.61431" lon="11.27122"><ele>725.7142857142857</ele><time>2026-04-19T13:39:03.707Z</time></trkpt><trkpt lat="45.6142467" lon="11.2711683"><ele>727.0</ele><time>2026-04-19T13:39:04.708Z</time></trkpt><trkpt lat="45.6141883" lon="11.2711083"><ele>728.5</ele><time>2026-04-19T13:39:05.708Z</time></trkpt><trkpt lat="45.61413" lon="11.271045"><ele>730.0</ele><time>2026-04-19T13:39:06.707Z</time></trkpt><trkpt lat="45.6140633" lon="11.2709667"><ele>731.5</ele><time>2026-04-19T13:39:07.708Z</time></trkpt><trkpt lat="45.61399" lon="11.270895"><ele>733.0</ele><time>2026-04-19T13:39:08.707Z</time></trkpt><trkpt lat="45.613915" lon="11.2708283"><ele>734.5</ele><time>2026-04-19T13:39:09.708Z</time></trkpt><trkpt lat="45.6138383" lon="11.2707633"><ele>736.0</ele><time>2026-04-19T13:39:10.707Z</time></trkpt><trkpt lat="45.6137567" lon="11.27071"><ele>736.0</ele><time>2026-04-19T13:39:11.708Z</time></trkpt><trkpt lat="45.6136617" lon="11.2706783"><ele>736.0</ele><time>2026-04-19T13:39:12.708Z</time></trkpt><trkpt lat="45.6135817" lon="11.2706533"><ele>736.0</ele><time>2026-04-19T13:39:13.708Z</time></trkpt><trkpt lat="45.6135167" lon="11.2706283"><ele>736.0</ele><time>2026-04-19T13:39:14.707Z</time></trkpt><trkpt lat="45.6134533" lon="11.2706233"><ele>736.0</ele><time>2026-04-19T13:39:15.707Z</time></trkpt><trkpt lat="45.613345" lon="11.27068"><ele>736.0</ele><time>2026-04-19T13:39:17.707Z</time></trkpt><trkpt lat="45.6132583" lon="11.2708033"><ele>737.1666666666667</ele><time>2026-04-19T13:39:19.708Z</time></trkpt><trkpt lat="45.6132217" lon="11.2708933"><ele>738.3333333333334</ele><time>2026-04-19T13:39:20.708Z</time></trkpt><trkpt lat="45.6131933" lon="11.2710117"><ele>739.5</ele><time>2026-04-19T13:39:21.707Z</time></trkpt><trkpt lat="45.6131717" lon="11.2711317"><ele>740.6666666666666</ele><time>2026-04-19T13:39:22.707Z</time></trkpt><trkpt lat="45.6131483" lon="11.27124"><ele>741.8333333333333</ele><time>2026-04-19T13:39:23.707Z</time></trkpt><trkpt lat="45.61312" lon="11.2713383"><ele>743.0</ele><time>2026-04-19T13:39:24.707Z</time></trkpt><trkpt lat="45.6130967" lon="11.27143"><ele>741.8571428571429</ele><time>2026-04-19T13:39:25.707Z</time></trkpt><trkpt lat="45.613065" lon="11.2715133"><ele>740.7142857142857</ele><time>2026-04-19T13:39:26.707Z</time></trkpt><trkpt lat="45.61303" lon="11.2716117"><ele>739.5714285714286</ele><time>2026-04-19T13:39:27.708Z</time></trkpt><trkpt lat="45.6130017" lon="11.271715"><ele>738.4285714285714</ele><time>2026-04-19T13:39:28.708Z</time></trkpt><trkpt lat="45.61299" lon="11.2718217"><ele>737.2857142857142</ele><time>2026-04-19T13:39:29.708Z</time></trkpt><trkpt lat="45.6129833" lon="11.27192"><ele>736.1428571428571</ele><time>2026-04-19T13:39:30.708Z</time></trkpt><trkpt lat="45.612995" lon="11.2720217"><ele>735.0</ele><time>2026-04-19T13:39:31.708Z</time></trkpt><trkpt lat="45.6130333" lon="11.272175"><ele>734.2</ele><time>2026-04-19T13:39:33.707Z</time></trkpt><trkpt lat="45.6130883" lon="11.272335"><ele>733.4</ele><time>2026-04-19T13:39:35.708Z</time></trkpt><trkpt lat="45.6131233" lon="11.2724583"><ele>732.5999999999999</ele><time>2026-04-19T13:39:37.708Z</time></trkpt><trkpt lat="45.613105" lon="11.272585"><ele>731.8</ele><time>2026-04-19T13:39:39.707Z</time></trkpt><trkpt lat="45.6130317" lon="11.2727117"><ele>731.0</ele><time>2026-04-19T13:39:41.707Z</time></trkpt><trkpt lat="45.6129867" lon="11.272785"><ele>731.0</ele><time>2026-04-19T13:39:42.708Z</time></trkpt><trkpt lat="45.6129333" lon="11.2729333"><ele>731.0</ele><time>2026-04-19T13:39:44.708Z</time></trkpt><trkpt lat="45.6129167" lon="11.2730233"><ele>731.0</ele><time>2026-04-19T13:39:45.708Z</time></trkpt><trkpt lat="45.6128883" lon="11.2731967"><ele>731.0</ele><time>2026-04-19T13:39:47.708Z</time></trkpt><trkpt lat="45.6128467" lon="11.273285"><ele>731.0</ele><time>2026-04-19T13:39:49.707Z</time></trkpt><trkpt lat="45.6127883" lon="11.2733583"><ele>738.4</ele><time>2026-04-19T13:39:51.708Z</time></trkpt><trkpt lat="45.6127167" lon="11.27345"><ele>745.8</ele><time>2026-04-19T13:39:53.707Z</time></trkpt><trkpt lat="45.6126533" lon="11.2735583"><ele>753.1999999999999</ele><time>2026-04-19T13:39:55.707Z</time></trkpt><trkpt lat="45.6125967" lon="11.2736867"><ele>760.5999999999999</ele><time>2026-04-19T13:39:57.708Z</time></trkpt><trkpt lat="45.61254" lon="11.2738217"><ele>768.0</ele><time>2026-04-19T13:39:59.707Z</time></trkpt><trkpt lat="45.6125133" lon="11.2739083"><ele>766.8</ele><time>2026-04-19T13:40:01.707Z</time></trkpt><trkpt lat="45.612465" lon="11.2740433"><ele>765.5999999999999</ele><time>2026-04-19T13:40:04.708Z</time></trkpt><trkpt lat="45.61243" lon="11.2741833"><ele>764.4000000000001</ele><time>2026-04-19T13:40:06.707Z</time></trkpt><trkpt lat="45.6123733" lon="11.2743167"><ele>763.2</ele><time>2026-04-19T13:40:08.707Z</time></trkpt><trkpt lat="45.6122717" lon="11.2744233"><ele>762.0</ele><time>2026-04-19T13:40:10.707Z</time></trkpt><trkpt lat="45.6122067" lon="11.2744517"><ele>762.0</ele><time>2026-04-19T13:40:11.708Z</time></trkpt><trkpt lat="45.6120817" lon="11.2744683"><ele>762.0</ele><time>2026-04-19T13:40:13.708Z</time></trkpt><trkpt lat="45.6119717" lon="11.2744667"><ele>762.0</ele><time>2026-04-19T13:40:15.707Z</time></trkpt><trkpt lat="45.6118867" lon="11.2744733"><ele>762.0</ele><time>2026-04-19T13:40:17.707Z</time></trkpt><trkpt lat="45.6118083" lon="11.2745283"><ele>762.0</ele><time>2026-04-19T13:40:19.707Z</time></trkpt><trkpt lat="45.6117417" lon="11.27462"><ele>764.3333333333334</ele><time>2026-04-19T13:40:21.708Z</time></trkpt><trkpt lat="45.6116833" lon="11.27474"><ele>766.6666666666667</ele><time>2026-04-19T13:40:23.708Z</time></trkpt><trkpt lat="45.6116517" lon="11.27482"><ele>769.0</ele><time>2026-04-19T13:40:25.708Z</time></trkpt><trkpt lat="45.6115796" lon="11.2748496"><ele>771.3333333333334</ele><time>2026-04-19T13:40:29.707Z</time></trkpt><trkpt lat="45.6115124" lon="11.2748368"><ele>773.6666666666667</ele><time>2026-04-19T13:40:31.645Z</time></trkpt><trkpt lat="45.6114394" lon="11.2747668"><ele>776.0</ele><time>2026-04-19T13:40:33.728Z</time></trkpt><trkpt lat="45.6113958" lon="11.2746687"><ele>777.0</ele><time>2026-04-19T13:40:34.786Z</time></trkpt><trkpt lat="45.6113428" lon="11.2745331"><ele>778.0</ele><time>2026-04-19T13:40:36.704Z</time></trkpt><trkpt lat="45.6112917" lon="11.2744433"><ele>779.0</ele><time>2026-04-19T13:40:37.708Z</time></trkpt><trkpt lat="45.6112583" lon="11.274285"><ele>780.0</ele><time>2026-04-19T13:40:39.707Z</time></trkpt><trkpt lat="45.6112433" lon="11.2741133"><ele>781.0</ele><time>2026-04-19T13:40:41.708Z</time></trkpt><trkpt lat="45.611255" lon="11.273945"><ele>783.5</ele><time>2026-04-19T13:40:43.707Z</time></trkpt><trkpt lat="45.6113067" lon="11.2737867"><ele>786.0</ele><time>2026-04-19T13:40:45.707Z</time></trkpt><trkpt lat="45.611365" lon="11.2736483"><ele>788.5</ele><time>2026-04-19T13:40:47.708Z</time></trkpt><trkpt lat="45.611405" lon="11.2735067"><ele>791.0</ele><time>2026-04-19T13:40:49.707Z</time></trkpt><trkpt lat="45.6114567" lon="11.2733667"><ele>791.0</ele><time>2026-04-19T13:40:51.708Z</time></trkpt><trkpt lat="45.6115083" lon="11.2732367"><ele>791.0</ele><time>2026-04-19T13:40:53.708Z</time></trkpt><trkpt lat="45.6115717" lon="11.2730883"><ele>791.0</ele><time>2026-04-19T13:40:55.707Z</time></trkpt><trkpt lat="45.6116017" lon="11.273005"><ele>791.0</ele><time>2026-04-19T13:40:56.708Z</time></trkpt><trkpt lat="45.6116517" lon="11.2728933"><ele>791.0</ele><time>2026-04-19T13:40:58.708Z</time></trkpt><trkpt lat="45.611665" lon="11.2727983"><ele>792.5000000000001</ele><time>2026-04-19T13:41:00.708Z</time></trkpt><trkpt lat="45.6116033" lon="11.2727433"><ele>794.0</ele><time>2026-04-19T13:41:04.707Z</time></trkpt><trkpt lat="45.6115217" lon="11.272755"><ele>795.5</ele><time>2026-04-19T13:41:06.707Z</time></trkpt><trkpt lat="45.6114267" lon="11.27277"><ele>797.0</ele><time>2026-04-19T13:41:08.707Z</time></trkpt><trkpt lat="45.6113317" lon="11.2727383"><ele>798.5000000000001</ele><time>2026-04-19T13:41:10.708Z</time></trkpt><trkpt lat="45.611265" lon="11.2726717"><ele>800.0</ele><time>2026-04-19T13:41:12.707Z</time></trkpt><trkpt lat="45.6112083" lon="11.27261"><ele>800.0000000000001</ele><time>2026-04-19T13:41:15.708Z</time></trkpt><trkpt lat="45.6111667" lon="11.2725233"><ele>800.0</ele><time>2026-04-19T13:41:19.707Z</time></trkpt><trkpt lat="45.61115" lon="11.27242"><ele>800.0</ele><time>2026-04-19T13:41:22.707Z</time></trkpt><trkpt lat="45.6111583" lon="11.27232"><ele>800.0</ele><time>2026-04-19T13:41:25.707Z</time></trkpt><trkpt lat="45.611115" lon="11.2724"><ele>800.0</ele><time>2026-04-19T13:41:47.708Z</time></trkpt><trkpt lat="45.6111233" lon="11.2725017"><ele>800.0000000000001</ele><time>2026-04-19T13:41:50.708Z</time></trkpt><trkpt lat="45.61107" lon="11.2725867"><ele>800.0</ele><time>2026-04-19T13:42:09.707Z</time></trkpt><trkpt lat="45.6109767" lon="11.27272"><ele>800.6666666666667</ele><time>2026-04-19T13:42:19.708Z</time></trkpt><trkpt lat="45.6109067" lon="11.2727617"><ele>801.3333333333334</ele><time>2026-04-19T13:42:23.708Z</time></trkpt><trkpt lat="45.6108333" lon="11.2727867"><ele>802.0</ele><time>2026-04-19T13:42:26.707Z</time></trkpt><trkpt lat="45.6107667" lon="11.2728433"><ele>802.6666666666667</ele><time>2026-04-19T13:42:29.707Z</time></trkpt><trkpt lat="45.61069" lon="11.27289"><ele>803.3333333333334</ele><time>2026-04-19T13:42:32.708Z</time></trkpt><trkpt lat="45.6106283" lon="11.2729333"><ele>804.0</ele><time>2026-04-19T13:42:35.707Z</time></trkpt><trkpt lat="45.6105733" lon="11.27302"><ele>804.0</ele><time>2026-04-19T13:42:39.708Z</time></trkpt><trkpt lat="45.6105333" lon="11.2730933"><ele>804.0</ele><time>2026-04-19T13:42:43.708Z</time></trkpt><trkpt lat="45.6104567" lon="11.2731633"><ele>804.0</ele><time>2026-04-19T13:42:50.707Z</time></trkpt><trkpt lat="45.6103967" lon="11.2732133"><ele>804.0</ele><time>2026-04-19T13:42:52.707Z</time></trkpt><trkpt lat="45.610335" lon="11.2732533"><ele>804.0</ele><time>2026-04-19T13:42:54.707Z</time></trkpt><trkpt lat="45.6102733" lon="11.2732283"><ele>804.0</ele><time>2026-04-19T13:43:00.708Z</time></trkpt><trkpt lat="45.6102976" lon="11.2731383"><ele>804.0</ele><time>2026-04-19T13:43:18.715Z</time></trkpt><trkpt lat="45.6103424" lon="11.2730371"><ele>804.0</ele><time>2026-04-19T13:43:28.716Z</time></trkpt><trkpt lat="45.6103533" lon="11.2728867"><ele>804.0</ele><time>2026-04-19T13:43:39.707Z</time></trkpt><trkpt lat="45.61025" lon="11.272955"><ele>804.0</ele><time>2026-04-19T13:43:56.708Z</time></trkpt><trkpt lat="45.6102017" lon="11.2730333"><ele>804.0</ele><time>2026-04-19T13:43:58.708Z</time></trkpt><trkpt lat="45.6101483" lon="11.2731183"><ele>804.0</ele><time>2026-04-19T13:44:01.708Z</time></trkpt><trkpt lat="45.61018" lon="11.2732133"><ele>804.0</ele><time>2026-04-19T13:44:04.708Z</time></trkpt><trkpt lat="45.610245" lon="11.27325"><ele>804.0</ele><time>2026-04-19T13:44:07.708Z</time></trkpt><trkpt lat="45.6103183" lon="11.273255"><ele>804.0</ele><time>2026-04-19T13:44:10.707Z</time></trkpt><trkpt lat="45.6103967" lon="11.2732167"><ele>804.0</ele><time>2026-04-19T13:44:12.708Z</time></trkpt><trkpt lat="45.6104633" lon="11.2731717"><ele>804.0</ele><time>2026-04-19T13:44:14.707Z</time></trkpt><trkpt lat="45.6105383" lon="11.27311"><ele>804.0</ele><time>2026-04-19T13:44:16.707Z</time></trkpt><trkpt lat="45.6106" lon="11.2730333"><ele>804.0</ele><time>2026-04-19T13:44:18.708Z</time></trkpt><trkpt lat="45.6106433" lon="11.2729667"><ele>804.0</ele><time>2026-04-19T13:44:25.708Z</time></trkpt><trkpt lat="45.6106933" lon="11.2729067"><ele>804.0</ele><time>2026-04-19T13:44:28.707Z</time></trkpt><trkpt lat="45.6107833" lon="11.272805"><ele>804.0</ele><time>2026-04-19T13:44:30.707Z</time></trkpt><trkpt lat="45.61087" lon="11.2727283"><ele>804.0</ele><time>2026-04-19T13:44:32.708Z</time></trkpt><trkpt lat="45.6109417" lon="11.2727183"><ele>804.0</ele><time>2026-04-19T13:44:35.708Z</time></trkpt><trkpt lat="45.6109883" lon="11.2726317"><ele>804.0</ele><time>2026-04-19T13:44:39.707Z</time></trkpt><trkpt lat="45.61103" lon="11.2725367"><ele>804.0</ele><time>2026-04-19T13:44:48.708Z</time></trkpt><trkpt lat="45.6110533" lon="11.2724433"><ele>804.0</ele><time>2026-04-19T13:44:51.708Z</time></trkpt><trkpt lat="45.6110833" lon="11.27234"><ele>804.0</ele><time>2026-04-19T13:44:54.708Z</time></trkpt><trkpt lat="45.6110783" lon="11.27224"><ele>804.0</ele><time>2026-04-19T13:44:57.708Z</time></trkpt><trkpt lat="45.6110617" lon="11.27213"><ele>804.0</ele><time>2026-04-19T13:44:59.707Z</time></trkpt><trkpt lat="45.6110433" lon="11.2719983"><ele>804.0</ele><time>2026-04-19T13:45:01.708Z</time></trkpt><trkpt lat="45.611045" lon="11.2718483"><ele>804.6666666666666</ele><time>2026-04-19T13:45:03.708Z</time></trkpt><trkpt lat="45.6110617" lon="11.2717317"><ele>805.3333333333333</ele><time>2026-04-19T13:45:05.707Z</time></trkpt><trkpt lat="45.61108" lon="11.2716417"><ele>806.0</ele><time>2026-04-19T13:45:07.708Z</time></trkpt><trkpt lat="45.6111217" lon="11.2715567"><ele>806.6666666666666</ele><time>2026-04-19T13:45:09.707Z</time></trkpt><trkpt lat="45.6111417" lon="11.2714"><ele>807.3333333333333</ele><time>2026-04-19T13:45:23.707Z</time></trkpt><trkpt lat="45.6111817" lon="11.2713083"><ele>808.0</ele><time>2026-04-19T13:45:26.707Z</time></trkpt><trkpt lat="45.6111317" lon="11.271365"><ele>807.9999999999999</ele><time>2026-04-19T13:45:44.708Z</time></trkpt><trkpt lat="45.61112" lon="11.2714683"><ele>808.0</ele><time>2026-04-19T13:45:50.708Z</time></trkpt><trkpt lat="45.6110667" lon="11.2715583"><ele>808.0</ele><time>2026-04-19T13:45:53.708Z</time></trkpt><trkpt lat="45.6110383" lon="11.2716483"><ele>808.0</ele><time>2026-04-19T13:45:55.708Z</time></trkpt><trkpt lat="45.6110167" lon="11.2717533"><ele>807.9999999999999</ele><time>2026-04-19T13:45:57.707Z</time></trkpt><trkpt lat="45.6110083" lon="11.271885"><ele>808.0</ele><time>2026-04-19T13:46:00.707Z</time></trkpt><trkpt lat="45.61101" lon="11.272005"><ele>808.0</ele><time>2026-04-19T13:46:03.708Z</time></trkpt><trkpt lat="45.611005" lon="11.272095"><ele>808.0</ele><time>2026-04-19T13:46:05.707Z</time></trkpt><trkpt lat="45.6109767" lon="11.27219"><ele>808.0</ele><time>2026-04-19T13:46:08.707Z</time></trkpt><trkpt lat="45.610925" lon="11.2722767"><ele>808.0</ele><time>2026-04-19T13:46:12.707Z</time></trkpt><trkpt lat="45.610885" lon="11.2723683"><ele>808.0</ele><time>2026-04-19T13:46:16.708Z</time></trkpt><trkpt lat="45.61085" lon="11.2724467"><ele>808.0</ele><time>2026-04-19T13:46:19.708Z</time></trkpt><trkpt lat="45.6108033" lon="11.2725317"><ele>808.0</ele><time>2026-04-19T13:46:23.707Z</time></trkpt><trkpt lat="45.61073" lon="11.272535"><ele>807.9999999999999</ele><time>2026-04-19T13:46:27.707Z</time></trkpt><trkpt lat="45.610665" lon="11.2725233"><ele>808.0</ele><time>2026-04-19T13:46:29.708Z</time></trkpt><trkpt lat="45.6105917" lon="11.27245"><ele>808.0</ele><time>2026-04-19T13:46:32.708Z</time></trkpt><trkpt lat="45.610585" lon="11.2723483"><ele>808.0</ele><time>2026-04-19T13:46:35.708Z</time></trkpt><trkpt lat="45.6105833" lon="11.2722517"><ele>807.9999999999999</ele><time>2026-04-19T13:46:38.708Z</time></trkpt><trkpt lat="45.6105717" lon="11.272135"><ele>808.0</ele><time>2026-04-19T13:46:41.707Z</time></trkpt><trkpt lat="45.610535" lon="11.2720383"><ele>807.9999999999999</ele><time>2026-04-19T13:46:44.707Z</time></trkpt><trkpt lat="45.6105283" lon="11.2719317"><ele>808.0</ele><time>2026-04-19T13:46:47.707Z</time></trkpt><trkpt lat="45.6105033" lon="11.2718483"><ele>808.0</ele><time>2026-04-19T13:46:50.707Z</time></trkpt><trkpt lat="45.6104867" lon="11.2717583"><ele>808.0</ele><time>2026-04-19T13:46:52.708Z</time></trkpt><trkpt lat="45.6104533" lon="11.2716433"><ele>807.9999999999999</ele><time>2026-04-19T13:46:54.708Z</time></trkpt><trkpt lat="45.610405" lon="11.2715167"><ele>808.0</ele><time>2026-04-19T13:46:56.707Z</time></trkpt><trkpt lat="45.6103517" lon="11.2714033"><ele>801.5999999999999</ele><time>2026-04-19T13:46:58.708Z</time></trkpt><trkpt lat="45.6102983" lon="11.2712833"><ele>795.1999999999999</ele><time>2026-04-19T13:47:00.708Z</time></trkpt><trkpt lat="45.61024" lon="11.271165"><ele>788.8</ele><time>2026-04-19T13:47:02.708Z</time></trkpt><trkpt lat="45.61019" lon="11.27107"><ele>782.4</ele><time>2026-04-19T13:47:04.707Z</time></trkpt><trkpt lat="45.6101333" lon="11.2709483"><ele>776.0</ele><time>2026-04-19T13:47:06.708Z</time></trkpt><trkpt lat="45.6100833" lon="11.270825"><ele>776.0000000000001</ele><time>2026-04-19T13:47:08.708Z</time></trkpt><trkpt lat="45.61008" lon="11.270715"><ele>776.0</ele><time>2026-04-19T13:47:11.708Z</time></trkpt><trkpt lat="45.6101033" lon="11.2706017"><ele>776.0</ele><time>2026-04-19T13:47:18.707Z</time></trkpt><trkpt lat="45.6101683" lon="11.270515"><ele>776.0</ele><time>2026-04-19T13:47:20.708Z</time></trkpt><trkpt lat="45.6102333" lon="11.27043"><ele>776.0000000000001</ele><time>2026-04-19T13:47:22.708Z</time></trkpt><trkpt lat="45.610305" lon="11.2703133"><ele>776.0</ele><time>2026-04-19T13:47:24.708Z</time></trkpt><trkpt lat="45.61037" lon="11.2701767"><ele>779.8</ele><time>2026-04-19T13:47:26.707Z</time></trkpt><trkpt lat="45.61042" lon="11.2700367"><ele>783.5999999999999</ele><time>2026-04-19T13:47:28.707Z</time></trkpt><trkpt lat="45.6104633" lon="11.2699083"><ele>787.4</ele><time>2026-04-19T13:47:30.707Z</time></trkpt><trkpt lat="45.6105233" lon="11.2697967"><ele>791.2</ele><time>2026-04-19T13:47:32.708Z</time></trkpt><trkpt lat="45.6105683" lon="11.2696917"><ele>795.0</ele><time>2026-04-19T13:47:34.707Z</time></trkpt><trkpt lat="45.6106067" lon="11.269595"><ele>795.0</ele><time>2026-04-19T13:47:36.707Z</time></trkpt><trkpt lat="45.6106483" lon="11.2694367"><ele>795.0</ele><time>2026-04-19T13:47:58.708Z</time></trkpt><trkpt lat="45.610715" lon="11.2694283"><ele>795.0</ele><time>2026-04-19T13:48:00.708Z</time></trkpt><trkpt lat="45.6107867" lon="11.2694183"><ele>795.0</ele><time>2026-04-19T13:48:02.708Z</time></trkpt><trkpt lat="45.6108433" lon="11.2693383"><ele>795.0</ele><time>2026-04-19T13:48:04.707Z</time></trkpt><trkpt lat="45.6108583" lon="11.26919"><ele>795.0</ele><time>2026-04-19T13:48:06.708Z</time></trkpt><trkpt lat="45.6108767" lon="11.269055"><ele>795.5</ele><time>2026-04-19T13:48:08.708Z</time></trkpt><trkpt lat="45.6108733" lon="11.26891"><ele>796.0</ele><time>2026-04-19T13:48:10.708Z</time></trkpt><trkpt lat="45.6108567" lon="11.2688183"><ele>796.5</ele><time>2026-04-19T13:48:11.707Z</time></trkpt><trkpt lat="45.6108317" lon="11.2687217"><ele>797.0</ele><time>2026-04-19T13:48:12.708Z</time></trkpt><trkpt lat="45.6108" lon="11.2686433"><ele>797.5</ele><time>2026-04-19T13:48:13.707Z</time></trkpt><trkpt lat="45.6107417" lon="11.2685267"><ele>798.0</ele><time>2026-04-19T13:48:15.707Z</time></trkpt><trkpt lat="45.6108067" lon="11.26847"><ele>798.0</ele><time>2026-04-19T13:48:19.707Z</time></trkpt><trkpt lat="45.610875" lon="11.2685317"><ele>798.0</ele><time>2026-04-19T13:48:21.707Z</time></trkpt><trkpt lat="45.6109517" lon="11.2686"><ele>798.0</ele><time>2026-04-19T13:48:23.708Z</time></trkpt><trkpt lat="45.611045" lon="11.2685733"><ele>798.0</ele><time>2026-04-19T13:48:25.708Z</time></trkpt><trkpt lat="45.6111133" lon="11.2684733"><ele>798.0</ele><time>2026-04-19T13:48:27.708Z</time></trkpt><trkpt lat="45.6111783" lon="11.268375"><ele>802.4</ele><time>2026-04-19T13:48:29.708Z</time></trkpt><trkpt lat="45.61124" lon="11.2682983"><ele>806.8</ele><time>2026-04-19T13:48:31.708Z</time></trkpt><trkpt lat="45.6112967" lon="11.2682233"><ele>811.2</ele><time>2026-04-19T13:48:33.708Z</time></trkpt><trkpt lat="45.6113733" lon="11.2681417"><ele>815.6</ele><time>2026-04-19T13:48:35.708Z</time></trkpt><trkpt lat="45.6114433" lon="11.2680317"><ele>820.0</ele><time>2026-04-19T13:48:37.707Z</time></trkpt><trkpt lat="45.611505" lon="11.2679283"><ele>820.0</ele><time>2026-04-19T13:48:39.707Z</time></trkpt><trkpt lat="45.6115483" lon="11.267805"><ele>820.0</ele><time>2026-04-19T13:48:41.708Z</time></trkpt><trkpt lat="45.61157" lon="11.2676767"><ele>820.0</ele><time>2026-04-19T13:48:43.707Z</time></trkpt><trkpt lat="45.6115717" lon="11.26755"><ele>820.0</ele><time>2026-04-19T13:48:45.708Z</time></trkpt><trkpt lat="45.6115683" lon="11.26743"><ele>820.0</ele><time>2026-04-19T13:48:47.708Z</time></trkpt><trkpt lat="45.6115767" lon="11.2672933"><ele>820.4</ele><time>2026-04-19T13:48:49.708Z</time></trkpt><trkpt lat="45.611585" lon="11.2671617"><ele>820.8</ele><time>2026-04-19T13:48:51.707Z</time></trkpt><trkpt lat="45.611595" lon="11.2670267"><ele>821.2</ele><time>2026-04-19T13:48:53.708Z</time></trkpt><trkpt lat="45.6116117" lon="11.266855"><ele>821.6</ele><time>2026-04-19T13:48:55.708Z</time></trkpt><trkpt lat="45.6116283" lon="11.2667567"><ele>822.0</ele><time>2026-04-19T13:48:56.707Z</time></trkpt><trkpt lat="45.6116433" lon="11.266655"><ele>822.0</ele><time>2026-04-19T13:48:57.708Z</time></trkpt><trkpt lat="45.6116567" lon="11.2665617"><ele>822.0</ele><time>2026-04-19T13:48:58.708Z</time></trkpt><trkpt lat="45.61167" lon="11.2664717"><ele>822.0</ele><time>2026-04-19T13:48:59.708Z</time></trkpt><trkpt lat="45.6116833" lon="11.2663833"><ele>822.0</ele><time>2026-04-19T13:49:00.707Z</time></trkpt><trkpt lat="45.6116967" lon="11.2662167"><ele>822.0</ele><time>2026-04-19T13:49:02.707Z</time></trkpt><trkpt lat="45.611705" lon="11.2660717"><ele>822.0</ele><time>2026-04-19T13:49:04.708Z</time></trkpt><trkpt lat="45.6117367" lon="11.2659583"><ele>821.7142857142857</ele><time>2026-04-19T13:49:06.708Z</time></trkpt><trkpt lat="45.6117783" lon="11.265885"><ele>821.4285714285713</ele><time>2026-04-19T13:49:08.707Z</time></trkpt><trkpt lat="45.61184" lon="11.2658067"><ele>821.1428571428571</ele><time>2026-04-19T13:49:11.708Z</time></trkpt><trkpt lat="45.61189" lon="11.2657483"><ele>820.8571428571429</ele><time>2026-04-19T13:49:13.708Z</time></trkpt><trkpt lat="45.6119433" lon="11.2656967"><ele>820.5714285714286</ele><time>2026-04-19T13:49:15.707Z</time></trkpt><trkpt lat="45.61202" lon="11.265635"><ele>820.2857142857143</ele><time>2026-04-19T13:49:18.708Z</time></trkpt><trkpt lat="45.6120933" lon="11.26558"><ele>820.0</ele><time>2026-04-19T13:49:20.708Z</time></trkpt><trkpt lat="45.6121567" lon="11.26551"><ele>821.8333333333333</ele><time>2026-04-19T13:49:22.707Z</time></trkpt><trkpt lat="45.612215" lon="11.2654467"><ele>823.6666666666666</ele><time>2026-04-19T13:49:24.708Z</time></trkpt><trkpt lat="45.6122883" lon="11.265405"><ele>825.5</ele><time>2026-04-19T13:49:26.708Z</time></trkpt><trkpt lat="45.6123667" lon="11.2653533"><ele>827.3333333333333</ele><time>2026-04-19T13:49:28.708Z</time></trkpt><trkpt lat="45.6124467" lon="11.265315"><ele>829.1666666666666</ele><time>2026-04-19T13:49:30.708Z</time></trkpt><trkpt lat="45.6125367" lon="11.2652817"><ele>831.0</ele><time>2026-04-19T13:49:32.707Z</time></trkpt><trkpt lat="45.6126283" lon="11.2652467"><ele>831.0</ele><time>2026-04-19T13:49:34.708Z</time></trkpt><trkpt lat="45.612725" lon="11.2651917"><ele>831.0</ele><time>2026-04-19T13:49:36.708Z</time></trkpt><trkpt lat="45.6128267" lon="11.2651433"><ele>831.0</ele><time>2026-04-19T13:49:38.708Z</time></trkpt><trkpt lat="45.612935" lon="11.2651067"><ele>831.0</ele><time>2026-04-19T13:49:40.707Z</time></trkpt><trkpt lat="45.613015" lon="11.265095"><ele>831.0</ele><time>2026-04-19T13:49:42.708Z</time></trkpt><trkpt lat="45.61309" lon="11.2650917"><ele>831.1666666666666</ele><time>2026-04-19T13:49:44.707Z</time></trkpt><trkpt lat="45.6131567" lon="11.2650683"><ele>831.3333333333333</ele><time>2026-04-19T13:49:46.708Z</time></trkpt><trkpt lat="45.61322" lon="11.2650333"><ele>831.5</ele><time>2026-04-19T13:49:48.707Z</time></trkpt><trkpt lat="45.61329" lon="11.2649833"><ele>831.6666666666666</ele><time>2026-04-19T13:49:51.708Z</time></trkpt><trkpt lat="45.61336" lon="11.26493"><ele>831.8333333333333</ele><time>2026-04-19T13:49:54.708Z</time></trkpt><trkpt lat="45.6134173" lon="11.2648791"><ele>832.0</ele><time>2026-04-19T13:49:56.686Z</time></trkpt><trkpt lat="45.6134987" lon="11.2648281"><ele>832.6</ele><time>2026-04-19T13:49:59.733Z</time></trkpt><trkpt lat="45.61362" lon="11.264705"><ele>833.2</ele><time>2026-04-19T13:50:01.707Z</time></trkpt><trkpt lat="45.613695" lon="11.2646217"><ele>833.8</ele><time>2026-04-19T13:50:03.708Z</time></trkpt><trkpt lat="45.6137617" lon="11.2645567"><ele>834.4</ele><time>2026-04-19T13:50:05.708Z</time></trkpt><trkpt lat="45.613815" lon="11.2644817"><ele>835.0</ele><time>2026-04-19T13:50:08.707Z</time></trkpt><trkpt lat="45.6138533" lon="11.2644"><ele>835.0000000000001</ele><time>2026-04-19T13:50:11.707Z</time></trkpt><trkpt lat="45.6139133" lon="11.2643617"><ele>835.0</ele><time>2026-04-19T13:50:14.708Z</time></trkpt><trkpt lat="45.613975" lon="11.2642933"><ele>835.0</ele><time>2026-04-19T13:50:18.707Z</time></trkpt><trkpt lat="45.61403" lon="11.26424"><ele>835.0</ele><time>2026-04-19T13:50:22.707Z</time></trkpt><trkpt lat="45.61409" lon="11.2641917"><ele>835.0</ele><time>2026-04-19T13:50:25.707Z</time></trkpt><trkpt lat="45.6141659" lon="11.2641253"><ele>835.0000000000001</ele><time>2026-04-19T13:50:29.763Z</time></trkpt><trkpt lat="45.6142211" lon="11.2640753"><ele>835.0</ele><time>2026-04-19T13:50:31.78Z</time></trkpt><trkpt lat="45.6142783" lon="11.26401"><ele>834.9999999999999</ele><time>2026-04-19T13:50:32.708Z</time></trkpt><trkpt lat="45.6143433" lon="11.2639533"><ele>835.0</ele><time>2026-04-19T13:50:34.708Z</time></trkpt><trkpt lat="45.6144083" lon="11.263885"><ele>835.0</ele><time>2026-04-19T13:50:36.707Z</time></trkpt><trkpt lat="45.6144657" lon="11.263786"><ele>835.0</ele><time>2026-04-19T13:50:40.748Z</time></trkpt><trkpt lat="45.6144781" lon="11.2636822"><ele>834.9999999999999</ele><time>2026-04-19T13:50:46.648Z</time></trkpt><trkpt lat="45.6145484" lon="11.2636074"><ele>835.0</ele><time>2026-04-19T13:50:52.707Z</time></trkpt><trkpt lat="45.6146317" lon="11.2635317"><ele>834.3333333333333</ele><time>2026-04-19T13:50:54.708Z</time></trkpt><trkpt lat="45.6147033" lon="11.2634617"><ele>833.6666666666666</ele><time>2026-04-19T13:50:56.708Z</time></trkpt><trkpt lat="45.6147633" lon="11.263365"><ele>833.0</ele><time>2026-04-19T13:50:58.708Z</time></trkpt><trkpt lat="45.6148167" lon="11.263245"><ele>832.3333333333333</ele><time>2026-04-19T13:51:00.707Z</time></trkpt><trkpt lat="45.6148517" lon="11.26312"><ele>831.6666666666666</ele><time>2026-04-19T13:51:02.708Z</time></trkpt><trkpt lat="45.6148717" lon="11.26302"><ele>831.0</ele><time>2026-04-19T13:51:04.708Z</time></trkpt><trkpt lat="45.614895" lon="11.2629317"><ele>829.8333333333334</ele><time>2026-04-19T13:51:06.707Z</time></trkpt><trkpt lat="45.6149117" lon="11.2628167"><ele>828.6666666666667</ele><time>2026-04-19T13:51:08.708Z</time></trkpt><trkpt lat="45.6149467" lon="11.26269"><ele>827.5</ele><time>2026-04-19T13:51:10.707Z</time></trkpt><trkpt lat="45.615" lon="11.2625817"><ele>826.3333333333334</ele><time>2026-04-19T13:51:12.707Z</time></trkpt><trkpt lat="45.6150583" lon="11.2624867"><ele>825.1666666666667</ele><time>2026-04-19T13:51:14.707Z</time></trkpt><trkpt lat="45.615105" lon="11.2624083"><ele>824.0</ele><time>2026-04-19T13:51:16.707Z</time></trkpt><trkpt lat="45.6151517" lon="11.2623383"><ele>823.9999999999999</ele><time>2026-04-19T13:51:18.708Z</time></trkpt><trkpt lat="45.615215" lon="11.2622867"><ele>824.0</ele><time>2026-04-19T13:51:20.707Z</time></trkpt><trkpt lat="45.6152767" lon="11.262235"><ele>824.0</ele><time>2026-04-19T13:51:22.708Z</time></trkpt><trkpt lat="45.61533" lon="11.2621867"><ele>824.0</ele><time>2026-04-19T13:51:24.707Z</time></trkpt><trkpt lat="45.6153917" lon="11.2621067"><ele>824.0</ele><time>2026-04-19T13:51:27.708Z</time></trkpt><trkpt lat="45.6154433" lon="11.2620417"><ele>823.9999999999999</ele><time>2026-04-19T13:51:29.707Z</time></trkpt><trkpt lat="45.6155083" lon="11.261985"><ele>824.0</ele><time>2026-04-19T13:51:32.708Z</time></trkpt><trkpt lat="45.61556" lon="11.26193"><ele>821.2857142857142</ele><time>2026-04-19T13:51:41.708Z</time></trkpt><trkpt lat="45.6156233" lon="11.2619267"><ele>818.5714285714286</ele><time>2026-04-19T13:52:07.708Z</time></trkpt><trkpt lat="45.6156783" lon="11.2618717"><ele>815.8571428571429</ele><time>2026-04-19T13:52:18.707Z</time></trkpt><trkpt lat="45.6156867" lon="11.26178"><ele>813.1428571428571</ele><time>2026-04-19T13:52:23.708Z</time></trkpt><trkpt lat="45.6157417" lon="11.26172"><ele>810.4285714285714</ele><time>2026-04-19T13:52:34.708Z</time></trkpt><trkpt lat="45.61585" lon="11.26172"><ele>807.7142857142857</ele><time>2026-04-19T13:55:30.707Z</time></trkpt><trkpt lat="45.61591" lon="11.261755"><ele>805.0</ele><time>2026-04-19T13:55:38.707Z</time></trkpt><trkpt lat="45.615965" lon="11.261895"><ele>804.9999999999999</ele><time>2026-04-19T13:56:23.708Z</time></trkpt><trkpt lat="45.6160333" lon="11.2619483"><ele>805.0</ele><time>2026-04-19T13:56:43.707Z</time></trkpt><trkpt lat="45.6161433" lon="11.2620083"><ele>805.0</ele><time>2026-04-19T13:57:36.707Z</time></trkpt><trkpt lat="45.6161883" lon="11.2619433"><ele>805.0</ele><time>2026-04-19T13:57:41.707Z</time></trkpt><trkpt lat="45.61624" lon="11.26188"><ele>804.9999999999999</ele><time>2026-04-19T13:57:45.707Z</time></trkpt><trkpt lat="45.616295" lon="11.2618117"><ele>805.0</ele><time>2026-04-19T13:57:50.708Z</time></trkpt><trkpt lat="45.6163583" lon="11.2617683"><ele>803.4999999999999</ele><time>2026-04-19T13:57:53.707Z</time></trkpt><trkpt lat="45.6164283" lon="11.2617083"><ele>802.0</ele><time>2026-04-19T13:57:55.708Z</time></trkpt><trkpt lat="45.6165033" lon="11.2616817"><ele>800.5</ele><time>2026-04-19T13:57:57.707Z</time></trkpt><trkpt lat="45.6165517" lon="11.2616217"><ele>799.0</ele><time>2026-04-19T13:58:00.707Z</time></trkpt><trkpt lat="45.616635" lon="11.26158"><ele>797.4999999999999</ele><time>2026-04-19T13:58:04.708Z</time></trkpt><trkpt lat="45.61673" lon="11.2615133"><ele>796.0</ele><time>2026-04-19T13:58:06.708Z</time></trkpt><trkpt lat="45.6168367" lon="11.2614283"><ele>795.6666666666666</ele><time>2026-04-19T13:58:08.707Z</time></trkpt><trkpt lat="45.616905" lon="11.2613567"><ele>795.3333333333333</ele><time>2026-04-19T13:58:09.708Z</time></trkpt><trkpt lat="45.6169633" lon="11.26132"><ele>795.0</ele><time>2026-04-19T13:58:10.707Z</time></trkpt><trkpt lat="45.61708" lon="11.2613"><ele>794.6666666666667</ele><time>2026-04-19T13:58:12.708Z</time></trkpt><trkpt lat="45.6171467" lon="11.2613267"><ele>794.3333333333334</ele><time>2026-04-19T13:58:13.707Z</time></trkpt><trkpt lat="45.6172033" lon="11.2613717"><ele>794.0</ele><time>2026-04-19T13:58:14.707Z</time></trkpt><trkpt lat="45.61725" lon="11.261435"><ele>794.3333333333334</ele><time>2026-04-19T13:58:15.707Z</time></trkpt><trkpt lat="45.6173" lon="11.26151"><ele>794.6666666666667</ele><time>2026-04-19T13:58:16.707Z</time></trkpt><trkpt lat="45.617345" lon="11.261585"><ele>795.0</ele><time>2026-04-19T13:58:17.707Z</time></trkpt><trkpt lat="45.617395" lon="11.261645"><ele>795.3333333333333</ele><time>2026-04-19T13:58:18.707Z</time></trkpt><trkpt lat="45.6174567" lon="11.2617"><ele>795.6666666666666</ele><time>2026-04-19T13:58:19.708Z</time></trkpt><trkpt lat="45.6175717" lon="11.2617683"><ele>796.0</ele><time>2026-04-19T13:58:21.707Z</time></trkpt><trkpt lat="45.6176433" lon="11.2617683"><ele>795.9999999999999</ele><time>2026-04-19T13:58:22.708Z</time></trkpt><trkpt lat="45.617725" lon="11.26176"><ele>796.0</ele><time>2026-04-19T13:58:23.707Z</time></trkpt><trkpt lat="45.6178033" lon="11.2617467"><ele>796.0</ele><time>2026-04-19T13:58:24.708Z</time></trkpt><trkpt lat="45.61788" lon="11.26173"><ele>796.0</ele><time>2026-04-19T13:58:25.708Z</time></trkpt><trkpt lat="45.6179533" lon="11.261715"><ele>795.9999999999999</ele><time>2026-04-19T13:58:26.708Z</time></trkpt><trkpt lat="45.6180283" lon="11.2617033"><ele>796.0</ele><time>2026-04-19T13:58:27.707Z</time></trkpt><trkpt lat="45.6181083" lon="11.26171"><ele>795.4999999999999</ele><time>2026-04-19T13:58:28.708Z</time></trkpt><trkpt lat="45.618185" lon="11.2617383"><ele>795.0</ele><time>2026-04-19T13:58:29.707Z</time></trkpt><trkpt lat="45.6182617" lon="11.2617783"><ele>794.5</ele><time>2026-04-19T13:58:30.707Z</time></trkpt><trkpt lat="45.618335" lon="11.2618383"><ele>794.0</ele><time>2026-04-19T13:58:31.707Z</time></trkpt><trkpt lat="45.6184017" lon="11.2619067"><ele>793.4999999999999</ele><time>2026-04-19T13:58:32.707Z</time></trkpt><trkpt lat="45.6184683" lon="11.262"><ele>793.0</ele><time>2026-04-19T13:58:33.708Z</time></trkpt><trkpt lat="45.6185317" lon="11.262105"><ele>792.9999999999999</ele><time>2026-04-19T13:58:34.708Z</time></trkpt><trkpt lat="45.6185883" lon="11.2622167"><ele>793.0</ele><time>2026-04-19T13:58:35.708Z</time></trkpt><trkpt lat="45.61865" lon="11.26231"><ele>793.0</ele><time>2026-04-19T13:58:36.708Z</time></trkpt><trkpt lat="45.61871" lon="11.262385"><ele>793.0</ele><time>2026-04-19T13:58:37.708Z</time></trkpt><trkpt lat="45.6187833" lon="11.262435"><ele>792.9999999999999</ele><time>2026-04-19T13:58:38.707Z</time></trkpt><trkpt lat="45.6188767" lon="11.26246"><ele>793.0</ele><time>2026-04-19T13:58:39.707Z</time></trkpt><trkpt lat="45.6189667" lon="11.2624767"><ele>793.4999999999999</ele><time>2026-04-19T13:58:40.708Z</time></trkpt><trkpt lat="45.6190483" lon="11.2624667"><ele>794.0</ele><time>2026-04-19T13:58:41.707Z</time></trkpt><trkpt lat="45.6191267" lon="11.26241"><ele>794.5</ele><time>2026-04-19T13:58:42.708Z</time></trkpt><trkpt lat="45.6191967" lon="11.2623433"><ele>795.0</ele><time>2026-04-19T13:58:43.707Z</time></trkpt><trkpt lat="45.6192617" lon="11.2622717"><ele>795.4999999999999</ele><time>2026-04-19T13:58:44.708Z</time></trkpt><trkpt lat="45.6193217" lon="11.262205"><ele>796.0</ele><time>2026-04-19T13:58:45.708Z</time></trkpt><trkpt lat="45.61938" lon="11.26215"><ele>795.9999999999999</ele><time>2026-04-19T13:58:46.707Z</time></trkpt><trkpt lat="45.6194383" lon="11.2621"><ele>796.0</ele><time>2026-04-19T13:58:47.707Z</time></trkpt><trkpt lat="45.6194983" lon="11.2620667"><ele>796.0</ele><time>2026-04-19T13:58:48.707Z</time></trkpt><trkpt lat="45.6196017" lon="11.2620333"><ele>796.0</ele><time>2026-04-19T13:58:50.707Z</time></trkpt><trkpt lat="45.6196817" lon="11.2620133"><ele>795.9999999999999</ele><time>2026-04-19T13:58:52.707Z</time></trkpt><trkpt lat="45.6195767" lon="11.2620033"><ele>796.0</ele><time>2026-04-19T13:59:54.707Z</time></trkpt><trkpt lat="45.619505" lon="11.2620233"><ele>795.9999999999999</ele><time>2026-04-19T13:59:55.707Z</time></trkpt><trkpt lat="45.6194283" lon="11.262065"><ele>796.0</ele><time>2026-04-19T13:59:56.708Z</time></trkpt><trkpt lat="45.619355" lon="11.2621217"><ele>796.0</ele><time>2026-04-19T13:59:57.707Z</time></trkpt><trkpt lat="45.6192883" lon="11.26219"><ele>796.0</ele><time>2026-04-19T13:59:58.707Z</time></trkpt><trkpt lat="45.6192233" lon="11.2622617"><ele>795.9999999999999</ele><time>2026-04-19T13:59:59.707Z</time></trkpt><trkpt lat="45.619165" lon="11.2623317"><ele>796.0</ele><time>2026-04-19T14:00:00.707Z</time></trkpt><trkpt lat="45.6190917" lon="11.26238"><ele>795.9999999999999</ele><time>2026-04-19T14:00:01.707Z</time></trkpt><trkpt lat="45.6190033" lon="11.2624067"><ele>796.0</ele><time>2026-04-19T14:00:02.707Z</time></trkpt><trkpt lat="45.6189183" lon="11.262405"><ele>796.0</ele><time>2026-04-19T14:00:03.707Z</time></trkpt><trkpt lat="45.618835" lon="11.262375"><ele>796.0</ele><time>2026-04-19T14:00:04.707Z</time></trkpt><trkpt lat="45.6187517" lon="11.2623233"><ele>795.9999999999999</ele><time>2026-04-19T14:00:05.708Z</time></trkpt><trkpt lat="45.6186767" lon="11.2622517"><ele>796.0</ele><time>2026-04-19T14:00:06.707Z</time></trkpt><trkpt lat="45.6186033" lon="11.2621483"><ele>795.25</ele><time>2026-04-19T14:00:07.708Z</time></trkpt><trkpt lat="45.6185233" lon="11.2620217"><ele>794.5</ele><time>2026-04-19T14:00:08.707Z</time></trkpt><trkpt lat="45.61844" lon="11.261895"><ele>793.75</ele><time>2026-04-19T14:00:09.708Z</time></trkpt><trkpt lat="45.61835" lon="11.26179"><ele>793.0</ele><time>2026-04-19T14:00:10.707Z</time></trkpt><trkpt lat="45.61825" lon="11.261705"><ele>793.0</ele><time>2026-04-19T14:00:11.708Z</time></trkpt><trkpt lat="45.6181433" lon="11.2616617"><ele>793.0</ele><time>2026-04-19T14:00:12.707Z</time></trkpt><trkpt lat="45.618035" lon="11.2616467"><ele>793.0</ele><time>2026-04-19T14:00:13.708Z</time></trkpt><trkpt lat="45.6179317" lon="11.2616667"><ele>793.0</ele><time>2026-04-19T14:00:14.708Z</time></trkpt><trkpt lat="45.617835" lon="11.2616817"><ele>793.0</ele><time>2026-04-19T14:00:15.708Z</time></trkpt><trkpt lat="45.6177383" lon="11.2616983"><ele>793.5999999999999</ele><time>2026-04-19T14:00:16.708Z</time></trkpt><trkpt lat="45.617655" lon="11.261715"><ele>794.1999999999999</ele><time>2026-04-19T14:00:17.707Z</time></trkpt><trkpt lat="45.6175883" lon="11.26172"><ele>794.8</ele><time>2026-04-19T14:00:18.707Z</time></trkpt><trkpt lat="45.6174767" lon="11.2616667"><ele>795.4</ele><time>2026-04-19T14:00:20.708Z</time></trkpt><trkpt lat="45.617385" lon="11.2615583"><ele>796.0</ele><time>2026-04-19T14:00:22.707Z</time></trkpt><trkpt lat="45.61736" lon="11.2614483"><ele>798.4</ele><time>2026-04-19T14:00:24.708Z</time></trkpt><trkpt lat="45.6173933" lon="11.2613583"><ele>800.8</ele><time>2026-04-19T14:00:26.708Z</time></trkpt><trkpt lat="45.6175133" lon="11.2613417"><ele>803.1999999999999</ele><time>2026-04-19T14:00:28.707Z</time></trkpt><trkpt lat="45.6176" lon="11.26134"><ele>805.5999999999999</ele><time>2026-04-19T14:00:29.708Z</time></trkpt><trkpt lat="45.6176967" lon="11.2613283"><ele>808.0</ele><time>2026-04-19T14:00:30.708Z</time></trkpt><trkpt lat="45.6177917" lon="11.26129"><ele>810.0</ele><time>2026-04-19T14:00:31.708Z</time></trkpt><trkpt lat="45.6178967" lon="11.26123"><ele>812.0</ele><time>2026-04-19T14:00:32.708Z</time></trkpt><trkpt lat="45.6179983" lon="11.2611567"><ele>814.0</ele><time>2026-04-19T14:00:33.707Z</time></trkpt><trkpt lat="45.618095" lon="11.2610833"><ele>816.0</ele><time>2026-04-19T14:00:34.708Z</time></trkpt><trkpt lat="45.6181967" lon="11.26101"><ele>816.0</ele><time>2026-04-19T14:00:35.707Z</time></trkpt><trkpt lat="45.6183017" lon="11.260945"><ele>816.0</ele><time>2026-04-19T14:00:36.707Z</time></trkpt><trkpt lat="45.6184133" lon="11.2608717"><ele>816.0</ele><time>2026-04-19T14:00:37.707Z</time></trkpt><trkpt lat="45.6185317" lon="11.2607883"><ele>816.0</ele><time>2026-04-19T14:00:38.707Z</time></trkpt><trkpt lat="45.618655" lon="11.2607083"><ele>817.25</ele><time>2026-04-19T14:00:39.707Z</time></trkpt><trkpt lat="45.61877" lon="11.2606317"><ele>818.5</ele><time>2026-04-19T14:00:40.708Z</time></trkpt><trkpt lat="45.6188833" lon="11.260565"><ele>819.75</ele><time>2026-04-19T14:00:41.708Z</time></trkpt><trkpt lat="45.6189867" lon="11.2604933"><ele>821.0</ele><time>2026-04-19T14:00:42.707Z</time></trkpt><trkpt lat="45.6190817" lon="11.260415"><ele>821.0</ele><time>2026-04-19T14:00:43.708Z</time></trkpt><trkpt lat="45.619175" lon="11.2603383"><ele>821.0</ele><time>2026-04-19T14:00:44.708Z</time></trkpt><trkpt lat="45.6192683" lon="11.2602783"><ele>821.0</ele><time>2026-04-19T14:00:45.708Z</time></trkpt><trkpt lat="45.619365" lon="11.2602217"><ele>821.0</ele><time>2026-04-19T14:00:46.709Z</time></trkpt><trkpt lat="45.61946" lon="11.2601617"><ele>821.0</ele><time>2026-04-19T14:00:47.709Z</time></trkpt><trkpt lat="45.6195567" lon="11.2600983"><ele>817.8</ele><time>2026-04-19T14:00:48.708Z</time></trkpt><trkpt lat="45.6196483" lon="11.26002"><ele>814.5999999999999</ele><time>2026-04-19T14:00:49.708Z</time></trkpt><trkpt lat="45.6197383" lon="11.2599467"><ele>811.4</ele><time>2026-04-19T14:00:50.709Z</time></trkpt><trkpt lat="45.6198367" lon="11.259865"><ele>808.2</ele><time>2026-04-19T14:00:51.708Z</time></trkpt><trkpt lat="45.6199267" lon="11.259765"><ele>805.0</ele><time>2026-04-19T14:00:52.709Z</time></trkpt><trkpt lat="45.6199967" lon="11.25966"><ele>805.0</ele><time>2026-04-19T14:00:53.709Z</time></trkpt><trkpt lat="45.6200583" lon="11.259525"><ele>805.0</ele><time>2026-04-19T14:00:54.709Z</time></trkpt><trkpt lat="45.6201117" lon="11.2593883"><ele>805.0</ele><time>2026-04-19T14:00:55.709Z</time></trkpt><trkpt lat="45.62016" lon="11.2592633"><ele>805.0</ele><time>2026-04-19T14:00:56.709Z</time></trkpt><trkpt lat="45.6201917" lon="11.2591333"><ele>805.0</ele><time>2026-04-19T14:00:57.708Z</time></trkpt><trkpt lat="45.620215" lon="11.259015"><ele>805.0</ele><time>2026-04-19T14:00:58.708Z</time></trkpt><trkpt lat="45.62025" lon="11.2589"><ele>805.0</ele><time>2026-04-19T14:00:59.709Z</time></trkpt><trkpt lat="45.6203" lon="11.258795"><ele>805.0</ele><time>2026-04-19T14:01:00.709Z</time></trkpt><trkpt lat="45.6203583" lon="11.25869"><ele>805.0</ele><time>2026-04-19T14:01:01.709Z</time></trkpt><trkpt lat="45.6204333" lon="11.2586133"><ele>805.0</ele><time>2026-04-19T14:01:02.708Z</time></trkpt><trkpt lat="45.6205217" lon="11.2585433"><ele>805.0</ele><time>2026-04-19T14:01:03.708Z</time></trkpt><trkpt lat="45.6206117" lon="11.2584783"><ele>805.0</ele><time>2026-04-19T14:01:04.709Z</time></trkpt><trkpt lat="45.6207033" lon="11.2584083"><ele>805.0</ele><time>2026-04-19T14:01:05.708Z</time></trkpt><trkpt lat="45.6207917" lon="11.25834"><ele>805.0</ele><time>2026-04-19T14:01:06.709Z</time></trkpt><trkpt lat="45.6208833" lon="11.258265"><ele>805.0</ele><time>2026-04-19T14:01:07.709Z</time></trkpt><trkpt lat="45.6209617" lon="11.2581767"><ele>805.8333333333333</ele><time>2026-04-19T14:01:08.709Z</time></trkpt><trkpt lat="45.6210317" lon="11.25809"><ele>806.6666666666666</ele><time>2026-04-19T14:01:09.709Z</time></trkpt><trkpt lat="45.6211017" lon="11.2580183"><ele>807.5</ele><time>2026-04-19T14:01:10.709Z</time></trkpt><trkpt lat="45.62117" lon="11.2579583"><ele>808.3333333333333</ele><time>2026-04-19T14:01:11.708Z</time></trkpt><trkpt lat="45.6212383" lon="11.257915"><ele>809.1666666666666</ele><time>2026-04-19T14:01:12.708Z</time></trkpt><trkpt lat="45.6213133" lon="11.2579167"><ele>810.0</ele><time>2026-04-19T14:01:13.709Z</time></trkpt><trkpt lat="45.6213867" lon="11.2579217"><ele>810.0</ele><time>2026-04-19T14:01:14.709Z</time></trkpt><trkpt lat="45.6214567" lon="11.2579617"><ele>810.0</ele><time>2026-04-19T14:01:15.709Z</time></trkpt><trkpt lat="45.6215167" lon="11.258045"><ele>810.0</ele><time>2026-04-19T14:01:16.709Z</time></trkpt><trkpt lat="45.621565" lon="11.2581417"><ele>810.0</ele><time>2026-04-19T14:01:17.708Z</time></trkpt><trkpt lat="45.6216167" lon="11.2582383"><ele>810.0</ele><time>2026-04-19T14:01:18.708Z</time></trkpt><trkpt lat="45.62168" lon="11.258315"><ele>810.0</ele><time>2026-04-19T14:01:19.708Z</time></trkpt><trkpt lat="45.6217483" lon="11.2583933"><ele>810.1666666666666</ele><time>2026-04-19T14:01:20.708Z</time></trkpt><trkpt lat="45.62182" lon="11.2584717"><ele>810.3333333333333</ele><time>2026-04-19T14:01:21.708Z</time></trkpt><trkpt lat="45.6218967" lon="11.2585467"><ele>810.5</ele><time>2026-04-19T14:01:22.709Z</time></trkpt><trkpt lat="45.6219783" lon="11.258615"><ele>810.6666666666666</ele><time>2026-04-19T14:01:23.709Z</time></trkpt><trkpt lat="45.622055" lon="11.25868"><ele>810.8333333333333</ele><time>2026-04-19T14:01:24.709Z</time></trkpt><trkpt lat="45.622125" lon="11.2587383"><ele>811.0</ele><time>2026-04-19T14:01:25.709Z</time></trkpt><trkpt lat="45.6221883" lon="11.2588017"><ele>811.1666666666666</ele><time>2026-04-19T14:01:26.709Z</time></trkpt><trkpt lat="45.6222433" lon="11.258885"><ele>811.3333333333333</ele><time>2026-04-19T14:01:27.708Z</time></trkpt><trkpt lat="45.6222883" lon="11.25898"><ele>811.5</ele><time>2026-04-19T14:01:28.709Z</time></trkpt><trkpt lat="45.6223333" lon="11.2590767"><ele>811.6666666666667</ele><time>2026-04-19T14:01:29.708Z</time></trkpt><trkpt lat="45.62238" lon="11.25917"><ele>811.8333333333334</ele><time>2026-04-19T14:01:30.708Z</time></trkpt><trkpt lat="45.6224283" lon="11.2592467"><ele>812.0</ele><time>2026-04-19T14:01:31.709Z</time></trkpt><trkpt lat="45.622525" lon="11.2593517"><ele>812.0000000000001</ele><time>2026-04-19T14:01:33.708Z</time></trkpt><trkpt lat="45.6225867" lon="11.2593717"><ele>812.0</ele><time>2026-04-19T14:01:34.708Z</time></trkpt><trkpt lat="45.62265" lon="11.25937"><ele>812.0</ele><time>2026-04-19T14:01:35.708Z</time></trkpt><trkpt lat="45.6227617" lon="11.259305"><ele>812.0</ele><time>2026-04-19T14:01:37.708Z</time></trkpt><trkpt lat="45.62284" lon="11.2592367"><ele>812.0000000000001</ele><time>2026-04-19T14:01:39.708Z</time></trkpt><trkpt lat="45.6228417" lon="11.2590933"><ele>812.0</ele><time>2026-04-19T14:01:55.708Z</time></trkpt><trkpt lat="45.6227633" lon="11.2592067"><ele>812.0</ele><time>2026-04-19T14:01:58.709Z</time></trkpt><trkpt lat="45.6226733" lon="11.2593133"><ele>812.0</ele><time>2026-04-19T14:02:00.709Z</time></trkpt><trkpt lat="45.6225567" lon="11.25936"><ele>812.0</ele><time>2026-04-19T14:02:02.708Z</time></trkpt><trkpt lat="45.6224383" lon="11.2592867"><ele>812.0</ele><time>2026-04-19T14:02:04.708Z</time></trkpt><trkpt lat="45.62239" lon="11.2592133"><ele>812.0</ele><time>2026-04-19T14:02:05.708Z</time></trkpt><trkpt lat="45.6223483" lon="11.25914"><ele>812.0</ele><time>2026-04-19T14:02:06.708Z</time></trkpt><trkpt lat="45.6222733" lon="11.2590067"><ele>812.0</ele><time>2026-04-19T14:02:08.709Z</time></trkpt><trkpt lat="45.62221" lon="11.25887"><ele>812.0</ele><time>2026-04-19T14:02:10.709Z</time></trkpt><trkpt lat="45.6221217" lon="11.2587433"><ele>812.0</ele><time>2026-04-19T14:02:12.709Z</time></trkpt><trkpt lat="45.6220617" lon="11.258695"><ele>812.0</ele><time>2026-04-19T14:02:13.709Z</time></trkpt><trkpt lat="45.6220017" lon="11.2586533"><ele>811.8333333333334</ele><time>2026-04-19T14:02:14.709Z</time></trkpt><trkpt lat="45.6219433" lon="11.25861"><ele>811.6666666666667</ele><time>2026-04-19T14:02:15.708Z</time></trkpt><trkpt lat="45.6218867" lon="11.2585533"><ele>811.5</ele><time>2026-04-19T14:02:16.708Z</time></trkpt><trkpt lat="45.621835" lon="11.2584983"><ele>811.3333333333333</ele><time>2026-04-19T14:02:17.709Z</time></trkpt><trkpt lat="45.621785" lon="11.2584433"><ele>811.1666666666666</ele><time>2026-04-19T14:02:18.708Z</time></trkpt><trkpt lat="45.621695" lon="11.25834"><ele>811.0</ele><time>2026-04-19T14:02:20.708Z</time></trkpt><trkpt lat="45.621625" lon="11.2582467"><ele>810.9999999999999</ele><time>2026-04-19T14:02:22.709Z</time></trkpt><trkpt lat="45.6215667" lon="11.258145"><ele>811.0</ele><time>2026-04-19T14:02:24.709Z</time></trkpt><trkpt lat="45.62152" lon="11.2580617"><ele>811.0</ele><time>2026-04-19T14:02:26.709Z</time></trkpt><trkpt lat="45.6214783" lon="11.2579933"><ele>811.0</ele><time>2026-04-19T14:02:28.708Z</time></trkpt><trkpt lat="45.62147" lon="11.2578667"><ele>810.9999999999999</ele><time>2026-04-19T14:02:47.709Z</time></trkpt><trkpt lat="45.6214583" lon="11.257755"><ele>811.0</ele><time>2026-04-19T14:02:50.709Z</time></trkpt><trkpt lat="45.6214967" lon="11.2576517"><ele>810.8</ele><time>2026-04-19T14:02:53.708Z</time></trkpt><trkpt lat="45.6215517" lon="11.2575633"><ele>810.5999999999999</ele><time>2026-04-19T14:02:56.708Z</time></trkpt><trkpt lat="45.6216183" lon="11.257475"><ele>810.4</ele><time>2026-04-19T14:02:58.708Z</time></trkpt><trkpt lat="45.6216917" lon="11.2573767"><ele>810.2</ele><time>2026-04-19T14:03:00.708Z</time></trkpt><trkpt lat="45.6217533" lon="11.2572817"><ele>810.0</ele><time>2026-04-19T14:03:02.709Z</time></trkpt><trkpt lat="45.6218167" lon="11.25719"><ele>812.4</ele><time>2026-04-19T14:03:04.709Z</time></trkpt><trkpt lat="45.62189" lon="11.2570967"><ele>814.8</ele><time>2026-04-19T14:03:06.709Z</time></trkpt><trkpt lat="45.62196" lon="11.2569833"><ele>817.2</ele><time>2026-04-19T14:03:08.708Z</time></trkpt><trkpt lat="45.6220167" lon="11.2568767"><ele>819.6</ele><time>2026-04-19T14:03:10.709Z</time></trkpt><trkpt lat="45.6220733" lon="11.2567733"><ele>822.0</ele><time>2026-04-19T14:03:12.709Z</time></trkpt><trkpt lat="45.6221417" lon="11.2566983"><ele>822.0</ele><time>2026-04-19T14:03:14.708Z</time></trkpt><trkpt lat="45.6222333" lon="11.2566383"><ele>822.0</ele><time>2026-04-19T14:03:16.708Z</time></trkpt><trkpt lat="45.622325" lon="11.2565983"><ele>822.0</ele><time>2026-04-19T14:03:18.708Z</time></trkpt><trkpt lat="45.6223967" lon="11.256595"><ele>822.0</ele><time>2026-04-19T14:03:20.709Z</time></trkpt><trkpt lat="45.622465" lon="11.2565817"><ele>822.0</ele><time>2026-04-19T14:03:22.709Z</time></trkpt><trkpt lat="45.6225317" lon="11.2565617"><ele>822.0</ele><time>2026-04-19T14:03:25.708Z</time></trkpt><trkpt lat="45.6226067" lon="11.256535"><ele>822.0</ele><time>2026-04-19T14:03:28.709Z</time></trkpt><trkpt lat="45.6226767" lon="11.256505"><ele>822.0</ele><time>2026-04-19T14:03:30.709Z</time></trkpt><trkpt lat="45.6227933" lon="11.25645"><ele>822.0</ele><time>2026-04-19T14:03:32.709Z</time></trkpt><trkpt lat="45.6228567" lon="11.2564117"><ele>822.0</ele><time>2026-04-19T14:03:33.708Z</time></trkpt><trkpt lat="45.6229743" lon="11.2563317"><ele>822.0</ele><time>2026-04-19T14:03:35.709Z</time></trkpt><trkpt lat="45.62303" lon="11.2562865"><ele>822.8</ele><time>2026-04-19T14:03:36.709Z</time></trkpt><trkpt lat="45.623106" lon="11.2561813"><ele>823.6</ele><time>2026-04-19T14:03:38.709Z</time></trkpt><trkpt lat="45.623165" lon="11.2560717"><ele>824.4</ele><time>2026-04-19T14:03:40.708Z</time></trkpt><trkpt lat="45.623215" lon="11.2559717"><ele>825.1999999999999</ele><time>2026-04-19T14:03:42.709Z</time></trkpt><trkpt lat="45.6232783" lon="11.2558833"><ele>826.0</ele><time>2026-04-19T14:03:44.708Z</time></trkpt><trkpt lat="45.6233367" lon="11.2558"><ele>825.9999999999999</ele><time>2026-04-19T14:03:46.709Z</time></trkpt><trkpt lat="45.6233733" lon="11.2557117"><ele>826.0</ele><time>2026-04-19T14:03:48.709Z</time></trkpt><trkpt lat="45.6234183" lon="11.25564"><ele>826.0</ele><time>2026-04-19T14:03:51.708Z</time></trkpt><trkpt lat="45.623485" lon="11.2555917"><ele>826.0</ele><time>2026-04-19T14:03:54.709Z</time></trkpt><trkpt lat="45.6235367" lon="11.2555"><ele>825.9999999999999</ele><time>2026-04-19T14:03:57.708Z</time></trkpt><trkpt lat="45.623595" lon="11.2554017"><ele>826.0</ele><time>2026-04-19T14:04:00.708Z</time></trkpt><trkpt lat="45.6236717" lon="11.2552883"><ele>825.9999999999999</ele><time>2026-04-19T14:04:02.708Z</time></trkpt><trkpt lat="45.6237367" lon="11.2551733"><ele>826.0</ele><time>2026-04-19T14:04:04.708Z</time></trkpt><trkpt lat="45.62379" lon="11.2550733"><ele>826.0</ele><time>2026-04-19T14:04:06.709Z</time></trkpt><trkpt lat="45.6238533" lon="11.2549633"><ele>826.0</ele><time>2026-04-19T14:04:08.708Z</time></trkpt><trkpt lat="45.6239117" lon="11.2548633"><ele>825.9999999999999</ele><time>2026-04-19T14:04:10.709Z</time></trkpt><trkpt lat="45.6239633" lon="11.2548083"><ele>826.0</ele><time>2026-04-19T14:04:12.708Z</time></trkpt><trkpt lat="45.6240383" lon="11.2548083"><ele>825.9999999999999</ele><time>2026-04-19T14:04:14.709Z</time></trkpt><trkpt lat="45.624135" lon="11.2548283"><ele>826.0</ele><time>2026-04-19T14:04:16.709Z</time></trkpt><trkpt lat="45.6242083" lon="11.2547867"><ele>826.0</ele><time>2026-04-19T14:04:18.709Z</time></trkpt><trkpt lat="45.6242567" lon="11.2546833"><ele>826.0</ele><time>2026-04-19T14:04:21.708Z</time></trkpt><trkpt lat="45.6242567" lon="11.2545667"><ele>825.9999999999999</ele><time>2026-04-19T14:04:23.708Z</time></trkpt><trkpt lat="45.624265" lon="11.2544317"><ele>826.0</ele><time>2026-04-19T14:04:25.709Z</time></trkpt><trkpt lat="45.6242683" lon="11.25433"><ele>823.5714285714286</ele><time>2026-04-19T14:04:50.708Z</time></trkpt><trkpt lat="45.6242367" lon="11.25423"><ele>821.1428571428571</ele><time>2026-04-19T14:05:05.708Z</time></trkpt><trkpt lat="45.6242167" lon="11.2541367"><ele>818.7142857142858</ele><time>2026-04-19T14:05:09.709Z</time></trkpt><trkpt lat="45.6241767" lon="11.2540483"><ele>816.2857142857142</ele><time>2026-04-19T14:05:12.708Z</time></trkpt><trkpt lat="45.6241033" lon="11.25405"><ele>813.8571428571429</ele><time>2026-04-19T14:05:17.709Z</time></trkpt><trkpt lat="45.62404" lon="11.25412"><ele>811.4285714285714</ele><time>2026-04-19T14:05:24.709Z</time></trkpt><trkpt lat="45.623975" lon="11.254175"><ele>809.0</ele><time>2026-04-19T14:05:27.709Z</time></trkpt><trkpt lat="45.62405" lon="11.25411"><ele>809.0000000000001</ele><time>2026-04-19T14:05:49.709Z</time></trkpt><trkpt lat="45.62411" lon="11.2540367"><ele>809.0</ele><time>2026-04-19T14:05:51.709Z</time></trkpt><trkpt lat="45.6241817" lon="11.2540167"><ele>809.0</ele><time>2026-04-19T14:05:54.708Z</time></trkpt><trkpt lat="45.6242283" lon="11.2541333"><ele>809.0</ele><time>2026-04-19T14:05:57.708Z</time></trkpt><trkpt lat="45.6242383" lon="11.2542417"><ele>809.0000000000001</ele><time>2026-04-19T14:06:00.709Z</time></trkpt><trkpt lat="45.6242317" lon="11.2543517"><ele>809.0</ele><time>2026-04-19T14:06:03.709Z</time></trkpt><trkpt lat="45.62429" lon="11.254275"><ele>809.0</ele><time>2026-04-19T14:06:15.708Z</time></trkpt><trkpt lat="45.6243283" lon="11.2542"><ele>809.0</ele><time>2026-04-19T14:06:17.708Z</time></trkpt><trkpt lat="45.6244183" lon="11.25416"><ele>809.0</ele><time>2026-04-19T14:06:20.708Z</time></trkpt><trkpt lat="45.6244833" lon="11.254155"><ele>809.0</ele><time>2026-04-19T14:06:22.709Z</time></trkpt><trkpt lat="45.6245683" lon="11.254175"><ele>809.0</ele><time>2026-04-19T14:06:25.709Z</time></trkpt><trkpt lat="45.6246183" lon="11.25423"><ele>809.0</ele><time>2026-04-19T14:06:29.709Z</time></trkpt><trkpt lat="45.624675" lon="11.2542967"><ele>809.0</ele><time>2026-04-19T14:06:32.709Z</time></trkpt><trkpt lat="45.6247533" lon="11.2542717"><ele>809.1428571428571</ele><time>2026-04-19T14:06:52.709Z</time></trkpt><trkpt lat="45.6248067" lon="11.2541733"><ele>809.2857142857143</ele><time>2026-04-19T14:06:55.709Z</time></trkpt><trkpt lat="45.6248583" lon="11.2540983"><ele>809.4285714285713</ele><time>2026-04-19T14:06:57.709Z</time></trkpt><trkpt lat="45.62492" lon="11.2540267"><ele>809.5714285714286</ele><time>2026-04-19T14:06:59.709Z</time></trkpt><trkpt lat="45.6249733" lon="11.2539517"><ele>809.7142857142857</ele><time>2026-04-19T14:07:01.709Z</time></trkpt><trkpt lat="45.62502" lon="11.2538817"><ele>809.8571428571428</ele><time>2026-04-19T14:07:03.708Z</time></trkpt><trkpt lat="45.6250683" lon="11.2538233"><ele>810.0</ele><time>2026-04-19T14:07:05.709Z</time></trkpt><trkpt lat="45.6251333" lon="11.2537567"><ele>810.0</ele><time>2026-04-19T14:07:07.709Z</time></trkpt><trkpt lat="45.625195" lon="11.2537167"><ele>810.0</ele><time>2026-04-19T14:07:10.708Z</time></trkpt><trkpt lat="45.6252433" lon="11.2536467"><ele>810.0</ele><time>2026-04-19T14:07:18.709Z</time></trkpt><trkpt lat="45.625275" lon="11.25356"><ele>810.0</ele><time>2026-04-19T14:07:23.709Z</time></trkpt><trkpt lat="45.6253533" lon="11.2535117"><ele>810.0</ele><time>2026-04-19T14:08:06.708Z</time></trkpt><trkpt lat="45.6253017" lon="11.2534017"><ele>810.0</ele><time>2026-04-19T14:08:07.709Z</time></trkpt><trkpt lat="45.6252433" lon="11.2533383"><ele>810.0</ele><time>2026-04-19T14:08:15.708Z</time></trkpt><trkpt lat="45.6252233" lon="11.2532483"><ele>810.0</ele><time>2026-04-19T14:08:26.709Z</time></trkpt><trkpt lat="45.62521" lon="11.253145"><ele>810.0</ele><time>2026-04-19T14:08:30.708Z</time></trkpt><trkpt lat="45.625185" lon="11.25305"><ele>810.0</ele><time>2026-04-19T14:08:32.709Z</time></trkpt><trkpt lat="45.62516" lon="11.252945"><ele>810.0</ele><time>2026-04-19T14:08:34.709Z</time></trkpt><trkpt lat="45.62516" lon="11.2528287"><ele>810.0</ele><time>2026-04-19T14:08:37.708Z</time></trkpt><trkpt lat="45.6251715" lon="11.2527146"><ele>810.5</ele><time>2026-04-19T14:08:39.792Z</time></trkpt><trkpt lat="45.6252048" lon="11.2525907"><ele>811.0</ele><time>2026-04-19T14:08:41.72Z</time></trkpt><trkpt lat="45.6252345" lon="11.2524862"><ele>811.5</ele><time>2026-04-19T14:08:43.736Z</time></trkpt><trkpt lat="45.6252786" lon="11.2523799"><ele>812.0</ele><time>2026-04-19T14:08:46.709Z</time></trkpt><trkpt lat="45.6253471" lon="11.252278"><ele>812.5</ele><time>2026-04-19T14:08:49.708Z</time></trkpt><trkpt lat="45.6253863" lon="11.2521948"><ele>813.0</ele><time>2026-04-19T14:08:51.73Z</time></trkpt><trkpt lat="45.6254358" lon="11.2521186"><ele>813.0</ele><time>2026-04-19T14:08:53.712Z</time></trkpt><trkpt lat="45.6254723" lon="11.2520386"><ele>813.0</ele><time>2026-04-19T14:08:55.727Z</time></trkpt><trkpt lat="45.6255223" lon="11.251954"><ele>813.0</ele><time>2026-04-19T14:08:58.628Z</time></trkpt><trkpt lat="45.6255633" lon="11.2518617"><ele>813.0</ele><time>2026-04-19T14:09:04.708Z</time></trkpt><trkpt lat="45.6255683" lon="11.2517633"><ele>813.0</ele><time>2026-04-19T14:09:08.708Z</time></trkpt><trkpt lat="45.6256033" lon="11.2516783"><ele>813.0</ele><time>2026-04-19T14:09:16.708Z</time></trkpt><trkpt lat="45.6256667" lon="11.2516517"><ele>813.0</ele><time>2026-04-19T14:09:18.708Z</time></trkpt><trkpt lat="45.62573" lon="11.2516067"><ele>813.0</ele><time>2026-04-19T14:09:20.709Z</time></trkpt><trkpt lat="45.6257967" lon="11.251555"><ele>813.0</ele><time>2026-04-19T14:09:22.709Z</time></trkpt><trkpt lat="45.6258717" lon="11.2515117"><ele>813.0</ele><time>2026-04-19T14:09:24.708Z</time></trkpt><trkpt lat="45.6259367" lon="11.2515017"><ele>813.0</ele><time>2026-04-19T14:09:26.708Z</time></trkpt><trkpt lat="45.6260017" lon="11.251505"><ele>813.0</ele><time>2026-04-19T14:09:29.709Z</time></trkpt><trkpt lat="45.6260867" lon="11.2514733"><ele>813.0</ele><time>2026-04-19T14:09:31.709Z</time></trkpt><trkpt lat="45.6261817" lon="11.251475"><ele>815.6666666666666</ele><time>2026-04-19T14:09:33.708Z</time></trkpt><trkpt lat="45.62625" lon="11.251505"><ele>818.3333333333333</ele><time>2026-04-19T14:09:35.709Z</time></trkpt><trkpt lat="45.626285" lon="11.2516317"><ele>821.0</ele><time>2026-04-19T14:09:38.709Z</time></trkpt><trkpt lat="45.62631" lon="11.2517233"><ele>823.6666666666666</ele><time>2026-04-19T14:09:40.708Z</time></trkpt><trkpt lat="45.6263583" lon="11.2518033"><ele>826.3333333333333</ele><time>2026-04-19T14:09:42.709Z</time></trkpt><trkpt lat="45.6264233" lon="11.2518083"><ele>829.0</ele><time>2026-04-19T14:09:44.709Z</time></trkpt><trkpt lat="45.6264933" lon="11.2518517"><ele>828.9999999999999</ele><time>2026-04-19T14:09:51.708Z</time></trkpt><trkpt lat="45.6265383" lon="11.2519333"><ele>829.0</ele><time>2026-04-19T14:09:53.708Z</time></trkpt><trkpt lat="45.6264633" lon="11.2518317"><ele>829.0</ele><time>2026-04-19T14:10:06.709Z</time></trkpt><trkpt lat="45.6264067" lon="11.2517733"><ele>829.0</ele><time>2026-04-19T14:10:08.708Z</time></trkpt><trkpt lat="45.6264667" lon="11.2517"><ele>828.9999999999999</ele><time>2026-04-19T14:10:13.709Z</time></trkpt><trkpt lat="45.6265367" lon="11.25172"><ele>829.0</ele><time>2026-04-19T14:10:15.708Z</time></trkpt><trkpt lat="45.626605" lon="11.2517567"><ele>828.9999999999999</ele><time>2026-04-19T14:10:18.709Z</time></trkpt><trkpt lat="45.6266817" lon="11.251735"><ele>829.0</ele><time>2026-04-19T14:11:36.708Z</time></trkpt><trkpt lat="45.62675" lon="11.2517633"><ele>829.0</ele><time>2026-04-19T14:11:40.708Z</time></trkpt><trkpt lat="45.6268083" lon="11.2517283"><ele>829.0</ele><time>2026-04-19T14:11:44.708Z</time></trkpt><trkpt lat="45.6268983" lon="11.25174"><ele>828.9999999999999</ele><time>2026-04-19T14:11:47.708Z</time></trkpt><trkpt lat="45.6269883" lon="11.2517433"><ele>829.0</ele><time>2026-04-19T14:11:49.708Z</time></trkpt><trkpt lat="45.6270517" lon="11.25175"><ele>828.4999999999999</ele><time>2026-04-19T14:11:50.709Z</time></trkpt><trkpt lat="45.6271283" lon="11.2517517"><ele>828.0</ele><time>2026-04-19T14:11:51.708Z</time></trkpt><trkpt lat="45.6272067" lon="11.25175"><ele>827.5</ele><time>2026-04-19T14:11:52.709Z</time></trkpt><trkpt lat="45.627285" lon="11.2517467"><ele>827.0</ele><time>2026-04-19T14:11:53.709Z</time></trkpt><trkpt lat="45.62735" lon="11.2517367"><ele>826.4999999999999</ele><time>2026-04-19T14:11:54.709Z</time></trkpt><trkpt lat="45.6274233" lon="11.2517333"><ele>826.0</ele><time>2026-04-19T14:11:55.708Z</time></trkpt><trkpt lat="45.6275117" lon="11.2517317"><ele>825.9999999999999</ele><time>2026-04-19T14:11:56.709Z</time></trkpt><trkpt lat="45.6275933" lon="11.25174"><ele>826.0</ele><time>2026-04-19T14:11:57.708Z</time></trkpt><trkpt lat="45.6276567" lon="11.2517483"><ele>826.0</ele><time>2026-04-19T14:11:58.708Z</time></trkpt><trkpt lat="45.6277267" lon="11.25175"><ele>826.0</ele><time>2026-04-19T14:11:59.708Z</time></trkpt><trkpt lat="45.6277933" lon="11.2517467"><ele>825.9999999999999</ele><time>2026-04-19T14:12:00.708Z</time></trkpt><trkpt lat="45.6278917" lon="11.251725"><ele>826.0</ele><time>2026-04-19T14:12:02.709Z</time></trkpt><trkpt lat="45.6279867" lon="11.2517217"><ele>825.6666666666666</ele><time>2026-04-19T14:12:04.709Z</time></trkpt><trkpt lat="45.6280633" lon="11.251735"><ele>825.3333333333333</ele><time>2026-04-19T14:12:06.708Z</time></trkpt><trkpt lat="45.628175" lon="11.25173"><ele>825.0</ele><time>2026-04-19T14:12:08.709Z</time></trkpt><trkpt lat="45.62825" lon="11.2517067"><ele>824.6666666666667</ele><time>2026-04-19T14:12:09.708Z</time></trkpt><trkpt lat="45.628325" lon="11.251685"><ele>824.3333333333334</ele><time>2026-04-19T14:12:10.709Z</time></trkpt><trkpt lat="45.6283933" lon="11.251665"><ele>824.0</ele><time>2026-04-19T14:12:11.709Z</time></trkpt><trkpt lat="45.6284733" lon="11.2516517"><ele>824.0000000000001</ele><time>2026-04-19T14:12:12.709Z</time></trkpt><trkpt lat="45.6285517" lon="11.251645"><ele>824.0</ele><time>2026-04-19T14:12:13.708Z</time></trkpt><trkpt lat="45.6286367" lon="11.2516333"><ele>824.0</ele><time>2026-04-19T14:12:14.708Z</time></trkpt><trkpt lat="45.62872" lon="11.2516183"><ele>824.0</ele><time>2026-04-19T14:12:15.709Z</time></trkpt><trkpt lat="45.6287967" lon="11.2516083"><ele>824.0000000000001</ele><time>2026-04-19T14:12:16.709Z</time></trkpt><trkpt lat="45.6288683" lon="11.2515967"><ele>824.0</ele><time>2026-04-19T14:12:17.709Z</time></trkpt><trkpt lat="45.628945" lon="11.25157"><ele>823.8333333333334</ele><time>2026-04-19T14:12:18.708Z</time></trkpt><trkpt lat="45.6290183" lon="11.2515433"><ele>823.6666666666667</ele><time>2026-04-19T14:12:19.709Z</time></trkpt><trkpt lat="45.6291033" lon="11.251515"><ele>823.5</ele><time>2026-04-19T14:12:20.709Z</time></trkpt><trkpt lat="45.6291867" lon="11.2514783"><ele>823.3333333333333</ele><time>2026-04-19T14:12:21.708Z</time></trkpt><trkpt lat="45.6292533" lon="11.251455"><ele>823.1666666666666</ele><time>2026-04-19T14:12:22.709Z</time></trkpt><trkpt lat="45.6293183" lon="11.2514467"><ele>823.0</ele><time>2026-04-19T14:12:23.709Z</time></trkpt><trkpt lat="45.6293883" lon="11.251455"><ele>822.9999999999999</ele><time>2026-04-19T14:12:24.708Z</time></trkpt><trkpt lat="45.6294833" lon="11.2515083"><ele>823.0</ele><time>2026-04-19T14:12:26.709Z</time></trkpt><trkpt lat="45.6295183" lon="11.2516083"><ele>823.0</ele><time>2026-04-19T14:12:29.709Z</time></trkpt><trkpt lat="45.62952" lon="11.2517"><ele>823.0</ele><time>2026-04-19T14:12:31.709Z</time></trkpt><trkpt lat="45.629505" lon="11.2518083"><ele>822.9999999999999</ele><time>2026-04-19T14:12:33.708Z</time></trkpt><trkpt lat="45.62948" lon="11.2519133"><ele>823.0</ele><time>2026-04-19T14:12:36.708Z</time></trkpt><trkpt lat="45.629455" lon="11.2520233"><ele>822.9999999999999</ele><time>2026-04-19T14:12:40.708Z</time></trkpt><trkpt lat="45.629415" lon="11.2521217"><ele>823.0</ele><time>2026-04-19T14:12:42.708Z</time></trkpt><trkpt lat="45.6293617" lon="11.2521983"><ele>823.0</ele><time>2026-04-19T14:12:44.708Z</time></trkpt><trkpt lat="45.6293017" lon="11.2522583"><ele>823.0</ele><time>2026-04-19T14:12:46.709Z</time></trkpt><trkpt lat="45.6293467" lon="11.2521867"><ele>822.9999999999999</ele><time>2026-04-19T14:12:56.708Z</time></trkpt><trkpt lat="45.6294133" lon="11.2520817"><ele>823.0</ele><time>2026-04-19T14:12:58.708Z</time></trkpt><trkpt lat="45.629465" lon="11.251975"><ele>823.5999999999999</ele><time>2026-04-19T14:13:00.708Z</time></trkpt><trkpt lat="45.6295333" lon="11.251855"><ele>824.1999999999999</ele><time>2026-04-19T14:13:02.708Z</time></trkpt><trkpt lat="45.6295967" lon="11.25172"><ele>824.8</ele><time>2026-04-19T14:13:04.708Z</time></trkpt><trkpt lat="45.6296467" lon="11.2515933"><ele>825.4</ele><time>2026-04-19T14:13:06.709Z</time></trkpt><trkpt lat="45.6297233" lon="11.25149"><ele>826.0</ele><time>2026-04-19T14:13:08.709Z</time></trkpt><trkpt lat="45.62981" lon="11.2514"><ele>826.0</ele><time>2026-04-19T14:13:10.708Z</time></trkpt><trkpt lat="45.6298983" lon="11.2513167"><ele>826.0</ele><time>2026-04-19T14:13:12.709Z</time></trkpt><trkpt lat="45.629985" lon="11.2512033"><ele>826.0</ele><time>2026-04-19T14:13:14.709Z</time></trkpt><trkpt lat="45.630075" lon="11.251095"><ele>826.0</ele><time>2026-04-19T14:13:16.708Z</time></trkpt><trkpt lat="45.6301767" lon="11.25102"><ele>830.1666666666666</ele><time>2026-04-19T14:13:18.708Z</time></trkpt><trkpt lat="45.6303083" lon="11.2509867"><ele>834.3333333333333</ele><time>2026-04-19T14:13:20.709Z</time></trkpt><trkpt lat="45.6303767" lon="11.250955"><ele>838.5</ele><time>2026-04-19T14:13:21.709Z</time></trkpt><trkpt lat="45.6304517" lon="11.2509267"><ele>842.6666666666667</ele><time>2026-04-19T14:13:22.709Z</time></trkpt><trkpt lat="45.6305233" lon="11.250895"><ele>846.8333333333334</ele><time>2026-04-19T14:13:23.708Z</time></trkpt><trkpt lat="45.6305967" lon="11.2508583"><ele>851.0</ele><time>2026-04-19T14:13:24.709Z</time></trkpt><trkpt lat="45.630665" lon="11.25081"><ele>851.0000000000001</ele><time>2026-04-19T14:13:25.708Z</time></trkpt><trkpt lat="45.630735" lon="11.2507583"><ele>851.0</ele><time>2026-04-19T14:13:26.709Z</time></trkpt><trkpt lat="45.6307983" lon="11.2507117"><ele>851.0</ele><time>2026-04-19T14:13:27.709Z</time></trkpt><trkpt lat="45.63088" lon="11.2506267"><ele>851.0</ele><time>2026-04-19T14:13:29.709Z</time></trkpt><trkpt lat="45.630895" lon="11.25053"><ele>851.0000000000001</ele><time>2026-04-19T14:13:31.708Z</time></trkpt><trkpt lat="45.63088" lon="11.2504017"><ele>851.0</ele><time>2026-04-19T14:13:34.709Z</time></trkpt><trkpt lat="45.63087" lon="11.2502983"><ele>848.4</ele><time>2026-04-19T14:13:36.708Z</time></trkpt><trkpt lat="45.6308283" lon="11.250175"><ele>845.8</ele><time>2026-04-19T14:13:38.709Z</time></trkpt><trkpt lat="45.6307833" lon="11.2500367"><ele>843.1999999999999</ele><time>2026-04-19T14:13:40.709Z</time></trkpt><trkpt lat="45.6307367" lon="11.249915"><ele>840.5999999999999</ele><time>2026-04-19T14:13:42.709Z</time></trkpt><trkpt lat="45.6307067" lon="11.249775"><ele>838.0</ele><time>2026-04-19T14:13:44.708Z</time></trkpt><trkpt lat="45.6306783" lon="11.2496067"><ele>837.1666666666666</ele><time>2026-04-19T14:13:46.708Z</time></trkpt><trkpt lat="45.6306533" lon="11.2494317"><ele>836.3333333333333</ele><time>2026-04-19T14:13:48.709Z</time></trkpt><trkpt lat="45.6306383" lon="11.24934"><ele>835.5</ele><time>2026-04-19T14:13:49.709Z</time></trkpt><trkpt lat="45.630605" lon="11.2492033"><ele>834.6666666666667</ele><time>2026-04-19T14:13:51.709Z</time></trkpt><trkpt lat="45.6305783" lon="11.2491067"><ele>833.8333333333334</ele><time>2026-04-19T14:13:53.708Z</time></trkpt><trkpt lat="45.6305233" lon="11.2490367"><ele>833.0</ele><time>2026-04-19T14:13:56.708Z</time></trkpt><trkpt lat="45.630445" lon="11.249015"><ele>833.0</ele><time>2026-04-19T14:13:59.709Z</time></trkpt><trkpt lat="45.6303583" lon="11.249"><ele>833.0</ele><time>2026-04-19T14:14:01.708Z</time></trkpt><trkpt lat="45.6302517" lon="11.24897"><ele>833.0</ele><time>2026-04-19T14:14:03.709Z</time></trkpt><trkpt lat="45.6301883" lon="11.2489417"><ele>833.0</ele><time>2026-04-19T14:14:04.708Z</time></trkpt><trkpt lat="45.630065" lon="11.2488783"><ele>833.0</ele><time>2026-04-19T14:14:06.708Z</time></trkpt><trkpt lat="45.6299983" lon="11.2488517"><ele>830.5000000000001</ele><time>2026-04-19T14:14:07.709Z</time></trkpt><trkpt lat="45.6299333" lon="11.2488283"><ele>828.0</ele><time>2026-04-19T14:14:08.708Z</time></trkpt><trkpt lat="45.6298717" lon="11.2488083"><ele>825.5</ele><time>2026-04-19T14:14:09.709Z</time></trkpt><trkpt lat="45.6297517" lon="11.248765"><ele>823.0</ele><time>2026-04-19T14:14:11.708Z</time></trkpt><trkpt lat="45.629685" lon="11.24875"><ele>820.5000000000001</ele><time>2026-04-19T14:14:12.709Z</time></trkpt><trkpt lat="45.6296217" lon="11.2487417"><ele>818.0</ele><time>2026-04-19T14:14:13.708Z</time></trkpt><trkpt lat="45.6295283" lon="11.248715"><ele>818.0000000000001</ele><time>2026-04-19T14:14:15.709Z</time></trkpt><trkpt lat="45.62947" lon="11.2486717"><ele>818.0</ele><time>2026-04-19T14:14:18.709Z</time></trkpt><trkpt lat="45.62941" lon="11.2486233"><ele>818.0</ele><time>2026-04-19T14:14:21.709Z</time></trkpt><trkpt lat="45.62933" lon="11.2485983"><ele>818.0</ele><time>2026-04-19T14:17:53.708Z</time></trkpt><trkpt lat="45.6294067" lon="11.248585"><ele>818.0000000000001</ele><time>2026-04-19T14:17:57.709Z</time></trkpt><trkpt lat="45.629485" lon="11.2486483"><ele>818.0</ele><time>2026-04-19T14:18:00.709Z</time></trkpt><trkpt lat="45.6295517" lon="11.2487033"><ele>818.0</ele><time>2026-04-19T14:18:02.708Z</time></trkpt><trkpt lat="45.62966" lon="11.2487283"><ele>818.0</ele><time>2026-04-19T14:18:04.708Z</time></trkpt><trkpt lat="45.629765" lon="11.24875"><ele>818.0</ele><time>2026-04-19T14:18:06.709Z</time></trkpt><trkpt lat="45.6298583" lon="11.24878"><ele>818.0</ele><time>2026-04-19T14:18:08.709Z</time></trkpt><trkpt lat="45.6299383" lon="11.2488283"><ele>818.0</ele><time>2026-04-19T14:18:10.709Z</time></trkpt><trkpt lat="45.6300317" lon="11.2488667"><ele>818.0</ele><time>2026-04-19T14:18:12.709Z</time></trkpt><trkpt lat="45.6301317" lon="11.24889"><ele>818.0</ele><time>2026-04-19T14:18:14.708Z</time></trkpt><trkpt lat="45.6302317" lon="11.2489333"><ele>818.0</ele><time>2026-04-19T14:18:16.709Z</time></trkpt><trkpt lat="45.630335" lon="11.248965"><ele>818.0</ele><time>2026-04-19T14:18:18.708Z</time></trkpt><trkpt lat="45.6304367" lon="11.24898"><ele>818.0</ele><time>2026-04-19T14:18:20.708Z</time></trkpt><trkpt lat="45.63052" lon="11.2490117"><ele>820.5000000000001</ele><time>2026-04-19T14:18:22.709Z</time></trkpt><trkpt lat="45.63057" lon="11.2490917"><ele>823.0</ele><time>2026-04-19T14:18:25.709Z</time></trkpt><trkpt lat="45.63058" lon="11.2491817"><ele>825.5</ele><time>2026-04-19T14:18:27.708Z</time></trkpt><trkpt lat="45.6306117" lon="11.2493183"><ele>828.0</ele><time>2026-04-19T14:18:30.708Z</time></trkpt><trkpt lat="45.630635" lon="11.24941"><ele>830.5000000000001</ele><time>2026-04-19T14:18:32.709Z</time></trkpt><trkpt lat="45.630665" lon="11.2495583"><ele>833.0</ele><time>2026-04-19T14:18:34.708Z</time></trkpt><trkpt lat="45.63069" lon="11.24971"><ele>834.0</ele><time>2026-04-19T14:18:36.708Z</time></trkpt><trkpt lat="45.63071" lon="11.2498017"><ele>835.0</ele><time>2026-04-19T14:18:37.708Z</time></trkpt><trkpt lat="45.630755" lon="11.24997"><ele>836.0</ele><time>2026-04-19T14:18:39.709Z</time></trkpt><trkpt lat="45.630815" lon="11.25013"><ele>837.0</ele><time>2026-04-19T14:18:41.709Z</time></trkpt><trkpt lat="45.6308517" lon="11.2502933"><ele>838.0</ele><time>2026-04-19T14:18:43.709Z</time></trkpt><trkpt lat="45.6308783" lon="11.2504067"><ele>838.0</ele><time>2026-04-19T14:18:45.709Z</time></trkpt><trkpt lat="45.6309383" lon="11.2505517"><ele>838.0</ele><time>2026-04-19T14:18:56.708Z</time></trkpt><trkpt lat="45.631" lon="11.2506233"><ele>838.0</ele><time>2026-04-19T14:18:58.709Z</time></trkpt><trkpt lat="45.631075" lon="11.2506783"><ele>838.0</ele><time>2026-04-19T14:19:00.708Z</time></trkpt><trkpt lat="45.6311583" lon="11.2507483"><ele>838.0</ele><time>2026-04-19T14:19:02.708Z</time></trkpt><trkpt lat="45.63125" lon="11.2507867"><ele>839.4999999999999</ele><time>2026-04-19T14:19:04.708Z</time></trkpt><trkpt lat="45.6313417" lon="11.2508317"><ele>841.0</ele><time>2026-04-19T14:19:06.709Z</time></trkpt><trkpt lat="45.6314217" lon="11.25087"><ele>842.5</ele><time>2026-04-19T14:19:08.709Z</time></trkpt><trkpt lat="45.6314917" lon="11.2509433"><ele>844.0</ele><time>2026-04-19T14:19:10.708Z</time></trkpt><trkpt lat="45.6315433" lon="11.251005"><ele>845.4999999999999</ele><time>2026-04-19T14:19:11.709Z</time></trkpt><trkpt lat="45.631595" lon="11.25111"><ele>847.0</ele><time>2026-04-19T14:19:13.708Z</time></trkpt><trkpt lat="45.631635" lon="11.2512033"><ele>846.9999999999999</ele><time>2026-04-19T14:19:16.709Z</time></trkpt><trkpt lat="45.631685" lon="11.2512683"><ele>847.0</ele><time>2026-04-19T14:19:29.709Z</time></trkpt><trkpt lat="45.6317358" lon="11.2513347"><ele>847.0</ele><time>2026-04-19T14:20:08.709Z</time></trkpt><trkpt lat="45.6317672" lon="11.2514363"><ele>847.0</ele><time>2026-04-19T14:20:12.738Z</time></trkpt><trkpt lat="45.6317508" lon="11.2515277"><ele>846.9999999999999</ele><time>2026-04-19T14:20:13.709Z</time></trkpt><trkpt lat="45.6317003" lon="11.2516669"><ele>847.0</ele><time>2026-04-19T14:20:15.709Z</time></trkpt><trkpt lat="45.6316657" lon="11.2517645"><ele>850.4000000000001</ele><time>2026-04-19T14:20:17.707Z</time></trkpt><trkpt lat="45.6316261" lon="11.251854"><ele>853.8000000000001</ele><time>2026-04-19T14:20:19.749Z</time></trkpt><trkpt lat="45.6316291" lon="11.2520169"><ele>857.2</ele><time>2026-04-19T14:20:20.65Z</time></trkpt><trkpt lat="45.6316258" lon="11.2521437"><ele>860.6</ele><time>2026-04-19T14:20:21.759Z</time></trkpt><trkpt lat="45.6315962" lon="11.2523061"><ele>864.0</ele><time>2026-04-19T14:20:23.774Z</time></trkpt><trkpt lat="45.6315476" lon="11.2524528"><ele>864.0</ele><time>2026-04-19T14:20:25.791Z</time></trkpt><trkpt lat="45.6314849" lon="11.2525411"><ele>864.0</ele><time>2026-04-19T14:20:27.708Z</time></trkpt><trkpt lat="45.63142" lon="11.2525367"><ele>864.0</ele><time>2026-04-19T14:20:29.709Z</time></trkpt><trkpt lat="45.631365" lon="11.252465"><ele>864.0</ele><time>2026-04-19T14:20:31.708Z</time></trkpt><trkpt lat="45.6313133" lon="11.252365"><ele>864.0</ele><time>2026-04-19T14:20:33.708Z</time></trkpt><trkpt lat="45.6312467" lon="11.25226"><ele>864.0</ele><time>2026-04-19T14:20:35.709Z</time></trkpt><trkpt lat="45.63116" lon="11.25217"><ele>864.0</ele><time>2026-04-19T14:20:37.709Z</time></trkpt><trkpt lat="45.6310967" lon="11.2521383"><ele>864.0</ele><time>2026-04-19T14:20:39.709Z</time></trkpt><trkpt lat="45.63098" lon="11.2521033"><ele>864.0</ele><time>2026-04-19T14:20:57.709Z</time></trkpt><trkpt lat="45.6310567" lon="11.2521217"><ele>864.0</ele><time>2026-04-19T14:21:14.709Z</time></trkpt><trkpt lat="45.6311317" lon="11.2521717"><ele>864.0</ele><time>2026-04-19T14:21:17.709Z</time></trkpt><trkpt lat="45.6312233" lon="11.2522367"><ele>864.0</ele><time>2026-04-19T14:21:46.708Z</time></trkpt><trkpt lat="45.63128" lon="11.2523183"><ele>865.1666666666666</ele><time>2026-04-19T14:21:49.708Z</time></trkpt><trkpt lat="45.6313183" lon="11.25241"><ele>866.3333333333333</ele><time>2026-04-19T14:21:51.709Z</time></trkpt><trkpt lat="45.63136" lon="11.2525"><ele>867.5</ele><time>2026-04-19T14:21:53.708Z</time></trkpt><trkpt lat="45.6313983" lon="11.2525717"><ele>868.6666666666666</ele><time>2026-04-19T14:21:55.709Z</time></trkpt><trkpt lat="45.6314717" lon="11.2526117"><ele>869.8333333333333</ele><time>2026-04-19T14:21:58.708Z</time></trkpt><trkpt lat="45.6315367" lon="11.2525217"><ele>871.0</ele><time>2026-04-19T14:22:01.708Z</time></trkpt><trkpt lat="45.6315667" lon="11.252405"><ele>870.9999999999999</ele><time>2026-04-19T14:22:03.709Z</time></trkpt><trkpt lat="45.6315867" lon="11.2523"><ele>871.0</ele><time>2026-04-19T14:22:05.708Z</time></trkpt><trkpt lat="45.6316167" lon="11.252195"><ele>871.0</ele><time>2026-04-19T14:22:07.709Z</time></trkpt><trkpt lat="45.6316317" lon="11.2521"><ele>871.0</ele><time>2026-04-19T14:22:09.709Z</time></trkpt><trkpt lat="45.6316483" lon="11.25201"><ele>870.9999999999999</ele><time>2026-04-19T14:22:11.708Z</time></trkpt><trkpt lat="45.6316617" lon="11.2518883"><ele>871.0</ele><time>2026-04-19T14:22:13.709Z</time></trkpt><trkpt lat="45.6316783" lon="11.2517767"><ele>869.8333333333333</ele><time>2026-04-19T14:22:15.708Z</time></trkpt><trkpt lat="45.6316933" lon="11.2516517"><ele>868.6666666666666</ele><time>2026-04-19T14:22:17.708Z</time></trkpt><trkpt lat="45.6317033" lon="11.25153"><ele>867.5</ele><time>2026-04-19T14:22:19.709Z</time></trkpt><trkpt lat="45.6317117" lon="11.2514333"><ele>866.3333333333333</ele><time>2026-04-19T14:22:21.709Z</time></trkpt><trkpt lat="45.6317067" lon="11.2513383"><ele>865.1666666666666</ele><time>2026-04-19T14:22:23.708Z</time></trkpt><trkpt lat="45.6316917" lon="11.2512417"><ele>864.0</ele><time>2026-04-19T14:22:25.708Z</time></trkpt><trkpt lat="45.6316467" lon="11.25114"><ele>861.1666666666666</ele><time>2026-04-19T14:22:27.709Z</time></trkpt><trkpt lat="45.6315883" lon="11.2510467"><ele>858.3333333333333</ele><time>2026-04-19T14:22:30.709Z</time></trkpt><trkpt lat="45.631495" lon="11.25102"><ele>855.5</ele><time>2026-04-19T14:22:33.709Z</time></trkpt><trkpt lat="45.631435" lon="11.2509917"><ele>852.6666666666666</ele><time>2026-04-19T14:22:35.709Z</time></trkpt><trkpt lat="45.6313717" lon="11.2509617"><ele>849.8333333333333</ele><time>2026-04-19T14:22:37.708Z</time></trkpt><trkpt lat="45.6312883" lon="11.2509367"><ele>847.0</ele><time>2026-04-19T14:22:39.709Z</time></trkpt><trkpt lat="45.6312167" lon="11.2509017"><ele>846.9999999999999</ele><time>2026-04-19T14:22:41.709Z</time></trkpt><trkpt lat="45.6311433" lon="11.25085"><ele>847.0</ele><time>2026-04-19T14:22:43.708Z</time></trkpt><trkpt lat="45.6310683" lon="11.2507617"><ele>847.0</ele><time>2026-04-19T14:22:45.709Z</time></trkpt><trkpt lat="45.63101" lon="11.2506433"><ele>847.0</ele><time>2026-04-19T14:22:47.709Z</time></trkpt><trkpt lat="45.6309717" lon="11.2505533"><ele>846.9999999999999</ele><time>2026-04-19T14:22:49.709Z</time></trkpt><trkpt lat="45.63091" lon="11.2504983"><ele>847.0</ele><time>2026-04-19T14:22:52.709Z</time></trkpt><trkpt lat="45.63084" lon="11.250585"><ele>847.8</ele><time>2026-04-19T14:22:58.708Z</time></trkpt><trkpt lat="45.6307667" lon="11.2506567"><ele>848.6</ele><time>2026-04-19T14:23:00.709Z</time></trkpt><trkpt lat="45.6306783" lon="11.2507117"><ele>849.4</ele><time>2026-04-19T14:23:02.709Z</time></trkpt><trkpt lat="45.6305783" lon="11.250765"><ele>850.1999999999999</ele><time>2026-04-19T14:23:04.709Z</time></trkpt><trkpt lat="45.63047" lon="11.2508183"><ele>851.0</ele><time>2026-04-19T14:23:06.709Z</time></trkpt><trkpt lat="45.630365" lon="11.2508867"><ele>846.0</ele><time>2026-04-19T14:23:08.708Z</time></trkpt><trkpt lat="45.6302567" lon="11.25094"><ele>841.0</ele><time>2026-04-19T14:23:10.709Z</time></trkpt><trkpt lat="45.6301683" lon="11.25098"><ele>836.0</ele><time>2026-04-19T14:23:12.709Z</time></trkpt><trkpt lat="45.6300617" lon="11.2511017"><ele>831.0</ele><time>2026-04-19T14:23:14.709Z</time></trkpt><trkpt lat="45.6299967" lon="11.251195"><ele>826.0</ele><time>2026-04-19T14:23:15.709Z</time></trkpt><trkpt lat="45.629945" lon="11.2512767"><ele>826.0</ele><time>2026-04-19T14:23:16.709Z</time></trkpt><trkpt lat="45.6298883" lon="11.25134"><ele>826.0</ele><time>2026-04-19T14:23:17.709Z</time></trkpt><trkpt lat="45.6298367" lon="11.2513917"><ele>826.0</ele><time>2026-04-19T14:23:18.708Z</time></trkpt><trkpt lat="45.629735" lon="11.2514883"><ele>826.0</ele><time>2026-04-19T14:23:20.709Z</time></trkpt><trkpt lat="45.6296583" lon="11.2515933"><ele>826.0</ele><time>2026-04-19T14:23:22.709Z</time></trkpt><trkpt lat="45.6295883" lon="11.2517283"><ele>826.0</ele><time>2026-04-19T14:23:24.708Z</time></trkpt><trkpt lat="45.62955" lon="11.2518167"><ele>826.0</ele><time>2026-04-19T14:23:26.708Z</time></trkpt><trkpt lat="45.6295133" lon="11.2518983"><ele>826.0</ele><time>2026-04-19T14:23:29.709Z</time></trkpt><trkpt lat="45.6295233" lon="11.251785"><ele>826.0</ele><time>2026-04-19T14:23:42.708Z</time></trkpt><trkpt lat="45.6295317" lon="11.2516783"><ele>826.0</ele><time>2026-04-19T14:23:45.709Z</time></trkpt><trkpt lat="45.6295333" lon="11.25157"><ele>826.0</ele><time>2026-04-19T14:23:48.709Z</time></trkpt><trkpt lat="45.6295683" lon="11.25149"><ele>826.0</ele><time>2026-04-19T14:23:51.708Z</time></trkpt><trkpt lat="45.6296033" lon="11.2514017"><ele>825.9999999999999</ele><time>2026-04-19T14:23:54.708Z</time></trkpt><trkpt lat="45.62966" lon="11.25131"><ele>826.0</ele><time>2026-04-19T14:23:57.708Z</time></trkpt><trkpt lat="45.6297117" lon="11.2512517"><ele>826.0</ele><time>2026-04-19T14:23:59.708Z</time></trkpt><trkpt lat="45.6297733" lon="11.251185"><ele>826.0</ele><time>2026-04-19T14:24:01.708Z</time></trkpt><trkpt lat="45.6298367" lon="11.2511033"><ele>825.9999999999999</ele><time>2026-04-19T14:24:04.709Z</time></trkpt><trkpt lat="45.6298883" lon="11.2510133"><ele>826.0</ele><time>2026-04-19T14:24:07.708Z</time></trkpt><trkpt lat="45.6299217" lon="11.2509367"><ele>826.0</ele><time>2026-04-19T14:24:09.708Z</time></trkpt><trkpt lat="45.6299467" lon="11.2508283"><ele>826.0</ele><time>2026-04-19T14:24:11.709Z</time></trkpt><trkpt lat="45.629955" lon="11.2506967"><ele>826.0</ele><time>2026-04-19T14:24:13.709Z</time></trkpt><trkpt lat="45.6299667" lon="11.2505467"><ele>826.0</ele><time>2026-04-19T14:24:15.708Z</time></trkpt><trkpt lat="45.6299617" lon="11.250425"><ele>826.0</ele><time>2026-04-19T14:24:17.709Z</time></trkpt><trkpt lat="45.6299317" lon="11.2502983"><ele>825.6666666666666</ele><time>2026-04-19T14:24:19.708Z</time></trkpt><trkpt lat="45.6299" lon="11.25018"><ele>825.3333333333333</ele><time>2026-04-19T14:24:21.708Z</time></trkpt><trkpt lat="45.6298583" lon="11.2500717"><ele>825.0</ele><time>2026-04-19T14:24:23.708Z</time></trkpt><trkpt lat="45.6297933" lon="11.2499683"><ele>824.6666666666667</ele><time>2026-04-19T14:24:25.708Z</time></trkpt><trkpt lat="45.62971" lon="11.2498667"><ele>824.3333333333334</ele><time>2026-04-19T14:24:27.708Z</time></trkpt><trkpt lat="45.6296617" lon="11.2498083"><ele>824.0</ele><time>2026-04-19T14:24:28.709Z</time></trkpt><trkpt lat="45.6296117" lon="11.2497517"><ele>824.0</ele><time>2026-04-19T14:24:29.708Z</time></trkpt><trkpt lat="45.6295617" lon="11.2496967"><ele>824.0</ele><time>2026-04-19T14:24:30.709Z</time></trkpt><trkpt lat="45.6294783" lon="11.2495817"><ele>824.0</ele><time>2026-04-19T14:24:32.709Z</time></trkpt><trkpt lat="45.629405" lon="11.2494967"><ele>824.0</ele><time>2026-04-19T14:24:34.708Z</time></trkpt><trkpt lat="45.6293167" lon="11.2494117"><ele>824.0</ele><time>2026-04-19T14:24:36.708Z</time></trkpt><trkpt lat="45.62923" lon="11.2493133"><ele>821.4000000000001</ele><time>2026-04-19T14:24:38.708Z</time></trkpt><trkpt lat="45.6291433" lon="11.24922"><ele>818.8</ele><time>2026-04-19T14:24:40.709Z</time></trkpt><trkpt lat="45.629055" lon="11.249135"><ele>816.2</ele><time>2026-04-19T14:24:42.709Z</time></trkpt><trkpt lat="45.6289783" lon="11.2490183"><ele>813.5999999999999</ele><time>2026-04-19T14:24:44.708Z</time></trkpt><trkpt lat="45.6289067" lon="11.2488883"><ele>811.0</ele><time>2026-04-19T14:24:46.708Z</time></trkpt><trkpt lat="45.6288633" lon="11.2488117"><ele>810.9999999999999</ele><time>2026-04-19T14:24:47.708Z</time></trkpt><trkpt lat="45.6288167" lon="11.2487183"><ele>811.0</ele><time>2026-04-19T14:24:48.708Z</time></trkpt><trkpt lat="45.6287783" lon="11.2486383"><ele>811.0</ele><time>2026-04-19T14:24:49.709Z</time></trkpt><trkpt lat="45.6287283" lon="11.2485133"><ele>811.0</ele><time>2026-04-19T14:24:51.708Z</time></trkpt><trkpt lat="45.6287183" lon="11.24839"><ele>810.9999999999999</ele><time>2026-04-19T14:24:53.709Z</time></trkpt><trkpt lat="45.628755" lon="11.2482817"><ele>811.0</ele><time>2026-04-19T14:24:55.708Z</time></trkpt><trkpt lat="45.6288367" lon="11.24816"><ele>808.4999999999999</ele><time>2026-04-19T14:24:57.709Z</time></trkpt><trkpt lat="45.6288967" lon="11.2480917"><ele>806.0</ele><time>2026-04-19T14:24:58.708Z</time></trkpt><trkpt lat="45.628955" lon="11.248025"><ele>803.5</ele><time>2026-04-19T14:24:59.708Z</time></trkpt><trkpt lat="45.6290083" lon="11.2479717"><ele>801.0</ele><time>2026-04-19T14:25:00.708Z</time></trkpt><trkpt lat="45.6290967" lon="11.2478917"><ele>798.4999999999999</ele><time>2026-04-19T14:25:02.708Z</time></trkpt><trkpt lat="45.62919" lon="11.2478417"><ele>796.0</ele><time>2026-04-19T14:25:04.709Z</time></trkpt><trkpt lat="45.6292867" lon="11.2478283"><ele>796.0</ele><time>2026-04-19T14:25:06.709Z</time></trkpt><trkpt lat="45.62939" lon="11.2478167"><ele>796.0</ele><time>2026-04-19T14:25:08.709Z</time></trkpt><trkpt lat="45.629485" lon="11.2477533"><ele>796.0</ele><time>2026-04-19T14:25:10.708Z</time></trkpt><trkpt lat="45.6295717" lon="11.2476633"><ele>796.0</ele><time>2026-04-19T14:25:12.709Z</time></trkpt><trkpt lat="45.6296417" lon="11.2475733"><ele>796.0</ele><time>2026-04-19T14:25:14.708Z</time></trkpt><trkpt lat="45.6296783" lon="11.247455"><ele>797.3333333333333</ele><time>2026-04-19T14:25:16.708Z</time></trkpt><trkpt lat="45.6297217" lon="11.24737"><ele>798.6666666666666</ele><time>2026-04-19T14:25:18.709Z</time></trkpt><trkpt lat="45.62977" lon="11.2472867"><ele>800.0</ele><time>2026-04-19T14:25:20.709Z</time></trkpt><trkpt lat="45.6297933" lon="11.247185"><ele>801.3333333333333</ele><time>2026-04-19T14:25:22.709Z</time></trkpt><trkpt lat="45.6298" lon="11.24709"><ele>802.6666666666666</ele><time>2026-04-19T14:25:24.708Z</time></trkpt><trkpt lat="45.6298133" lon="11.2469683"><ele>804.0</ele><time>2026-04-19T14:25:26.709Z</time></trkpt><trkpt lat="45.6298433" lon="11.2468667"><ele>804.0</ele><time>2026-04-19T14:25:28.709Z</time></trkpt><trkpt lat="45.6299033" lon="11.2467833"><ele>804.0</ele><time>2026-04-19T14:25:30.709Z</time></trkpt><trkpt lat="45.6299583" lon="11.2467367"><ele>804.0</ele><time>2026-04-19T14:25:32.709Z</time></trkpt><trkpt lat="45.6300133" lon="11.24669"><ele>804.0</ele><time>2026-04-19T14:25:42.709Z</time></trkpt><trkpt lat="45.6300783" lon="11.2466467"><ele>804.0</ele><time>2026-04-19T14:25:43.708Z</time></trkpt><trkpt lat="45.6301633" lon="11.2465417"><ele>804.0</ele><time>2026-04-19T14:25:50.709Z</time></trkpt><trkpt lat="45.630215" lon="11.2464817"><ele>802.2857142857142</ele><time>2026-04-19T14:25:52.708Z</time></trkpt><trkpt lat="45.63028" lon="11.24641"><ele>800.5714285714287</ele><time>2026-04-19T14:25:54.708Z</time></trkpt><trkpt lat="45.6303367" lon="11.24636"><ele>798.8571428571429</ele><time>2026-04-19T14:25:56.709Z</time></trkpt><trkpt lat="45.6303817" lon="11.246275"><ele>797.1428571428571</ele><time>2026-04-19T14:25:59.708Z</time></trkpt><trkpt lat="45.630425" lon="11.2462033"><ele>795.4285714285713</ele><time>2026-04-19T14:26:02.708Z</time></trkpt><trkpt lat="45.6304767" lon="11.2461433"><ele>793.7142857142858</ele><time>2026-04-19T14:26:05.708Z</time></trkpt><trkpt lat="45.63054" lon="11.2460983"><ele>792.0</ele><time>2026-04-19T14:26:08.709Z</time></trkpt><trkpt lat="45.6306133" lon="11.2460467"><ele>790.8333333333334</ele><time>2026-04-19T14:26:14.708Z</time></trkpt><trkpt lat="45.630675" lon="11.2460117"><ele>789.6666666666667</ele><time>2026-04-19T14:26:16.709Z</time></trkpt><trkpt lat="45.630755" lon="11.2459917"><ele>788.5</ele><time>2026-04-19T14:26:19.709Z</time></trkpt><trkpt lat="45.63082" lon="11.24596"><ele>787.3333333333334</ele><time>2026-04-19T14:26:22.709Z</time></trkpt><trkpt lat="45.6308717" lon="11.2458817"><ele>786.1666666666667</ele><time>2026-04-19T14:26:25.708Z</time></trkpt><trkpt lat="45.63092" lon="11.2457917"><ele>785.0</ele><time>2026-04-19T14:26:27.708Z</time></trkpt><trkpt lat="45.6309883" lon="11.2456517"><ele>783.5000000000001</ele><time>2026-04-19T14:26:29.708Z</time></trkpt><trkpt lat="45.6310533" lon="11.2455667"><ele>782.0</ele><time>2026-04-19T14:26:31.708Z</time></trkpt><trkpt lat="45.6311" lon="11.2454967"><ele>780.5</ele><time>2026-04-19T14:26:33.709Z</time></trkpt><trkpt lat="45.631145" lon="11.24543"><ele>779.0</ele><time>2026-04-19T14:26:35.709Z</time></trkpt><trkpt lat="45.6311867" lon="11.2453483"><ele>777.5000000000001</ele><time>2026-04-19T14:26:37.708Z</time></trkpt><trkpt lat="45.63125" lon="11.24527"><ele>776.0</ele><time>2026-04-19T14:26:39.709Z</time></trkpt><trkpt lat="45.6313233" lon="11.2452117"><ele>776.0</ele><time>2026-04-19T14:26:41.709Z</time></trkpt><trkpt lat="45.631405" lon="11.2451967"><ele>776.0</ele><time>2026-04-19T14:26:43.709Z</time></trkpt><trkpt lat="45.6315212" lon="11.2452045"><ele>776.0</ele><time>2026-04-19T14:26:47.756Z</time></trkpt><trkpt lat="45.6315233" lon="11.2450567"><ele>776.0</ele><time>2026-04-19T14:26:54.708Z</time></trkpt><trkpt lat="45.6315967" lon="11.245045"><ele>776.0</ele><time>2026-04-19T14:26:56.709Z</time></trkpt><trkpt lat="45.6317217" lon="11.24508"><ele>776.0</ele><time>2026-04-19T14:26:58.708Z</time></trkpt><trkpt lat="45.63179" lon="11.2451083"><ele>776.0</ele><time>2026-04-19T14:26:59.708Z</time></trkpt><trkpt lat="45.631855" lon="11.2451317"><ele>776.0</ele><time>2026-04-19T14:27:00.708Z</time></trkpt><trkpt lat="45.6319233" lon="11.2451433"><ele>776.0</ele><time>2026-04-19T14:27:01.708Z</time></trkpt><trkpt lat="45.6320033" lon="11.2451517"><ele>776.0</ele><time>2026-04-19T14:27:02.709Z</time></trkpt><trkpt lat="45.6320817" lon="11.2451567"><ele>776.0</ele><time>2026-04-19T14:27:03.709Z</time></trkpt><trkpt lat="45.6321617" lon="11.245165"><ele>776.0</ele><time>2026-04-19T14:27:04.708Z</time></trkpt><trkpt lat="45.632225" lon="11.245175"><ele>777.1999999999999</ele><time>2026-04-19T14:27:05.709Z</time></trkpt><trkpt lat="45.63235" lon="11.2452067"><ele>778.4</ele><time>2026-04-19T14:27:07.709Z</time></trkpt><trkpt lat="45.63241" lon="11.2452367"><ele>779.6</ele><time>2026-04-19T14:27:08.709Z</time></trkpt><trkpt lat="45.6324833" lon="11.245295"><ele>780.8</ele><time>2026-04-19T14:27:10.709Z</time></trkpt><trkpt lat="45.6323967" lon="11.2452367"><ele>782.0</ele><time>2026-04-19T14:27:52.709Z</time></trkpt><trkpt lat="45.632315" lon="11.2451967"><ele>782.0000000000001</ele><time>2026-04-19T14:27:54.709Z</time></trkpt><trkpt lat="45.6322433" lon="11.245175"><ele>782.0</ele><time>2026-04-19T14:27:56.709Z</time></trkpt><trkpt lat="45.6321767" lon="11.2451683"><ele>782.0</ele><time>2026-04-19T14:27:58.708Z</time></trkpt><trkpt lat="45.6320933" lon="11.2451583"><ele>782.0</ele><time>2026-04-19T14:28:00.709Z</time></trkpt><trkpt lat="45.632015" lon="11.245145"><ele>782.0000000000001</ele><time>2026-04-19T14:28:02.709Z</time></trkpt><trkpt lat="45.6319617" lon="11.2450933"><ele>782.0</ele><time>2026-04-19T14:28:05.709Z</time></trkpt><trkpt lat="45.6319433" lon="11.2449683"><ele>782.0</ele><time>2026-04-19T14:28:08.709Z</time></trkpt><trkpt lat="45.631965" lon="11.2448833"><ele>782.0</ele><time>2026-04-19T14:28:10.709Z</time></trkpt><trkpt lat="45.632035" lon="11.2448483"><ele>782.0</ele><time>2026-04-19T14:28:12.709Z</time></trkpt><trkpt lat="45.6321333" lon="11.2448233"><ele>782.0</ele><time>2026-04-19T14:28:14.709Z</time></trkpt><trkpt lat="45.632255" lon="11.2447917"><ele>782.0</ele><time>2026-04-19T14:28:16.709Z</time></trkpt><trkpt lat="45.6323617" lon="11.2447417"><ele>781.5000000000001</ele><time>2026-04-19T14:28:18.708Z</time></trkpt><trkpt lat="45.6324333" lon="11.2447083"><ele>781.0</ele><time>2026-04-19T14:28:21.708Z</time></trkpt><trkpt lat="45.63235" lon="11.2447217"><ele>780.5</ele><time>2026-04-19T14:30:02.708Z</time></trkpt><trkpt lat="45.6323367" lon="11.24463"><ele>780.0</ele><time>2026-04-19T14:30:05.708Z</time></trkpt><trkpt lat="45.6324083" lon="11.244615"><ele>779.5000000000001</ele><time>2026-04-19T14:30:07.708Z</time></trkpt><trkpt lat="45.6324933" lon="11.2446717"><ele>779.0</ele><time>2026-04-19T14:30:09.709Z</time></trkpt><trkpt lat="45.63255" lon="11.2447283"><ele>779.0000000000001</ele><time>2026-04-19T14:30:12.709Z</time></trkpt><trkpt lat="45.6326333" lon="11.24465"><ele>779.0</ele><time>2026-04-19T14:30:18.708Z</time></trkpt><trkpt lat="45.6327017" lon="11.2445883"><ele>779.0</ele><time>2026-04-19T14:30:20.709Z</time></trkpt><trkpt lat="45.6327933" lon="11.24451"><ele>779.0</ele><time>2026-04-19T14:30:22.708Z</time></trkpt><trkpt lat="45.6328783" lon="11.2444583"><ele>779.0000000000001</ele><time>2026-04-19T14:30:24.708Z</time></trkpt><trkpt lat="45.6329433" lon="11.24444"><ele>779.0</ele><time>2026-04-19T14:30:26.709Z</time></trkpt><trkpt lat="45.633025" lon="11.2444267"><ele>778.3333333333334</ele><time>2026-04-19T14:30:29.709Z</time></trkpt><trkpt lat="45.6330983" lon="11.2444117"><ele>777.6666666666667</ele><time>2026-04-19T14:30:33.708Z</time></trkpt><trkpt lat="45.6331887" lon="11.2444354"><ele>777.0</ele><time>2026-04-19T14:30:41.708Z</time></trkpt><trkpt lat="45.6332577" lon="11.2444662"><ele>776.3333333333333</ele><time>2026-04-19T14:30:45.708Z</time></trkpt><trkpt lat="45.6333317" lon="11.244465"><ele>775.6666666666666</ele><time>2026-04-19T14:33:08.71Z</time></trkpt><trkpt lat="45.63339" lon="11.24452"><ele>775.0</ele><time>2026-04-19T14:33:12.71Z</time></trkpt><trkpt lat="45.6334867" lon="11.244605"><ele>775.0</ele><time>2026-04-19T14:33:28.71Z</time></trkpt><trkpt lat="45.6335367" lon="11.2446917"><ele>775.0</ele><time>2026-04-19T14:33:30.709Z</time></trkpt><trkpt lat="45.6336017" lon="11.2447517"><ele>775.0</ele><time>2026-04-19T14:33:32.71Z</time></trkpt><trkpt lat="45.6336817" lon="11.2448"><ele>775.0</ele><time>2026-04-19T14:33:34.709Z</time></trkpt><trkpt lat="45.633795" lon="11.2448117"><ele>775.0</ele><time>2026-04-19T14:33:36.709Z</time></trkpt><trkpt lat="45.6339367" lon="11.244805"><ele>772.9999999999999</ele><time>2026-04-19T14:33:38.709Z</time></trkpt><trkpt lat="45.6340117" lon="11.2448"><ele>771.0</ele><time>2026-04-19T14:33:39.71Z</time></trkpt><trkpt lat="45.6340783" lon="11.2447933"><ele>769.0</ele><time>2026-04-19T14:33:40.71Z</time></trkpt><trkpt lat="45.6341533" lon="11.2447883"><ele>767.0</ele><time>2026-04-19T14:33:41.71Z</time></trkpt><trkpt lat="45.6342217" lon="11.2447817"><ele>765.0</ele><time>2026-04-19T14:33:42.709Z</time></trkpt><trkpt lat="45.634285" lon="11.2447617"><ele>763.0</ele><time>2026-04-19T14:33:43.709Z</time></trkpt><trkpt lat="45.6343833" lon="11.2447217"><ele>763.0</ele><time>2026-04-19T14:33:45.709Z</time></trkpt><trkpt lat="45.6344383" lon="11.2446717"><ele>763.0</ele><time>2026-04-19T14:33:47.71Z</time></trkpt><trkpt lat="45.6345683" lon="11.244655"><ele>763.0</ele><time>2026-04-19T14:34:15.71Z</time></trkpt><trkpt lat="45.6346417" lon="11.2446417"><ele>763.0</ele><time>2026-04-19T14:34:28.71Z</time></trkpt><trkpt lat="45.6347083" lon="11.2446267"><ele>763.0</ele><time>2026-04-19T14:34:32.71Z</time></trkpt><trkpt lat="45.6347883" lon="11.2446417"><ele>763.0</ele><time>2026-04-19T14:34:38.71Z</time></trkpt><trkpt lat="45.6348733" lon="11.2446033"><ele>762.8333333333334</ele><time>2026-04-19T14:34:41.71Z</time></trkpt><trkpt lat="45.6349383" lon="11.2445817"><ele>762.6666666666667</ele><time>2026-04-19T14:34:43.71Z</time></trkpt><trkpt lat="45.6350083" lon="11.2445483"><ele>762.5</ele><time>2026-04-19T14:34:46.709Z</time></trkpt><trkpt lat="45.6351383" lon="11.244515"><ele>762.3333333333334</ele><time>2026-04-19T14:34:52.71Z</time></trkpt><trkpt lat="45.6352106" lon="11.2444935"><ele>762.1666666666666</ele><time>2026-04-19T14:35:06.72Z</time></trkpt><trkpt lat="45.6353" lon="11.24444"><ele>762.0</ele><time>2026-04-19T14:35:07.709Z</time></trkpt><trkpt lat="45.635355" lon="11.2445167"><ele>762.8333333333334</ele><time>2026-04-19T14:35:52.709Z</time></trkpt><trkpt lat="45.6354233" lon="11.244605"><ele>763.6666666666666</ele><time>2026-04-19T14:35:55.709Z</time></trkpt><trkpt lat="45.63547" lon="11.2446717"><ele>764.5</ele><time>2026-04-19T14:35:57.71Z</time></trkpt><trkpt lat="45.6355317" lon="11.2447317"><ele>765.3333333333333</ele><time>2026-04-19T14:35:59.71Z</time></trkpt><trkpt lat="45.6356083" lon="11.2447717"><ele>766.1666666666666</ele><time>2026-04-19T14:36:01.709Z</time></trkpt><trkpt lat="45.635685" lon="11.2447883"><ele>767.0</ele><time>2026-04-19T14:36:03.71Z</time></trkpt><trkpt lat="45.6357867" lon="11.2448167"><ele>770.8333333333333</ele><time>2026-04-19T14:36:05.71Z</time></trkpt><trkpt lat="45.63585" lon="11.2448667"><ele>774.6666666666666</ele><time>2026-04-19T14:36:06.71Z</time></trkpt><trkpt lat="45.6359183" lon="11.24496"><ele>778.5</ele><time>2026-04-19T14:36:09.709Z</time></trkpt><trkpt lat="45.6359467" lon="11.245065"><ele>782.3333333333333</ele><time>2026-04-19T14:36:11.71Z</time></trkpt><trkpt lat="45.636015" lon="11.2451033"><ele>786.1666666666666</ele><time>2026-04-19T14:36:14.709Z</time></trkpt><trkpt lat="45.636095" lon="11.2451033"><ele>790.0</ele><time>2026-04-19T14:36:25.709Z</time></trkpt><trkpt lat="45.6361733" lon="11.2451067"><ele>790.4285714285714</ele><time>2026-04-19T14:36:28.71Z</time></trkpt><trkpt lat="45.6362467" lon="11.24516"><ele>790.8571428571429</ele><time>2026-04-19T14:36:32.71Z</time></trkpt><trkpt lat="45.6362917" lon="11.245235"><ele>791.2857142857143</ele><time>2026-04-19T14:36:39.71Z</time></trkpt><trkpt lat="45.63637" lon="11.2452383"><ele>791.7142857142858</ele><time>2026-04-19T14:36:46.709Z</time></trkpt><trkpt lat="45.6364317" lon="11.24522"><ele>792.1428571428571</ele><time>2026-04-19T14:36:49.71Z</time></trkpt><trkpt lat="45.6365" lon="11.24519"><ele>792.5714285714287</ele><time>2026-04-19T14:36:53.71Z</time></trkpt><trkpt lat="45.6365667" lon="11.2451417"><ele>793.0</ele><time>2026-04-19T14:36:56.71Z</time></trkpt><trkpt lat="45.636625" lon="11.2450867"><ele>793.0000000000001</ele><time>2026-04-19T14:36:58.709Z</time></trkpt><trkpt lat="45.6366967" lon="11.245055"><ele>793.0</ele><time>2026-04-19T14:37:01.709Z</time></trkpt><trkpt lat="45.6367567" lon="11.24501"><ele>793.0</ele><time>2026-04-19T14:37:05.71Z</time></trkpt><trkpt lat="45.6368033" lon="11.2449267"><ele>793.0</ele><time>2026-04-19T14:37:08.709Z</time></trkpt><trkpt lat="45.63687" lon="11.244945"><ele>793.0</ele><time>2026-04-19T14:37:12.71Z</time></trkpt><trkpt lat="45.6369383" lon="11.2450017"><ele>793.0000000000001</ele><time>2026-04-19T14:37:16.71Z</time></trkpt><trkpt lat="45.63701" lon="11.2449733"><ele>793.0</ele><time>2026-04-19T14:37:19.71Z</time></trkpt><trkpt lat="45.6370667" lon="11.2449233"><ele>791.6666666666666</ele><time>2026-04-19T14:37:21.71Z</time></trkpt><trkpt lat="45.6371333" lon="11.2448667"><ele>790.3333333333333</ele><time>2026-04-19T14:37:23.709Z</time></trkpt><trkpt lat="45.6372067" lon="11.244805"><ele>789.0</ele><time>2026-04-19T14:37:25.71Z</time></trkpt><trkpt lat="45.637305" lon="11.2447967"><ele>787.6666666666667</ele><time>2026-04-19T14:37:27.709Z</time></trkpt><trkpt lat="45.63742" lon="11.24481"><ele>786.3333333333334</ele><time>2026-04-19T14:37:29.709Z</time></trkpt><trkpt lat="45.6374917" lon="11.2448083"><ele>785.0</ele><time>2026-04-19T14:37:30.709Z</time></trkpt><trkpt lat="45.6375717" lon="11.2448017"><ele>784.6</ele><time>2026-04-19T14:37:31.71Z</time></trkpt><trkpt lat="45.63768" lon="11.2447867"><ele>784.2</ele><time>2026-04-19T14:37:32.709Z</time></trkpt><trkpt lat="45.6377567" lon="11.24477"><ele>783.8</ele><time>2026-04-19T14:37:33.709Z</time></trkpt><trkpt lat="45.6378283" lon="11.2447667"><ele>783.4</ele><time>2026-04-19T14:37:34.71Z</time></trkpt><trkpt lat="45.6379317" lon="11.2447867"><ele>783.0</ele><time>2026-04-19T14:37:36.71Z</time></trkpt><trkpt lat="45.63804" lon="11.2448033"><ele>783.0</ele><time>2026-04-19T14:37:38.709Z</time></trkpt><trkpt lat="45.6381067" lon="11.2448267"><ele>783.0</ele><time>2026-04-19T14:37:39.71Z</time></trkpt><trkpt lat="45.6381683" lon="11.2448533"><ele>783.0</ele><time>2026-04-19T14:37:40.71Z</time></trkpt><trkpt lat="45.6382317" lon="11.24488"><ele>783.0</ele><time>2026-04-19T14:37:41.709Z</time></trkpt><trkpt lat="45.6382967" lon="11.2448967"><ele>783.0</ele><time>2026-04-19T14:37:42.71Z</time></trkpt><trkpt lat="45.6384067" lon="11.244865"><ele>783.0</ele><time>2026-04-19T14:37:44.71Z</time></trkpt><trkpt lat="45.6384833" lon="11.2448067"><ele>782.3333333333334</ele><time>2026-04-19T14:37:46.71Z</time></trkpt><trkpt lat="45.63855" lon="11.2447533"><ele>781.6666666666667</ele><time>2026-04-19T14:37:50.71Z</time></trkpt><trkpt lat="45.6386283" lon="11.2447167"><ele>781.0</ele><time>2026-04-19T14:37:53.709Z</time></trkpt><trkpt lat="45.63868" lon="11.2446533"><ele>780.3333333333334</ele><time>2026-04-19T14:37:55.709Z</time></trkpt><trkpt lat="45.63874" lon="11.2445983"><ele>779.6666666666667</ele><time>2026-04-19T14:37:57.709Z</time></trkpt><trkpt lat="45.638785" lon="11.244515"><ele>779.0</ele><time>2026-04-19T14:38:00.71Z</time></trkpt><trkpt lat="45.6388333" lon="11.2444133"><ele>779.0</ele><time>2026-04-19T14:38:03.71Z</time></trkpt><trkpt lat="45.6389267" lon="11.244415"><ele>779.0</ele><time>2026-04-19T14:38:06.71Z</time></trkpt><trkpt lat="45.639005" lon="11.2443417"><ele>779.0</ele><time>2026-04-19T14:38:09.71Z</time></trkpt><trkpt lat="45.6390583" lon="11.2442067"><ele>779.0</ele><time>2026-04-19T14:38:12.71Z</time></trkpt><trkpt lat="45.63911" lon="11.244095"><ele>779.0</ele><time>2026-04-19T14:38:14.709Z</time></trkpt><trkpt lat="45.6391567" lon="11.2440267"><ele>779.8333333333334</ele><time>2026-04-19T14:38:16.71Z</time></trkpt><trkpt lat="45.639215" lon="11.2439517"><ele>780.6666666666667</ele><time>2026-04-19T14:38:20.71Z</time></trkpt><trkpt lat="45.6393033" lon="11.243895"><ele>781.5</ele><time>2026-04-19T14:38:23.71Z</time></trkpt><trkpt lat="45.639405" lon="11.2438867"><ele>782.3333333333333</ele><time>2026-04-19T14:38:25.71Z</time></trkpt><trkpt lat="45.6394883" lon="11.243905"><ele>783.1666666666666</ele><time>2026-04-19T14:38:27.709Z</time></trkpt><trkpt lat="45.639565" lon="11.243885"><ele>784.0</ele><time>2026-04-19T14:38:29.71Z</time></trkpt><trkpt lat="45.6396283" lon="11.2438433"><ele>783.9999999999999</ele><time>2026-04-19T14:38:31.71Z</time></trkpt><trkpt lat="45.6397217" lon="11.2438167"><ele>784.0</ele><time>2026-04-19T14:38:37.71Z</time></trkpt><trkpt lat="45.639795" lon="11.2438267"><ele>784.0</ele><time>2026-04-19T14:38:38.709Z</time></trkpt><trkpt lat="45.639865" lon="11.243835"><ele>784.0</ele><time>2026-04-19T14:38:39.709Z</time></trkpt><trkpt lat="45.6399317" lon="11.243845"><ele>783.9999999999999</ele><time>2026-04-19T14:38:40.71Z</time></trkpt><trkpt lat="45.6400367" lon="11.2438433"><ele>784.0</ele><time>2026-04-19T14:38:42.71Z</time></trkpt><trkpt lat="45.6401767" lon="11.2438133"><ele>784.4000000000001</ele><time>2026-04-19T14:38:59.709Z</time></trkpt><trkpt lat="45.64032" lon="11.2437533"><ele>784.8</ele><time>2026-04-19T14:39:20.709Z</time></trkpt><trkpt lat="45.640385" lon="11.2437683"><ele>785.2</ele><time>2026-04-19T14:39:23.71Z</time></trkpt><trkpt lat="45.6404583" lon="11.2437083"><ele>785.5999999999999</ele><time>2026-04-19T14:39:26.71Z</time></trkpt><trkpt lat="45.640531" lon="11.2436982"><ele>786.0</ele><time>2026-04-19T14:39:29.753Z</time></trkpt><trkpt lat="45.6406461" lon="11.2437492"><ele>786.0</ele><time>2026-04-19T14:39:54.709Z</time></trkpt><trkpt lat="45.6407265" lon="11.2437968"><ele>786.0</ele><time>2026-04-19T14:40:01.79Z</time></trkpt><trkpt lat="45.6408458" lon="11.2437741"><ele>786.0</ele><time>2026-04-19T14:40:03.71Z</time></trkpt><trkpt lat="45.6409215" lon="11.243776"><ele>786.0</ele><time>2026-04-19T14:40:05.726Z</time></trkpt><trkpt lat="45.6410001" lon="11.2437588"><ele>786.0</ele><time>2026-04-19T14:40:08.709Z</time></trkpt><trkpt lat="45.641065" lon="11.2437154"><ele>786.0</ele><time>2026-04-19T14:40:11.775Z</time></trkpt><trkpt lat="45.6411338" lon="11.2436873"><ele>785.5714285714287</ele><time>2026-04-19T14:40:14.746Z</time></trkpt><trkpt lat="45.6411734" lon="11.2436098"><ele>785.1428571428571</ele><time>2026-04-19T14:40:16.763Z</time></trkpt><trkpt lat="45.6412009" lon="11.2435273"><ele>784.7142857142858</ele><time>2026-04-19T14:40:18.779Z</time></trkpt><trkpt lat="45.6412243" lon="11.2434101"><ele>784.2857142857143</ele><time>2026-04-19T14:40:21.707Z</time></trkpt><trkpt lat="45.6412556" lon="11.2433185"><ele>783.8571428571429</ele><time>2026-04-19T14:40:25.782Z</time></trkpt><trkpt lat="45.6413239" lon="11.2433022"><ele>783.4285714285714</ele><time>2026-04-19T14:40:27.709Z</time></trkpt><trkpt lat="45.6414142" lon="11.2432817"><ele>783.0</ele><time>2026-04-19T14:40:29.709Z</time></trkpt><trkpt lat="45.6414824" lon="11.2432411"><ele>783.0</ele><time>2026-04-19T14:40:30.71Z</time></trkpt><trkpt lat="45.6415451" lon="11.2432"><ele>783.0</ele><time>2026-04-19T14:40:31.709Z</time></trkpt><trkpt lat="45.6416438" lon="11.243118"><ele>783.0</ele><time>2026-04-19T14:40:33.71Z</time></trkpt><trkpt lat="45.641724" lon="11.2430001"><ele>783.0</ele><time>2026-04-19T14:40:35.709Z</time></trkpt><trkpt lat="45.6417643" lon="11.2429305"><ele>783.0</ele><time>2026-04-19T14:40:36.709Z</time></trkpt><trkpt lat="45.6418484" lon="11.2428106"><ele>782.0</ele><time>2026-04-19T14:40:38.71Z</time></trkpt><trkpt lat="45.6419157" lon="11.2426957"><ele>781.0</ele><time>2026-04-19T14:40:40.709Z</time></trkpt><trkpt lat="45.6419483" lon="11.2425675"><ele>780.0</ele><time>2026-04-19T14:40:42.71Z</time></trkpt><trkpt lat="45.641951" lon="11.242431"><ele>779.0</ele><time>2026-04-19T14:40:44.71Z</time></trkpt><trkpt lat="45.6419076" lon="11.2423008"><ele>778.0</ele><time>2026-04-19T14:40:46.71Z</time></trkpt><trkpt lat="45.6418659" lon="11.2421593"><ele>776.0</ele><time>2026-04-19T14:40:48.709Z</time></trkpt><trkpt lat="45.6418711" lon="11.2420458"><ele>774.0</ele><time>2026-04-19T14:40:50.709Z</time></trkpt><trkpt lat="45.6419333" lon="11.2419325"><ele>772.0</ele><time>2026-04-19T14:40:52.71Z</time></trkpt><trkpt lat="45.642036" lon="11.2418458"><ele>770.0</ele><time>2026-04-19T14:40:54.71Z</time></trkpt><trkpt lat="45.6421476" lon="11.2418048"><ele>768.0</ele><time>2026-04-19T14:40:56.71Z</time></trkpt><trkpt lat="45.6422128" lon="11.2418068"><ele>767.4</ele><time>2026-04-19T14:40:57.71Z</time></trkpt><trkpt lat="45.6422841" lon="11.2418133"><ele>766.8</ele><time>2026-04-19T14:40:58.709Z</time></trkpt><trkpt lat="45.6423732" lon="11.2418462"><ele>766.2</ele><time>2026-04-19T14:40:59.71Z</time></trkpt><trkpt lat="45.6424851" lon="11.2418848"><ele>765.6</ele><time>2026-04-19T14:41:00.71Z</time></trkpt><trkpt lat="45.6426015" lon="11.2419341"><ele>765.0</ele><time>2026-04-19T14:41:01.709Z</time></trkpt><trkpt lat="45.6426971" lon="11.2419919"><ele>765.0</ele><time>2026-04-19T14:41:02.71Z</time></trkpt><trkpt lat="45.642772" lon="11.2420476"><ele>765.0</ele><time>2026-04-19T14:41:03.709Z</time></trkpt><trkpt lat="45.6428283" lon="11.2420983"><ele>765.0</ele><time>2026-04-19T14:41:04.71Z</time></trkpt><trkpt lat="45.6428867" lon="11.2421367"><ele>765.0</ele><time>2026-04-19T14:41:05.71Z</time></trkpt><trkpt lat="45.6429667" lon="11.2421883"><ele>765.0</ele><time>2026-04-19T14:41:07.709Z</time></trkpt><trkpt lat="45.64305" lon="11.24214"><ele>765.0</ele><time>2026-04-19T14:41:09.71Z</time></trkpt><trkpt lat="45.6431233" lon="11.2420133"><ele>764.8333333333334</ele><time>2026-04-19T14:41:11.709Z</time></trkpt><trkpt lat="45.6431617" lon="11.2419233"><ele>764.6666666666666</ele><time>2026-04-19T14:41:12.71Z</time></trkpt><trkpt lat="45.6431967" lon="11.2418233"><ele>764.5</ele><time>2026-04-19T14:41:13.709Z</time></trkpt><trkpt lat="45.6432283" lon="11.24172"><ele>764.3333333333333</ele><time>2026-04-19T14:41:14.71Z</time></trkpt><trkpt lat="45.6432533" lon="11.2416317"><ele>764.1666666666666</ele><time>2026-04-19T14:41:15.709Z</time></trkpt><trkpt lat="45.6432717" lon="11.2414783"><ele>764.0</ele><time>2026-04-19T14:41:17.71Z</time></trkpt><trkpt lat="45.64327" lon="11.2413283"><ele>764.0</ele><time>2026-04-19T14:41:19.71Z</time></trkpt><trkpt lat="45.6432867" lon="11.241155"><ele>764.0</ele><time>2026-04-19T14:41:21.709Z</time></trkpt><trkpt lat="45.643305" lon="11.2410667"><ele>764.0</ele><time>2026-04-19T14:41:22.709Z</time></trkpt><trkpt lat="45.6433283" lon="11.2409733"><ele>764.0</ele><time>2026-04-19T14:41:23.709Z</time></trkpt><trkpt lat="45.6433567" lon="11.2408917"><ele>764.0</ele><time>2026-04-19T14:41:24.71Z</time></trkpt><trkpt lat="45.6434233" lon="11.240765"><ele>764.0</ele><time>2026-04-19T14:41:26.709Z</time></trkpt><trkpt lat="45.6434917" lon="11.24072"><ele>764.0</ele><time>2026-04-19T14:41:28.709Z</time></trkpt><trkpt lat="45.6435867" lon="11.2408767"><ele>764.0</ele><time>2026-04-19T14:41:43.709Z</time></trkpt><trkpt lat="45.6436383" lon="11.2409767"><ele>764.0</ele><time>2026-04-19T14:41:44.709Z</time></trkpt><trkpt lat="45.6437017" lon="11.2410867"><ele>764.0</ele><time>2026-04-19T14:41:45.709Z</time></trkpt><trkpt lat="45.64377" lon="11.24119"><ele>764.0</ele><time>2026-04-19T14:41:46.709Z</time></trkpt><trkpt lat="45.6438367" lon="11.2412917"><ele>764.3333333333333</ele><time>2026-04-19T14:41:47.71Z</time></trkpt><trkpt lat="45.6439" lon="11.2413817"><ele>764.6666666666666</ele><time>2026-04-19T14:41:48.71Z</time></trkpt><trkpt lat="45.6439667" lon="11.241465"><ele>765.0</ele><time>2026-04-19T14:41:49.709Z</time></trkpt><trkpt lat="45.6440283" lon="11.2415433"><ele>765.3333333333334</ele><time>2026-04-19T14:41:50.71Z</time></trkpt><trkpt lat="45.6440883" lon="11.2416183"><ele>765.6666666666667</ele><time>2026-04-19T14:41:51.709Z</time></trkpt><trkpt lat="45.6441433" lon="11.2416983"><ele>766.0</ele><time>2026-04-19T14:41:52.71Z</time></trkpt><trkpt lat="45.6441967" lon="11.2417767"><ele>766.1666666666667</ele><time>2026-04-19T14:41:53.709Z</time></trkpt><trkpt lat="45.644255" lon="11.2418683"><ele>766.3333333333334</ele><time>2026-04-19T14:41:54.71Z</time></trkpt><trkpt lat="45.6443083" lon="11.241955"><ele>766.5</ele><time>2026-04-19T14:41:55.709Z</time></trkpt><trkpt lat="45.6443683" lon="11.2420367"><ele>766.6666666666666</ele><time>2026-04-19T14:41:56.71Z</time></trkpt><trkpt lat="45.6444317" lon="11.2421067"><ele>766.8333333333333</ele><time>2026-04-19T14:41:57.71Z</time></trkpt><trkpt lat="45.6444967" lon="11.2421683"><ele>767.0</ele><time>2026-04-19T14:41:58.71Z</time></trkpt><trkpt lat="45.6445683" lon="11.2422333"><ele>767.0</ele><time>2026-04-19T14:41:59.709Z</time></trkpt><trkpt lat="45.644645" lon="11.242285"><ele>767.0</ele><time>2026-04-19T14:42:00.709Z</time></trkpt><trkpt lat="45.6447233" lon="11.2423367"><ele>767.0</ele><time>2026-04-19T14:42:01.71Z</time></trkpt><trkpt lat="45.6447983" lon="11.2423983"><ele>767.0</ele><time>2026-04-19T14:42:02.709Z</time></trkpt><trkpt lat="45.64487" lon="11.242465"><ele>767.0</ele><time>2026-04-19T14:42:03.71Z</time></trkpt><trkpt lat="45.644935" lon="11.24254"><ele>767.0</ele><time>2026-04-19T14:42:04.71Z</time></trkpt><trkpt lat="45.64499" lon="11.2426083"><ele>765.2</ele><time>2026-04-19T14:42:05.71Z</time></trkpt><trkpt lat="45.6450783" lon="11.24273"><ele>763.4000000000001</ele><time>2026-04-19T14:42:07.709Z</time></trkpt><trkpt lat="45.64509" lon="11.24293"><ele>761.5999999999999</ele><time>2026-04-19T14:42:09.71Z</time></trkpt><trkpt lat="45.6450867" lon="11.243045"><ele>759.8</ele><time>2026-04-19T14:42:10.709Z</time></trkpt><trkpt lat="45.645095" lon="11.2431583"><ele>758.0</ele><time>2026-04-19T14:42:11.71Z</time></trkpt><trkpt lat="45.645125" lon="11.243265"><ele>758.1666666666666</ele><time>2026-04-19T14:42:12.71Z</time></trkpt><trkpt lat="45.6451667" lon="11.2433533"><ele>758.3333333333333</ele><time>2026-04-19T14:42:13.71Z</time></trkpt><trkpt lat="45.6452117" lon="11.24344"><ele>758.5</ele><time>2026-04-19T14:42:14.71Z</time></trkpt><trkpt lat="45.64525" lon="11.2435133"><ele>758.6666666666666</ele><time>2026-04-19T14:42:15.71Z</time></trkpt><trkpt lat="45.6453083" lon="11.243645"><ele>758.8333333333334</ele><time>2026-04-19T14:42:17.709Z</time></trkpt><trkpt lat="45.645345" lon="11.2438017"><ele>759.0</ele><time>2026-04-19T14:42:19.71Z</time></trkpt><trkpt lat="45.64538" lon="11.2438983"><ele>757.0</ele><time>2026-04-19T14:42:20.709Z</time></trkpt><trkpt lat="45.645415" lon="11.2439917"><ele>755.0</ele><time>2026-04-19T14:42:21.709Z</time></trkpt><trkpt lat="45.645465" lon="11.2440967"><ele>753.0</ele><time>2026-04-19T14:42:22.71Z</time></trkpt><trkpt lat="45.6455167" lon="11.2442083"><ele>751.0</ele><time>2026-04-19T14:42:23.71Z</time></trkpt><trkpt lat="45.6455683" lon="11.2443133"><ele>749.0</ele><time>2026-04-19T14:42:24.709Z</time></trkpt><trkpt lat="45.64562" lon="11.2444183"><ele>747.0</ele><time>2026-04-19T14:42:25.71Z</time></trkpt><trkpt lat="45.645665" lon="11.24451"><ele>747.0</ele><time>2026-04-19T14:42:26.709Z</time></trkpt><trkpt lat="45.6457033" lon="11.244605"><ele>747.0</ele><time>2026-04-19T14:42:27.71Z</time></trkpt><trkpt lat="45.6457367" lon="11.2447017"><ele>747.0</ele><time>2026-04-19T14:42:28.71Z</time></trkpt><trkpt lat="45.6457633" lon="11.2448083"><ele>747.0</ele><time>2026-04-19T14:42:29.709Z</time></trkpt><trkpt lat="45.6457883" lon="11.244925"><ele>747.0</ele><time>2026-04-19T14:42:30.709Z</time></trkpt><trkpt lat="45.6458033" lon="11.2450517"><ele>747.0</ele><time>2026-04-19T14:42:31.709Z</time></trkpt><trkpt lat="45.6458133" lon="11.2451883"><ele>744.8333333333334</ele><time>2026-04-19T14:42:32.709Z</time></trkpt><trkpt lat="45.6458167" lon="11.2453183"><ele>742.6666666666666</ele><time>2026-04-19T14:42:33.709Z</time></trkpt><trkpt lat="45.6458133" lon="11.24545"><ele>740.5</ele><time>2026-04-19T14:42:34.709Z</time></trkpt><trkpt lat="45.6457867" lon="11.24557"><ele>738.3333333333333</ele><time>2026-04-19T14:42:35.71Z</time></trkpt><trkpt lat="45.64576" lon="11.24568"><ele>736.1666666666666</ele><time>2026-04-19T14:42:36.71Z</time></trkpt><trkpt lat="45.6457433" lon="11.2457767"><ele>734.0</ele><time>2026-04-19T14:42:37.71Z</time></trkpt><trkpt lat="45.6457533" lon="11.2458667"><ele>733.3333333333333</ele><time>2026-04-19T14:42:38.71Z</time></trkpt><trkpt lat="45.645795" lon="11.245945"><ele>732.6666666666666</ele><time>2026-04-19T14:42:39.709Z</time></trkpt><trkpt lat="45.6458533" lon="11.2460067"><ele>732.0</ele><time>2026-04-19T14:42:40.709Z</time></trkpt><trkpt lat="45.6459183" lon="11.2460533"><ele>731.3333333333334</ele><time>2026-04-19T14:42:41.71Z</time></trkpt><trkpt lat="45.64599" lon="11.2461183"><ele>730.6666666666667</ele><time>2026-04-19T14:42:42.71Z</time></trkpt><trkpt lat="45.6460717" lon="11.2462083"><ele>730.0</ele><time>2026-04-19T14:42:43.709Z</time></trkpt><trkpt lat="45.64616" lon="11.2463167"><ele>730.0</ele><time>2026-04-19T14:42:44.709Z</time></trkpt><trkpt lat="45.6462483" lon="11.2464317"><ele>730.0</ele><time>2026-04-19T14:42:45.71Z</time></trkpt><trkpt lat="45.6463333" lon="11.24656"><ele>730.0</ele><time>2026-04-19T14:42:46.709Z</time></trkpt><trkpt lat="45.6464183" lon="11.2467083"><ele>730.0</ele><time>2026-04-19T14:42:47.709Z</time></trkpt><trkpt lat="45.6465117" lon="11.24686"><ele>727.5</ele><time>2026-04-19T14:42:48.71Z</time></trkpt><trkpt lat="45.6465983" lon="11.2469917"><ele>725.0</ele><time>2026-04-19T14:42:49.71Z</time></trkpt><trkpt lat="45.6466917" lon="11.2471217"><ele>722.5</ele><time>2026-04-19T14:42:50.709Z</time></trkpt><trkpt lat="45.6467917" lon="11.2472417"><ele>720.0</ele><time>2026-04-19T14:42:51.71Z</time></trkpt><trkpt lat="45.6468833" lon="11.247345"><ele>719.25</ele><time>2026-04-19T14:42:52.71Z</time></trkpt><trkpt lat="45.6469667" lon="11.24745"><ele>718.5</ele><time>2026-04-19T14:42:53.71Z</time></trkpt><trkpt lat="45.6470533" lon="11.247555"><ele>717.75</ele><time>2026-04-19T14:42:54.71Z</time></trkpt><trkpt lat="45.6471183" lon="11.2476917"><ele>717.0</ele><time>2026-04-19T14:42:55.709Z</time></trkpt><trkpt lat="45.6471667" lon="11.247855"><ele>717.0</ele><time>2026-04-19T14:42:56.71Z</time></trkpt><trkpt lat="45.6472" lon="11.2480217"><ele>717.0</ele><time>2026-04-19T14:42:57.71Z</time></trkpt><trkpt lat="45.6472233" lon="11.2481917"><ele>717.0</ele><time>2026-04-19T14:42:58.71Z</time></trkpt><trkpt lat="45.6472417" lon="11.2483717"><ele>717.0</ele><time>2026-04-19T14:42:59.71Z</time></trkpt><trkpt lat="45.6472667" lon="11.2485533"><ele>715.8333333333334</ele><time>2026-04-19T14:43:00.709Z</time></trkpt><trkpt lat="45.6472833" lon="11.2487167"><ele>714.6666666666666</ele><time>2026-04-19T14:43:01.709Z</time></trkpt><trkpt lat="45.647305" lon="11.2488617"><ele>713.5</ele><time>2026-04-19T14:43:02.709Z</time></trkpt><trkpt lat="45.6473317" lon="11.2489767"><ele>712.3333333333333</ele><time>2026-04-19T14:43:03.709Z</time></trkpt><trkpt lat="45.64736" lon="11.24907"><ele>711.1666666666666</ele><time>2026-04-19T14:43:04.709Z</time></trkpt><trkpt lat="45.6473933" lon="11.2491533"><ele>710.0</ele><time>2026-04-19T14:43:05.709Z</time></trkpt><trkpt lat="45.6474367" lon="11.249235"><ele>709.8</ele><time>2026-04-19T14:43:06.709Z</time></trkpt><trkpt lat="45.6474933" lon="11.2493317"><ele>709.6</ele><time>2026-04-19T14:43:07.71Z</time></trkpt><trkpt lat="45.64755" lon="11.2494317"><ele>709.4000000000001</ele><time>2026-04-19T14:43:08.71Z</time></trkpt><trkpt lat="45.647605" lon="11.249535"><ele>709.2</ele><time>2026-04-19T14:43:09.71Z</time></trkpt><trkpt lat="45.64766" lon="11.2496467"><ele>709.0</ele><time>2026-04-19T14:43:10.71Z</time></trkpt><trkpt lat="45.6477167" lon="11.24976"><ele>707.6</ele><time>2026-04-19T14:43:11.71Z</time></trkpt><trkpt lat="45.6477717" lon="11.2498767"><ele>706.2</ele><time>2026-04-19T14:43:12.709Z</time></trkpt><trkpt lat="45.6478217" lon="11.25001"><ele>704.8000000000001</ele><time>2026-04-19T14:43:13.71Z</time></trkpt><trkpt lat="45.6478633" lon="11.2501417"><ele>703.4000000000001</ele><time>2026-04-19T14:43:14.709Z</time></trkpt><trkpt lat="45.64791" lon="11.250285"><ele>702.0</ele><time>2026-04-19T14:43:15.709Z</time></trkpt><trkpt lat="45.647955" lon="11.25043"><ele>700.8</ele><time>2026-04-19T14:43:16.71Z</time></trkpt><trkpt lat="45.648005" lon="11.2505733"><ele>699.6</ele><time>2026-04-19T14:43:17.71Z</time></trkpt><trkpt lat="45.64805" lon="11.25072"><ele>698.4</ele><time>2026-04-19T14:43:18.709Z</time></trkpt><trkpt lat="45.6480933" lon="11.2508583"><ele>697.1999999999999</ele><time>2026-04-19T14:43:19.71Z</time></trkpt><trkpt lat="45.64813" lon="11.2509933"><ele>696.0</ele><time>2026-04-19T14:43:20.71Z</time></trkpt><trkpt lat="45.6481583" lon="11.251135"><ele>693.1999999999999</ele><time>2026-04-19T14:43:21.709Z</time></trkpt><trkpt lat="45.6481767" lon="11.2512883"><ele>690.4</ele><time>2026-04-19T14:43:22.71Z</time></trkpt><trkpt lat="45.6481883" lon="11.2514417"><ele>687.6</ele><time>2026-04-19T14:43:23.709Z</time></trkpt><trkpt lat="45.648185" lon="11.2516033"><ele>684.8</ele><time>2026-04-19T14:43:24.71Z</time></trkpt><trkpt lat="45.648165" lon="11.25177"><ele>682.0</ele><time>2026-04-19T14:43:25.71Z</time></trkpt><trkpt lat="45.6481467" lon="11.251935"><ele>679.2</ele><time>2026-04-19T14:43:26.71Z</time></trkpt><trkpt lat="45.64813" lon="11.2520933"><ele>676.4000000000001</ele><time>2026-04-19T14:43:27.709Z</time></trkpt><trkpt lat="45.6481083" lon="11.2522417"><ele>673.5999999999999</ele><time>2026-04-19T14:43:28.709Z</time></trkpt><trkpt lat="45.648095" lon="11.2523767"><ele>670.8</ele><time>2026-04-19T14:43:29.709Z</time></trkpt><trkpt lat="45.6480933" lon="11.2525067"><ele>668.0</ele><time>2026-04-19T14:43:30.709Z</time></trkpt><trkpt lat="45.64811" lon="11.2526417"><ele>667.0</ele><time>2026-04-19T14:43:31.709Z</time></trkpt><trkpt lat="45.6481367" lon="11.2527683"><ele>666.0</ele><time>2026-04-19T14:43:32.709Z</time></trkpt><trkpt lat="45.6481633" lon="11.2528817"><ele>665.0</ele><time>2026-04-19T14:43:33.71Z</time></trkpt><trkpt lat="45.648195" lon="11.2529833"><ele>664.0</ele><time>2026-04-19T14:43:34.709Z</time></trkpt><trkpt lat="45.6482117" lon="11.25309"><ele>663.0</ele><time>2026-04-19T14:43:35.71Z</time></trkpt><trkpt lat="45.6482067" lon="11.2531983"><ele>662.0</ele><time>2026-04-19T14:43:36.71Z</time></trkpt><trkpt lat="45.6481883" lon="11.2533"><ele>661.0</ele><time>2026-04-19T14:43:37.71Z</time></trkpt><trkpt lat="45.64816" lon="11.253395"><ele>660.0</ele><time>2026-04-19T14:43:38.71Z</time></trkpt><trkpt lat="45.6481383" lon="11.2535433"><ele>659.0</ele><time>2026-04-19T14:43:40.71Z</time></trkpt><trkpt lat="45.6482117" lon="11.2536433"><ele>658.0</ele><time>2026-04-19T14:43:42.709Z</time></trkpt><trkpt lat="45.6483233" lon="11.253615"><ele>657.0</ele><time>2026-04-19T14:43:44.709Z</time></trkpt><trkpt lat="45.6484033" lon="11.2534967"><ele>657.0</ele><time>2026-04-19T14:43:46.71Z</time></trkpt><trkpt lat="45.6484733" lon="11.2533717"><ele>657.0</ele><time>2026-04-19T14:43:48.71Z</time></trkpt><trkpt lat="45.6485367" lon="11.2532533"><ele>657.0</ele><time>2026-04-19T14:43:50.71Z</time></trkpt><trkpt lat="45.64859" lon="11.2531517"><ele>657.0</ele><time>2026-04-19T14:43:52.709Z</time></trkpt><trkpt lat="45.6486383" lon="11.2530667"><ele>657.0</ele><time>2026-04-19T14:43:54.71Z</time></trkpt><trkpt lat="45.648685" lon="11.2529983"><ele>657.0</ele><time>2026-04-19T14:43:56.709Z</time></trkpt><trkpt lat="45.6487483" lon="11.2529333"><ele>655.5</ele><time>2026-04-19T14:43:58.71Z</time></trkpt><trkpt lat="45.6488333" lon="11.2528067"><ele>654.0</ele><time>2026-04-19T14:44:00.709Z</time></trkpt><trkpt lat="45.6488783" lon="11.2527267"><ele>652.5</ele><time>2026-04-19T14:44:01.709Z</time></trkpt><trkpt lat="45.6489167" lon="11.252645"><ele>651.0</ele><time>2026-04-19T14:44:02.709Z</time></trkpt><trkpt lat="45.648955" lon="11.252565"><ele>649.5</ele><time>2026-04-19T14:44:03.71Z</time></trkpt><trkpt lat="45.6489883" lon="11.252485"><ele>648.0</ele><time>2026-04-19T14:44:04.71Z</time></trkpt><trkpt lat="45.6487583" lon="11.252385"><ele>648.0</ele><time>2026-04-19T14:44:07.055Z</time></trkpt><trkpt lat="45.6490467" lon="11.252405"><ele>648.0</ele><time>2026-04-19T14:44:08.211Z</time></trkpt><trkpt lat="45.6491233" lon="11.2522567"><ele>648.0</ele><time>2026-04-19T14:44:10.711Z</time></trkpt><trkpt lat="45.649175" lon="11.2522017"><ele>648.8</ele><time>2026-04-19T14:44:11.711Z</time></trkpt><trkpt lat="45.6492633" lon="11.2521233"><ele>649.5999999999999</ele><time>2026-04-19T14:44:13.71Z</time></trkpt><trkpt lat="45.6493617" lon="11.252065"><ele>650.4000000000001</ele><time>2026-04-19T14:44:15.71Z</time></trkpt><trkpt lat="45.6494583" lon="11.252005"><ele>651.2</ele><time>2026-04-19T14:44:17.71Z</time></trkpt><trkpt lat="45.64954" lon="11.2519667"><ele>652.0</ele><time>2026-04-19T14:44:19.711Z</time></trkpt><trkpt lat="45.6496183" lon="11.2519333"><ele>652.0</ele><time>2026-04-19T14:44:22.71Z</time></trkpt><trkpt lat="45.649685" lon="11.251855"><ele>652.0</ele><time>2026-04-19T14:44:27.711Z</time></trkpt><trkpt lat="45.6497133" lon="11.2517717"><ele>652.0</ele><time>2026-04-19T14:44:31.71Z</time></trkpt><trkpt lat="45.64966" lon="11.2518667"><ele>652.0</ele><time>2026-04-19T14:44:40.71Z</time></trkpt><trkpt lat="45.64958" lon="11.2519467"><ele>652.0</ele><time>2026-04-19T14:44:42.71Z</time></trkpt><trkpt lat="45.649465" lon="11.2519983"><ele>652.5714285714286</ele><time>2026-04-19T14:44:44.71Z</time></trkpt><trkpt lat="45.6494017" lon="11.2520333"><ele>653.1428571428571</ele><time>2026-04-19T14:44:45.711Z</time></trkpt><trkpt lat="45.649335" lon="11.252065"><ele>653.7142857142857</ele><time>2026-04-19T14:44:46.711Z</time></trkpt><trkpt lat="45.6492733" lon="11.252105"><ele>654.2857142857142</ele><time>2026-04-19T14:44:47.71Z</time></trkpt><trkpt lat="45.64921" lon="11.2521417"><ele>654.8571428571429</ele><time>2026-04-19T14:44:48.71Z</time></trkpt><trkpt lat="45.6491483" lon="11.25219"><ele>655.4285714285713</ele><time>2026-04-19T14:44:49.711Z</time></trkpt><trkpt lat="45.649075" lon="11.2522817"><ele>656.0</ele><time>2026-04-19T14:44:51.71Z</time></trkpt><trkpt lat="45.6490661" lon="11.2524013"><ele>654.6666666666666</ele><time>2026-04-19T14:44:54.711Z</time></trkpt><trkpt lat="45.6491422" lon="11.2524793"><ele>653.3333333333333</ele><time>2026-04-19T14:44:57.71Z</time></trkpt><trkpt lat="45.6492161" lon="11.252453"><ele>652.0</ele><time>2026-04-19T14:45:00.733Z</time></trkpt><trkpt lat="45.6492783" lon="11.2524033"><ele>650.6666666666666</ele><time>2026-04-19T14:45:02.711Z</time></trkpt><trkpt lat="45.6493567" lon="11.2524183"><ele>649.3333333333334</ele><time>2026-04-19T14:45:05.711Z</time></trkpt><trkpt lat="45.6493983" lon="11.2525083"><ele>648.0</ele><time>2026-04-19T14:45:07.71Z</time></trkpt><trkpt lat="45.64945" lon="11.2525933"><ele>646.8571428571429</ele><time>2026-04-19T14:45:09.711Z</time></trkpt><trkpt lat="45.6495067" lon="11.2526433"><ele>645.7142857142857</ele><time>2026-04-19T14:45:11.71Z</time></trkpt><trkpt lat="45.6495767" lon="11.2526867"><ele>644.5714285714286</ele><time>2026-04-19T14:45:13.711Z</time></trkpt><trkpt lat="45.6496383" lon="11.2527333"><ele>643.4285714285714</ele><time>2026-04-19T14:45:15.711Z</time></trkpt><trkpt lat="45.6496867" lon="11.252795"><ele>642.2857142857143</ele><time>2026-04-19T14:45:17.711Z</time></trkpt><trkpt lat="45.64974" lon="11.252855"><ele>641.1428571428571</ele><time>2026-04-19T14:45:19.711Z</time></trkpt><trkpt lat="45.649805" lon="11.2529267"><ele>640.0</ele><time>2026-04-19T14:45:22.711Z</time></trkpt><trkpt lat="45.64992" lon="11.252965"><ele>640.0</ele><time>2026-04-19T14:45:34.71Z</time></trkpt><trkpt lat="45.6499817" lon="11.252915"><ele>640.0</ele><time>2026-04-19T14:45:36.71Z</time></trkpt><trkpt lat="45.6500367" lon="11.2528467"><ele>640.0</ele><time>2026-04-19T14:45:38.711Z</time></trkpt><trkpt lat="45.650085" lon="11.2527867"><ele>640.0</ele><time>2026-04-19T14:45:40.711Z</time></trkpt><trkpt lat="45.6501533" lon="11.2528183"><ele>640.0</ele><time>2026-04-19T14:45:43.711Z</time></trkpt><trkpt lat="45.650235" lon="11.2528817"><ele>640.0</ele><time>2026-04-19T14:45:46.71Z</time></trkpt><trkpt lat="45.6502983" lon="11.2529417"><ele>640.0</ele><time>2026-04-19T14:45:49.711Z</time></trkpt><trkpt lat="45.650335" lon="11.2530167"><ele>639.2857142857142</ele><time>2026-04-19T14:45:52.71Z</time></trkpt><trkpt lat="45.6503767" lon="11.2531117"><ele>638.5714285714286</ele><time>2026-04-19T14:45:55.71Z</time></trkpt><trkpt lat="45.6504617" lon="11.2530717"><ele>637.8571428571429</ele><time>2026-04-19T14:46:31.71Z</time></trkpt><trkpt lat="45.6505117" lon="11.2530117"><ele>637.1428571428571</ele><time>2026-04-19T14:46:34.711Z</time></trkpt><trkpt lat="45.6505483" lon="11.2529233"><ele>636.4285714285714</ele><time>2026-04-19T14:46:37.71Z</time></trkpt><trkpt lat="45.6505833" lon="11.252835"><ele>635.7142857142857</ele><time>2026-04-19T14:46:40.71Z</time></trkpt><trkpt lat="45.650645" lon="11.252795"><ele>635.0</ele><time>2026-04-19T14:46:44.71Z</time></trkpt><trkpt lat="45.6507" lon="11.2528783"><ele>635.0</ele><time>2026-04-19T14:46:49.71Z</time></trkpt><trkpt lat="45.650745" lon="11.2529783"><ele>635.0</ele><time>2026-04-19T14:46:52.711Z</time></trkpt><trkpt lat="45.6507917" lon="11.253095"><ele>635.0</ele><time>2026-04-19T14:46:55.711Z</time></trkpt><trkpt lat="45.65082" lon="11.2532033"><ele>635.0</ele><time>2026-04-19T14:46:57.711Z</time></trkpt><trkpt lat="45.65087" lon="11.2533033"><ele>635.0</ele><time>2026-04-19T14:46:59.711Z</time></trkpt><trkpt lat="45.65091" lon="11.2533917"><ele>635.0</ele><time>2026-04-19T14:47:01.711Z</time></trkpt><trkpt lat="45.6509283" lon="11.25349"><ele>632.6666666666666</ele><time>2026-04-19T14:47:03.71Z</time></trkpt><trkpt lat="45.6509767" lon="11.2535983"><ele>630.3333333333333</ele><time>2026-04-19T14:47:06.711Z</time></trkpt><trkpt lat="45.6510433" lon="11.2536833"><ele>628.0</ele><time>2026-04-19T14:47:09.711Z</time></trkpt><trkpt lat="45.6510967" lon="11.2537567"><ele>625.6666666666666</ele><time>2026-04-19T14:47:11.71Z</time></trkpt><trkpt lat="45.6511633" lon="11.2538217"><ele>623.3333333333334</ele><time>2026-04-19T14:47:14.71Z</time></trkpt><trkpt lat="45.6512533" lon="11.2538683"><ele>621.0</ele><time>2026-04-19T14:47:17.711Z</time></trkpt><trkpt lat="45.6513233" lon="11.25394"><ele>617.1666666666666</ele><time>2026-04-19T14:47:19.71Z</time></trkpt><trkpt lat="45.6514" lon="11.25401"><ele>613.3333333333334</ele><time>2026-04-19T14:47:21.71Z</time></trkpt><trkpt lat="45.65146" lon="11.2540933"><ele>609.5</ele><time>2026-04-19T14:47:23.711Z</time></trkpt><trkpt lat="45.6514983" lon="11.2542233"><ele>605.6666666666667</ele><time>2026-04-19T14:47:25.711Z</time></trkpt><trkpt lat="45.6515267" lon="11.254315"><ele>601.8333333333334</ele><time>2026-04-19T14:47:27.711Z</time></trkpt><trkpt lat="45.651575" lon="11.25439"><ele>598.0</ele><time>2026-04-19T14:47:29.711Z</time></trkpt><trkpt lat="45.65171" lon="11.2545333"><ele>598.0</ele><time>2026-04-19T14:47:54.71Z</time></trkpt><trkpt lat="45.6517933" lon="11.2545767"><ele>598.0</ele><time>2026-04-19T14:47:57.71Z</time></trkpt><trkpt lat="45.6518667" lon="11.25461"><ele>598.0</ele><time>2026-04-19T14:47:59.711Z</time></trkpt><trkpt lat="45.651945" lon="11.2546483"><ele>598.0</ele><time>2026-04-19T14:48:01.711Z</time></trkpt><trkpt lat="45.6520233" lon="11.254655"><ele>598.0</ele><time>2026-04-19T14:48:03.711Z</time></trkpt><trkpt lat="45.6520933" lon="11.25464"><ele>598.0</ele><time>2026-04-19T14:48:05.711Z</time></trkpt><trkpt lat="45.6521833" lon="11.2546267"><ele>597.8</ele><time>2026-04-19T14:48:07.711Z</time></trkpt><trkpt lat="45.6522817" lon="11.2546217"><ele>597.5999999999999</ele><time>2026-04-19T14:48:09.711Z</time></trkpt><trkpt lat="45.6523783" lon="11.2546133"><ele>597.4000000000001</ele><time>2026-04-19T14:48:11.711Z</time></trkpt><trkpt lat="45.65249" lon="11.254605"><ele>597.2</ele><time>2026-04-19T14:48:13.71Z</time></trkpt><trkpt lat="45.652595" lon="11.2545833"><ele>597.0</ele><time>2026-04-19T14:48:15.71Z</time></trkpt><trkpt lat="45.6526933" lon="11.254545"><ele>596.8333333333334</ele><time>2026-04-19T14:48:17.71Z</time></trkpt><trkpt lat="45.652795" lon="11.254485"><ele>596.6666666666666</ele><time>2026-04-19T14:48:19.71Z</time></trkpt><trkpt lat="45.6528733" lon="11.2544417"><ele>596.5</ele><time>2026-04-19T14:48:21.711Z</time></trkpt><trkpt lat="45.6529383" lon="11.2544283"><ele>596.3333333333333</ele><time>2026-04-19T14:48:23.711Z</time></trkpt><trkpt lat="45.6530133" lon="11.25443"><ele>596.1666666666666</ele><time>2026-04-19T14:48:25.711Z</time></trkpt><trkpt lat="45.6531017" lon="11.2544083"><ele>596.0</ele><time>2026-04-19T14:48:27.711Z</time></trkpt><trkpt lat="45.6531817" lon="11.2544217"><ele>596.0</ele><time>2026-04-19T14:48:29.71Z</time></trkpt><trkpt lat="45.653255" lon="11.2544983"><ele>596.0</ele><time>2026-04-19T14:48:31.71Z</time></trkpt><trkpt lat="45.6533233" lon="11.2546067"><ele>596.0</ele><time>2026-04-19T14:48:33.71Z</time></trkpt><trkpt lat="45.653395" lon="11.2546983"><ele>596.0</ele><time>2026-04-19T14:48:35.711Z</time></trkpt><trkpt lat="45.65347" lon="11.2547683"><ele>596.0</ele><time>2026-04-19T14:48:37.71Z</time></trkpt><trkpt lat="45.653565" lon="11.2548633"><ele>591.8</ele><time>2026-04-19T14:48:39.711Z</time></trkpt><trkpt lat="45.6536733" lon="11.2549383"><ele>587.6</ele><time>2026-04-19T14:48:41.71Z</time></trkpt><trkpt lat="45.653775" lon="11.2549883"><ele>583.4</ele><time>2026-04-19T14:48:43.711Z</time></trkpt><trkpt lat="45.6538667" lon="11.25501"><ele>579.2</ele><time>2026-04-19T14:48:45.71Z</time></trkpt><trkpt lat="45.653945" lon="11.2550083"><ele>575.0</ele><time>2026-04-19T14:48:47.711Z</time></trkpt><trkpt lat="45.65402" lon="11.255015"><ele>575.0</ele><time>2026-04-19T14:48:49.711Z</time></trkpt><trkpt lat="45.6540933" lon="11.255015"><ele>575.0</ele><time>2026-04-19T14:48:51.711Z</time></trkpt><trkpt lat="45.6541767" lon="11.2550133"><ele>575.0</ele><time>2026-04-19T14:48:54.71Z</time></trkpt><trkpt lat="45.6542567" lon="11.2549883"><ele>575.0</ele><time>2026-04-19T14:48:57.71Z</time></trkpt><trkpt lat="45.6543267" lon="11.2549967"><ele>575.0</ele><time>2026-04-19T14:48:59.711Z</time></trkpt><trkpt lat="45.65441" lon="11.2550083"><ele>575.0</ele><time>2026-04-19T14:49:01.71Z</time></trkpt><trkpt lat="45.6544883" lon="11.2550433"><ele>577.6</ele><time>2026-04-19T14:49:03.711Z</time></trkpt><trkpt lat="45.6545717" lon="11.255125"><ele>580.2</ele><time>2026-04-19T14:49:05.71Z</time></trkpt><trkpt lat="45.6546433" lon="11.2552017"><ele>582.8</ele><time>2026-04-19T14:49:07.711Z</time></trkpt><trkpt lat="45.654705" lon="11.25528"><ele>585.4</ele><time>2026-04-19T14:49:09.711Z</time></trkpt><trkpt lat="45.6547833" lon="11.25534"><ele>588.0</ele><time>2026-04-19T14:49:11.71Z</time></trkpt><trkpt lat="45.6548683" lon="11.255405"><ele>588.0</ele><time>2026-04-19T14:49:13.711Z</time></trkpt><trkpt lat="45.6549683" lon="11.255475"><ele>588.0</ele><time>2026-04-19T14:49:15.71Z</time></trkpt><trkpt lat="45.6550467" lon="11.255535"><ele>588.0</ele><time>2026-04-19T14:49:17.711Z</time></trkpt><trkpt lat="45.655115" lon="11.25557"><ele>588.0</ele><time>2026-04-19T14:49:20.71Z</time></trkpt><trkpt lat="45.6551833" lon="11.2556233"><ele>588.0</ele><time>2026-04-19T14:49:24.71Z</time></trkpt><trkpt lat="45.65527" lon="11.2556567"><ele>588.0</ele><time>2026-04-19T14:49:26.71Z</time></trkpt><trkpt lat="45.655385" lon="11.2556867"><ele>585.1666666666666</ele><time>2026-04-19T14:49:28.71Z</time></trkpt><trkpt lat="45.6554467" lon="11.2557067"><ele>582.3333333333334</ele><time>2026-04-19T14:49:29.711Z</time></trkpt><trkpt lat="45.6555583" lon="11.255775"><ele>579.5</ele><time>2026-04-19T14:49:31.711Z</time></trkpt><trkpt lat="45.6556183" lon="11.25581"><ele>576.6666666666667</ele><time>2026-04-19T14:49:32.71Z</time></trkpt><trkpt lat="45.6556817" lon="11.25584"><ele>573.8333333333334</ele><time>2026-04-19T14:49:33.71Z</time></trkpt><trkpt lat="45.6557483" lon="11.2558867"><ele>571.0</ele><time>2026-04-19T14:49:34.71Z</time></trkpt><trkpt lat="45.65582" lon="11.2559317"><ele>571.0</ele><time>2026-04-19T14:49:35.711Z</time></trkpt><trkpt lat="45.6558783" lon="11.2559817"><ele>571.0</ele><time>2026-04-19T14:49:36.711Z</time></trkpt><trkpt lat="45.6559633" lon="11.2560617"><ele>571.0</ele><time>2026-04-19T14:49:38.711Z</time></trkpt><trkpt lat="45.6560417" lon="11.2561233"><ele>571.0</ele><time>2026-04-19T14:49:44.71Z</time></trkpt><trkpt lat="45.6561183" lon="11.256215"><ele>571.0</ele><time>2026-04-19T14:49:47.711Z</time></trkpt><trkpt lat="45.6561767" lon="11.25629"><ele>571.0</ele><time>2026-04-19T14:49:49.71Z</time></trkpt><trkpt lat="45.65623" lon="11.2563467"><ele>571.3333333333334</ele><time>2026-04-19T14:49:51.711Z</time></trkpt><trkpt lat="45.6562883" lon="11.2564"><ele>571.6666666666667</ele><time>2026-04-19T14:49:53.711Z</time></trkpt><trkpt lat="45.65635" lon="11.2564417"><ele>572.0</ele><time>2026-04-19T14:49:55.711Z</time></trkpt><trkpt lat="45.6564183" lon="11.2564767"><ele>572.3333333333334</ele><time>2026-04-19T14:49:57.71Z</time></trkpt><trkpt lat="45.6564983" lon="11.2565467"><ele>572.6666666666666</ele><time>2026-04-19T14:49:59.711Z</time></trkpt><trkpt lat="45.6566033" lon="11.2566283"><ele>573.0</ele><time>2026-04-19T14:50:01.711Z</time></trkpt><trkpt lat="45.65669" lon="11.2566933"><ele>570.0</ele><time>2026-04-19T14:50:03.711Z</time></trkpt><trkpt lat="45.6567733" lon="11.2567517"><ele>567.0</ele><time>2026-04-19T14:50:05.71Z</time></trkpt><trkpt lat="45.65683" lon="11.2567983"><ele>564.0</ele><time>2026-04-19T14:50:07.711Z</time></trkpt><trkpt lat="45.6568967" lon="11.25679"><ele>561.0</ele><time>2026-04-19T14:50:10.711Z</time></trkpt><trkpt lat="45.65696" lon="11.2567467"><ele>558.0</ele><time>2026-04-19T14:50:15.711Z</time></trkpt><trkpt lat="45.6570217" lon="11.25667"><ele>555.0</ele><time>2026-04-19T14:50:18.71Z</time></trkpt><trkpt lat="45.657065" lon="11.25659"><ele>552.0</ele><time>2026-04-19T14:50:21.711Z</time></trkpt><trkpt lat="45.65711" lon="11.2565233"><ele>552.2857142857143</ele><time>2026-04-19T14:50:24.71Z</time></trkpt><trkpt lat="45.6571467" lon="11.25644"><ele>552.5714285714287</ele><time>2026-04-19T14:50:27.71Z</time></trkpt><trkpt lat="45.6571833" lon="11.2563467"><ele>552.8571428571429</ele><time>2026-04-19T14:50:29.71Z</time></trkpt><trkpt lat="45.65722" lon="11.2562433"><ele>553.1428571428571</ele><time>2026-04-19T14:50:31.711Z</time></trkpt><trkpt lat="45.6572467" lon="11.2561517"><ele>553.4285714285713</ele><time>2026-04-19T14:50:33.71Z</time></trkpt><trkpt lat="45.6572683" lon="11.2560483"><ele>553.7142857142857</ele><time>2026-04-19T14:50:35.711Z</time></trkpt><trkpt lat="45.6572883" lon="11.2559383"><ele>554.0</ele><time>2026-04-19T14:50:37.711Z</time></trkpt><trkpt lat="45.6573017" lon="11.2558033"><ele>554.0</ele><time>2026-04-19T14:50:40.711Z</time></trkpt><trkpt lat="45.6573117" lon="11.2557017"><ele>554.0</ele><time>2026-04-19T14:50:42.711Z</time></trkpt><trkpt lat="45.657325" lon="11.2558333"><ele>554.0</ele><time>2026-04-19T14:51:23.71Z</time></trkpt><trkpt lat="45.6573283" lon="11.2559317"><ele>554.0</ele><time>2026-04-19T14:51:25.711Z</time></trkpt><trkpt lat="45.6573167" lon="11.2560233"><ele>554.0</ele><time>2026-04-19T14:51:27.71Z</time></trkpt><trkpt lat="45.6572933" lon="11.2561367"><ele>554.0</ele><time>2026-04-19T14:51:30.71Z</time></trkpt><trkpt lat="45.65725" lon="11.2562533"><ele>554.0</ele><time>2026-04-19T14:51:33.71Z</time></trkpt><trkpt lat="45.6572067" lon="11.2563433"><ele>554.0</ele><time>2026-04-19T14:51:35.71Z</time></trkpt><trkpt lat="45.65717" lon="11.256425"><ele>554.0</ele><time>2026-04-19T14:51:37.711Z</time></trkpt><trkpt lat="45.6571217" lon="11.2565433"><ele>554.0</ele><time>2026-04-19T14:51:40.71Z</time></trkpt><trkpt lat="45.6570717" lon="11.2566417"><ele>554.0</ele><time>2026-04-19T14:51:42.711Z</time></trkpt><trkpt lat="45.657025" lon="11.256725"><ele>554.0</ele><time>2026-04-19T14:51:44.711Z</time></trkpt><trkpt lat="45.6569633" lon="11.2567833"><ele>552.3333333333333</ele><time>2026-04-19T14:51:47.71Z</time></trkpt><trkpt lat="45.657" lon="11.2569483"><ele>550.6666666666666</ele><time>2026-04-19T14:52:01.71Z</time></trkpt><trkpt lat="45.6570417" lon="11.2570417"><ele>549.0</ele><time>2026-04-19T14:52:03.711Z</time></trkpt><trkpt lat="45.6570683" lon="11.257145"><ele>547.3333333333334</ele><time>2026-04-19T14:52:05.71Z</time></trkpt><trkpt lat="45.6570917" lon="11.2572433"><ele>545.6666666666667</ele><time>2026-04-19T14:52:07.71Z</time></trkpt><trkpt lat="45.6571217" lon="11.2573233"><ele>544.0</ele><time>2026-04-19T14:52:10.711Z</time></trkpt><trkpt lat="45.65718" lon="11.25739"><ele>542.7142857142857</ele><time>2026-04-19T14:52:16.711Z</time></trkpt><trkpt lat="45.6572267" lon="11.2574633"><ele>541.4285714285714</ele><time>2026-04-19T14:52:19.71Z</time></trkpt><trkpt lat="45.6572717" lon="11.2575417"><ele>540.1428571428571</ele><time>2026-04-19T14:52:23.711Z</time></trkpt><trkpt lat="45.6573183" lon="11.2576033"><ele>538.8571428571429</ele><time>2026-04-19T14:52:26.711Z</time></trkpt><trkpt lat="45.65736" lon="11.2576767"><ele>537.5714285714286</ele><time>2026-04-19T14:52:29.711Z</time></trkpt><trkpt lat="45.6574" lon="11.257755"><ele>536.2857142857142</ele><time>2026-04-19T14:52:32.711Z</time></trkpt><trkpt lat="45.6574517" lon="11.2578433"><ele>535.0</ele><time>2026-04-19T14:52:35.71Z</time></trkpt><trkpt lat="45.6575183" lon="11.2579733"><ele>535.0</ele><time>2026-04-19T14:52:41.711Z</time></trkpt><trkpt lat="45.65757" lon="11.2580767"><ele>535.0</ele><time>2026-04-19T14:52:44.711Z</time></trkpt><trkpt lat="45.6576333" lon="11.2581833"><ele>535.0</ele><time>2026-04-19T14:52:47.711Z</time></trkpt><trkpt lat="45.6576717" lon="11.2582567"><ele>535.0</ele><time>2026-04-19T14:52:49.711Z</time></trkpt><trkpt lat="45.65773" lon="11.25834"><ele>535.0</ele><time>2026-04-19T14:52:52.711Z</time></trkpt><trkpt lat="45.65778" lon="11.2583967"><ele>535.0</ele><time>2026-04-19T14:52:54.711Z</time></trkpt><trkpt lat="45.6578383" lon="11.25849"><ele>531.1666666666667</ele><time>2026-04-19T14:52:56.71Z</time></trkpt><trkpt lat="45.6578933" lon="11.2585883"><ele>527.3333333333334</ele><time>2026-04-19T14:52:58.71Z</time></trkpt><trkpt lat="45.65795" lon="11.258655"><ele>523.5</ele><time>2026-04-19T14:53:00.71Z</time></trkpt><trkpt lat="45.65801" lon="11.25875"><ele>519.6666666666666</ele><time>2026-04-19T14:53:03.711Z</time></trkpt><trkpt lat="45.6580783" lon="11.2588017"><ele>515.8333333333333</ele><time>2026-04-19T14:53:06.71Z</time></trkpt><trkpt lat="45.6581567" lon="11.2588133"><ele>512.0</ele><time>2026-04-19T14:53:10.711Z</time></trkpt><trkpt lat="45.6582133" lon="11.2588583"><ele>512.0</ele><time>2026-04-19T14:53:12.711Z</time></trkpt><trkpt lat="45.6582917" lon="11.2588983"><ele>512.0</ele><time>2026-04-19T14:53:14.71Z</time></trkpt><trkpt lat="45.6583917" lon="11.2589417"><ele>512.0</ele><time>2026-04-19T14:53:16.71Z</time></trkpt><trkpt lat="45.6585017" lon="11.258985"><ele>512.0</ele><time>2026-04-19T14:53:18.71Z</time></trkpt><trkpt lat="45.6585933" lon="11.2590383"><ele>512.0</ele><time>2026-04-19T14:53:20.71Z</time></trkpt><trkpt lat="45.6586867" lon="11.2590783"><ele>509.4285714285714</ele><time>2026-04-19T14:53:22.711Z</time></trkpt><trkpt lat="45.6587567" lon="11.25913"><ele>506.8571428571428</ele><time>2026-04-19T14:53:24.71Z</time></trkpt><trkpt lat="45.6588083" lon="11.2592033"><ele>504.2857142857143</ele><time>2026-04-19T14:53:26.71Z</time></trkpt><trkpt lat="45.65885" lon="11.25929"><ele>501.71428571428567</ele><time>2026-04-19T14:53:28.711Z</time></trkpt><trkpt lat="45.6588717" lon="11.2593917"><ele>499.1428571428571</ele><time>2026-04-19T14:53:30.71Z</time></trkpt><trkpt lat="45.6588967" lon="11.2594883"><ele>496.57142857142856</ele><time>2026-04-19T14:53:32.711Z</time></trkpt><trkpt lat="45.6589333" lon="11.2595817"><ele>494.0</ele><time>2026-04-19T14:53:34.711Z</time></trkpt><trkpt lat="45.6589583" lon="11.2596767"><ele>493.99999999999994</ele><time>2026-04-19T14:53:36.711Z</time></trkpt><trkpt lat="45.658975" lon="11.25977"><ele>494.0</ele><time>2026-04-19T14:53:38.71Z</time></trkpt><trkpt lat="45.6590217" lon="11.2598983"><ele>494.0</ele><time>2026-04-19T14:53:41.71Z</time></trkpt><trkpt lat="45.6590717" lon="11.25999"><ele>494.0</ele><time>2026-04-19T14:53:43.711Z</time></trkpt><trkpt lat="45.6591217" lon="11.2601033"><ele>493.99999999999994</ele><time>2026-04-19T14:53:45.71Z</time></trkpt><trkpt lat="45.65916" lon="11.2601817"><ele>494.0</ele><time>2026-04-19T14:53:47.71Z</time></trkpt><trkpt lat="45.6592267" lon="11.2602667"><ele>494.14285714285717</ele><time>2026-04-19T14:53:50.711Z</time></trkpt><trkpt lat="45.6592767" lon="11.2603233"><ele>494.2857142857142</ele><time>2026-04-19T14:53:52.711Z</time></trkpt><trkpt lat="45.6593333" lon="11.2603633"><ele>494.4285714285714</ele><time>2026-04-19T14:53:54.711Z</time></trkpt><trkpt lat="45.6594" lon="11.2603867"><ele>494.57142857142856</ele><time>2026-04-19T14:53:56.711Z</time></trkpt><trkpt lat="45.659485" lon="11.2604067"><ele>494.71428571428567</ele><time>2026-04-19T14:53:59.71Z</time></trkpt><trkpt lat="45.6595553" lon="11.2603758"><ele>494.8571428571428</ele><time>2026-04-19T14:54:02.737Z</time></trkpt><trkpt lat="45.6595901" lon="11.2602794"><ele>494.99999999999994</ele><time>2026-04-19T14:54:04.753Z</time></trkpt><trkpt lat="45.6596417" lon="11.2601871"><ele>494.8333333333333</ele><time>2026-04-19T14:54:07.723Z</time></trkpt><trkpt lat="45.6596582" lon="11.2600897"><ele>494.66666666666663</ele><time>2026-04-19T14:54:11.781Z</time></trkpt><trkpt lat="45.659649" lon="11.2599803"><ele>494.5</ele><time>2026-04-19T14:54:14.72Z</time></trkpt><trkpt lat="45.6595844" lon="11.2598733"><ele>494.3333333333333</ele><time>2026-04-19T14:54:17.71Z</time></trkpt><trkpt lat="45.6595303" lon="11.2597828"><ele>494.16666666666663</ele><time>2026-04-19T14:54:19.778Z</time></trkpt><trkpt lat="45.6594767" lon="11.2596717"><ele>494.0</ele><time>2026-04-19T14:54:21.71Z</time></trkpt><trkpt lat="45.65945" lon="11.259555"><ele>493.99999999999994</ele><time>2026-04-19T14:54:23.711Z</time></trkpt><trkpt lat="45.6594117" lon="11.259455"><ele>494.0</ele><time>2026-04-19T14:54:26.71Z</time></trkpt><trkpt lat="45.6593717" lon="11.259385"><ele>494.0</ele><time>2026-04-19T14:54:28.711Z</time></trkpt><trkpt lat="45.659365" lon="11.259275"><ele>494.0</ele><time>2026-04-19T14:54:32.711Z</time></trkpt><trkpt lat="45.6593467" lon="11.25916"><ele>493.99999999999994</ele><time>2026-04-19T14:54:35.71Z</time></trkpt><trkpt lat="45.65929" lon="11.2590583"><ele>494.0</ele><time>2026-04-19T14:54:38.71Z</time></trkpt><trkpt lat="45.65923" lon="11.258965"><ele>490.99999999999994</ele><time>2026-04-19T14:54:41.711Z</time></trkpt><trkpt lat="45.6591883" lon="11.2588767"><ele>488.0</ele><time>2026-04-19T14:54:43.711Z</time></trkpt><trkpt lat="45.6591667" lon="11.2587733"><ele>485.0</ele><time>2026-04-19T14:54:45.711Z</time></trkpt><trkpt lat="45.6591417" lon="11.2586783"><ele>482.0</ele><time>2026-04-19T14:54:47.711Z</time></trkpt><trkpt lat="45.6590983" lon="11.25857"><ele>478.99999999999994</ele><time>2026-04-19T14:54:50.711Z</time></trkpt><trkpt lat="45.659055" lon="11.25849"><ele>476.0</ele><time>2026-04-19T14:54:52.711Z</time></trkpt><trkpt lat="45.6589867" lon="11.2584117"><ele>476.0</ele><time>2026-04-19T14:54:54.711Z</time></trkpt><trkpt lat="45.658915" lon="11.2583267"><ele>476.0</ele><time>2026-04-19T14:54:56.71Z</time></trkpt><trkpt lat="45.6588517" lon="11.25826"><ele>476.0</ele><time>2026-04-19T14:54:58.711Z</time></trkpt><trkpt lat="45.6588083" lon="11.2581917"><ele>476.0</ele><time>2026-04-19T14:55:00.71Z</time></trkpt><trkpt lat="45.6587683" lon="11.2581183"><ele>476.0</ele><time>2026-04-19T14:55:02.71Z</time></trkpt><trkpt lat="45.6587333" lon="11.2580417"><ele>476.0</ele><time>2026-04-19T14:55:04.711Z</time></trkpt><trkpt lat="45.6587017" lon="11.257955"><ele>476.0</ele><time>2026-04-19T14:55:06.711Z</time></trkpt><trkpt lat="45.6586817" lon="11.257825"><ele>477.7142857142857</ele><time>2026-04-19T14:55:09.71Z</time></trkpt><trkpt lat="45.65866" lon="11.2577383"><ele>479.42857142857144</ele><time>2026-04-19T14:55:11.711Z</time></trkpt><trkpt lat="45.6586383" lon="11.2576283"><ele>481.1428571428571</ele><time>2026-04-19T14:55:13.711Z</time></trkpt><trkpt lat="45.658605" lon="11.257515"><ele>482.85714285714283</ele><time>2026-04-19T14:55:15.71Z</time></trkpt><trkpt lat="45.6586" lon="11.2574183"><ele>484.57142857142856</ele><time>2026-04-19T14:55:17.71Z</time></trkpt><trkpt lat="45.6586483" lon="11.2573367"><ele>486.2857142857142</ele><time>2026-04-19T14:55:19.71Z</time></trkpt><trkpt lat="45.6586917" lon="11.2574217"><ele>487.99999999999994</ele><time>2026-04-19T14:55:27.71Z</time></trkpt><trkpt lat="45.6587267" lon="11.2575533"><ele>488.0</ele><time>2026-04-19T14:55:29.711Z</time></trkpt><trkpt lat="45.65875" lon="11.2576567"><ele>487.99999999999994</ele><time>2026-04-19T14:55:30.71Z</time></trkpt><trkpt lat="45.6587983" lon="11.257805"><ele>487.99999999999994</ele><time>2026-04-19T14:55:32.711Z</time></trkpt><trkpt lat="45.6588517" lon="11.257925"><ele>488.0</ele><time>2026-04-19T14:55:34.711Z</time></trkpt><trkpt lat="45.658935" lon="11.2579917"><ele>488.0</ele><time>2026-04-19T14:55:36.71Z</time></trkpt><trkpt lat="45.6590383" lon="11.2580467"><ele>487.99999999999994</ele><time>2026-04-19T14:55:38.711Z</time></trkpt><trkpt lat="45.6591" lon="11.2580933"><ele>488.0</ele><time>2026-04-19T14:55:39.711Z</time></trkpt><trkpt lat="45.6591633" lon="11.2581483"><ele>487.99999999999994</ele><time>2026-04-19T14:55:40.71Z</time></trkpt><trkpt lat="45.659215" lon="11.2582067"><ele>487.99999999999994</ele><time>2026-04-19T14:55:41.711Z</time></trkpt><trkpt lat="45.6592667" lon="11.25827"><ele>488.0</ele><time>2026-04-19T14:55:42.711Z</time></trkpt><trkpt lat="45.6593183" lon="11.25833"><ele>487.99999999999994</ele><time>2026-04-19T14:55:43.711Z</time></trkpt><trkpt lat="45.6593767" lon="11.2583933"><ele>487.99999999999994</ele><time>2026-04-19T14:55:44.71Z</time></trkpt><trkpt lat="45.6594317" lon="11.2584467"><ele>485.99999999999994</ele><time>2026-04-19T14:55:45.711Z</time></trkpt><trkpt lat="45.6595267" lon="11.2585317"><ele>484.0</ele><time>2026-04-19T14:55:47.711Z</time></trkpt><trkpt lat="45.6595867" lon="11.25863"><ele>482.0</ele><time>2026-04-19T14:55:49.711Z</time></trkpt><trkpt lat="45.659655" lon="11.2586967"><ele>480.0</ele><time>2026-04-19T14:55:51.711Z</time></trkpt><trkpt lat="45.6597233" lon="11.2587283"><ele>477.99999999999994</ele><time>2026-04-19T14:55:53.711Z</time></trkpt><trkpt lat="45.6597983" lon="11.2587467"><ele>476.0</ele><time>2026-04-19T14:55:55.711Z</time></trkpt><trkpt lat="45.6599067" lon="11.2587833"><ele>476.0</ele><time>2026-04-19T14:55:57.711Z</time></trkpt><trkpt lat="45.6600283" lon="11.2588267"><ele>476.0</ele><time>2026-04-19T14:55:59.711Z</time></trkpt><trkpt lat="45.6600867" lon="11.2588633"><ele>476.0</ele><time>2026-04-19T14:56:00.711Z</time></trkpt><trkpt lat="45.6601933" lon="11.258985"><ele>476.0</ele><time>2026-04-19T14:56:02.711Z</time></trkpt><trkpt lat="45.6602433" lon="11.2590717"><ele>476.0</ele><time>2026-04-19T14:56:03.711Z</time></trkpt><trkpt lat="45.6602917" lon="11.259145"><ele>478.20000000000005</ele><time>2026-04-19T14:56:04.71Z</time></trkpt><trkpt lat="45.66034" lon="11.2592233"><ele>480.40000000000003</ele><time>2026-04-19T14:56:05.711Z</time></trkpt><trkpt lat="45.66038" lon="11.2592983"><ele>482.6</ele><time>2026-04-19T14:56:06.711Z</time></trkpt><trkpt lat="45.66043" lon="11.259475"><ele>484.8</ele><time>2026-04-19T14:56:08.71Z</time></trkpt><trkpt lat="45.660445" lon="11.2596117"><ele>487.0</ele><time>2026-04-19T14:56:09.711Z</time></trkpt><trkpt lat="45.6604667" lon="11.2597367"><ele>483.33333333333337</ele><time>2026-04-19T14:56:10.71Z</time></trkpt><trkpt lat="45.6604917" lon="11.2598533"><ele>479.6666666666667</ele><time>2026-04-19T14:56:11.711Z</time></trkpt><trkpt lat="45.6605183" lon="11.2599733"><ele>476.0</ele><time>2026-04-19T14:56:12.711Z</time></trkpt><trkpt lat="45.6605417" lon="11.2600767"><ele>472.33333333333337</ele><time>2026-04-19T14:56:13.71Z</time></trkpt><trkpt lat="45.6606" lon="11.2602167"><ele>468.6666666666667</ele><time>2026-04-19T14:56:15.711Z</time></trkpt><trkpt lat="45.660635" lon="11.260305"><ele>465.0</ele><time>2026-04-19T14:56:16.711Z</time></trkpt><trkpt lat="45.6606667" lon="11.2603883"><ele>465.0</ele><time>2026-04-19T14:56:17.711Z</time></trkpt><trkpt lat="45.6607317" lon="11.26054"><ele>465.0</ele><time>2026-04-19T14:56:19.711Z</time></trkpt><trkpt lat="45.660775" lon="11.260685"><ele>465.0</ele><time>2026-04-19T14:56:21.711Z</time></trkpt><trkpt lat="45.660795" lon="11.260845"><ele>465.0</ele><time>2026-04-19T14:56:23.711Z</time></trkpt><trkpt lat="45.660805" lon="11.260935"><ele>465.0</ele><time>2026-04-19T14:56:24.711Z</time></trkpt><trkpt lat="45.6608217" lon="11.26103"><ele>463.6666666666667</ele><time>2026-04-19T14:56:25.71Z</time></trkpt><trkpt lat="45.6608433" lon="11.26114"><ele>462.33333333333337</ele><time>2026-04-19T14:56:26.711Z</time></trkpt><trkpt lat="45.6608633" lon="11.261255"><ele>461.0</ele><time>2026-04-19T14:56:27.711Z</time></trkpt><trkpt lat="45.660885" lon="11.26136"><ele>459.6666666666667</ele><time>2026-04-19T14:56:28.71Z</time></trkpt><trkpt lat="45.6608967" lon="11.2614617"><ele>458.33333333333337</ele><time>2026-04-19T14:56:29.711Z</time></trkpt><trkpt lat="45.6609" lon="11.2616217"><ele>457.0</ele><time>2026-04-19T14:56:31.711Z</time></trkpt><trkpt lat="45.6608633" lon="11.2617783"><ele>454.5</ele><time>2026-04-19T14:56:33.71Z</time></trkpt><trkpt lat="45.6608217" lon="11.26193"><ele>452.0</ele><time>2026-04-19T14:56:35.71Z</time></trkpt><trkpt lat="45.6608017" lon="11.2620967"><ele>449.5</ele><time>2026-04-19T14:56:37.71Z</time></trkpt><trkpt lat="45.6608117" lon="11.2622517"><ele>447.0</ele><time>2026-04-19T14:56:39.711Z</time></trkpt><trkpt lat="45.6608433" lon="11.262405"><ele>445.20000000000005</ele><time>2026-04-19T14:56:41.711Z</time></trkpt><trkpt lat="45.6608617" lon="11.2625033"><ele>443.40000000000003</ele><time>2026-04-19T14:56:42.71Z</time></trkpt><trkpt lat="45.660865" lon="11.2626317"><ele>441.59999999999997</ele><time>2026-04-19T14:56:43.71Z</time></trkpt><trkpt lat="45.660885" lon="11.2627833"><ele>439.79999999999995</ele><time>2026-04-19T14:56:44.711Z</time></trkpt><trkpt lat="45.66092" lon="11.262935"><ele>438.0</ele><time>2026-04-19T14:56:45.71Z</time></trkpt><trkpt lat="45.6609567" lon="11.2630667"><ele>436.8333333333333</ele><time>2026-04-19T14:56:46.711Z</time></trkpt><trkpt lat="45.6610033" lon="11.26318"><ele>435.66666666666663</ele><time>2026-04-19T14:56:47.711Z</time></trkpt><trkpt lat="45.661035" lon="11.2632633"><ele>434.5</ele><time>2026-04-19T14:56:48.711Z</time></trkpt><trkpt lat="45.661075" lon="11.26336"><ele>433.3333333333333</ele><time>2026-04-19T14:56:50.711Z</time></trkpt><trkpt lat="45.6610917" lon="11.2634517"><ele>432.16666666666663</ele><time>2026-04-19T14:56:52.711Z</time></trkpt><trkpt lat="45.661155" lon="11.2636167"><ele>431.0</ele><time>2026-04-19T14:56:54.711Z</time></trkpt><trkpt lat="45.6611833" lon="11.2637"><ele>429.8</ele><time>2026-04-19T14:56:55.71Z</time></trkpt><trkpt lat="45.6611867" lon="11.26379"><ele>428.6</ele><time>2026-04-19T14:56:56.71Z</time></trkpt><trkpt lat="45.661155" lon="11.2638817"><ele>427.4</ele><time>2026-04-19T14:56:57.71Z</time></trkpt><trkpt lat="45.66109" lon="11.26397"><ele>426.2</ele><time>2026-04-19T14:56:58.711Z</time></trkpt><trkpt lat="45.66101" lon="11.26408"><ele>425.0</ele><time>2026-04-19T14:56:59.71Z</time></trkpt><trkpt lat="45.6609217" lon="11.264215"><ele>425.0</ele><time>2026-04-19T14:57:00.711Z</time></trkpt><trkpt lat="45.6608383" lon="11.26436"><ele>425.0</ele><time>2026-04-19T14:57:01.711Z</time></trkpt><trkpt lat="45.66075" lon="11.264495"><ele>425.0</ele><time>2026-04-19T14:57:02.711Z</time></trkpt><trkpt lat="45.6606767" lon="11.2646267"><ele>425.0</ele><time>2026-04-19T14:57:03.71Z</time></trkpt><trkpt lat="45.6606183" lon="11.2647517"><ele>425.49999999999994</ele><time>2026-04-19T14:57:04.711Z</time></trkpt><trkpt lat="45.660575" lon="11.2648633"><ele>426.0</ele><time>2026-04-19T14:57:05.71Z</time></trkpt><trkpt lat="45.6605317" lon="11.2649633"><ele>426.5</ele><time>2026-04-19T14:57:06.71Z</time></trkpt><trkpt lat="45.6604867" lon="11.2650417"><ele>427.0</ele><time>2026-04-19T14:57:07.711Z</time></trkpt><trkpt lat="45.66045" lon="11.26513"><ele>427.49999999999994</ele><time>2026-04-19T14:57:08.71Z</time></trkpt><trkpt lat="45.6604317" lon="11.2652167"><ele>428.0</ele><time>2026-04-19T14:57:09.711Z</time></trkpt><trkpt lat="45.6604167" lon="11.2653233"><ele>428.0</ele><time>2026-04-19T14:57:10.711Z</time></trkpt><trkpt lat="45.66042" lon="11.2654483"><ele>427.99999999999994</ele><time>2026-04-19T14:57:11.71Z</time></trkpt><trkpt lat="45.6604333" lon="11.2655933"><ele>427.99999999999994</ele><time>2026-04-19T14:57:12.71Z</time></trkpt><trkpt lat="45.6604333" lon="11.26573"><ele>428.0</ele><time>2026-04-19T14:57:13.711Z</time></trkpt><trkpt lat="45.660435" lon="11.2658633"><ele>428.0</ele><time>2026-04-19T14:57:14.711Z</time></trkpt><trkpt lat="45.660435" lon="11.2659917"><ele>426.99999999999994</ele><time>2026-04-19T14:57:15.71Z</time></trkpt><trkpt lat="45.6604283" lon="11.26612"><ele>426.0</ele><time>2026-04-19T14:57:16.71Z</time></trkpt><trkpt lat="45.660425" lon="11.2662467"><ele>425.0</ele><time>2026-04-19T14:57:17.711Z</time></trkpt><trkpt lat="45.6604117" lon="11.266365"><ele>424.0</ele><time>2026-04-19T14:57:18.71Z</time></trkpt><trkpt lat="45.6603967" lon="11.2664917"><ele>422.99999999999994</ele><time>2026-04-19T14:57:19.711Z</time></trkpt><trkpt lat="45.66038" lon="11.2666017"><ele>422.0</ele><time>2026-04-19T14:57:20.71Z</time></trkpt><trkpt lat="45.6603617" lon="11.266705"><ele>421.20000000000005</ele><time>2026-04-19T14:57:21.711Z</time></trkpt><trkpt lat="45.660345" lon="11.2667967"><ele>420.4</ele><time>2026-04-19T14:57:22.71Z</time></trkpt><trkpt lat="45.6603233" lon="11.2668817"><ele>419.6</ele><time>2026-04-19T14:57:23.711Z</time></trkpt><trkpt lat="45.6602583" lon="11.2669917"><ele>418.79999999999995</ele><time>2026-04-19T14:57:25.711Z</time></trkpt><trkpt lat="45.66017" lon="11.2670783"><ele>418.0</ele><time>2026-04-19T14:57:27.711Z</time></trkpt><trkpt lat="45.66006" lon="11.2671483"><ele>417.1428571428571</ele><time>2026-04-19T14:57:29.71Z</time></trkpt><trkpt lat="45.6599967" lon="11.2671917"><ele>416.2857142857143</ele><time>2026-04-19T14:57:30.71Z</time></trkpt><trkpt lat="45.6599367" lon="11.2672567"><ele>415.42857142857144</ele><time>2026-04-19T14:57:31.71Z</time></trkpt><trkpt lat="45.6598717" lon="11.2673233"><ele>414.57142857142856</ele><time>2026-04-19T14:57:32.711Z</time></trkpt><trkpt lat="45.6598233" lon="11.267395"><ele>413.7142857142857</ele><time>2026-04-19T14:57:33.711Z</time></trkpt><trkpt lat="45.6597883" lon="11.267475"><ele>412.85714285714283</ele><time>2026-04-19T14:57:34.711Z</time></trkpt><trkpt lat="45.6597667" lon="11.26756"><ele>412.0</ele><time>2026-04-19T14:57:35.711Z</time></trkpt><trkpt lat="45.6597533" lon="11.2676633"><ele>411.50000000000006</ele><time>2026-04-19T14:57:36.711Z</time></trkpt><trkpt lat="45.65976" lon="11.2677767"><ele>411.0</ele><time>2026-04-19T14:57:37.711Z</time></trkpt><trkpt lat="45.6597733" lon="11.2679"><ele>410.5</ele><time>2026-04-19T14:57:38.711Z</time></trkpt><trkpt lat="45.6597917" lon="11.26802"><ele>410.0</ele><time>2026-04-19T14:57:39.71Z</time></trkpt><trkpt lat="45.6598083" lon="11.268135"><ele>409.50000000000006</ele><time>2026-04-19T14:57:40.71Z</time></trkpt><trkpt lat="45.6598183" lon="11.2682483"><ele>409.0</ele><time>2026-04-19T14:57:41.71Z</time></trkpt><trkpt lat="45.6598183" lon="11.2683683"><ele>409.0</ele><time>2026-04-19T14:57:42.711Z</time></trkpt><trkpt lat="45.659805" lon="11.2684883"><ele>409.0</ele><time>2026-04-19T14:57:43.711Z</time></trkpt><trkpt lat="45.6597783" lon="11.2686133"><ele>409.0</ele><time>2026-04-19T14:57:44.71Z</time></trkpt><trkpt lat="45.65974" lon="11.268745"><ele>409.0</ele><time>2026-04-19T14:57:45.71Z</time></trkpt><trkpt lat="45.6596933" lon="11.2688817"><ele>409.0</ele><time>2026-04-19T14:57:46.711Z</time></trkpt><trkpt lat="45.6596417" lon="11.26902"><ele>411.4</ele><time>2026-04-19T14:57:47.711Z</time></trkpt><trkpt lat="45.6595817" lon="11.2691567"><ele>413.79999999999995</ele><time>2026-04-19T14:57:48.711Z</time></trkpt><trkpt lat="45.659515" lon="11.26928"><ele>416.20000000000005</ele><time>2026-04-19T14:57:49.71Z</time></trkpt><trkpt lat="45.659445" lon="11.26939"><ele>418.6</ele><time>2026-04-19T14:57:50.71Z</time></trkpt><trkpt lat="45.6593667" lon="11.2694883"><ele>421.0</ele><time>2026-04-19T14:57:51.711Z</time></trkpt><trkpt lat="45.6592883" lon="11.2695817"><ele>416.20000000000005</ele><time>2026-04-19T14:57:52.711Z</time></trkpt><trkpt lat="45.6592167" lon="11.2696767"><ele>411.40000000000003</ele><time>2026-04-19T14:57:53.71Z</time></trkpt><trkpt lat="45.6591417" lon="11.26976"><ele>406.6</ele><time>2026-04-19T14:57:54.711Z</time></trkpt><trkpt lat="45.6590683" lon="11.2698533"><ele>401.8</ele><time>2026-04-19T14:57:55.71Z</time></trkpt><trkpt lat="45.6590033" lon="11.2699617"><ele>397.0</ele><time>2026-04-19T14:57:56.71Z</time></trkpt><trkpt lat="45.658945" lon="11.2700833"><ele>397.0</ele><time>2026-04-19T14:57:57.71Z</time></trkpt><trkpt lat="45.6588933" lon="11.2702033"><ele>397.0</ele><time>2026-04-19T14:57:58.711Z</time></trkpt><trkpt lat="45.65885" lon="11.2703367"><ele>397.0</ele><time>2026-04-19T14:57:59.71Z</time></trkpt><trkpt lat="45.6588167" lon="11.2704667"><ele>397.0</ele><time>2026-04-19T14:58:00.71Z</time></trkpt><trkpt lat="45.6588083" lon="11.2705933"><ele>397.0</ele><time>2026-04-19T14:58:01.71Z</time></trkpt><trkpt lat="45.6588217" lon="11.2707283"><ele>397.0</ele><time>2026-04-19T14:58:02.711Z</time></trkpt><trkpt lat="45.6588583" lon="11.27087"><ele>397.0</ele><time>2026-04-19T14:58:03.711Z</time></trkpt><trkpt lat="45.6589017" lon="11.2710117"><ele>397.0</ele><time>2026-04-19T14:58:04.712Z</time></trkpt><trkpt lat="45.6589404" lon="11.2711583"><ele>397.0</ele><time>2026-04-19T14:58:05.711Z</time></trkpt><trkpt lat="45.6589683" lon="11.2713181"><ele>397.0</ele><time>2026-04-19T14:58:06.711Z</time></trkpt><trkpt lat="45.6589823" lon="11.2714893"><ele>395.0</ele><time>2026-04-19T14:58:07.712Z</time></trkpt><trkpt lat="45.6589817" lon="11.2716639"><ele>393.0</ele><time>2026-04-19T14:58:08.712Z</time></trkpt><trkpt lat="45.658972" lon="11.271828"><ele>391.0</ele><time>2026-04-19T14:58:09.711Z</time></trkpt><trkpt lat="45.6589596" lon="11.2719831"><ele>389.0</ele><time>2026-04-19T14:58:10.711Z</time></trkpt><trkpt lat="45.6589421" lon="11.272131"><ele>387.2</ele><time>2026-04-19T14:58:11.712Z</time></trkpt><trkpt lat="45.6589281" lon="11.2722765"><ele>385.4</ele><time>2026-04-19T14:58:12.711Z</time></trkpt><trkpt lat="45.6589214" lon="11.2724132"><ele>383.6</ele><time>2026-04-19T14:58:13.711Z</time></trkpt><trkpt lat="45.658915" lon="11.2725477"><ele>381.8</ele><time>2026-04-19T14:58:14.712Z</time></trkpt><trkpt lat="45.6589152" lon="11.2726739"><ele>380.0</ele><time>2026-04-19T14:58:15.711Z</time></trkpt><trkpt lat="45.6589244" lon="11.2727913"><ele>380.0</ele><time>2026-04-19T14:58:16.712Z</time></trkpt><trkpt lat="45.6589368" lon="11.2729095"><ele>380.0</ele><time>2026-04-19T14:58:17.712Z</time></trkpt><trkpt lat="45.6589571" lon="11.2730215"><ele>380.0</ele><time>2026-04-19T14:58:18.712Z</time></trkpt><trkpt lat="45.6589878" lon="11.2731412"><ele>380.0</ele><time>2026-04-19T14:58:19.711Z</time></trkpt><trkpt lat="45.6590316" lon="11.2732653"><ele>380.0</ele><time>2026-04-19T14:58:20.712Z</time></trkpt><trkpt lat="45.6590813" lon="11.2733954"><ele>378.8</ele><time>2026-04-19T14:58:21.712Z</time></trkpt><trkpt lat="45.6591332" lon="11.2735268"><ele>377.6</ele><time>2026-04-19T14:58:22.711Z</time></trkpt><trkpt lat="45.6591859" lon="11.2736522"><ele>376.4</ele><time>2026-04-19T14:58:23.711Z</time></trkpt><trkpt lat="45.6592209" lon="11.2737865"><ele>375.2</ele><time>2026-04-19T14:58:24.712Z</time></trkpt><trkpt lat="45.6592346" lon="11.2739405"><ele>374.0</ele><time>2026-04-19T14:58:25.711Z</time></trkpt><trkpt lat="45.659229" lon="11.2741031"><ele>373.75</ele><time>2026-04-19T14:58:26.712Z</time></trkpt><trkpt lat="45.659207" lon="11.2742779"><ele>373.5</ele><time>2026-04-19T14:58:27.711Z</time></trkpt><trkpt lat="45.6591806" lon="11.2744536"><ele>373.25</ele><time>2026-04-19T14:58:28.711Z</time></trkpt><trkpt lat="45.6591601" lon="11.2746258"><ele>373.0</ele><time>2026-04-19T14:58:29.712Z</time></trkpt><trkpt lat="45.6591509" lon="11.274793"><ele>374.0</ele><time>2026-04-19T14:58:30.712Z</time></trkpt><trkpt lat="45.6591399" lon="11.2749536"><ele>375.0</ele><time>2026-04-19T14:58:31.712Z</time></trkpt><trkpt lat="45.6591347" lon="11.2750983"><ele>376.0</ele><time>2026-04-19T14:58:32.712Z</time></trkpt><trkpt lat="45.6591348" lon="11.2752318"><ele>377.0</ele><time>2026-04-19T14:58:33.711Z</time></trkpt><trkpt lat="45.6591384" lon="11.2753511"><ele>378.0</ele><time>2026-04-19T14:58:34.712Z</time></trkpt><trkpt lat="45.6591468" lon="11.2754619"><ele>378.0</ele><time>2026-04-19T14:58:35.711Z</time></trkpt><trkpt lat="45.6591534" lon="11.2755669"><ele>378.0</ele><time>2026-04-19T14:58:36.712Z</time></trkpt><trkpt lat="45.659162" lon="11.2756784"><ele>378.0</ele><time>2026-04-19T14:58:37.712Z</time></trkpt><trkpt lat="45.6591722" lon="11.2757866"><ele>378.0</ele><time>2026-04-19T14:58:38.712Z</time></trkpt><trkpt lat="45.659192" lon="11.2759088"><ele>378.0</ele><time>2026-04-19T14:58:39.711Z</time></trkpt><trkpt lat="45.6592248" lon="11.2760417"><ele>378.0</ele><time>2026-04-19T14:58:40.711Z</time></trkpt><trkpt lat="45.6592758" lon="11.2761913"><ele>377.5</ele><time>2026-04-19T14:58:41.712Z</time></trkpt><trkpt lat="45.659335" lon="11.276345"><ele>377.0</ele><time>2026-04-19T14:58:42.711Z</time></trkpt><trkpt lat="45.6593911" lon="11.276494"><ele>376.5</ele><time>2026-04-19T14:58:43.711Z</time></trkpt><trkpt lat="45.6594391" lon="11.2766492"><ele>376.0</ele><time>2026-04-19T14:58:44.712Z</time></trkpt><trkpt lat="45.6594833" lon="11.2767998"><ele>377.8</ele><time>2026-04-19T14:58:45.712Z</time></trkpt><trkpt lat="45.6595227" lon="11.2769486"><ele>379.6</ele><time>2026-04-19T14:58:46.711Z</time></trkpt><trkpt lat="45.6595541" lon="11.2770981"><ele>381.4</ele><time>2026-04-19T14:58:47.711Z</time></trkpt><trkpt lat="45.6595943" lon="11.2772407"><ele>383.2</ele><time>2026-04-19T14:58:48.711Z</time></trkpt><trkpt lat="45.659639" lon="11.2773748"><ele>385.0</ele><time>2026-04-19T14:58:49.712Z</time></trkpt><trkpt lat="45.6596885" lon="11.2775052"><ele>380.5</ele><time>2026-04-19T14:58:50.712Z</time></trkpt><trkpt lat="45.6597354" lon="11.2776437"><ele>376.0</ele><time>2026-04-19T14:58:51.712Z</time></trkpt><trkpt lat="45.6597666" lon="11.2778037"><ele>371.5</ele><time>2026-04-19T14:58:52.712Z</time></trkpt><trkpt lat="45.659791" lon="11.2779737"><ele>367.0</ele><time>2026-04-19T14:58:53.712Z</time></trkpt><trkpt lat="45.659815" lon="11.2781355"><ele>364.0</ele><time>2026-04-19T14:58:54.712Z</time></trkpt><trkpt lat="45.6598451" lon="11.2782885"><ele>361.0</ele><time>2026-04-19T14:58:55.712Z</time></trkpt><trkpt lat="45.6598782" lon="11.2784338"><ele>358.0</ele><time>2026-04-19T14:58:56.711Z</time></trkpt><trkpt lat="45.659917" lon="11.2785793"><ele>355.0</ele><time>2026-04-19T14:58:57.711Z</time></trkpt><trkpt lat="45.6599597" lon="11.2787276"><ele>352.0</ele><time>2026-04-19T14:58:58.712Z</time></trkpt><trkpt lat="45.6599972" lon="11.2788866"><ele>350.25</ele><time>2026-04-19T14:58:59.711Z</time></trkpt><trkpt lat="45.660027" lon="11.2790548"><ele>348.5</ele><time>2026-04-19T14:59:00.711Z</time></trkpt><trkpt lat="45.6600499" lon="11.2792295"><ele>346.75</ele><time>2026-04-19T14:59:01.712Z</time></trkpt><trkpt lat="45.6600572" lon="11.279402"><ele>345.0</ele><time>2026-04-19T14:59:02.712Z</time></trkpt><trkpt lat="45.660062" lon="11.2795603"><ele>345.0</ele><time>2026-04-19T14:59:03.712Z</time></trkpt><trkpt lat="45.6600777" lon="11.279708"><ele>345.0</ele><time>2026-04-19T14:59:04.712Z</time></trkpt><trkpt lat="45.6601079" lon="11.2798499"><ele>345.0</ele><time>2026-04-19T14:59:05.711Z</time></trkpt><trkpt lat="45.6601531" lon="11.2799791"><ele>345.0</ele><time>2026-04-19T14:59:06.711Z</time></trkpt><trkpt lat="45.6602038" lon="11.2800922"><ele>345.0</ele><time>2026-04-19T14:59:07.712Z</time></trkpt><trkpt lat="45.6602593" lon="11.2801872"><ele>345.8</ele><time>2026-04-19T14:59:08.711Z</time></trkpt><trkpt lat="45.6603242" lon="11.2802656"><ele>346.6</ele><time>2026-04-19T14:59:09.712Z</time></trkpt><trkpt lat="45.6604027" lon="11.2803248"><ele>347.4</ele><time>2026-04-19T14:59:10.712Z</time></trkpt><trkpt lat="45.6604929" lon="11.2803576"><ele>348.2</ele><time>2026-04-19T14:59:11.711Z</time></trkpt><trkpt lat="45.6605883" lon="11.2803762"><ele>349.0</ele><time>2026-04-19T14:59:12.711Z</time></trkpt><trkpt lat="45.6606738" lon="11.2803994"><ele>349.0</ele><time>2026-04-19T14:59:13.711Z</time></trkpt><trkpt lat="45.6607511" lon="11.2804246"><ele>349.0</ele><time>2026-04-19T14:59:14.711Z</time></trkpt><trkpt lat="45.6608211" lon="11.2804488"><ele>349.0</ele><time>2026-04-19T14:59:15.712Z</time></trkpt><trkpt lat="45.6608846" lon="11.2804734"><ele>349.0</ele><time>2026-04-19T14:59:16.712Z</time></trkpt><trkpt lat="45.6609471" lon="11.280493"><ele>349.0</ele><time>2026-04-19T14:59:17.711Z</time></trkpt><trkpt lat="45.6610565" lon="11.2805688"><ele>349.0</ele><time>2026-04-19T14:59:19.712Z</time></trkpt><trkpt lat="45.6610983" lon="11.2806433"><ele>349.16666666666663</ele><time>2026-04-19T14:59:20.711Z</time></trkpt><trkpt lat="45.6611318" lon="11.2807412"><ele>349.3333333333333</ele><time>2026-04-19T14:59:21.711Z</time></trkpt><trkpt lat="45.6611529" lon="11.2808477"><ele>349.5</ele><time>2026-04-19T14:59:22.712Z</time></trkpt><trkpt lat="45.6611656" lon="11.2809564"><ele>349.6666666666667</ele><time>2026-04-19T14:59:23.711Z</time></trkpt><trkpt lat="45.6611918" lon="11.2810574"><ele>349.83333333333337</ele><time>2026-04-19T14:59:24.711Z</time></trkpt><trkpt lat="45.6612342" lon="11.2811399"><ele>350.0</ele><time>2026-04-19T14:59:25.711Z</time></trkpt><trkpt lat="45.661292" lon="11.2812193"><ele>350.0</ele><time>2026-04-19T14:59:26.712Z</time></trkpt><trkpt lat="45.6613567" lon="11.2813058"><ele>350.0</ele><time>2026-04-19T14:59:27.712Z</time></trkpt><trkpt lat="45.6614171" lon="11.281412"><ele>350.0</ele><time>2026-04-19T14:59:28.711Z</time></trkpt><trkpt lat="45.6614714" lon="11.2815353"><ele>350.0</ele><time>2026-04-19T14:59:29.712Z</time></trkpt><trkpt lat="45.6615262" lon="11.2816613"><ele>350.0</ele><time>2026-04-19T14:59:30.711Z</time></trkpt><trkpt lat="45.6615844" lon="11.281789"><ele>347.4</ele><time>2026-04-19T14:59:31.711Z</time></trkpt><trkpt lat="45.661643" lon="11.281918"><ele>344.8</ele><time>2026-04-19T14:59:32.711Z</time></trkpt><trkpt lat="45.6617067" lon="11.2820427"><ele>342.20000000000005</ele><time>2026-04-19T14:59:33.712Z</time></trkpt><trkpt lat="45.6617766" lon="11.2821563"><ele>339.6</ele><time>2026-04-19T14:59:34.712Z</time></trkpt><trkpt lat="45.6618509" lon="11.2822639"><ele>337.0</ele><time>2026-04-19T14:59:35.712Z</time></trkpt><trkpt lat="45.6619221" lon="11.2823707"><ele>335.0</ele><time>2026-04-19T14:59:36.711Z</time></trkpt><trkpt lat="45.6619949" lon="11.2824604"><ele>333.0</ele><time>2026-04-19T14:59:37.712Z</time></trkpt><trkpt lat="45.6620708" lon="11.2825437"><ele>331.0</ele><time>2026-04-19T14:59:38.712Z</time></trkpt><trkpt lat="45.6621419" lon="11.2826263"><ele>329.0</ele><time>2026-04-19T14:59:39.711Z</time></trkpt><trkpt lat="45.6622063" lon="11.2827093"><ele>327.0</ele><time>2026-04-19T14:59:40.711Z</time></trkpt><trkpt lat="45.6622643" lon="11.2827984"><ele>327.0</ele><time>2026-04-19T14:59:41.711Z</time></trkpt><trkpt lat="45.6623169" lon="11.2829156"><ele>327.0</ele><time>2026-04-19T14:59:42.712Z</time></trkpt><trkpt lat="45.6623729" lon="11.2830406"><ele>327.0</ele><time>2026-04-19T14:59:43.712Z</time></trkpt><trkpt lat="45.662423" lon="11.2831742"><ele>327.0</ele><time>2026-04-19T14:59:44.712Z</time></trkpt><trkpt lat="45.6624644" lon="11.2833161"><ele>327.0</ele><time>2026-04-19T14:59:45.712Z</time></trkpt><trkpt lat="45.6625018" lon="11.2834534"><ele>325.40000000000003</ele><time>2026-04-19T14:59:46.712Z</time></trkpt><trkpt lat="45.6625379" lon="11.2835884"><ele>323.8</ele><time>2026-04-19T14:59:47.711Z</time></trkpt><trkpt lat="45.6625723" lon="11.2837177"><ele>322.2</ele><time>2026-04-19T14:59:48.711Z</time></trkpt><trkpt lat="45.662601" lon="11.2838493"><ele>320.6</ele><time>2026-04-19T14:59:49.711Z</time></trkpt><trkpt lat="45.6626214" lon="11.283996"><ele>319.0</ele><time>2026-04-19T14:59:50.712Z</time></trkpt><trkpt lat="45.6626346" lon="11.2841493"><ele>318.4</ele><time>2026-04-19T14:59:51.711Z</time></trkpt><trkpt lat="45.6626444" lon="11.2843067"><ele>317.79999999999995</ele><time>2026-04-19T14:59:52.711Z</time></trkpt><trkpt lat="45.6626523" lon="11.2844555"><ele>317.20000000000005</ele><time>2026-04-19T14:59:53.711Z</time></trkpt><trkpt lat="45.6626708" lon="11.2845982"><ele>316.6</ele><time>2026-04-19T14:59:54.711Z</time></trkpt><trkpt lat="45.6626927" lon="11.2847396"><ele>316.0</ele><time>2026-04-19T14:59:55.712Z</time></trkpt><trkpt lat="45.6627172" lon="11.284884"><ele>315.40000000000003</ele><time>2026-04-19T14:59:56.711Z</time></trkpt><trkpt lat="45.6627425" lon="11.2850409"><ele>314.8</ele><time>2026-04-19T14:59:57.712Z</time></trkpt><trkpt lat="45.66277" lon="11.2851972"><ele>314.20000000000005</ele><time>2026-04-19T14:59:58.712Z</time></trkpt><trkpt lat="45.6627935" lon="11.2853381"><ele>313.6</ele><time>2026-04-19T14:59:59.711Z</time></trkpt><trkpt lat="45.6628214" lon="11.2854704"><ele>313.0</ele><time>2026-04-19T15:00:00.711Z</time></trkpt><trkpt lat="45.6628455" lon="11.2855966"><ele>314.0</ele><time>2026-04-19T15:00:01.712Z</time></trkpt><trkpt lat="45.6628725" lon="11.2857218"><ele>315.0</ele><time>2026-04-19T15:00:02.711Z</time></trkpt><trkpt lat="45.6628966" lon="11.285843"><ele>316.0</ele><time>2026-04-19T15:00:03.712Z</time></trkpt><trkpt lat="45.6629176" lon="11.2859593"><ele>317.0</ele><time>2026-04-19T15:00:04.712Z</time></trkpt><trkpt lat="45.6629378" lon="11.2860708"><ele>318.0</ele><time>2026-04-19T15:00:05.711Z</time></trkpt><trkpt lat="45.6629577" lon="11.2861761"><ele>319.0</ele><time>2026-04-19T15:00:06.712Z</time></trkpt><trkpt lat="45.6629761" lon="11.2862752"><ele>317.8</ele><time>2026-04-19T15:00:07.712Z</time></trkpt><trkpt lat="45.663005" lon="11.2864306"><ele>316.59999999999997</ele><time>2026-04-19T15:00:09.712Z</time></trkpt><trkpt lat="45.6630233" lon="11.2865274"><ele>315.4</ele><time>2026-04-19T15:00:11.711Z</time></trkpt><trkpt lat="45.6630476" lon="11.2866366"><ele>314.2</ele><time>2026-04-19T15:00:14.711Z</time></trkpt><trkpt lat="45.6631213" lon="11.286756"><ele>313.0</ele><time>2026-04-19T15:00:16.711Z</time></trkpt><trkpt lat="45.6631768" lon="11.2868335"><ele>313.0</ele><time>2026-04-19T15:00:17.711Z</time></trkpt><trkpt lat="45.6632411" lon="11.2869187"><ele>313.0</ele><time>2026-04-19T15:00:18.711Z</time></trkpt><trkpt lat="45.6633139" lon="11.2870071"><ele>313.0</ele><time>2026-04-19T15:00:19.712Z</time></trkpt><trkpt lat="45.6633876" lon="11.2871069"><ele>313.0</ele><time>2026-04-19T15:00:20.712Z</time></trkpt><trkpt lat="45.6634644" lon="11.2872004"><ele>313.0</ele><time>2026-04-19T15:00:21.712Z</time></trkpt><trkpt lat="45.6635416" lon="11.2873015"><ele>312.4</ele><time>2026-04-19T15:00:22.712Z</time></trkpt><trkpt lat="45.6636167" lon="11.2873955"><ele>311.8</ele><time>2026-04-19T15:00:23.711Z</time></trkpt><trkpt lat="45.6636876" lon="11.2874833"><ele>311.2</ele><time>2026-04-19T15:00:24.712Z</time></trkpt><trkpt lat="45.6637574" lon="11.2875695"><ele>310.6</ele><time>2026-04-19T15:00:25.712Z</time></trkpt><trkpt lat="45.6638311" lon="11.2876572"><ele>310.0</ele><time>2026-04-19T15:00:26.712Z</time></trkpt><trkpt lat="45.6639048" lon="11.2877465"><ele>310.0</ele><time>2026-04-19T15:00:27.712Z</time></trkpt><trkpt lat="45.6639751" lon="11.2878489"><ele>310.0</ele><time>2026-04-19T15:00:28.711Z</time></trkpt><trkpt lat="45.6640362" lon="11.2879717"><ele>310.0</ele><time>2026-04-19T15:00:29.712Z</time></trkpt><trkpt lat="45.6640927" lon="11.2881112"><ele>310.0</ele><time>2026-04-19T15:00:30.712Z</time></trkpt><trkpt lat="45.6641472" lon="11.2882587"><ele>310.0</ele><time>2026-04-19T15:00:31.711Z</time></trkpt><trkpt lat="45.6641981" lon="11.2884037"><ele>308.6</ele><time>2026-04-19T15:00:32.712Z</time></trkpt><trkpt lat="45.6642492" lon="11.288538"><ele>307.2</ele><time>2026-04-19T15:00:33.711Z</time></trkpt><trkpt lat="45.6643004" lon="11.2886644"><ele>305.8</ele><time>2026-04-19T15:00:34.711Z</time></trkpt><trkpt lat="45.6643525" lon="11.2887859"><ele>304.4</ele><time>2026-04-19T15:00:35.712Z</time></trkpt><trkpt lat="45.6643988" lon="11.2889027"><ele>303.0</ele><time>2026-04-19T15:00:36.711Z</time></trkpt><trkpt lat="45.6644387" lon="11.289017"><ele>302.3333333333333</ele><time>2026-04-19T15:00:37.711Z</time></trkpt><trkpt lat="45.664477" lon="11.289122"><ele>301.6666666666667</ele><time>2026-04-19T15:00:38.712Z</time></trkpt><trkpt lat="45.6645187" lon="11.2892242"><ele>301.0</ele><time>2026-04-19T15:00:39.712Z</time></trkpt><trkpt lat="45.6645572" lon="11.289319"><ele>300.33333333333337</ele><time>2026-04-19T15:00:40.712Z</time></trkpt><trkpt lat="45.6645935" lon="11.2894151"><ele>299.6666666666667</ele><time>2026-04-19T15:00:41.712Z</time></trkpt><trkpt lat="45.6646315" lon="11.2895115"><ele>299.0</ele><time>2026-04-19T15:00:42.711Z</time></trkpt><trkpt lat="45.6646669" lon="11.2896074"><ele>299.0</ele><time>2026-04-19T15:00:43.711Z</time></trkpt><trkpt lat="45.6646963" lon="11.2896963"><ele>299.0</ele><time>2026-04-19T15:00:44.712Z</time></trkpt><trkpt lat="45.6647432" lon="11.2898269"><ele>299.0</ele><time>2026-04-19T15:00:46.712Z</time></trkpt><trkpt lat="45.6647787" lon="11.2899079"><ele>299.0</ele><time>2026-04-19T15:00:48.711Z</time></trkpt><trkpt lat="45.6648394" lon="11.2899387"><ele>299.0</ele><time>2026-04-19T15:00:51.711Z</time></trkpt><trkpt lat="45.6649268" lon="11.2898596"><ele>299.0</ele><time>2026-04-19T15:00:53.711Z</time></trkpt><trkpt lat="45.6649776" lon="11.289788"><ele>299.0</ele><time>2026-04-19T15:00:54.712Z</time></trkpt><trkpt lat="45.6650413" lon="11.2896952"><ele>299.0</ele><time>2026-04-19T15:00:55.712Z</time></trkpt><trkpt lat="45.6651103" lon="11.2895866"><ele>299.0</ele><time>2026-04-19T15:00:56.712Z</time></trkpt><trkpt lat="45.6651786" lon="11.2894894"><ele>299.0</ele><time>2026-04-19T15:00:57.712Z</time></trkpt><trkpt lat="45.6652441" lon="11.2894055"><ele>299.0</ele><time>2026-04-19T15:00:58.712Z</time></trkpt><trkpt lat="45.6653026" lon="11.2893372"><ele>298.59999999999997</ele><time>2026-04-19T15:00:59.712Z</time></trkpt><trkpt lat="45.6653966" lon="11.2892496"><ele>298.2</ele><time>2026-04-19T15:01:01.712Z</time></trkpt><trkpt lat="45.6654683" lon="11.2892423"><ele>297.79999999999995</ele><time>2026-04-19T15:01:03.712Z</time></trkpt><trkpt lat="45.6655268" lon="11.2893671"><ele>297.4</ele><time>2026-04-19T15:01:05.712Z</time></trkpt><trkpt lat="45.6655892" lon="11.289507"><ele>297.0</ele><time>2026-04-19T15:01:07.712Z</time></trkpt><trkpt lat="45.6656929" lon="11.2895422"><ele>297.0</ele><time>2026-04-19T15:01:09.712Z</time></trkpt><trkpt lat="45.6657565" lon="11.2895436"><ele>297.0</ele><time>2026-04-19T15:01:10.712Z</time></trkpt><trkpt lat="45.6658274" lon="11.2895349"><ele>297.0</ele><time>2026-04-19T15:01:11.711Z</time></trkpt><trkpt lat="45.6659039" lon="11.2895153"><ele>297.0</ele><time>2026-04-19T15:01:12.711Z</time></trkpt><trkpt lat="45.6659766" lon="11.2894841"><ele>297.0</ele><time>2026-04-19T15:01:13.712Z</time></trkpt><trkpt lat="45.6660467" lon="11.2894329"><ele>297.0</ele><time>2026-04-19T15:01:14.712Z</time></trkpt><trkpt lat="45.6661218" lon="11.2893781"><ele>295.2</ele><time>2026-04-19T15:01:15.711Z</time></trkpt><trkpt lat="45.6661992" lon="11.2893276"><ele>293.4</ele><time>2026-04-19T15:01:16.712Z</time></trkpt><trkpt lat="45.6662627" lon="11.289279"><ele>291.6</ele><time>2026-04-19T15:01:17.712Z</time></trkpt><trkpt lat="45.6663228" lon="11.2892496"><ele>289.8</ele><time>2026-04-19T15:01:18.712Z</time></trkpt><trkpt lat="45.6664234" lon="11.2892661"><ele>288.0</ele><time>2026-04-19T15:01:20.712Z</time></trkpt><trkpt lat="45.6665279" lon="11.2894038"><ele>288.0</ele><time>2026-04-19T15:01:22.712Z</time></trkpt><trkpt lat="45.666574" lon="11.2895305"><ele>288.0</ele><time>2026-04-19T15:01:23.711Z</time></trkpt><trkpt lat="45.6666203" lon="11.2896682"><ele>288.0</ele><time>2026-04-19T15:01:24.712Z</time></trkpt><trkpt lat="45.6666722" lon="11.2898016"><ele>288.0</ele><time>2026-04-19T15:01:25.712Z</time></trkpt><trkpt lat="45.6667247" lon="11.289929"><ele>288.0</ele><time>2026-04-19T15:01:26.711Z</time></trkpt><trkpt lat="45.6667847" lon="11.2900355"><ele>288.3333333333333</ele><time>2026-04-19T15:01:27.711Z</time></trkpt><trkpt lat="45.6668478" lon="11.2901337"><ele>288.6666666666667</ele><time>2026-04-19T15:01:28.712Z</time></trkpt><trkpt lat="45.6669076" lon="11.290238"><ele>289.0</ele><time>2026-04-19T15:01:29.711Z</time></trkpt><trkpt lat="45.6669631" lon="11.2903325"><ele>289.33333333333337</ele><time>2026-04-19T15:01:30.711Z</time></trkpt><trkpt lat="45.6670133" lon="11.2904094"><ele>289.6666666666667</ele><time>2026-04-19T15:01:31.712Z</time></trkpt><trkpt lat="45.6670429" lon="11.2904923"><ele>290.0</ele><time>2026-04-19T15:01:32.712Z</time></trkpt><trkpt lat="45.6670568" lon="11.2905802"><ele>290.33333333333337</ele><time>2026-04-19T15:01:33.712Z</time></trkpt><trkpt lat="45.6670572" lon="11.2906745"><ele>290.6666666666667</ele><time>2026-04-19T15:01:34.712Z</time></trkpt><trkpt lat="45.667065" lon="11.29077"><ele>291.0</ele><time>2026-04-19T15:01:35.711Z</time></trkpt><trkpt lat="45.6671001" lon="11.2908674"><ele>291.3333333333333</ele><time>2026-04-19T15:01:36.711Z</time></trkpt><trkpt lat="45.6671575" lon="11.2909695"><ele>291.66666666666663</ele><time>2026-04-19T15:01:37.712Z</time></trkpt><trkpt lat="45.6672238" lon="11.2910708"><ele>292.0</ele><time>2026-04-19T15:01:38.712Z</time></trkpt><trkpt lat="45.667281" lon="11.2911654"><ele>292.0</ele><time>2026-04-19T15:01:39.712Z</time></trkpt><trkpt lat="45.6673239" lon="11.2912508"><ele>292.0</ele><time>2026-04-19T15:01:40.712Z</time></trkpt><trkpt lat="45.6673416" lon="11.2914319"><ele>292.0</ele><time>2026-04-19T15:01:42.711Z</time></trkpt><trkpt lat="45.6673179" lon="11.2915427"><ele>292.0</ele><time>2026-04-19T15:01:43.712Z</time></trkpt><trkpt lat="45.6672973" lon="11.2916504"><ele>292.0</ele><time>2026-04-19T15:01:44.712Z</time></trkpt><trkpt lat="45.6672833" lon="11.2917425"><ele>292.0</ele><time>2026-04-19T15:01:45.712Z</time></trkpt><trkpt lat="45.6672585" lon="11.2918941"><ele>292.4</ele><time>2026-04-19T15:01:47.712Z</time></trkpt><trkpt lat="45.6672674" lon="11.2920357"><ele>292.79999999999995</ele><time>2026-04-19T15:01:49.711Z</time></trkpt><trkpt lat="45.6673609" lon="11.2921973"><ele>293.2</ele><time>2026-04-19T15:01:51.711Z</time></trkpt><trkpt lat="45.6674326" lon="11.2922969"><ele>293.59999999999997</ele><time>2026-04-19T15:01:52.712Z</time></trkpt><trkpt lat="45.6674937" lon="11.2924122"><ele>294.0</ele><time>2026-04-19T15:01:53.712Z</time></trkpt><trkpt lat="45.6675561" lon="11.2925399"><ele>294.5</ele><time>2026-04-19T15:01:54.712Z</time></trkpt><trkpt lat="45.6676145" lon="11.292664"><ele>295.0</ele><time>2026-04-19T15:01:55.711Z</time></trkpt><trkpt lat="45.6676603" lon="11.2927671"><ele>295.5</ele><time>2026-04-19T15:01:56.711Z</time></trkpt><trkpt lat="45.667704" lon="11.292882"><ele>296.0</ele><time>2026-04-19T15:01:58.711Z</time></trkpt><trkpt lat="45.6677067" lon="11.2927717"><ele>296.5</ele><time>2026-04-19T15:02:04.711Z</time></trkpt><trkpt lat="45.66765" lon="11.2927283"><ele>297.0</ele><time>2026-04-19T15:03:05.712Z</time></trkpt><trkpt lat="45.667735" lon="11.29277"><ele>297.0</ele><time>2026-04-19T15:03:33.712Z</time></trkpt><trkpt lat="45.6677733" lon="11.2928933"><ele>297.0</ele><time>2026-04-19T15:03:35.712Z</time></trkpt><trkpt lat="45.6678183" lon="11.2930083"><ele>297.0</ele><time>2026-04-19T15:03:37.712Z</time></trkpt><trkpt lat="45.6678867" lon="11.2931683"><ele>297.0</ele><time>2026-04-19T15:03:39.712Z</time></trkpt><trkpt lat="45.6679267" lon="11.2932517"><ele>297.0</ele><time>2026-04-19T15:03:40.712Z</time></trkpt><trkpt lat="45.66798" lon="11.2933383"><ele>298.0</ele><time>2026-04-19T15:03:41.711Z</time></trkpt><trkpt lat="45.6680233" lon="11.2934133"><ele>299.0</ele><time>2026-04-19T15:03:42.712Z</time></trkpt><trkpt lat="45.6680867" lon="11.2935417"><ele>300.0</ele><time>2026-04-19T15:03:44.711Z</time></trkpt><trkpt lat="45.6681017" lon="11.29367"><ele>301.0</ele><time>2026-04-19T15:03:46.711Z</time></trkpt><trkpt lat="45.6680633" lon="11.2938483"><ele>302.0</ele><time>2026-04-19T15:03:48.711Z</time></trkpt><trkpt lat="45.668015" lon="11.29396"><ele>302.4</ele><time>2026-04-19T15:03:49.711Z</time></trkpt><trkpt lat="45.667955" lon="11.29408"><ele>302.79999999999995</ele><time>2026-04-19T15:03:50.712Z</time></trkpt><trkpt lat="45.6679033" lon="11.2942033"><ele>303.2</ele><time>2026-04-19T15:03:51.711Z</time></trkpt><trkpt lat="45.6678667" lon="11.2943383"><ele>303.59999999999997</ele><time>2026-04-19T15:03:52.712Z</time></trkpt><trkpt lat="45.6678283" lon="11.2944733"><ele>304.0</ele><time>2026-04-19T15:03:53.711Z</time></trkpt><trkpt lat="45.6678083" lon="11.294635"><ele>303.4</ele><time>2026-04-19T15:03:54.712Z</time></trkpt><trkpt lat="45.6677917" lon="11.294755"><ele>302.79999999999995</ele><time>2026-04-19T15:03:55.712Z</time></trkpt><trkpt lat="45.66778" lon="11.294925"><ele>302.20000000000005</ele><time>2026-04-19T15:03:56.711Z</time></trkpt><trkpt lat="45.6677533" lon="11.295075"><ele>301.6</ele><time>2026-04-19T15:03:57.711Z</time></trkpt><trkpt lat="45.6677167" lon="11.295215"><ele>301.0</ele><time>2026-04-19T15:03:58.711Z</time></trkpt><trkpt lat="45.667655" lon="11.2953367"><ele>300.2</ele><time>2026-04-19T15:03:59.712Z</time></trkpt><trkpt lat="45.6675783" lon="11.2954283"><ele>299.40000000000003</ele><time>2026-04-19T15:04:00.712Z</time></trkpt><trkpt lat="45.6674867" lon="11.2955067"><ele>298.6</ele><time>2026-04-19T15:04:01.711Z</time></trkpt><trkpt lat="45.6673917" lon="11.2955617"><ele>297.8</ele><time>2026-04-19T15:04:02.712Z</time></trkpt><trkpt lat="45.6672783" lon="11.295595"><ele>297.0</ele><time>2026-04-19T15:04:03.711Z</time></trkpt><trkpt lat="45.6671583" lon="11.2956317"><ele>297.0</ele><time>2026-04-19T15:04:04.712Z</time></trkpt><trkpt lat="45.6670233" lon="11.29566"><ele>297.0</ele><time>2026-04-19T15:04:05.711Z</time></trkpt><trkpt lat="45.6668867" lon="11.295685"><ele>297.0</ele><time>2026-04-19T15:04:06.712Z</time></trkpt><trkpt lat="45.6667583" lon="11.2956883"><ele>297.0</ele><time>2026-04-19T15:04:07.712Z</time></trkpt><trkpt lat="45.6666317" lon="11.2956717"><ele>296.75</ele><time>2026-04-19T15:04:08.712Z</time></trkpt><trkpt lat="45.6665133" lon="11.2956483"><ele>296.5</ele><time>2026-04-19T15:04:09.712Z</time></trkpt><trkpt lat="45.6663933" lon="11.2956133"><ele>296.25</ele><time>2026-04-19T15:04:10.712Z</time></trkpt><trkpt lat="45.6662783" lon="11.2955767"><ele>296.0</ele><time>2026-04-19T15:04:11.711Z</time></trkpt><trkpt lat="45.6661433" lon="11.2955467"><ele>295.25</ele><time>2026-04-19T15:04:12.711Z</time></trkpt><trkpt lat="45.6660117" lon="11.295535"><ele>294.5</ele><time>2026-04-19T15:04:13.712Z</time></trkpt><trkpt lat="45.6658867" lon="11.2955383"><ele>293.75</ele><time>2026-04-19T15:04:14.711Z</time></trkpt><trkpt lat="45.665765" lon="11.2955567"><ele>293.0</ele><time>2026-04-19T15:04:15.712Z</time></trkpt><trkpt lat="45.66565" lon="11.29558"><ele>293.0</ele><time>2026-04-19T15:04:16.712Z</time></trkpt><trkpt lat="45.66553" lon="11.2956233"><ele>293.0</ele><time>2026-04-19T15:04:17.712Z</time></trkpt><trkpt lat="45.6654133" lon="11.2956783"><ele>293.0</ele><time>2026-04-19T15:04:18.711Z</time></trkpt><trkpt lat="45.66529" lon="11.295755"><ele>293.0</ele><time>2026-04-19T15:04:19.712Z</time></trkpt><trkpt lat="45.6651733" lon="11.2958317"><ele>293.0</ele><time>2026-04-19T15:04:20.712Z</time></trkpt><trkpt lat="45.66506" lon="11.2959183"><ele>293.0</ele><time>2026-04-19T15:04:21.712Z</time></trkpt><trkpt lat="45.6649417" lon="11.2959967"><ele>293.0</ele><time>2026-04-19T15:04:22.712Z</time></trkpt><trkpt lat="45.6648317" lon="11.2960683"><ele>293.0</ele><time>2026-04-19T15:04:23.711Z</time></trkpt><trkpt lat="45.6647233" lon="11.2961317"><ele>293.0</ele><time>2026-04-19T15:04:24.711Z</time></trkpt><trkpt lat="45.6646167" lon="11.296185"><ele>293.0</ele><time>2026-04-19T15:04:25.711Z</time></trkpt><trkpt lat="45.6645133" lon="11.296245"><ele>293.0</ele><time>2026-04-19T15:04:26.712Z</time></trkpt><trkpt lat="45.6644067" lon="11.296315"><ele>293.0</ele><time>2026-04-19T15:04:27.712Z</time></trkpt><trkpt lat="45.6642967" lon="11.2963783"><ele>294.5</ele><time>2026-04-19T15:04:28.711Z</time></trkpt><trkpt lat="45.6641867" lon="11.29645"><ele>296.0</ele><time>2026-04-19T15:04:29.712Z</time></trkpt><trkpt lat="45.6640717" lon="11.2965133"><ele>297.5</ele><time>2026-04-19T15:04:30.712Z</time></trkpt><trkpt lat="45.6639517" lon="11.2965567"><ele>299.0</ele><time>2026-04-19T15:04:31.711Z</time></trkpt><trkpt lat="45.6638317" lon="11.2965833"><ele>299.0</ele><time>2026-04-19T15:04:32.712Z</time></trkpt><trkpt lat="45.6637117" lon="11.29661"><ele>299.0</ele><time>2026-04-19T15:04:33.712Z</time></trkpt><trkpt lat="45.6636" lon="11.2966233"><ele>299.0</ele><time>2026-04-19T15:04:34.711Z</time></trkpt><trkpt lat="45.6634967" lon="11.2966283"><ele>299.0</ele><time>2026-04-19T15:04:35.712Z</time></trkpt><trkpt lat="45.6633867" lon="11.29662"><ele>299.0</ele><time>2026-04-19T15:04:36.712Z</time></trkpt><trkpt lat="45.6632733" lon="11.296605"><ele>297.4</ele><time>2026-04-19T15:04:37.712Z</time></trkpt><trkpt lat="45.6631533" lon="11.2965833"><ele>295.79999999999995</ele><time>2026-04-19T15:04:38.712Z</time></trkpt><trkpt lat="45.6630433" lon="11.296555"><ele>294.20000000000005</ele><time>2026-04-19T15:04:39.712Z</time></trkpt><trkpt lat="45.66295" lon="11.2965233"><ele>292.6</ele><time>2026-04-19T15:04:40.712Z</time></trkpt><trkpt lat="45.6628683" lon="11.2964967"><ele>291.0</ele><time>2026-04-19T15:04:41.711Z</time></trkpt><trkpt lat="45.6627833" lon="11.2964617"><ele>289.3333333333333</ele><time>2026-04-19T15:04:42.712Z</time></trkpt><trkpt lat="45.6627" lon="11.296455"><ele>287.6666666666667</ele><time>2026-04-19T15:04:43.712Z</time></trkpt><trkpt lat="45.662625" lon="11.2964833"><ele>286.0</ele><time>2026-04-19T15:04:44.712Z</time></trkpt><trkpt lat="45.6625567" lon="11.2965367"><ele>284.33333333333337</ele><time>2026-04-19T15:04:45.711Z</time></trkpt><trkpt lat="45.6625033" lon="11.2966167"><ele>282.6666666666667</ele><time>2026-04-19T15:04:46.712Z</time></trkpt><trkpt lat="45.6624617" lon="11.2967317"><ele>281.0</ele><time>2026-04-19T15:04:47.712Z</time></trkpt><trkpt lat="45.6624217" lon="11.2968517"><ele>281.0</ele><time>2026-04-19T15:04:48.711Z</time></trkpt><trkpt lat="45.6623783" lon="11.2969633"><ele>281.0</ele><time>2026-04-19T15:04:49.712Z</time></trkpt><trkpt lat="45.662325" lon="11.2970717"><ele>281.0</ele><time>2026-04-19T15:04:50.711Z</time></trkpt><trkpt lat="45.6622583" lon="11.2971783"><ele>281.0</ele><time>2026-04-19T15:04:51.712Z</time></trkpt><trkpt lat="45.6621883" lon="11.2972917"><ele>281.0</ele><time>2026-04-19T15:04:52.712Z</time></trkpt><trkpt lat="45.6621133" lon="11.2974033"><ele>281.8</ele><time>2026-04-19T15:04:53.711Z</time></trkpt><trkpt lat="45.662035" lon="11.2974983"><ele>282.6</ele><time>2026-04-19T15:04:54.712Z</time></trkpt><trkpt lat="45.6619517" lon="11.29759"><ele>283.4</ele><time>2026-04-19T15:04:55.712Z</time></trkpt><trkpt lat="45.6618667" lon="11.2976683"><ele>284.2</ele><time>2026-04-19T15:04:56.712Z</time></trkpt><trkpt lat="45.661775" lon="11.2977383"><ele>285.0</ele><time>2026-04-19T15:04:57.712Z</time></trkpt><trkpt lat="45.6616717" lon="11.2978183"><ele>284.25</ele><time>2026-04-19T15:04:58.712Z</time></trkpt><trkpt lat="45.6615633" lon="11.2979083"><ele>283.5</ele><time>2026-04-19T15:04:59.712Z</time></trkpt><trkpt lat="45.66145" lon="11.2979967"><ele>282.75</ele><time>2026-04-19T15:05:00.712Z</time></trkpt><trkpt lat="45.6613267" lon="11.298085"><ele>282.0</ele><time>2026-04-19T15:05:01.712Z</time></trkpt><trkpt lat="45.6611933" lon="11.2981383"><ele>280.0</ele><time>2026-04-19T15:05:02.711Z</time></trkpt><trkpt lat="45.6610633" lon="11.298175"><ele>278.0</ele><time>2026-04-19T15:05:03.711Z</time></trkpt><trkpt lat="45.660945" lon="11.2982217"><ele>276.0</ele><time>2026-04-19T15:05:04.711Z</time></trkpt><trkpt lat="45.660825" lon="11.2982717"><ele>274.0</ele><time>2026-04-19T15:05:05.712Z</time></trkpt><trkpt lat="45.6606933" lon="11.2983117"><ele>274.0</ele><time>2026-04-19T15:05:06.712Z</time></trkpt><trkpt lat="45.6605733" lon="11.2983483"><ele>274.0</ele><time>2026-04-19T15:05:07.711Z</time></trkpt><trkpt lat="45.660455" lon="11.29838"><ele>274.0</ele><time>2026-04-19T15:05:08.711Z</time></trkpt><trkpt lat="45.66032" lon="11.298395"><ele>274.0</ele><time>2026-04-19T15:05:09.712Z</time></trkpt><trkpt lat="45.6601917" lon="11.2983767"><ele>273.0</ele><time>2026-04-19T15:05:10.711Z</time></trkpt><trkpt lat="45.6600617" lon="11.2983383"><ele>272.0</ele><time>2026-04-19T15:05:11.712Z</time></trkpt><trkpt lat="45.6599467" lon="11.2982817"><ele>271.0</ele><time>2026-04-19T15:05:12.711Z</time></trkpt><trkpt lat="45.65982" lon="11.2982317"><ele>270.0</ele><time>2026-04-19T15:05:13.712Z</time></trkpt><trkpt lat="45.6597033" lon="11.2981633"><ele>270.0</ele><time>2026-04-19T15:05:14.712Z</time></trkpt><trkpt lat="45.6595883" lon="11.2980983"><ele>270.0</ele><time>2026-04-19T15:05:15.712Z</time></trkpt><trkpt lat="45.65947" lon="11.2980283"><ele>270.0</ele><time>2026-04-19T15:05:16.711Z</time></trkpt><trkpt lat="45.65935" lon="11.29798"><ele>270.0</ele><time>2026-04-19T15:05:17.712Z</time></trkpt><trkpt lat="45.659235" lon="11.2979267"><ele>269.6</ele><time>2026-04-19T15:05:18.711Z</time></trkpt><trkpt lat="45.6591267" lon="11.2978817"><ele>269.2</ele><time>2026-04-19T15:05:19.712Z</time></trkpt><trkpt lat="45.659025" lon="11.2978583"><ele>268.8</ele><time>2026-04-19T15:05:20.711Z</time></trkpt><trkpt lat="45.6589333" lon="11.2978733"><ele>268.4</ele><time>2026-04-19T15:05:21.712Z</time></trkpt><trkpt lat="45.65884" lon="11.29792"><ele>268.0</ele><time>2026-04-19T15:05:22.712Z</time></trkpt><trkpt lat="45.6587583" lon="11.2979867"><ele>268.0</ele><time>2026-04-19T15:05:23.711Z</time></trkpt><trkpt lat="45.6586767" lon="11.29808"><ele>268.0</ele><time>2026-04-19T15:05:24.712Z</time></trkpt><trkpt lat="45.658595" lon="11.2981867"><ele>268.0</ele><time>2026-04-19T15:05:25.711Z</time></trkpt><trkpt lat="45.6585017" lon="11.2982933"><ele>268.0</ele><time>2026-04-19T15:05:26.711Z</time></trkpt><trkpt lat="45.6583967" lon="11.2984017"><ele>268.0</ele><time>2026-04-19T15:05:27.711Z</time></trkpt><trkpt lat="45.6582817" lon="11.2984983"><ele>268.0</ele><time>2026-04-19T15:05:28.711Z</time></trkpt><trkpt lat="45.65816" lon="11.2985883"><ele>268.0</ele><time>2026-04-19T15:05:29.711Z</time></trkpt><trkpt lat="45.6580333" lon="11.29866"><ele>268.0</ele><time>2026-04-19T15:05:30.711Z</time></trkpt><trkpt lat="45.6579183" lon="11.2987167"><ele>268.0</ele><time>2026-04-19T15:05:31.712Z</time></trkpt><trkpt lat="45.6578067" lon="11.2987717"><ele>268.0</ele><time>2026-04-19T15:05:32.712Z</time></trkpt><trkpt lat="45.6576967" lon="11.298835"><ele>268.0</ele><time>2026-04-19T15:05:33.712Z</time></trkpt><trkpt lat="45.6575817" lon="11.2988983"><ele>268.0</ele><time>2026-04-19T15:05:34.712Z</time></trkpt><trkpt lat="45.6574683" lon="11.2989767"><ele>267.75</ele><time>2026-04-19T15:05:35.712Z</time></trkpt><trkpt lat="45.657355" lon="11.29907"><ele>267.5</ele><time>2026-04-19T15:05:36.711Z</time></trkpt><trkpt lat="45.6572433" lon="11.2992017"><ele>267.25</ele><time>2026-04-19T15:05:37.712Z</time></trkpt><trkpt lat="45.6571317" lon="11.2993283"><ele>267.0</ele><time>2026-04-19T15:05:38.711Z</time></trkpt><trkpt lat="45.6570183" lon="11.29944"><ele>266.75</ele><time>2026-04-19T15:05:39.711Z</time></trkpt><trkpt lat="45.656915" lon="11.299545"><ele>266.5</ele><time>2026-04-19T15:05:40.712Z</time></trkpt><trkpt lat="45.6568183" lon="11.2996633"><ele>266.25</ele><time>2026-04-19T15:05:41.712Z</time></trkpt><trkpt lat="45.65672" lon="11.2997767"><ele>266.0</ele><time>2026-04-19T15:05:42.711Z</time></trkpt><trkpt lat="45.6566267" lon="11.2998717"><ele>266.0</ele><time>2026-04-19T15:05:43.711Z</time></trkpt><trkpt lat="45.6565317" lon="11.299955"><ele>266.0</ele><time>2026-04-19T15:05:44.711Z</time></trkpt><trkpt lat="45.6564567" lon="11.3000433"><ele>266.0</ele><time>2026-04-19T15:05:45.712Z</time></trkpt><trkpt lat="45.6563883" lon="11.3001433"><ele>266.0</ele><time>2026-04-19T15:05:46.712Z</time></trkpt><trkpt lat="45.6563233" lon="11.3002367"><ele>266.0</ele><time>2026-04-19T15:05:47.711Z</time></trkpt><trkpt lat="45.6562667" lon="11.3003483"><ele>266.0</ele><time>2026-04-19T15:05:48.711Z</time></trkpt><trkpt lat="45.656215" lon="11.30045"><ele>266.0</ele><time>2026-04-19T15:05:49.712Z</time></trkpt><trkpt lat="45.65616" lon="11.3005367"><ele>266.0</ele><time>2026-04-19T15:05:50.711Z</time></trkpt><trkpt lat="45.6561067" lon="11.3006017"><ele>266.0</ele><time>2026-04-19T15:05:51.712Z</time></trkpt><trkpt lat="45.6560083" lon="11.3006817"><ele>266.0</ele><time>2026-04-19T15:05:53.712Z</time></trkpt><trkpt lat="45.65594" lon="11.3007867"><ele>266.2</ele><time>2026-04-19T15:05:55.711Z</time></trkpt><trkpt lat="45.6559233" lon="11.3009533"><ele>266.40000000000003</ele><time>2026-04-19T15:05:57.712Z</time></trkpt><trkpt lat="45.6559617" lon="11.3011117"><ele>266.6</ele><time>2026-04-19T15:05:59.711Z</time></trkpt><trkpt lat="45.6559933" lon="11.30121"><ele>266.8</ele><time>2026-04-19T15:06:00.712Z</time></trkpt><trkpt lat="45.6560283" lon="11.301315"><ele>267.0</ele><time>2026-04-19T15:06:01.711Z</time></trkpt><trkpt lat="45.6560617" lon="11.3014217"><ele>267.0</ele><time>2026-04-19T15:06:02.712Z</time></trkpt><trkpt lat="45.656105" lon="11.301545"><ele>267.0</ele><time>2026-04-19T15:06:03.711Z</time></trkpt><trkpt lat="45.65616" lon="11.3016683"><ele>267.0</ele><time>2026-04-19T15:06:04.712Z</time></trkpt><trkpt lat="45.6562217" lon="11.3017967"><ele>267.0</ele><time>2026-04-19T15:06:05.711Z</time></trkpt><trkpt lat="45.6562933" lon="11.3019267"><ele>267.0</ele><time>2026-04-19T15:06:06.712Z</time></trkpt><trkpt lat="45.656365" lon="11.3020567"><ele>268.5</ele><time>2026-04-19T15:06:07.712Z</time></trkpt><trkpt lat="45.6564333" lon="11.30219"><ele>270.0</ele><time>2026-04-19T15:06:08.712Z</time></trkpt><trkpt lat="45.6565083" lon="11.3023267"><ele>271.5</ele><time>2026-04-19T15:06:09.711Z</time></trkpt><trkpt lat="45.65658" lon="11.3024817"><ele>273.0</ele><time>2026-04-19T15:06:10.711Z</time></trkpt><trkpt lat="45.6566517" lon="11.3026467"><ele>274.0</ele><time>2026-04-19T15:06:11.711Z</time></trkpt><trkpt lat="45.6566967" lon="11.3028133"><ele>275.0</ele><time>2026-04-19T15:06:12.712Z</time></trkpt><trkpt lat="45.6567283" lon="11.3029833"><ele>276.0</ele><time>2026-04-19T15:06:13.712Z</time></trkpt><trkpt lat="45.656755" lon="11.30314"><ele>277.0</ele><time>2026-04-19T15:06:14.712Z</time></trkpt><trkpt lat="45.65678" lon="11.3032783"><ele>277.1428571428571</ele><time>2026-04-19T15:06:15.712Z</time></trkpt><trkpt lat="45.656795" lon="11.3033967"><ele>277.2857142857143</ele><time>2026-04-19T15:06:16.711Z</time></trkpt><trkpt lat="45.6567883" lon="11.3034933"><ele>277.42857142857144</ele><time>2026-04-19T15:06:17.711Z</time></trkpt><trkpt lat="45.6567633" lon="11.303585"><ele>277.57142857142856</ele><time>2026-04-19T15:06:18.712Z</time></trkpt><trkpt lat="45.656725" lon="11.3036617"><ele>277.7142857142857</ele><time>2026-04-19T15:06:19.712Z</time></trkpt><trkpt lat="45.656665" lon="11.303715"><ele>277.85714285714283</ele><time>2026-04-19T15:06:20.712Z</time></trkpt><trkpt lat="45.6565833" lon="11.303755"><ele>278.0</ele><time>2026-04-19T15:06:21.712Z</time></trkpt><trkpt lat="45.6564867" lon="11.30379"><ele>278.0</ele><time>2026-04-19T15:06:22.711Z</time></trkpt><trkpt lat="45.6563733" lon="11.303815"><ele>278.0</ele><time>2026-04-19T15:06:23.711Z</time></trkpt><trkpt lat="45.6562517" lon="11.3038433"><ele>278.0</ele><time>2026-04-19T15:06:24.711Z</time></trkpt><trkpt lat="45.6561433" lon="11.303885"><ele>278.0</ele><time>2026-04-19T15:06:25.712Z</time></trkpt><trkpt lat="45.6560483" lon="11.303945"><ele>278.0</ele><time>2026-04-19T15:06:26.712Z</time></trkpt><trkpt lat="45.6559767" lon="11.304015"><ele>278.0</ele><time>2026-04-19T15:06:27.712Z</time></trkpt><trkpt lat="45.6559167" lon="11.3041067"><ele>278.0</ele><time>2026-04-19T15:06:28.711Z</time></trkpt><trkpt lat="45.6558633" lon="11.3041967"><ele>278.0</ele><time>2026-04-19T15:06:29.712Z</time></trkpt><trkpt lat="45.65581" lon="11.30427"><ele>278.0</ele><time>2026-04-19T15:06:30.711Z</time></trkpt><trkpt lat="45.65576" lon="11.30433"><ele>278.0</ele><time>2026-04-19T15:06:31.712Z</time></trkpt><trkpt lat="45.655685" lon="11.3044017"><ele>278.0</ele><time>2026-04-19T15:06:33.712Z</time></trkpt><trkpt lat="45.6555983" lon="11.30444"><ele>278.0</ele><time>2026-04-19T15:06:37.711Z</time></trkpt><trkpt lat="45.6554883" lon="11.3044667"><ele>278.0</ele><time>2026-04-19T15:06:39.711Z</time></trkpt><trkpt lat="45.655415" lon="11.3044783"><ele>278.0</ele><time>2026-04-19T15:06:40.711Z</time></trkpt><trkpt lat="45.6553233" lon="11.3044867"><ele>278.0</ele><time>2026-04-19T15:06:41.711Z</time></trkpt><trkpt lat="45.6552283" lon="11.304515"><ele>277.5</ele><time>2026-04-19T15:06:42.711Z</time></trkpt><trkpt lat="45.6551083" lon="11.3045267"><ele>277.0</ele><time>2026-04-19T15:06:43.712Z</time></trkpt><trkpt lat="45.6549767" lon="11.30453"><ele>276.5</ele><time>2026-04-19T15:06:44.712Z</time></trkpt><trkpt lat="45.65486" lon="11.3045367"><ele>276.0</ele><time>2026-04-19T15:06:45.711Z</time></trkpt><trkpt lat="45.654745" lon="11.3045367"><ele>276.0</ele><time>2026-04-19T15:06:46.711Z</time></trkpt><trkpt lat="45.654635" lon="11.3045333"><ele>276.0</ele><time>2026-04-19T15:06:47.711Z</time></trkpt><trkpt lat="45.6545483" lon="11.3045183"><ele>276.0</ele><time>2026-04-19T15:06:48.712Z</time></trkpt><trkpt lat="45.6544733" lon="11.3045033"><ele>276.0</ele><time>2026-04-19T15:06:49.711Z</time></trkpt><trkpt lat="45.6544" lon="11.3044767"><ele>276.0</ele><time>2026-04-19T15:06:50.712Z</time></trkpt><trkpt lat="45.6543333" lon="11.3044333"><ele>276.0</ele><time>2026-04-19T15:06:51.712Z</time></trkpt><trkpt lat="45.6542683" lon="11.3043717"><ele>275.1666666666667</ele><time>2026-04-19T15:06:52.712Z</time></trkpt><trkpt lat="45.6542033" lon="11.30431"><ele>274.3333333333333</ele><time>2026-04-19T15:06:53.712Z</time></trkpt><trkpt lat="45.65413" lon="11.3042533"><ele>273.5</ele><time>2026-04-19T15:06:54.711Z</time></trkpt><trkpt lat="45.6540533" lon="11.3042033"><ele>272.66666666666663</ele><time>2026-04-19T15:06:55.711Z</time></trkpt><trkpt lat="45.6539933" lon="11.3041633"><ele>271.8333333333333</ele><time>2026-04-19T15:06:56.712Z</time></trkpt><trkpt lat="45.6539367" lon="11.30412"><ele>271.0</ele><time>2026-04-19T15:06:57.712Z</time></trkpt><trkpt lat="45.653845" lon="11.30404"><ele>271.0</ele><time>2026-04-19T15:06:59.711Z</time></trkpt><trkpt lat="45.6537917" lon="11.30395"><ele>271.0</ele><time>2026-04-19T15:07:02.712Z</time></trkpt><trkpt lat="45.65385" lon="11.3039017"><ele>271.0</ele><time>2026-04-19T15:07:05.712Z</time></trkpt><trkpt lat="45.6539517" lon="11.3038567"><ele>271.0</ele><time>2026-04-19T15:07:08.711Z</time></trkpt><trkpt lat="45.65404" lon="11.30383"><ele>271.0</ele><time>2026-04-19T15:07:10.712Z</time></trkpt><trkpt lat="45.6541067" lon="11.3038183"><ele>271.0</ele><time>2026-04-19T15:07:12.712Z</time></trkpt><trkpt lat="45.6542317" lon="11.3038217"><ele>269.0</ele><time>2026-04-19T15:08:35.712Z</time></trkpt><trkpt lat="45.6541633" lon="11.303795"><ele>269.0</ele><time>2026-04-19T15:09:19.712Z</time></trkpt><trkpt lat="45.654215" lon="11.303875"><ele>269.0</ele><time>2026-04-19T15:09:55.712Z</time></trkpt><trkpt lat="45.6542217" lon="11.30397"><ele>271.0</ele><time>2026-04-19T15:10:00.711Z</time></trkpt><trkpt lat="45.6541583" lon="11.3039933"><ele>271.0</ele><time>2026-04-19T15:10:05.712Z</time></trkpt><trkpt lat="45.6542233" lon="11.3039867"><ele>271.0</ele><time>2026-04-19T15:10:09.711Z</time></trkpt></trkseg></trk></gpx>